
Distance (Route):
Temperature : 14.4°C
Humidity : 67.0%
Pressure : 944.7hPa| Receiver | Frames | First received | Last received |
|---|---|---|---|
| DM0DOS-11 | 623 | 2026-09-01 21:43:21 | 2026-09-01 23:31:44 |
| BIOWL1-15 | 559 | 2026-09-01 21:45:41 | 2026-09-01 23:30:25 |
| DL1XH-west | 254 | 2026-09-01 22:18:02 | 2026-09-01 23:06:37 |
| DL1XH1-15 | 224 | 2026-09-01 22:17:42 | 2026-09-01 23:07:12 |
| GOEST3-10 | 149 | 2026-09-01 22:28:53 | 2026-09-01 23:09:53 |
| DB0UT-7 | 128 | 2026-09-01 21:38:45 | 2026-09-01 23:32:41 |
| NBG1-10 | 11 | 2026-09-01 22:32:25 | 2026-09-01 23:15:58 |
| Receiver | Date | Latitude | Longitude | Direction | Speed | Altitude | Climb | Temperature | Humidity | Pressure | Voltage | Killtimer | Uptime | BKT | XDATA |
|---|---|---|---|---|---|---|---|---|---|---|---|---|---|---|---|
| DB0UT-7 | 2026-09-01 23:32:41 | 50.74260 | 6.22072 | 106° | 16km/h | 690m | -6.3m/s | 14.4°C | 67.0% | 944.7hPa | 4.3V | 00:00:00 | 02:39:00 | 00:00:00 | |
| DB0UT-7 | 2026-09-01 23:32:36 | 50.74266 | 6.22039 | 101° | 15km/h | 722m | -6.2m/s | 14.1°C | 68.9% | 941.2hPa | 4.3V | 00:00:00 | 00:00:00 | 00:00:00 | |
| DB0UT-7 | 2026-09-01 23:32:31 | 50.74270 | 6.22008 | 96° | 15km/h | 753m | -6.5m/s | 13.8°C | 72.0% | 937.8hPa | 4.3V | 00:00:00 | 02:38:50 | 00:00:00 | |
| DB0UT-7 | 2026-09-01 23:32:26 | 50.74273 | 6.21979 | 102° | 15km/h | 786m | -6.5m/s | 13.5°C | 75.0% | 934.2hPa | 4.3V | 00:00:00 | 00:00:00 | 00:00:00 | |
| DB0UT-7 | 2026-09-01 23:32:21 | 50.74274 | 6.21951 | 96° | 15km/h | 818m | -6.5m/s | 13.2°C | 77.4% | 930.7hPa | 4.3V | 00:00:00 | 02:38:40 | 00:00:00 | |
| DB0UT-7 | 2026-09-01 23:32:16 | 50.74275 | 6.21923 | 91° | 15km/h | 850m | -6.8m/s | 12.8°C | 78.4% | 927.1hPa | 4.3V | 00:00:00 | 00:00:00 | 00:00:00 | |
| DB0UT-7 | 2026-09-01 23:32:11 | 50.74275 | 6.21893 | 97° | 15km/h | 884m | -6.9m/s | 12.6°C | 78.5% | 923.5hPa | 4.3V | 00:00:00 | 02:38:30 | 00:00:00 | |
| DB0UT-7 | 2026-09-01 23:32:06 | 50.74275 | 6.21867 | 97° | 15km/h | 919m | -7.1m/s | 12.3°C | 78.5% | 919.6hPa | 4.3V | 00:00:00 | 00:00:00 | 00:00:00 | |
| DB0UT-7 | 2026-09-01 23:32:01 | 50.74277 | 6.21836 | 91° | 15km/h | 955m | -7.1m/s | 11.9°C | 78.4% | 915.7hPa | 4.3V | 00:00:00 | 02:38:20 | 00:00:00 | |
| DB0UT-7 | 2026-09-01 23:31:56 | 50.74278 | 6.21806 | 93° | 15km/h | 991m | -7.2m/s | 11.7°C | 76.1% | 911.8hPa | 4.3V | 00:00:00 | 00:00:00 | 00:00:00 | |
| DM0DOS-11 | 2026-09-01 23:31:44 | 50.74274 | 6.21701 | 90° | 16km/h | 1106m | -7m/s | 10.8°C | 75% | 899.3hPa | 4.3V | 00:00:00 | 02:37:58 | 00:00:00 | |
| DB0UT-7 | 2026-09-01 23:31:40 | 50.74275 | 6.21708 | 85° | 18km/h | 1099m | -7.0m/s | 10.8°C | 75.0% | 900.0hPa | 4.3V | 00:00:00 | 00:00:00 | 00:00:00 | |
| DM0DOS-11 | 2026-09-01 23:31:38 | 50.74274 | 6.21687 | 90° | 18km/h | 1119m | -7.3m/s | 10.7°C | 75.1% | 897.8hPa | 4.3V | 00:00:00 | 02:37:56 | 00:00:00 | |
| DM0DOS-11 | 2026-09-01 23:31:38 | 50.74273 | 6.21674 | 79° | 18km/h | 1134m | -7.2m/s | 10.6°C | 75.5% | 896.3hPa | 4.3V | 00:00:00 | 02:37:54 | 00:00:00 | |
| DM0DOS-11 | 2026-09-01 23:31:38 | 50.74271 | 6.21661 | 79° | 18km/h | 1149m | -7m/s | 10.5°C | 75.9% | 894.7hPa | 4.3V | 00:00:00 | 02:37:52 | 00:00:00 | |
| DM0DOS-11 | 2026-09-01 23:31:33 | 50.74269 | 6.21647 | 76° | 20km/h | 1163m | -6.9m/s | 10.4°C | 76.2% | 893.2hPa | 4.3V | 00:00:00 | 02:37:50 | 00:00:00 | |
| DM0DOS-11 | 2026-09-01 23:31:33 | 50.74268 | 6.21632 | 72° | 20km/h | 1177m | -6.9m/s | 10.2°C | 76.7% | 891.6hPa | 4.3V | 00:00:00 | 02:37:48 | 00:00:00 | |
| DM0DOS-11 | 2026-09-01 23:31:33 | 50.74266 | 6.21617 | 76° | 20km/h | 1191m | -6.8m/s | 10.1°C | 77% | 890.1hPa | 4.3V | 00:00:00 | 02:37:46 | 00:00:00 | |
| DB0UT-7 | 2026-09-01 23:31:30 | 50.74268 | 6.21639 | 81° | 20km/h | 1170m | -6.9m/s | 10.3°C | 76.5% | 892.3hPa | 4.3V | 00:00:00 | 02:37:49 | 00:00:00 | |
| DM0DOS-11 | 2026-09-01 23:31:27 | 50.74264 | 6.21602 | 72° | 20km/h | 1205m | -6.6m/s | 10°C | 77.2% | 888.7hPa | 4.3V | 00:00:00 | 02:37:44 | 00:00:00 | |
| DM0DOS-11 | 2026-09-01 23:31:27 | 50.74261 | 6.21586 | 76° | 20km/h | 1218m | -6.7m/s | 9.9°C | 77.5% | 887.3hPa | 4.3V | 00:00:00 | 02:37:42 | 00:00:00 | |
| DM0DOS-11 | 2026-09-01 23:31:22 | 50.74259 | 6.21570 | 77° | 22km/h | 1231m | -6.8m/s | 9.8°C | 77.6% | 885.9hPa | 4.3V | 00:00:00 | 02:37:40 | 00:00:00 | |
| DM0DOS-11 | 2026-09-01 23:31:22 | 50.74256 | 6.21554 | 69° | 22km/h | 1245m | -6.6m/s | 9.7°C | 78% | 884.5hPa | 4.3V | 00:00:00 | 02:37:38 | 00:00:00 | |
| DM0DOS-11 | 2026-09-01 23:31:22 | 50.74253 | 6.21538 | 73° | 22km/h | 1258m | -6.7m/s | 9.6°C | 78.2% | 883.1hPa | 4.3V | 00:00:00 | 02:37:36 | 00:00:00 | |
| DB0UT-7 | 2026-09-01 23:31:20 | 50.74258 | 6.21562 | 74° | 22km/h | 1238m | -6.6m/s | 9.7°C | 77.9% | 885.2hPa | 4.3V | 00:00:00 | 00:00:00 | 00:00:00 | |
| DM0DOS-11 | 2026-09-01 23:31:16 | 50.74249 | 6.21522 | 65° | 24km/h | 1272m | -6.5m/s | 9.5°C | 78.7% | 881.7hPa | 4.3V | 00:00:00 | 02:37:34 | 00:00:00 | |
| DM0DOS-11 | 2026-09-01 23:31:16 | 50.74245 | 6.21505 | 63° | 24km/h | 1284m | -6.9m/s | 9.4°C | 79.2% | 880.3hPa | 4.3V | 00:00:00 | 02:37:32 | 00:00:00 | |
| DM0DOS-11 | 2026-09-01 23:31:16 | 50.74240 | 6.21488 | 63° | 24km/h | 1297m | -7.2m/s | 9.3°C | 79.7% | 879hPa | 4.2V | 00:00:00 | 02:37:30 | 00:00:00 | |
| DM0DOS-11 | 2026-09-01 23:31:10 | 50.74235 | 6.21472 | 66° | 24km/h | 1312m | -7m/s | 9.2°C | 80.2% | 877.5hPa | 4.2V | 00:00:00 | 02:37:28 | 00:00:00 | |
| DM0DOS-11 | 2026-09-01 23:31:10 | 50.74229 | 6.21455 | 60° | 24km/h | 1326m | -6.9m/s | 9.1°C | 80.6% | 875.9hPa | 4.2V | 00:00:00 | 02:37:26 | 00:00:00 | |
| DM0DOS-11 | 2026-09-01 23:31:10 | 50.74224 | 6.21438 | 59° | 26km/h | 1340m | -6.9m/s | 9°C | 81% | 874.5hPa | 4.2V | 00:00:00 | 02:37:24 | 00:00:00 | |
| DB0UT-7 | 2026-09-01 23:31:10 | 50.74237 | 6.21480 | 63° | 26km/h | 1304m | -7.2m/s | 9.2°C | 80.0% | 878.2hPa | 4.2V | 00:00:00 | 02:37:29 | 00:00:00 | |
| DM0DOS-11 | 2026-09-01 23:31:04 | 50.74217 | 6.21422 | 60° | 26km/h | 1354m | -6.8m/s | 8.9°C | 81.5% | 873hPa | 4.2V | 00:00:00 | 02:37:22 | 00:00:00 | |
| DM0DOS-11 | 2026-09-01 23:31:04 | 50.74211 | 6.21405 | 59° | 26km/h | 1367m | -6.9m/s | 8.8°C | 81.6% | 871.7hPa | 4.2V | 00:00:00 | 02:37:20 | 00:00:00 | |
| DM0DOS-11 | 2026-09-01 23:31:04 | 50.74204 | 6.21389 | 61° | 27km/h | 1381m | -6.8m/s | 8.7°C | 82% | 870.2hPa | 4.2V | 00:00:00 | 02:37:18 | 00:00:00 | |
| DB0UT-7 | 2026-09-01 23:31:00 | 50.74208 | 6.21397 | 58° | 27km/h | 1374m | -6.7m/s | 8.7°C | 81.9% | 870.9hPa | 4.2V | 00:00:00 | 00:00:00 | 00:00:00 | |
| DM0DOS-11 | 2026-09-01 23:30:53 | 50.74181 | 6.21321 | 61° | 27km/h | 1429m | -6.8m/s | 8.3°C | 82.9% | 865.2hPa | 4.2V | 00:00:00 | 02:37:11 | 00:00:00 | |
| DM0DOS-11 | 2026-09-01 23:30:53 | 50.74175 | 6.21302 | 57° | 27km/h | 1443m | -6.8m/s | 8.2°C | 83.2% | 863.7hPa | 4.2V | 00:00:00 | 02:37:09 | 00:00:00 | |
| DM0DOS-11 | 2026-09-01 23:30:53 | 50.74168 | 6.21283 | 57° | 27km/h | 1457m | -6.5m/s | 8.1°C | 83.6% | 862.2hPa | 4.2V | 00:00:00 | 02:37:07 | 00:00:00 | |
| DB0UT-7 | 2026-09-01 23:30:50 | 50.74175 | 6.21301 | 58° | 27km/h | 1443m | -6.7m/s | 8.2°C | 83.2% | 863.6hPa | 4.2V | 00:00:00 | 02:37:09 | 00:00:00 | |
| DM0DOS-11 | 2026-09-01 23:30:46 | 50.74160 | 6.21264 | 57° | 27km/h | 1470m | -6.5m/s | 8°C | 84% | 860.8hPa | 4.2V | 00:00:00 | 02:37:05 | 00:00:00 | |
| DM0DOS-11 | 2026-09-01 23:30:46 | 50.74153 | 6.21245 | 59° | 27km/h | 1483m | -6.6m/s | 7.8°C | 84.2% | 859.4hPa | 4.2V | 00:00:00 | 02:37:03 | 00:00:00 | |
| DM0DOS-11 | 2026-09-01 23:30:46 | 50.74141 | 6.21216 | 55° | 27km/h | 1502m | -6.9m/s | 7.7°C | 84.7% | 857.4hPa | 4.2V | 00:00:00 | 02:37:00 | 00:00:00 | |
| DM0DOS-11 | 2026-09-01 23:30:41 | 50.74133 | 6.21199 | 50° | 29km/h | 1516m | -6.9m/s | 7.6°C | 85.2% | 856hPa | 4.2V | 00:00:00 | 02:36:58 | 00:00:00 | |
| DM0DOS-11 | 2026-09-01 23:30:41 | 50.74124 | 6.21181 | 53° | 29km/h | 1530m | -6.9m/s | 7.4°C | 85.7% | 854.6hPa | 4.2V | 00:00:00 | 02:36:56 | 00:00:00 | |
| DM0DOS-11 | 2026-09-01 23:30:41 | 50.74116 | 6.21163 | 51° | 29km/h | 1544m | -6.8m/s | 7.3°C | 86.1% | 853.1hPa | 4.2V | 00:00:00 | 02:36:54 | 00:00:00 | |
| DB0UT-7 | 2026-09-01 23:30:40 | 50.74137 | 6.21208 | 53° | 29km/h | 1509m | -6.8m/s | 7.6°C | 85.0% | 856.6hPa | 4.2V | 00:00:00 | 00:00:00 | 00:00:00 | |
| DM0DOS-11 | 2026-09-01 23:30:35 | 50.74107 | 6.21145 | 50° | 29km/h | 1557m | -7m/s | 7.2°C | 86.5% | 851.8hPa | 4.2V | 00:00:00 | 02:36:52 | 00:00:00 | |
| DM0DOS-11 | 2026-09-01 23:30:35 | 50.74098 | 6.21126 | 53° | 29km/h | 1572m | -6.7m/s | 7.1°C | 86.9% | 850.2hPa | 4.2V | 00:00:00 | 02:36:50 | 00:00:00 | |
| DM0DOS-11 | 2026-09-01 23:30:35 | 50.74089 | 6.21109 | 47° | 29km/h | 1585m | -6.8m/s | 7°C | 87% | 848.8hPa | 4.2V | 00:00:00 | 02:36:48 | 00:00:00 | |
| DB0UT-7 | 2026-09-01 23:30:30 | 50.74093 | 6.21117 | 48° | 29km/h | 1579m | -6.6m/s | 7.0°C | 87.0% | 849.4hPa | 4.2V | 00:00:00 | 02:36:49 | 00:00:00 | |
| DM0DOS-11 | 2026-09-01 23:30:27 | 50.74079 | 6.21092 | 45° | 29km/h | 1599m | -6.7m/s | 6.9°C | 87.2% | 847.4hPa | 4.2V | 00:00:00 | 02:36:46 | 00:00:00 | |
| DM0DOS-11 | 2026-09-01 23:30:27 | 50.74069 | 6.21075 | 50° | 29km/h | 1612m | -6.8m/s | 6.8°C | 87.4% | 846hPa | 4.2V | 00:00:00 | 02:36:44 | 00:00:00 | |
| BIOWL1-15 | 2026-09-01 23:30:25 | 50.73971 | 6.20920 | 39° | 33km/h | 1736m | -7m/s | 5.8°C | 83.6% | 833.4hPa | 4.2V | 00:00:00 | 00:00:00 | 00:00:00 | |
| DM0DOS-11 | 2026-09-01 23:30:22 | 50.74025 | 6.20992 | 44° | 31km/h | 1675m | -6.4m/s | 6.2°C | 86.9% | 839.6hPa | 4.2V | 00:00:00 | 02:36:35 | 00:00:00 | |
| BIOWL1-15 | 2026-09-01 23:30:19 | 50.73957 | 6.20903 | 37° | 35km/h | 1749m | -7m/s | 5.8°C | 82.2% | 832hPa | 4.2V | 00:00:00 | 00:00:00 | 00:00:00 | |
| BIOWL1-15 | 2026-09-01 23:30:19 | 50.73950 | 6.20894 | 37° | 37km/h | 1756m | -7m/s | 5.8°C | 81.5% | 831.4hPa | 4.2V | 00:00:00 | 00:00:00 | 00:00:00 | |
| DM0DOS-11 | 2026-09-01 23:30:17 | 50.74014 | 6.20975 | 40° | 31km/h | 1687m | -6.7m/s | 6.1°C | 86.5% | 838.3hPa | 4.2V | 00:00:00 | 02:36:33 | 00:00:00 | |
| DM0DOS-11 | 2026-09-01 23:30:17 | 50.74002 | 6.20960 | 37° | 33km/h | 1700m | -6.9m/s | 6°C | 86% | 836.9hPa | 4.2V | 00:00:00 | 02:36:31 | 00:00:00 | |
| DM0DOS-11 | 2026-09-01 23:30:10 | 50.73990 | 6.20945 | 39° | 35km/h | 1713m | -7.2m/s | 5.9°C | 85% | 835.6hPa | 4.2V | 00:00:00 | 02:36:29 | 00:00:00 | |
| DM0DOS-11 | 2026-09-01 23:30:10 | 50.73957 | 6.20903 | 36° | 37km/h | 1749m | -7.1m/s | 5.8°C | 82.1% | 832hPa | 4.2V | 00:00:00 | 02:36:24 | 00:00:00 | |
| BIOWL1-15 | 2026-09-01 23:30:09 | 50.73943 | 6.20886 | 36° | 37km/h | 1763m | -7m/s | 5.8°C | 80.8% | 830.7hPa | 4.2V | 00:00:00 | 00:00:00 | 00:00:00 | |
| DM0DOS-11 | 2026-09-01 23:30:04 | 50.73928 | 6.20869 | 35° | 38km/h | 1777m | -7.2m/s | 5.8°C | 79.2% | 829.2hPa | 4.2V | 00:00:00 | 02:36:20 | 00:00:00 | |
| DM0DOS-11 | 2026-09-01 23:30:04 | 50.73912 | 6.20851 | 33° | 38km/h | 1792m | -7m/s | 5.9°C | 77.4% | 827.7hPa | 4.2V | 00:00:00 | 02:36:18 | 00:00:00 | |
| BIOWL1-15 | 2026-09-01 23:30:02 | 50.73920 | 6.20860 | 34° | 38km/h | 1785m | -7m/s | 5.9°C | 78.5% | 828.5hPa | 4.2V | 00:00:00 | 00:00:00 | 00:00:00 | |
| BIOWL1-15 | 2026-09-01 23:30:01 | 50.73912 | 6.20851 | 33° | 40km/h | 1792m | -7.5m/s | 5.9°C | 77.4% | 827.7hPa | 4.2V | 00:00:00 | 00:00:00 | 00:00:00 | |
| BIOWL1-15 | 2026-09-01 23:29:57 | 50.73895 | 6.20834 | 35° | 40km/h | 1807m | -6.5m/s | 5.9°C | 75.2% | 826.2hPa | 4.2V | 00:00:00 | 00:00:00 | 00:00:00 | |
| BIOWL1-15 | 2026-09-01 23:29:56 | 50.73846 | 6.20780 | 35° | 40km/h | 1847m | -6m/s | 5.7°C | 67.5% | 822.2hPa | 4.2V | 00:00:00 | 00:00:00 | 00:00:00 | |
| BIOWL1-15 | 2026-09-01 23:29:54 | 50.73838 | 6.20771 | 37° | 40km/h | 1853m | -7m/s | 5.7°C | 65.9% | 821.5hPa | 4.2V | 00:00:00 | 00:00:00 | 00:00:00 | |
| DM0DOS-11 | 2026-09-01 23:29:52 | 50.73815 | 6.20741 | 38° | 37km/h | 1874m | -7.1m/s | 5.7°C | 59.7% | 819.5hPa | 4.2V | 00:00:00 | 02:36:06 | 00:00:00 | |
| BIOWL1-15 | 2026-09-01 23:29:49 | 50.73815 | 6.20741 | 38° | 38km/h | 1874m | -7m/s | 5.7°C | 59.8% | 819.5hPa | 4.2V | 00:00:00 | 00:00:00 | 00:00:00 | |
| BIOWL1-15 | 2026-09-01 23:29:48 | 50.73808 | 6.20732 | 45° | 37km/h | 1881m | -8m/s | 5.7°C | 57.7% | 818.8hPa | 4.2V | 00:00:00 | 00:00:00 | 00:00:00 | |
| DM0DOS-11 | 2026-09-01 23:29:45 | 50.73787 | 6.20702 | 40° | 33km/h | 1903m | -6.7m/s | 5.7°C | 50.5% | 816.5hPa | 4.2V | 00:00:00 | 02:36:02 | 00:00:00 | |
| DM0DOS-11 | 2026-09-01 23:29:45 | 50.73774 | 6.20684 | 43° | 31km/h | 1916m | -6.8m/s | 5.9°C | 45% | 815.3hPa | 4.1V | 00:00:00 | 02:36:00 | 00:00:00 | |
| BIOWL1-15 | 2026-09-01 23:29:44 | 50.73774 | 6.20684 | 43° | 33km/h | 1916m | -7m/s | 5.9°C | 45.1% | 815.3hPa | 4.1V | 00:00:00 | 00:00:00 | 00:00:00 | |
| DM0DOS-11 | 2026-09-01 23:29:40 | 50.73762 | 6.20666 | 44° | 29km/h | 1929m | -7m/s | 6.4°C | 38.7% | 814hPa | 4.1V | 00:00:00 | 02:35:58 | 00:00:00 | |
| DM0DOS-11 | 2026-09-01 23:29:40 | 50.73750 | 6.20648 | 48° | 29km/h | 1943m | -6.9m/s | 6.8°C | 34.2% | 812.6hPa | 4.1V | 00:00:00 | 02:35:56 | 00:00:00 | |
| DM0DOS-11 | 2026-09-01 23:29:40 | 50.73740 | 6.20630 | 51° | 27km/h | 1957m | -6.8m/s | 6.8°C | 32.2% | 811.3hPa | 4.1V | 00:00:00 | 02:35:54 | 00:00:00 | |
| BIOWL1-15 | 2026-09-01 23:29:39 | 50.73762 | 6.20666 | 45° | 31km/h | 1929m | -7m/s | 6.4°C | 38.7% | 814hPa | 4.1V | 00:00:00 | 00:00:00 | 00:00:00 | |
| BIOWL1-15 | 2026-09-01 23:29:37 | 50.73750 | 6.20648 | 48° | 29km/h | 1943m | -7m/s | 6.8°C | 34.3% | 812.6hPa | 4.1V | 00:00:00 | 00:00:00 | 00:00:00 | |
| BIOWL1-15 | 2026-09-01 23:29:35 | 50.73740 | 6.20630 | 52° | 29km/h | 1957m | -7m/s | 6.8°C | 32.3% | 811.3hPa | 4.1V | 00:00:00 | 00:00:00 | 00:00:00 | |
| BIOWL1-15 | 2026-09-01 23:29:34 | 50.73735 | 6.20621 | 49° | 29km/h | 1964m | -6m/s | 6.9°C | 31.3% | 810.6hPa | 4.1V | 00:00:00 | 00:00:00 | 00:00:00 | |
| DM0DOS-11 | 2026-09-01 23:29:34 | 50.73730 | 6.20612 | 50° | 27km/h | 1970m | -7m/s | 6.9°C | 30.1% | 809.9hPa | 4.1V | 00:00:00 | 02:35:52 | 00:00:00 | |
| DM0DOS-11 | 2026-09-01 23:29:34 | 50.73722 | 6.20594 | 52° | 27km/h | 1984m | -7.1m/s | 7.1°C | 28.5% | 808.6hPa | 4.1V | 00:00:00 | 02:35:50 | 00:00:00 | |
| DM0DOS-11 | 2026-09-01 23:29:34 | 50.73714 | 6.20577 | 55° | 27km/h | 1998m | -7m/s | 7.4°C | 27.2% | 807.3hPa | 4.1V | 00:00:00 | 02:35:48 | 00:00:00 | |
| BIOWL1-15 | 2026-09-01 23:29:33 | 50.73730 | 6.20612 | 51° | 29km/h | 1970m | -7m/s | 6.9°C | 30.2% | 809.9hPa | 4.1V | 00:00:00 | 00:00:00 | 00:00:00 | |
| BIOWL1-15 | 2026-09-01 23:29:31 | 50.73714 | 6.20577 | 56° | 27km/h | 1998m | -7m/s | 7.4°C | 27.3% | 807.3hPa | 4.1V | 00:00:00 | 00:00:00 | 00:00:00 | |
| DB0UT-7 | 2026-09-01 23:29:29 | 50.73714 | 6.20577 | 56° | 27km/h | 1998m | -7.0m/s | 7.4°C | 27.2% | 807.3hPa | 4.1V | 00:00:00 | 02:35:48 | 00:00:00 | |
| DM0DOS-11 | 2026-09-01 23:29:27 | 50.73707 | 6.20559 | 55° | 27km/h | 2012m | -7.1m/s | 7.7°C | 27.2% | 806hPa | 4.1V | 00:00:00 | 02:35:46 | 00:00:00 | |
| BIOWL1-15 | 2026-09-01 23:29:22 | 50.73689 | 6.20515 | 59° | 27km/h | 2046m | -8m/s | 7.7°C | 30.7% | 802.7hPa | 4.1V | 00:00:00 | 00:00:00 | 00:00:00 | |
| DM0DOS-11 | 2026-09-01 23:29:22 | 50.73689 | 6.20515 | 59° | 27km/h | 2046m | -7.5m/s | 7.7°C | 30.6% | 802.7hPa | 4.1V | 00:00:00 | 02:35:41 | 00:00:00 | |
| DM0DOS-11 | 2026-09-01 23:29:22 | 50.73672 | 6.20467 | 60° | 29km/h | 2084m | -7m/s | 7.6°C | 31.3% | 799hPa | 4.1V | 00:00:00 | 02:35:36 | 00:00:00 | |
| DM0DOS-11 | 2026-09-01 23:29:14 | 50.73654 | 6.20417 | 62° | 29km/h | 2119m | -6.9m/s | 7.4°C | 31.8% | 795.6hPa | 4.1V | 00:00:00 | 02:35:31 | 00:00:00 | |
| BIOWL1-15 | 2026-09-01 23:29:12 | 50.73647 | 6.20396 | 61° | 27km/h | 2133m | -7m/s | 7.3°C | 32.1% | 794.4hPa | 4.1V | 00:00:00 | 00:00:00 | 00:00:00 | |
| DB0UT-7 | 2026-09-01 23:29:09 | 50.73643 | 6.20386 | 59° | 31km/h | 2140m | -6.7m/s | 7.3°C | 32.2% | 793.6hPa | 4.1V | 00:00:00 | 00:00:00 | 00:00:00 | |
| DM0DOS-11 | 2026-09-01 23:29:07 | 50.73635 | 6.20366 | 63° | 31km/h | 2153m | -6.9m/s | 7.2°C | 32.3% | 792.3hPa | 4.1V | 00:00:00 | 02:35:26 | 00:00:00 | |
| DM0DOS-11 | 2026-09-01 23:29:07 | 50.73618 | 6.20310 | 64° | 31km/h | 2187m | -7.1m/s | 7.1°C | 32.7% | 789.1hPa | 4.1V | 00:00:00 | 02:35:21 | 00:00:00 | |
| BIOWL1-15 | 2026-09-01 23:29:02 | 50.73602 | 6.20253 | 65° | 31km/h | 2223m | -7m/s | 6.9°C | 34.4% | 785.7hPa | 4.1V | 00:00:00 | 00:00:00 | 00:00:00 | |
| DM0DOS-11 | 2026-09-01 23:28:54 | 50.73579 | 6.20172 | 71° | 33km/h | 2270m | -7.1m/s | 6.6°C | 37.2% | 781.1hPa | 4.1V | 00:00:00 | 02:35:09 | 00:00:00 | |
| BIOWL1-15 | 2026-09-01 23:28:50 | 50.73579 | 6.20172 | 72° | 33km/h | 2270m | -7m/s | 6.6°C | 37.2% | 781.1hPa | 4.1V | 00:00:00 | 00:00:00 | 00:00:00 | |
| DB0UT-7 | 2026-09-01 23:28:49 | 50.73577 | 6.20160 | 67° | 33km/h | 2277m | -7.0m/s | 6.5°C | 37.7% | 780.4hPa | 4.0V | 00:00:00 | 02:35:08 | 00:00:00 | |
| DM0DOS-11 | 2026-09-01 23:28:45 | 50.73565 | 6.20110 | 71° | 33km/h | 2306m | -6.7m/s | 6.3°C | 39.5% | 777.7hPa | 4.1V | 00:00:00 | 02:35:04 | 00:00:00 | |
| DM0DOS-11 | 2026-09-01 23:28:45 | 50.73552 | 6.20048 | 76° | 31km/h | 2340m | -6.8m/s | 6°C | 39.5% | 774.5hPa | 4.1V | 00:00:00 | 02:34:59 | 00:00:00 | |
| BIOWL1-15 | 2026-09-01 23:28:44 | 50.73552 | 6.20048 | 76° | 31km/h | 2340m | -7m/s | 6.1°C | 39.5% | 774.5hPa | 4.1V | 00:00:00 | 00:00:00 | 00:00:00 | |
| DM0DOS-11 | 2026-09-01 23:28:30 | 50.73530 | 6.19926 | 76° | 33km/h | 2406m | -7.1m/s | 5.7°C | 38% | 768.3hPa | 4V | 00:00:00 | 02:34:49 | 00:00:00 | |
| DM0DOS-11 | 2026-09-01 23:28:30 | 50.73516 | 6.19851 | 72° | 31km/h | 2448m | -6.9m/s | 5.4°C | 37.8% | 764.4hPa | 4V | 00:00:00 | 02:34:43 | 00:00:00 | |
| BIOWL1-15 | 2026-09-01 23:28:30 | 50.73518 | 6.19863 | 73° | 31km/h | 2442m | -6m/s | 5.5°C | 37.8% | 765hPa | 4V | 00:00:00 | 00:00:00 | 00:00:00 | |
| DB0UT-7 | 2026-09-01 23:28:29 | 50.73528 | 6.19913 | 75° | 31km/h | 2413m | -7.0m/s | 5.6°C | 38.0% | 767.6hPa | 4V | 00:00:00 | 00:00:00 | 00:00:00 | |
| DM0DOS-11 | 2026-09-01 23:28:24 | 50.73506 | 6.19791 | 73° | 31km/h | 2483m | -6.6m/s | 5.2°C | 39.3% | 761.1hPa | 4V | 00:00:00 | 02:34:38 | 00:00:00 | |
| BIOWL1-15 | 2026-09-01 23:28:19 | 50.73506 | 6.19791 | 74° | 31km/h | 2483m | -6m/s | 5.2°C | 39.4% | 761.2hPa | 4V | 00:00:00 | 00:00:00 | 00:00:00 | |
| DM0DOS-11 | 2026-09-01 23:28:14 | 50.73496 | 6.19730 | 75° | 31km/h | 2516m | -6.9m/s | 4.9°C | 40% | 758hPa | 4V | 00:00:00 | 02:34:33 | 00:00:00 | |
| DM0DOS-11 | 2026-09-01 23:28:14 | 50.73488 | 6.19671 | 78° | 31km/h | 2551m | -6.6m/s | 4.7°C | 39.3% | 754.8hPa | 4V | 00:00:00 | 02:34:28 | 00:00:00 | |
| BIOWL1-15 | 2026-09-01 23:28:08 | 50.73481 | 6.19611 | 73° | 31km/h | 2584m | -7m/s | 4.6°C | 37.8% | 751.7hPa | 4V | 00:00:00 | 00:00:00 | 00:00:00 | |
| DM0DOS-11 | 2026-09-01 23:28:05 | 50.73481 | 6.19611 | 73° | 31km/h | 2584m | -7m/s | 4.6°C | 37.7% | 751.7hPa | 4V | 00:00:00 | 02:34:23 | 00:00:00 | |
| DM0DOS-11 | 2026-09-01 23:28:05 | 50.73471 | 6.19552 | 75° | 31km/h | 2619m | -7.2m/s | 4.5°C | 36% | 748.6hPa | 4V | 00:00:00 | 02:34:18 | 00:00:00 | |
| BIOWL1-15 | 2026-09-01 23:27:55 | 50.73447 | 6.19439 | 67° | 31km/h | 2693m | -7m/s | 4.3°C | 31.3% | 741.8hPa | 4V | 00:00:00 | 00:00:00 | 00:00:00 | |
| DM0DOS-11 | 2026-09-01 23:27:54 | 50.73447 | 6.19439 | 67° | 31km/h | 2693m | -6.8m/s | 4.3°C | 31.2% | 741.8hPa | 4V | 00:00:00 | 02:34:08 | 00:00:00 | |
| DB0UT-7 | 2026-09-01 23:27:49 | 50.73447 | 6.19439 | 68° | 29km/h | 2693m | -6.8m/s | 4.2°C | 31.2% | 741.7hPa | 4.0V | 00:00:00 | 00:00:00 | 00:00:00 | |
| DM0DOS-11 | 2026-09-01 23:27:44 | 50.73428 | 6.19383 | 57° | 31km/h | 2728m | -6.4m/s | 4.2°C | 29.5% | 738.7hPa | 4V | 00:00:00 | 02:34:03 | 00:00:00 | |
| DM0DOS-11 | 2026-09-01 23:27:44 | 50.73407 | 6.19332 | 54° | 29km/h | 2760m | -6.7m/s | 4.1°C | 29.5% | 735.7hPa | 4V | 00:00:00 | 02:33:58 | 00:00:00 | |
| BIOWL1-15 | 2026-09-01 23:27:40 | 50.73412 | 6.19342 | 54° | 31km/h | 2753m | -7m/s | 4.2°C | 29.5% | 736.3hPa | 4V | 00:00:00 | 00:00:00 | 00:00:00 | |
| DM0DOS-11 | 2026-09-01 23:27:34 | 50.73385 | 6.19282 | 55° | 29km/h | 2793m | -7.1m/s | 4°C | 30% | 732.6hPa | 4V | 00:00:00 | 02:33:53 | 00:00:00 | |
| DM0DOS-11 | 2026-09-01 23:27:34 | 50.73364 | 6.19233 | 55° | 27km/h | 2829m | -7.1m/s | 3.7°C | 31.1% | 729.4hPa | 3.9V | 00:00:00 | 02:33:48 | 00:00:00 | |
| BIOWL1-15 | 2026-09-01 23:27:30 | 50.73355 | 6.19215 | 56° | 27km/h | 2843m | -8m/s | 3.5°C | 31.5% | 728hPa | 3.9V | 00:00:00 | 00:00:00 | 00:00:00 | |
| DB0UT-7 | 2026-09-01 23:27:29 | 50.73364 | 6.19233 | 55° | 31km/h | 2829m | -7.1m/s | 3.6°C | 31.1% | 729.3hPa | 3.9V | 00:00:00 | 02:33:48 | 00:00:00 | |
| DM0DOS-11 | 2026-09-01 23:27:24 | 50.73344 | 6.19188 | 51° | 29km/h | 2865m | -6.8m/s | 3.3°C | 32.2% | 726.1hPa | 3.9V | 00:00:00 | 02:33:43 | 00:00:00 | |
| DM0DOS-11 | 2026-09-01 23:27:24 | 50.73321 | 6.19143 | 54° | 29km/h | 2899m | -6.9m/s | 3°C | 33.2% | 723hPa | 3.9V | 00:00:00 | 02:33:38 | 00:00:00 | |
| BIOWL1-15 | 2026-09-01 23:27:20 | 50.73321 | 6.19143 | 54° | 29km/h | 2899m | -7m/s | 3°C | 33.3% | 723.1hPa | 3.9V | 00:00:00 | 00:00:00 | 00:00:00 | |
| DM0DOS-11 | 2026-09-01 23:27:14 | 50.73298 | 6.19096 | 52° | 31km/h | 2933m | -7m/s | 2.9°C | 34.7% | 720.1hPa | 3.9V | 00:00:00 | 02:33:33 | 00:00:00 | |
| DM0DOS-11 | 2026-09-01 23:27:14 | 50.73273 | 6.19045 | 52° | 33km/h | 2968m | -6.9m/s | 2.8°C | 36.7% | 717hPa | 3.9V | 00:00:00 | 02:33:28 | 00:00:00 | |
| BIOWL1-15 | 2026-09-01 23:27:09 | 50.73257 | 6.19012 | 57° | 29km/h | 2988m | -8m/s | 2.7°C | 38.3% | 715.3hPa | 3.9V | 00:00:00 | 00:00:00 | 00:00:00 | |
| DB0UT-7 | 2026-09-01 23:27:08 | 50.73268 | 6.19034 | 56° | 33km/h | 2975m | -6.8m/s | 2.7°C | 37.2% | 716.4hPa | 3.9V | 00:00:00 | 00:00:00 | 00:00:00 | |
| DM0DOS-11 | 2026-09-01 23:27:04 | 50.73248 | 6.18992 | 53° | 31km/h | 3003m | -6.9m/s | 2.5°C | 39.3% | 714hPa | 3.9V | 00:00:00 | 02:33:23 | 00:00:00 | |
| DM0DOS-11 | 2026-09-01 23:27:04 | 50.73227 | 6.18942 | 57° | 33km/h | 3037m | -7m/s | 2.3°C | 41% | 711hPa | 3.9V | 00:00:00 | 02:33:18 | 00:00:00 | |
| BIOWL1-15 | 2026-09-01 23:26:58 | 50.73213 | 6.18910 | 54° | 33km/h | 3057m | -7m/s | 2.1°C | 42.3% | 709.3hPa | 3.9V | 00:00:00 | 00:00:00 | 00:00:00 | |
| DM0DOS-11 | 2026-09-01 23:26:54 | 50.73204 | 6.18888 | 58° | 33km/h | 3072m | -7.2m/s | 2°C | 43% | 708.1hPa | 3.9V | 00:00:00 | 02:33:13 | 00:00:00 | |
| DM0DOS-11 | 2026-09-01 23:26:54 | 50.73182 | 6.18832 | 56° | 35km/h | 3108m | -7.2m/s | 1.7°C | 43.7% | 704.9hPa | 3.9V | 00:00:00 | 02:33:08 | 00:00:00 | |
| BIOWL1-15 | 2026-09-01 23:26:47 | 50.73172 | 6.18810 | 57° | 33km/h | 3122m | -7m/s | 1.6°C | 43.7% | 703.7hPa | 3.8V | 00:00:00 | 00:00:00 | 00:00:00 | |
| DM0DOS-11 | 2026-09-01 23:26:44 | 50.73159 | 6.18775 | 61° | 35km/h | 3144m | -7.2m/s | 1.5°C | 43.5% | 701.7hPa | 3.8V | 00:00:00 | 02:33:03 | 00:00:00 | |
| DM0DOS-11 | 2026-09-01 23:26:44 | 50.73137 | 6.18712 | 58° | 37km/h | 3181m | -7m/s | 1.3°C | 44% | 698.6hPa | 3.8V | 00:00:00 | 02:32:58 | 00:00:00 | |
| BIOWL1-15 | 2026-09-01 23:26:38 | 50.73122 | 6.18675 | 61° | 37km/h | 3201m | -8m/s | 1.2°C | 44.3% | 696.8hPa | 3.8V | 00:00:00 | 00:00:00 | 00:00:00 | |
| DM0DOS-11 | 2026-09-01 23:26:34 | 50.73113 | 6.18649 | 61° | 38km/h | 3217m | -7.3m/s | 1.1°C | 44.5% | 695.5hPa | 3.8V | 00:00:00 | 02:32:53 | 00:00:00 | |
| DM0DOS-11 | 2026-09-01 23:26:34 | 50.73090 | 6.18582 | 64° | 38km/h | 3253m | -7m/s | 0.8°C | 44.7% | 692.3hPa | 3.8V | 00:00:00 | 02:32:48 | 00:00:00 | |
| BIOWL1-15 | 2026-09-01 23:26:28 | 50.73069 | 6.18512 | 66° | 40km/h | 3289m | -6m/s | 0.6°C | 45.2% | 689.2hPa | 3.8V | 00:00:00 | 00:00:00 | 00:00:00 | |
| DM0DOS-11 | 2026-09-01 23:26:24 | 50.73069 | 6.18512 | 65° | 40km/h | 3289m | -6.9m/s | 0.6°C | 45.2% | 689.2hPa | 3.8V | 00:00:00 | 02:32:43 | 00:00:00 | |
| DM0DOS-11 | 2026-09-01 23:26:24 | 50.73046 | 6.18442 | 60° | 40km/h | 3324m | -7.2m/s | 0.4°C | 45.5% | 686.1hPa | 3.8V | 00:00:00 | 02:32:38 | 00:00:00 | |
| BIOWL1-15 | 2026-09-01 23:26:15 | 50.73023 | 6.18372 | 60° | 42km/h | 3360m | -7m/s | 0.1°C | 46% | 683.1hPa | 3.8V | 00:00:00 | 00:00:00 | 00:00:00 | |
| DM0DOS-11 | 2026-09-01 23:26:14 | 50.73023 | 6.18372 | 59° | 42km/h | 3360m | -7.5m/s | 0.1°C | 46% | 683.1hPa | 3.8V | 00:00:00 | 02:32:33 | 00:00:00 | |
| DM0DOS-11 | 2026-09-01 23:26:14 | 50.72997 | 6.18299 | 59° | 42km/h | 3398m | -7.4m/s | -0.2°C | 46.2% | 679.8hPa | 3.7V | 00:00:00 | 02:32:28 | 00:00:00 | |
| BIOWL1-15 | 2026-09-01 23:26:04 | 50.72954 | 6.18165 | 66° | 44km/h | 3463m | -7m/s | -0.6°C | 45.5% | 674.3hPa | 3.7V | 00:00:00 | 00:00:00 | 00:00:00 | |
| DM0DOS-11 | 2026-09-01 23:26:04 | 50.72972 | 6.18226 | 64° | 42km/h | 3434m | -7.3m/s | -0.4°C | 46% | 676.7hPa | 3.7V | 00:00:00 | 02:32:23 | 00:00:00 | |
| DM0DOS-11 | 2026-09-01 23:26:04 | 50.72950 | 6.18149 | 65° | 44km/h | 3470m | -7.3m/s | -0.6°C | 45.3% | 673.7hPa | 3.7V | 00:00:00 | 02:32:18 | 00:00:00 | |
| DM0DOS-11 | 2026-09-01 23:25:54 | 50.72903 | 6.17987 | 67° | 44km/h | 3545m | -7.4m/s | -1.1°C | 44.2% | 667.5hPa | 3.7V | 00:00:00 | 02:32:08 | 00:00:00 | |
| BIOWL1-15 | 2026-09-01 23:25:51 | 50.72903 | 6.17987 | 68° | 44km/h | 3545m | -8m/s | -1.1°C | 44.3% | 667.5hPa | 3.7V | 00:00:00 | 00:00:00 | 00:00:00 | |
| DB0UT-7 | 2026-09-01 23:25:48 | 50.72899 | 6.17970 | 71° | 46km/h | 3553m | -7.2m/s | -1.1°C | 44.0% | 666.8hPa | 3.6V | 00:00:00 | 02:32:07 | 00:00:00 | |
| DM0DOS-11 | 2026-09-01 23:25:43 | 50.72862 | 6.17827 | 67° | 44km/h | 3620m | -7.4m/s | -1.6°C | 42.5% | 661.3hPa | 3.6V | 00:00:00 | 02:31:58 | 00:00:00 | |
| BIOWL1-15 | 2026-09-01 23:25:39 | 50.72858 | 6.17811 | 68° | 44km/h | 3627m | -8m/s | -1.6°C | 42.5% | 660.6hPa | 3.6V | 00:00:00 | 00:00:00 | 00:00:00 | |
| BIOWL1-15 | 2026-09-01 23:25:32 | 50.72816 | 6.17642 | 69° | 47km/h | 3704m | -8m/s | -2°C | 41% | 654.4hPa | 3.6V | 00:00:00 | 00:00:00 | 00:00:00 | |
| DM0DOS-11 | 2026-09-01 23:25:30 | 50.72821 | 6.17660 | 69° | 47km/h | 3696m | -7.8m/s | -1.9°C | 41% | 655hPa | 3.6V | 00:00:00 | 02:31:48 | 00:00:00 | |
| DM0DOS-11 | 2026-09-01 23:25:30 | 50.72801 | 6.17571 | 69° | 47km/h | 3735m | -7.7m/s | -2.1°C | 41.2% | 651.8hPa | 3.6V | 00:00:00 | 02:31:43 | 00:00:00 | |
| DM0DOS-11 | 2026-09-01 23:25:23 | 50.72781 | 6.17479 | 71° | 47km/h | 3774m | -7.8m/s | -2.3°C | 41.2% | 648.8hPa | 3.6V | 00:00:00 | 02:31:38 | 00:00:00 | |
| BIOWL1-15 | 2026-09-01 23:25:18 | 50.72777 | 6.17461 | 73° | 47km/h | 3781m | -8m/s | -2.3°C | 41.3% | 648.1hPa | 3.6V | 00:00:00 | 00:00:00 | 00:00:00 | |
| DB0UT-7 | 2026-09-01 23:25:18 | 50.72777 | 6.17461 | 75° | 51km/h | 3781m | -8.1m/s | -2.3°C | 41.2% | 648.1hPa | 3.6V | 00:00:00 | 00:00:00 | 00:00:00 | |
| DM0DOS-11 | 2026-09-01 23:25:15 | 50.72765 | 6.17388 | 77° | 49km/h | 3813m | -8.3m/s | -2.6°C | 41.7% | 645.5hPa | 3.6V | 00:00:00 | 02:31:33 | 00:00:00 | |
| BIOWL1-15 | 2026-09-01 23:25:09 | 50.72719 | 6.17137 | 73° | 51km/h | 3920m | -7m/s | -3.4°C | 42.3% | 636.9hPa | 3.5V | 00:00:00 | 00:00:00 | 00:00:00 | |
| DM0DOS-11 | 2026-09-01 23:25:09 | 50.72749 | 6.17291 | 74° | 51km/h | 3855m | -8.3m/s | -2.9°C | 42% | 642hPa | 3.5V | 00:00:00 | 02:31:28 | 00:00:00 | |
| DM0DOS-11 | 2026-09-01 23:25:09 | 50.72732 | 6.17194 | 70° | 51km/h | 3896m | -8.1m/s | -3.2°C | 42.2% | 638.8hPa | 3.5V | 00:00:00 | 02:31:23 | 00:00:00 | |
| DM0DOS-11 | 2026-09-01 23:25:03 | 50.72711 | 6.17098 | 71° | 51km/h | 3935m | -8.8m/s | -3.5°C | 42.5% | 635.6hPa | 3.5V | 00:00:00 | 02:31:18 | 00:00:00 | |
| BIOWL1-15 | 2026-09-01 23:24:55 | 50.72694 | 6.17021 | 72° | 49km/h | 3970m | -9m/s | -3.8°C | 42.8% | 632.8hPa | 3.5V | 00:00:00 | 00:00:00 | 00:00:00 | |
| DM0DOS-11 | 2026-09-01 23:24:49 | 50.72652 | 6.16803 | 71° | 53km/h | 4066m | -9.2m/s | -4.7°C | 44% | 625.1hPa | 3.5V | 00:00:00 | 02:31:03 | 00:00:00 | |
| BIOWL1-15 | 2026-09-01 23:24:45 | 50.72656 | 6.16823 | 71° | 51km/h | 4058m | -8m/s | -4.6°C | 44.1% | 625.8hPa | 3.5V | 00:00:00 | 00:00:00 | 00:00:00 | |
| BIOWL1-15 | 2026-09-01 23:24:35 | 50.72604 | 6.16575 | 72° | 57km/h | 4165m | -8m/s | -5.3°C | 44.3% | 617.4hPa | 3.4V | 00:00:00 | 00:00:00 | 00:00:00 | |
| DM0DOS-11 | 2026-09-01 23:24:34 | 50.72608 | 6.16596 | 71° | 57km/h | 4157m | -8m/s | -5.2°C | 44.2% | 618hPa | 3.4V | 00:00:00 | 02:30:53 | 00:00:00 | |
| DM0DOS-11 | 2026-09-01 23:24:29 | 50.72586 | 6.16487 | 74° | 57km/h | 4197m | -8.1m/s | -5.6°C | 44.3% | 614.9hPa | 3.4V | 00:00:00 | 02:30:48 | 00:00:00 | |
| DM0DOS-11 | 2026-09-01 23:24:29 | 50.72563 | 6.16381 | 69° | 57km/h | 4237m | -8.5m/s | -6°C | 44.2% | 611.7hPa | 3.4V | 00:00:00 | 02:30:43 | 00:00:00 | |
| BIOWL1-15 | 2026-09-01 23:24:25 | 50.72558 | 6.16360 | 71° | 57km/h | 4245m | -9m/s | -6.1°C | 44.2% | 611.1hPa | 3.4V | 00:00:00 | 00:00:00 | 00:00:00 | |
| DM0DOS-11 | 2026-09-01 23:24:23 | 50.72538 | 6.16273 | 68° | 57km/h | 4280m | -8.4m/s | -6.3°C | 43.7% | 608.5hPa | 3.4V | 00:00:00 | 02:30:38 | 00:00:00 | |
| DB0UT-7 | 2026-09-01 23:24:18 | 50.72533 | 6.16251 | 70° | 58km/h | 4288m | -8.6m/s | -6.3°C | 43.5% | 607.8hPa | 3.4V | 00:00:00 | 00:00:00 | 00:00:00 | |
| DM0DOS-11 | 2026-09-01 23:24:17 | 50.72514 | 6.16165 | 70° | 58km/h | 4322m | -8.5m/s | -6.6°C | 43% | 605.2hPa | 3.4V | 00:00:00 | 02:30:33 | 00:00:00 | |
| BIOWL1-15 | 2026-09-01 23:24:12 | 50.72505 | 6.16121 | 71° | 60km/h | 4340m | -8m/s | -6.7°C | 43.2% | 603.9hPa | 3.4V | 00:00:00 | 00:00:00 | 00:00:00 | |
| DM0DOS-11 | 2026-09-01 23:24:10 | 50.72491 | 6.16055 | 73° | 58km/h | 4365m | -8.2m/s | -6.9°C | 43.2% | 601.9hPa | 3.4V | 00:00:00 | 02:30:28 | 00:00:00 | |
| DM0DOS-11 | 2026-09-01 23:24:10 | 50.72468 | 6.15944 | 70° | 58km/h | 4406m | -8.3m/s | -7.2°C | 43.2% | 598.8hPa | 3.4V | 00:00:00 | 02:30:23 | 00:00:00 | |
| DM0DOS-11 | 2026-09-01 23:24:04 | 50.72443 | 6.15833 | 72° | 58km/h | 4448m | -8.7m/s | -7.6°C | 44% | 595.5hPa | 3.4V | 00:00:00 | 02:30:18 | 00:00:00 | |
| BIOWL1-15 | 2026-09-01 23:24:01 | 50.72453 | 6.15877 | 70° | 58km/h | 4430m | -9m/s | -7.4°C | 43.7% | 596.9hPa | 3.4V | 00:00:00 | 00:00:00 | 00:00:00 | |
| DM0DOS-11 | 2026-09-01 23:23:57 | 50.72421 | 6.15721 | 72° | 58km/h | 4491m | -8.7m/s | -7.9°C | 43.5% | 592.3hPa | 3.4V | 00:00:00 | 02:30:13 | 00:00:00 | |
| BIOWL1-15 | 2026-09-01 23:23:53 | 50.72406 | 6.15654 | 70° | 58km/h | 4517m | -9m/s | -8.1°C | 43.1% | 590.3hPa | 3.4V | 00:00:00 | 00:00:00 | 00:00:00 | |
| DM0DOS-11 | 2026-09-01 23:23:49 | 50.72397 | 6.15611 | 71° | 57km/h | 4535m | -8.7m/s | -8.3°C | 42.7% | 589hPa | 3.4V | 00:00:00 | 02:30:08 | 00:00:00 | |
| DM0DOS-11 | 2026-09-01 23:23:49 | 50.72375 | 6.15503 | 72° | 57km/h | 4578m | -9m/s | -8.6°C | 42.2% | 585.6hPa | 3.4V | 00:00:00 | 02:30:03 | 00:00:00 | |
| DB0UT-7 | 2026-09-01 23:23:48 | 50.72392 | 6.15589 | 72° | 58km/h | 4543m | -8.8m/s | -8.3°C | 42.7% | 588.3hPa | 3.4V | 00:00:00 | 02:30:07 | 00:00:00 | |
| DM0DOS-11 | 2026-09-01 23:23:43 | 50.72354 | 6.15394 | 73° | 57km/h | 4623m | -9m/s | -9°C | 41.8% | 582.2hPa | 3.3V | 00:00:00 | 02:29:58 | 00:00:00 | |
| BIOWL1-15 | 2026-09-01 23:23:40 | 50.72358 | 6.15416 | 73° | 57km/h | 4614m | -9m/s | -8.9°C | 42% | 582.9hPa | 3.4V | 00:00:00 | 00:00:00 | 00:00:00 | |
| BIOWL1-15 | 2026-09-01 23:23:29 | 50.72313 | 6.15171 | 77° | 58km/h | 4714m | -8m/s | -9.6°C | 41.7% | 575.5hPa | 3.3V | 00:00:00 | 00:00:00 | 00:00:00 | |
| DM0DOS-11 | 2026-09-01 23:23:29 | 50.72313 | 6.15171 | 76° | 58km/h | 4714m | -8.5m/s | -9.6°C | 41.7% | 575.5hPa | 3.3V | 00:00:00 | 02:29:48 | 00:00:00 | |
| DM0DOS-11 | 2026-09-01 23:23:29 | 50.72295 | 6.15057 | 74° | 58km/h | 4756m | -8.8m/s | -10°C | 41.3% | 572.3hPa | 3.3V | 00:00:00 | 02:29:43 | 00:00:00 | |
| DM0DOS-11 | 2026-09-01 23:23:23 | 50.72277 | 6.14943 | 76° | 58km/h | 4800m | -8.8m/s | -10.4°C | 39.7% | 569.1hPa | 3.3V | 00:00:00 | 02:29:38 | 00:00:00 | |
| BIOWL1-15 | 2026-09-01 23:23:18 | 50.72274 | 6.14920 | 77° | 58km/h | 4809m | -9m/s | -10.5°C | 39.3% | 568.5hPa | 3.3V | 00:00:00 | 00:00:00 | 00:00:00 | |
| DB0UT-7 | 2026-09-01 23:23:18 | 50.72274 | 6.14920 | 77° | 57km/h | 4809m | -8.8m/s | -10.4°C | 39.2% | 568.4hPa | 3.3V | 00:00:00 | 00:00:00 | 00:00:00 | |
| DM0DOS-11 | 2026-09-01 23:23:17 | 50.72261 | 6.14829 | 76° | 58km/h | 4844m | -8.8m/s | -10.8°C | 37.5% | 565.8hPa | 3.3V | 00:00:00 | 02:29:33 | 00:00:00 | |
| BIOWL1-15 | 2026-09-01 23:23:11 | 50.72237 | 6.14668 | 78° | 60km/h | 4907m | -8.5m/s | -11.3°C | 33.4% | 561.2hPa | 3.3V | 00:00:00 | 00:00:00 | 00:00:00 | |
| DM0DOS-11 | 2026-09-01 23:23:09 | 50.72243 | 6.14716 | 78° | 58km/h | 4889m | -8.7m/s | -11.2°C | 34.7% | 562.6hPa | 3.3V | 00:00:00 | 02:29:28 | 00:00:00 | |
| DM0DOS-11 | 2026-09-01 23:23:09 | 50.72228 | 6.14598 | 79° | 58km/h | 4933m | -8.6m/s | -11.3°C | 31.8% | 559.3hPa | 3.3V | 00:00:00 | 02:29:23 | 00:00:00 | |
| DM0DOS-11 | 2026-09-01 23:23:03 | 50.72213 | 6.14459 | 79° | 55km/h | 4985m | -8.4m/s | -11.5°C | 31.8% | 555.5hPa | 3.3V | 00:00:00 | 02:29:17 | 00:00:00 | |
| BIOWL1-15 | 2026-09-01 23:22:57 | 50.72208 | 6.14414 | 80° | 58km/h | 5002m | -8m/s | -11.7°C | 32.4% | 554.3hPa | 3.3V | 00:00:00 | 00:00:00 | 00:00:00 | |
| DM0DOS-11 | 2026-09-01 23:22:53 | 50.72197 | 6.14324 | 79° | 53km/h | 5036m | -8.3m/s | -11.9°C | 33.3% | 551.9hPa | 3.3V | 00:00:00 | 02:29:11 | 00:00:00 | |
| BIOWL1-15 | 2026-09-01 23:22:46 | 50.72173 | 6.14136 | 78° | 51km/h | 5110m | -9m/s | -12.4°C | 36.6% | 546.5hPa | 3.3V | 00:00:00 | 00:00:00 | 00:00:00 | |
| DM0DOS-11 | 2026-09-01 23:22:43 | 50.72170 | 6.14116 | 78° | 51km/h | 5119m | -8.7m/s | -12.4°C | 37% | 545.9hPa | 3.3V | 00:00:00 | 02:29:01 | 00:00:00 | |
| DM0DOS-11 | 2026-09-01 23:22:33 | 50.72145 | 6.13913 | 78° | 53km/h | 5207m | -8.8m/s | -12.9°C | 45% | 539.7hPa | 3.3V | 00:00:00 | 02:28:51 | 00:00:00 | |
| BIOWL1-15 | 2026-09-01 23:22:32 | 50.72145 | 6.13913 | 78° | 53km/h | 5207m | -8m/s | -12.9°C | 45% | 539.7hPa | 3.3V | 00:00:00 | 00:00:00 | 00:00:00 | |
| DM0DOS-11 | 2026-09-01 23:22:27 | 50.72120 | 6.13702 | 77° | 53km/h | 5297m | -8.6m/s | -13.7°C | 54% | 533.4hPa | 3.3V | 00:00:00 | 02:28:41 | 00:00:00 | |
| BIOWL1-15 | 2026-09-01 23:22:21 | 50.72112 | 6.13639 | 76° | 55km/h | 5322m | -9m/s | -13.9°C | 53.9% | 531.6hPa | 3.3V | 00:00:00 | 00:00:00 | 00:00:00 | |
| DB0UT-7 | 2026-09-01 23:22:18 | 50.72108 | 6.13618 | 81° | 55km/h | 5331m | -9.2m/s | -13.9°C | 53.7% | 531.0hPa | 3.2V | 00:00:00 | 00:00:00 | 00:00:00 | |
| DM0DOS-11 | 2026-09-01 23:22:13 | 50.72092 | 6.13494 | 78° | 53km/h | 5387m | -9.5m/s | -14.5°C | 51.8% | 527.2hPa | 3.3V | 00:00:00 | 02:28:31 | 00:00:00 | |
| BIOWL1-15 | 2026-09-01 23:22:11 | 50.72089 | 6.13474 | 75° | 53km/h | 5396m | -10m/s | -14.7°C | 51.4% | 526.5hPa | 3.3V | 00:00:00 | 00:00:00 | 00:00:00 | |
| DM0DOS-11 | 2026-09-01 23:22:03 | 50.72060 | 6.13287 | 76° | 55km/h | 5482m | -9.5m/s | -15.5°C | 43.8% | 520.6hPa | 3.3V | 00:00:00 | 02:28:21 | 00:00:00 | |
| BIOWL1-15 | 2026-09-01 23:22:00 | 50.72054 | 6.13246 | 76° | 55km/h | 5500m | -10m/s | -15.6°C | 41.9% | 519.3hPa | 3.3V | 00:00:00 | 00:00:00 | 00:00:00 | |
| BIOWL1-15 | 2026-09-01 23:21:50 | 50.72027 | 6.12999 | 85° | 57km/h | 5608m | -11m/s | -15°C | 31.8% | 512hPa | 3.4V | 00:00:00 | 00:00:00 | 00:00:00 | |
| DB0UT-7 | 2026-09-01 23:21:48 | 50.72026 | 6.12977 | 84° | 57km/h | 5619m | -10.3m/s | -15.0°C | 31.1% | 511.2hPa | 3.4V | 00:00:00 | 02:28:07 | 00:00:00 | |
| DM0DOS-11 | 2026-09-01 23:21:43 | 50.72016 | 6.12844 | 82° | 55km/h | 5682m | -10.4m/s | -15.4°C | 27.6% | 507.1hPa | 3.4V | 00:00:00 | 02:28:01 | 00:00:00 | |
| BIOWL1-15 | 2026-09-01 23:21:39 | 50.72002 | 6.12713 | 78° | 55km/h | 5744m | -11m/s | -15.2°C | 24.5% | 502.9hPa | 3.4V | 00:00:00 | 00:00:00 | 00:00:00 | |
| BIOWL1-15 | 2026-09-01 23:21:31 | 50.71979 | 6.12518 | 81° | 57km/h | 5837m | -10m/s | -15.7°C | 25.3% | 496.8hPa | 3.4V | 00:00:00 | 00:00:00 | 00:00:00 | |
| DM0DOS-11 | 2026-09-01 23:21:23 | 50.71968 | 6.12404 | 81° | 58km/h | 5887m | -8.9m/s | -16°C | 26.2% | 493.5hPa | 3.4V | 00:00:00 | 02:27:41 | 00:00:00 | |
| BIOWL1-15 | 2026-09-01 23:21:17 | 50.71956 | 6.12266 | 83° | 57km/h | 5939m | -9.5m/s | -16.3°C | 28.2% | 490.1hPa | 3.4V | 00:00:00 | 00:00:00 | 00:00:00 | |
| DM0DOS-11 | 2026-09-01 23:21:13 | 50.71949 | 6.12176 | 83° | 57km/h | 5976m | -9.3m/s | -16.6°C | 28.7% | 487.7hPa | 3.4V | 00:00:00 | 02:27:31 | 00:00:00 | |
| BIOWL1-15 | 2026-09-01 23:21:04 | 50.71937 | 6.11997 | 82° | 57km/h | 6051m | -10m/s | -17.4°C | 28.6% | 482.9hPa | 3.4V | 00:00:00 | 00:00:00 | 00:00:00 | |
| DM0DOS-11 | 2026-09-01 23:21:03 | 50.71933 | 6.11953 | 83° | 55km/h | 6071m | -8.7m/s | -17.5°C | 28.2% | 481.7hPa | 3.4V | 00:00:00 | 02:27:21 | 00:00:00 | |
| BIOWL1-15 | 2026-09-01 23:20:53 | 50.71916 | 6.11755 | 84° | 53km/h | 6150m | -9m/s | -18.3°C | 27% | 476.5hPa | 3.4V | 00:00:00 | 00:00:00 | 00:00:00 | |
| DM0DOS-11 | 2026-09-01 23:20:52 | 50.71915 | 6.11734 | 81° | 53km/h | 6159m | -8.8m/s | -18.4°C | 26.7% | 475.9hPa | 3.4V | 00:00:00 | 02:27:11 | 00:00:00 | |
| DB0UT-7 | 2026-09-01 23:20:48 | 50.71908 | 6.11650 | 84° | 53km/h | 6194m | -9.0m/s | -18.6°C | 26.0% | 473.7hPa | 3.4V | 00:00:00 | 02:27:07 | 00:00:00 | |
| DM0DOS-11 | 2026-09-01 23:20:44 | 50.71897 | 6.11525 | 81° | 53km/h | 6248m | -9m/s | -19.2°C | 24.6% | 470.4hPa | 3.4V | 00:00:00 | 02:27:01 | 00:00:00 | |
| BIOWL1-15 | 2026-09-01 23:20:42 | 50.71897 | 6.11525 | 82° | 53km/h | 6248m | -9m/s | -19.2°C | 24.7% | 470.4hPa | 3.4V | 00:00:00 | 00:00:00 | 00:00:00 | |
| DM0DOS-11 | 2026-09-01 23:20:35 | 50.71876 | 6.11318 | 79° | 53km/h | 6341m | -9.9m/s | -20.1°C | 22.1% | 464.5hPa | 3.5V | 00:00:00 | 02:26:51 | 00:00:00 | |
| BIOWL1-15 | 2026-09-01 23:20:33 | 50.71872 | 6.11276 | 83° | 51km/h | 6361m | -10m/s | -20.3°C | 21.6% | 463.3hPa | 3.5V | 00:00:00 | 00:00:00 | 00:00:00 | |
| BIOWL1-15 | 2026-09-01 23:20:22 | 50.71860 | 6.10994 | 90° | 60km/h | 6488m | -10m/s | -20.9°C | 17.8% | 455.5hPa | 3.5V | 00:00:00 | 00:00:00 | 00:00:00 | |
| DB0UT-7 | 2026-09-01 23:20:18 | 50.71860 | 6.11018 | 89° | 62km/h | 6478m | -10.0m/s | -20.8°C | 18.0% | 456.0hPa | 3.5V | 00:00:00 | 00:00:00 | 00:00:00 | |
| DM0DOS-11 | 2026-09-01 23:20:13 | 50.71861 | 6.10872 | 91° | 62km/h | 6539m | -10.2m/s | -21.1°C | 16.7% | 452.3hPa | 3.5V | 00:00:00 | 02:26:31 | 00:00:00 | |
| BIOWL1-15 | 2026-09-01 23:20:09 | 50.71862 | 6.10723 | 93° | 60km/h | 6601m | -10m/s | -21.4°C | 15.9% | 448.6hPa | 3.5V | 00:00:00 | 00:00:00 | 00:00:00 | |
| DM0DOS-11 | 2026-09-01 23:20:03 | 50.71864 | 6.10628 | 92° | 60km/h | 6641m | -9.7m/s | -21.5°C | 15.2% | 446.1hPa | 3.5V | 00:00:00 | 02:26:21 | 00:00:00 | |
| BIOWL1-15 | 2026-09-01 23:19:56 | 50.71875 | 6.10409 | 97° | 62km/h | 6729m | -9m/s | -21.9°C | 16.2% | 440.7hPa | 3.5V | 00:00:00 | 00:00:00 | 00:00:00 | |
| DM0DOS-11 | 2026-09-01 23:19:54 | 50.71877 | 6.10385 | 96° | 62km/h | 6738m | -8.9m/s | -22°C | 16.3% | 440.2hPa | 3.5V | 00:00:00 | 02:26:11 | 00:00:00 | |
| BIOWL1-15 | 2026-09-01 23:19:43 | 50.71896 | 6.10110 | 97° | 62km/h | 6835m | -9m/s | -22.5°C | 18.2% | 434.4hPa | 3.5V | 00:00:00 | 00:00:00 | 00:00:00 | |
| DM0DOS-11 | 2026-09-01 23:19:43 | 50.71894 | 6.10135 | 95° | 60km/h | 6826m | -9m/s | -22.4°C | 18% | 434.9hPa | 3.5V | 00:00:00 | 02:26:01 | 00:00:00 | |
| DM0DOS-11 | 2026-09-01 23:19:33 | 50.71911 | 6.09899 | 97° | 58km/h | 6916m | -8.7m/s | -23.1°C | 18.8% | 429.6hPa | 3.6V | 00:00:00 | 02:25:51 | 00:00:00 | |
| BIOWL1-15 | 2026-09-01 23:19:31 | 50.71918 | 6.09807 | 97° | 58km/h | 6951m | -8m/s | -23.4°C | 19.7% | 427.6hPa | 3.6V | 00:00:00 | 00:00:00 | 00:00:00 | |
| BIOWL1-15 | 2026-09-01 23:19:18 | 50.71949 | 6.09398 | 97° | 62km/h | 7097m | -8m/s | -24.7°C | 21.9% | 419.3hPa | 3.6V | 00:00:00 | 00:00:00 | 00:00:00 | |
| BIOWL1-15 | 2026-09-01 23:19:06 | 50.71959 | 6.09276 | 97° | 60km/h | 7138m | -8m/s | -25.1°C | 21.7% | 416.8hPa | 3.6V | 00:00:00 | 00:00:00 | 00:00:00 | |
| DM0DOS-11 | 2026-09-01 23:19:03 | 50.71966 | 6.09181 | 95° | 58km/h | 7171m | -8.6m/s | -25.4°C | 21.3% | 414.9hPa | 3.6V | 00:00:00 | 02:25:21 | 00:00:00 | |
| BIOWL1-15 | 2026-09-01 23:19:00 | 50.71975 | 6.09039 | 96° | 58km/h | 7223m | -8m/s | -25.9°C | 21.1% | 412hPa | 3.6V | 00:00:00 | 00:00:00 | 00:00:00 | |
| DM0DOS-11 | 2026-09-01 23:18:53 | 50.71981 | 6.08945 | 92° | 58km/h | 7257m | -8.3m/s | -26.1°C | 20.6% | 410.1hPa | 3.6V | 00:00:00 | 02:25:11 | 00:00:00 | |
| BIOWL1-15 | 2026-09-01 23:18:46 | 50.71989 | 6.08756 | 94° | 60km/h | 7324m | -9m/s | -26.6°C | 21.3% | 406.2hPa | 3.6V | 00:00:00 | 00:00:00 | 00:00:00 | |
| DM0DOS-11 | 2026-09-01 23:18:43 | 50.71991 | 6.08708 | 95° | 60km/h | 7341m | -8.6m/s | -26.8°C | 21.3% | 405.2hPa | 3.6V | 00:00:00 | 02:25:01 | 00:00:00 | |
| BIOWL1-15 | 2026-09-01 23:18:36 | 50.71998 | 6.08417 | 91° | 62km/h | 7444m | -8m/s | -27.7°C | 21.4% | 399.5hPa | 3.7V | 00:00:00 | 00:00:00 | 00:00:00 | |
| DM0DOS-11 | 2026-09-01 23:18:34 | 50.71997 | 6.08466 | 92° | 62km/h | 7427m | -8.4m/s | -27.5°C | 21.3% | 400.4hPa | 3.7V | 00:00:00 | 02:24:51 | 00:00:00 | |
| BIOWL1-15 | 2026-09-01 23:18:25 | 50.72000 | 6.08293 | 91° | 62km/h | 7485m | -9m/s | -28.1°C | 21.5% | 397.1hPa | 3.7V | 00:00:00 | 00:00:00 | 00:00:00 | |
| DM0DOS-11 | 2026-09-01 23:18:23 | 50.72001 | 6.08219 | 91° | 62km/h | 7511m | -8.7m/s | -28.3°C | 21.5% | 395.7hPa | 3.7V | 00:00:00 | 02:24:41 | 00:00:00 | |
| DB0UT-7 | 2026-09-01 23:18:18 | 50.72001 | 6.08118 | 92° | 64km/h | 7546m | -8.5m/s | -28.5°C | 21.5% | 393.8hPa | 3.7V | 00:00:00 | 00:00:00 | 00:00:00 | |
| DM0DOS-11 | 2026-09-01 23:18:17 | 50.72005 | 6.07968 | 94° | 60km/h | 7598m | -8.5m/s | -29°C | 21.6% | 391hPa | 3.7V | 00:00:00 | 02:24:31 | 00:00:00 | |
| BIOWL1-15 | 2026-09-01 23:18:16 | 50.72004 | 6.08018 | 93° | 62km/h | 7580m | -9m/s | -28.8°C | 21.6% | 391.9hPa | 3.7V | 00:00:00 | 00:00:00 | 00:00:00 | |
| BIOWL1-15 | 2026-09-01 23:18:04 | 50.72020 | 6.07726 | 96° | 62km/h | 7684m | -9m/s | -29.3°C | 21.5% | 386.3hPa | 3.7V | 00:00:00 | 00:00:00 | 00:00:00 | |
| DM0DOS-11 | 2026-09-01 23:18:03 | 50.72020 | 6.07726 | 95° | 64km/h | 7684m | -8.5m/s | -29.3°C | 21.5% | 386.3hPa | 3.7V | 00:00:00 | 02:24:21 | 00:00:00 | |
| DM0DOS-11 | 2026-09-01 23:17:53 | 50.72039 | 6.07471 | 96° | 68km/h | 7770m | -8.5m/s | -29.8°C | 22% | 381.7hPa | 3.7V | 00:00:00 | 02:24:11 | 00:00:00 | |
| BIOWL1-15 | 2026-09-01 23:17:53 | 50.72039 | 6.07471 | 97° | 66km/h | 7770m | -8m/s | -29.8°C | 22% | 381.7hPa | 3.7V | 00:00:00 | 00:00:00 | 00:00:00 | |
| DB0UT-7 | 2026-09-01 23:17:48 | 50.72046 | 6.07364 | 97° | 68km/h | 7804m | -8.6m/s | -30.0°C | 22.1% | 379.8hPa | 3.7V | 00:00:00 | 02:24:07 | 00:00:00 | |
| DM0DOS-11 | 2026-09-01 23:17:43 | 50.72055 | 6.07199 | 93° | 69km/h | 7856m | -8.5m/s | -30.4°C | 22.6% | 377hPa | 3.7V | 00:00:00 | 02:24:01 | 00:00:00 | |
| BIOWL1-15 | 2026-09-01 23:17:42 | 50.72055 | 6.07199 | 94° | 71km/h | 7856m | -8m/s | -30.4°C | 22.6% | 377hPa | 3.7V | 00:00:00 | 00:00:00 | 00:00:00 | |
| BIOWL1-15 | 2026-09-01 23:17:34 | 50.72065 | 6.06895 | 93° | 68km/h | 7951m | -8m/s | -31.1°C | 23.6% | 372hPa | 3.8V | 00:00:00 | 00:00:00 | 00:00:00 | |
| DM0DOS-11 | 2026-09-01 23:17:33 | 50.72064 | 6.06922 | 92° | 68km/h | 7942m | -8.8m/s | -31°C | 23.5% | 372.4hPa | 3.8V | 00:00:00 | 02:23:51 | 00:00:00 | |
| DM0DOS-11 | 2026-09-01 23:17:25 | 50.72071 | 6.06653 | 92° | 66km/h | 8030m | -9.2m/s | -31.8°C | 24.1% | 367.8hPa | 3.8V | 00:00:00 | 02:23:41 | 00:00:00 | |
| BIOWL1-15 | 2026-09-01 23:17:21 | 50.72072 | 6.06600 | 91° | 66km/h | 8049m | -8.5m/s | -32°C | 24.3% | 366.9hPa | 3.8V | 00:00:00 | 00:00:00 | 00:00:00 | |
| DB0UT-7 | 2026-09-01 23:17:18 | 50.72073 | 6.06548 | 91° | 66km/h | 8066m | -9.0m/s | -32.1°C | 24.3% | 366.0hPa | 3.8V | 00:00:00 | 00:00:00 | 00:00:00 | |
| DM0DOS-11 | 2026-09-01 23:17:13 | 50.72073 | 6.06394 | 90° | 64km/h | 8121m | -8.8m/s | -32.5°C | 24.7% | 363.2hPa | 3.8V | 00:00:00 | 02:23:31 | 00:00:00 | |
| BIOWL1-15 | 2026-09-01 23:17:09 | 50.72073 | 6.06266 | 90° | 66km/h | 8166m | -8m/s | -32.9°C | 25.4% | 361hPa | 3.8V | 00:00:00 | 00:00:00 | 00:00:00 | |
| DM0DOS-11 | 2026-09-01 23:17:03 | 50.72075 | 6.06134 | 91° | 66km/h | 8210m | -8.9m/s | -33.3°C | 25.8% | 358.7hPa | 3.8V | 00:00:00 | 02:23:21 | 00:00:00 | |
| BIOWL1-15 | 2026-09-01 23:16:59 | 50.72078 | 6.05924 | 91° | 68km/h | 8281m | -9m/s | -34°C | 26.3% | 355hPa | 3.8V | 00:00:00 | 00:00:00 | 00:00:00 | |
| DM0DOS-11 | 2026-09-01 23:16:53 | 50.72078 | 6.05870 | 90° | 68km/h | 8299m | -8.9m/s | -34.1°C | 26.2% | 354.1hPa | 3.8V | 00:00:00 | 02:23:11 | 00:00:00 | |
| BIOWL1-15 | 2026-09-01 23:16:47 | 50.72079 | 6.05736 | 90° | 68km/h | 8343m | -10m/s | -34.5°C | 26.6% | 351.9hPa | 3.8V | 00:00:00 | 00:00:00 | 00:00:00 | |
| DM0DOS-11 | 2026-09-01 23:16:43 | 50.72080 | 6.05600 | 90° | 68km/h | 8389m | -9m/s | -34.9°C | 26.2% | 349.7hPa | 3.8V | 00:00:00 | 02:23:01 | 00:00:00 | |
| BIOWL1-15 | 2026-09-01 23:16:37 | 50.72079 | 6.05408 | 88° | 69km/h | 8452m | -9m/s | -35.4°C | 25.9% | 346.5hPa | 3.8V | 00:00:00 | 00:00:00 | 00:00:00 | |
| DM0DOS-11 | 2026-09-01 23:16:33 | 50.72077 | 6.05298 | 86° | 66km/h | 8488m | -9.1m/s | -35.7°C | 25.7% | 344.7hPa | 3.9V | 00:00:00 | 02:22:50 | 00:00:00 | |
| BIOWL1-15 | 2026-09-01 23:16:25 | 50.72069 | 6.05085 | 87° | 64km/h | 8561m | -10m/s | -36.3°C | 25.7% | 341hPa | 3.9V | 00:00:00 | 00:00:00 | 00:00:00 | |
| DM0DOS-11 | 2026-09-01 23:16:23 | 50.72066 | 6.05033 | 85° | 64km/h | 8580m | -9.2m/s | -36.5°C | 25.5% | 340hPa | 3.9V | 00:00:00 | 02:22:40 | 00:00:00 | |
| BIOWL1-15 | 2026-09-01 23:16:17 | 50.72054 | 6.04803 | 85° | 62km/h | 8665m | -8m/s | -37.2°C | 24.9% | 335.9hPa | 3.9V | 00:00:00 | 00:00:00 | 00:00:00 | |
| DM0DOS-11 | 2026-09-01 23:16:14 | 50.72052 | 6.04778 | 85° | 64km/h | 8673m | -8.9m/s | -37.3°C | 24.7% | 335.4hPa | 3.9V | 00:00:00 | 02:22:30 | 00:00:00 | |
| DM0DOS-11 | 2026-09-01 23:16:04 | 50.72035 | 6.04525 | 84° | 62km/h | 8764m | -8.6m/s | -38.2°C | 24% | 330.8hPa | 3.9V | 00:00:00 | 02:22:20 | 00:00:00 | |
| BIOWL1-15 | 2026-09-01 23:16:02 | 50.72029 | 6.04425 | 83° | 62km/h | 8799m | -9m/s | -38.6°C | 23.7% | 329.1hPa | 3.9V | 00:00:00 | 00:00:00 | 00:00:00 | |
| NBG1-10 | 2026-09-01 23:15:58 | 50.72030 | 6.04449 | 85° | 49km/h | 8790m | -8.0m/s | -38.4°C | 23.7% | 329.5hPa | 3.9V | 00:00:00 | 02:22:17 | 00:00:00 | |
| DM0DOS-11 | 2026-09-01 23:15:55 | 50.72019 | 6.04275 | 84° | 66km/h | 8847m | -7.6m/s | -39°C | 23.1% | 326.7hPa | 3.9V | 00:00:00 | 02:22:10 | 00:00:00 | |
| BIOWL1-15 | 2026-09-01 23:15:49 | 50.72016 | 6.04222 | 84° | 68km/h | 8862m | -8m/s | -39.2°C | 23% | 325.9hPa | 3.9V | 00:00:00 | 00:00:00 | 00:00:00 | |
| DB0UT-7 | 2026-09-01 23:15:48 | 50.72014 | 6.04195 | 85° | 68km/h | 8870m | -7.4m/s | -39.2°C | 23.0% | 325.5hPa | 3.9V | 00:00:00 | 02:22:07 | 00:00:00 | |
| DM0DOS-11 | 2026-09-01 23:15:43 | 50.72001 | 6.04016 | 80° | 68km/h | 8921m | -7.2m/s | -39.7°C | 22.5% | 323hPa | 3.9V | 00:00:00 | 02:22:00 | 00:00:00 | |
| BIOWL1-15 | 2026-09-01 23:15:39 | 50.71989 | 6.03882 | 85° | 71km/h | 8957m | -7m/s | -40°C | 22.3% | 321.3hPa | 3.9V | 00:00:00 | 00:00:00 | 00:00:00 | |
| DM0DOS-11 | 2026-09-01 23:15:33 | 50.71983 | 6.03738 | 84° | 66km/h | 8992m | -6.7m/s | -40.2°C | 21.6% | 319.6hPa | 3.9V | 00:00:00 | 02:21:50 | 00:00:00 | |
| BIOWL1-15 | 2026-09-01 23:15:25 | 50.71980 | 6.03422 | 94° | 73km/h | 9067m | -5m/s | -40.8°C | 19.2% | 316.2hPa | 3.9V | 00:00:00 | 00:00:00 | 00:00:00 | |
| DM0DOS-11 | 2026-09-01 23:15:23 | 50.71977 | 6.03479 | 94° | 71km/h | 9056m | -5.5m/s | -40.7°C | 19.6% | 316.7hPa | 3.9V | 00:00:00 | 02:21:40 | 00:00:00 | |
| DB0UT-7 | 2026-09-01 23:15:18 | 50.71981 | 6.03393 | 94° | 71km/h | 9072m | -5.5m/s | -40.8°C | 19.0% | 316.0hPa | 3.9V | 00:00:00 | 00:00:00 | 00:00:00 | |
| DM0DOS-11 | 2026-09-01 23:15:13 | 50.71988 | 6.03197 | 93° | 69km/h | 9107m | -7.9m/s | -41°C | 17.6% | 314.4hPa | 3.9V | 00:00:00 | 02:21:30 | 00:00:00 | |
| BIOWL1-15 | 2026-09-01 23:15:11 | 50.71992 | 6.03114 | 98° | 69km/h | 9132m | -10m/s | -41.2°C | 17.1% | 313.2hPa | 3.9V | 00:00:00 | 00:00:00 | 00:00:00 | |
| DM0DOS-11 | 2026-09-01 23:15:03 | 50.72010 | 6.02891 | 96° | 71km/h | 9185m | -5.2m/s | -41.5°C | 15.5% | 310.9hPa | 4V | 00:00:00 | 02:21:19 | 00:00:00 | |
| BIOWL1-15 | 2026-09-01 23:14:58 | 50.72038 | 6.02608 | 100° | 77km/h | 9236m | -5m/s | -41.7°C | 13.8% | 308.9hPa | 4V | 00:00:00 | 00:00:00 | 00:00:00 | |
| DM0DOS-11 | 2026-09-01 23:14:51 | 50.72038 | 6.02608 | 100° | 75km/h | 9236m | -5.7m/s | -41.6°C | 13.7% | 308.9hPa | 4V | 00:00:00 | 02:21:09 | 00:00:00 | |
| DB0UT-7 | 2026-09-01 23:14:48 | 50.72044 | 6.02548 | 101° | 75km/h | 9246m | -6.2m/s | -41.7°C | 13.5% | 308.4hPa | 4.0V | 00:00:00 | 02:21:07 | 00:00:00 | |
| DM0DOS-11 | 2026-09-01 23:14:43 | 50.72074 | 6.02315 | 103° | 73km/h | 9299m | -8.1m/s | -42°C | 13% | 306.2hPa | 4V | 00:00:00 | 02:20:59 | 00:00:00 | |
| BIOWL1-15 | 2026-09-01 23:14:42 | 50.72078 | 6.02286 | 103° | 73km/h | 9306m | -8m/s | -42.1°C | 13% | 305.9hPa | 4V | 00:00:00 | 00:00:00 | 00:00:00 | |
| DM0DOS-11 | 2026-09-01 23:14:33 | 50.72110 | 6.02019 | 106° | 75km/h | 9385m | -8.9m/s | -42.9°C | 12.7% | 302.3hPa | 4V | 00:00:00 | 02:20:49 | 00:00:00 | |
| BIOWL1-15 | 2026-09-01 23:14:32 | 50.72105 | 6.02050 | 102° | 80km/h | 9376m | -9m/s | -42.8°C | 12.8% | 302.7hPa | 4V | 00:00:00 | 00:00:00 | 00:00:00 | |
| DM0DOS-11 | 2026-09-01 23:14:23 | 50.72171 | 6.01738 | 113° | 78km/h | 9477m | -8.4m/s | -43.8°C | 12.5% | 298.2hPa | 4V | 00:00:00 | 02:20:39 | 00:00:00 | |
| BIOWL1-15 | 2026-09-01 23:14:20 | 50.72171 | 6.01738 | 113° | 77km/h | 9477m | -10m/s | -43.8°C | 12.5% | 298.2hPa | 4V | 00:00:00 | 00:00:00 | 00:00:00 | |
| DB0UT-7 | 2026-09-01 23:14:18 | 50.72186 | 6.01682 | 112° | 73km/h | 9496m | -7.5m/s | -43.9°C | 12.5% | 297.3hPa | 4V | 00:00:00 | 00:00:00 | 00:00:00 | |
| DM0DOS-11 | 2026-09-01 23:14:13 | 50.72243 | 6.01433 | 105° | 82km/h | 9554m | -7.8m/s | -44.5°C | 12.3% | 294.8hPa | 4V | 00:00:00 | 02:20:29 | 00:00:00 | |
| BIOWL1-15 | 2026-09-01 23:14:09 | 50.72255 | 6.01367 | 101° | 84km/h | 9570m | -8m/s | -44.6°C | 12.2% | 294.1hPa | 4V | 00:00:00 | 00:00:00 | 00:00:00 | |
| DM0DOS-11 | 2026-09-01 23:14:03 | 50.72276 | 6.01115 | 96° | 64km/h | 9629m | -7.8m/s | -45.2°C | 12% | 291.5hPa | 4V | 00:00:00 | 02:20:19 | 00:00:00 | |
| BIOWL1-15 | 2026-09-01 23:13:59 | 50.72281 | 6.01037 | 100° | 64km/h | 9651m | -9m/s | -45.4°C | 12% | 290.5hPa | 4V | 00:00:00 | 00:00:00 | 00:00:00 | |
| DM0DOS-11 | 2026-09-01 23:13:53 | 50.72312 | 6.00872 | 113° | 73km/h | 9709m | -7.8m/s | -46°C | 11.8% | 288hPa | 4V | 00:00:00 | 02:20:09 | 00:00:00 | |
| BIOWL1-15 | 2026-09-01 23:13:47 | 50.72334 | 6.00796 | 115° | 77km/h | 9734m | -8m/s | -46.2°C | 11.6% | 287hPa | 4V | 00:00:00 | 00:00:00 | 00:00:00 | |
| DM0DOS-11 | 2026-09-01 23:13:43 | 50.72382 | 6.00578 | 101° | 78km/h | 9784m | -7.3m/s | -46.7°C | 11.5% | 284.8hPa | 4V | 00:00:00 | 02:19:59 | 00:00:00 | |
| BIOWL1-15 | 2026-09-01 23:13:37 | 50.72393 | 6.00483 | 101° | 78km/h | 9806m | -7m/s | -46.9°C | 11.4% | 283.9hPa | 4V | 00:00:00 | 00:00:00 | 00:00:00 | |
| DM0DOS-11 | 2026-09-01 23:13:33 | 50.72413 | 6.00281 | 99° | 64km/h | 9857m | -7.5m/s | -47.4°C | 11% | 281.5hPa | 4.1V | 00:00:00 | 02:19:49 | 00:00:00 | |
| BIOWL1-15 | 2026-09-01 23:13:27 | 50.72422 | 6.00206 | 107° | 62km/h | 9879m | -8m/s | -47.6°C | 11% | 280.6hPa | 4.1V | 00:00:00 | 00:00:00 | 00:00:00 | |
| DM0DOS-11 | 2026-09-01 23:13:23 | 50.72466 | 6.00043 | 117° | 78km/h | 9932m | -7.1m/s | -48.1°C | 10.8% | 278.4hPa | 4.1V | 00:00:00 | 02:19:39 | 00:00:00 | |
| BIOWL1-15 | 2026-09-01 23:13:17 | 50.72500 | 5.99930 | 110° | 84km/h | 9960m | -7m/s | -48.4°C | 10.7% | 277.2hPa | 4.1V | 00:00:00 | 00:00:00 | 00:00:00 | |
| DM0DOS-11 | 2026-09-01 23:13:13 | 50.72532 | 5.99734 | 98° | 69km/h | 10001m | -6.8m/s | -48.8°C | 10.5% | 275.4hPa | 4.1V | 00:00:00 | 02:19:29 | 00:00:00 | |
| BIOWL1-15 | 2026-09-01 23:13:05 | 50.72549 | 5.99602 | 111° | 64km/h | 10034m | -8m/s | -49.1°C | 10.5% | 274hPa | 4.1V | 00:00:00 | 00:00:00 | 00:00:00 | |
| DM0DOS-11 | 2026-09-01 23:13:03 | 50.72587 | 5.99479 | 118° | 82km/h | 10070m | -6.9m/s | -49.3°C | 10.3% | 272.5hPa | 4.1V | 00:00:00 | 02:19:19 | 00:00:00 | |
| BIOWL1-15 | 2026-09-01 23:12:54 | 50.72710 | 5.99005 | 107° | 84km/h | 10178m | -7m/s | -50.3°C | 10.1% | 268.1hPa | 4.1V | 00:00:00 | 00:00:00 | 00:00:00 | |
| DB0UT-7 | 2026-09-01 23:12:48 | 50.72690 | 5.99103 | 110° | 80km/h | 10155m | -7.5m/s | -50.1°C | 10.0% | 268.9hPa | 4.1V | 00:00:00 | 02:19:07 | 00:00:00 | |
| DM0DOS-11 | 2026-09-01 23:12:43 | 50.72741 | 5.98843 | 107° | 80km/h | 10215m | -7.3m/s | -50.7°C | 10% | 266.5hPa | 4.1V | 00:00:00 | 02:18:59 | 00:00:00 | |
| BIOWL1-15 | 2026-09-01 23:12:36 | 50.72775 | 5.98660 | 109° | 69km/h | 10258m | -7m/s | -51.1°C | 9.8% | 264.6hPa | 4.1V | 00:00:00 | 00:00:00 | 00:00:00 | |
| DM0DOS-11 | 2026-09-01 23:12:33 | 50.72802 | 5.98558 | 119° | 78km/h | 10286m | -6.8m/s | -51.4°C | 9.8% | 263.4hPa | 4.1V | 00:00:00 | 02:18:49 | 00:00:00 | |
| BIOWL1-15 | 2026-09-01 23:12:25 | 50.72854 | 5.98429 | 123° | 86km/h | 10320m | -7m/s | -51.8°C | 9.6% | 261.9hPa | 4.1V | 00:00:00 | 00:00:00 | 00:00:00 | |
| BIOWL1-15 | 2026-09-01 23:12:15 | 50.72959 | 5.98121 | 117° | 84km/h | 10385m | -6m/s | -52.4°C | 9.3% | 259.2hPa | 4.1V | 00:00:00 | 00:00:00 | 00:00:00 | |
| BIOWL1-15 | 2026-09-01 23:12:06 | 50.73059 | 5.97804 | 113° | 84km/h | 10447m | -5m/s | -53°C | 9.1% | 256.7hPa | 4.1V | 00:00:00 | 00:00:00 | 00:00:00 | |
| DM0DOS-11 | 2026-09-01 23:12:03 | 50.73096 | 5.97682 | 118° | 80km/h | 10467m | -4.8m/s | -53.2°C | 8.8% | 255.9hPa | 4.1V | 00:00:00 | 02:18:19 | 00:00:00 | |
| BIOWL1-15 | 2026-09-01 23:11:54 | 50.73151 | 5.97509 | 116° | 80km/h | 10495m | -5m/s | -53.5°C | 8.8% | 254.8hPa | 4.1V | 00:00:00 | 00:00:00 | 00:00:00 | |
| DM0DOS-11 | 2026-09-01 23:11:50 | 50.73187 | 5.97392 | 116° | 80km/h | 10516m | -5m/s | -53.7°C | 8.6% | 254hPa | 4.1V | 00:00:00 | 02:18:09 | 00:00:00 | |
| BIOWL1-15 | 2026-09-01 23:11:45 | 50.73271 | 5.97138 | 118° | 80km/h | 10561m | -5m/s | -54.1°C | 8.4% | 252.3hPa | 4.1V | 00:00:00 | 00:00:00 | 00:00:00 | |
| DM0DOS-11 | 2026-09-01 23:11:45 | 50.73281 | 5.97109 | 116° | 78km/h | 10566m | -5.3m/s | -54.1°C | 8.3% | 252.1hPa | 4.1V | 00:00:00 | 02:17:59 | 00:00:00 | |
| DM0DOS-11 | 2026-09-01 23:11:33 | 50.73374 | 5.96831 | 116° | 78km/h | 10619m | -5.4m/s | -54.6°C | 8% | 250hPa | 4.1V | 00:00:00 | 02:17:49 | 00:00:00 | |
| BIOWL1-15 | 2026-09-01 23:11:31 | 50.73365 | 5.96858 | 118° | 77km/h | 10614m | -5m/s | -54.5°C | 8.1% | 250.2hPa | 4.1V | 00:00:00 | 00:00:00 | 00:00:00 | |
| BIOWL1-15 | 2026-09-01 23:11:23 | 50.73455 | 5.96579 | 116° | 75km/h | 10667m | -5m/s | -55°C | 7.8% | 248.2hPa | 4.1V | 00:00:00 | 00:00:00 | 00:00:00 | |
| DM0DOS-11 | 2026-09-01 23:11:23 | 50.73463 | 5.96552 | 114° | 77km/h | 10672m | -5.4m/s | -55°C | 7.7% | 248hPa | 4.1V | 00:00:00 | 02:17:39 | 00:00:00 | |
| DB0UT-7 | 2026-09-01 23:11:18 | 50.73479 | 5.96498 | 114° | 77km/h | 10683m | -5.3m/s | -55.1°C | 7.6% | 247.5hPa | 4.1V | 00:00:00 | 00:00:00 | 00:00:00 | |
| DM0DOS-11 | 2026-09-01 23:11:13 | 50.73545 | 5.96273 | 116° | 75km/h | 10726m | -5m/s | -55.5°C | 7.5% | 246hPa | 4.1V | 00:00:00 | 02:17:29 | 00:00:00 | |
| BIOWL1-15 | 2026-09-01 23:11:10 | 50.73545 | 5.96273 | 116° | 75km/h | 10726m | -5m/s | -55.5°C | 7.5% | 246hPa | 4.1V | 00:00:00 | 00:00:00 | 00:00:00 | |
| DM0DOS-11 | 2026-09-01 23:11:03 | 50.73623 | 5.95996 | 112° | 77km/h | 10777m | -5.1m/s | -55.9°C | 7.2% | 244.1hPa | 4V | 00:00:00 | 02:17:19 | 00:00:00 | |
| BIOWL1-15 | 2026-09-01 23:11:00 | 50.73623 | 5.95996 | 112° | 77km/h | 10777m | -5m/s | -55.9°C | 7.3% | 244.1hPa | 4V | 00:00:00 | 00:00:00 | 00:00:00 | |
| DM0DOS-11 | 2026-09-01 23:10:53 | 50.73695 | 5.95711 | 110° | 78km/h | 10829m | -5.6m/s | -56.4°C | 7% | 242.1hPa | 4V | 00:00:00 | 02:17:09 | 00:00:00 | |
| BIOWL1-15 | 2026-09-01 23:10:51 | 50.73723 | 5.95594 | 112° | 78km/h | 10851m | -6m/s | -56.6°C | 6.9% | 241.2hPa | 4V | 00:00:00 | 00:00:00 | 00:00:00 | |
| DB0UT-7 | 2026-09-01 23:10:48 | 50.73709 | 5.95653 | 112° | 80km/h | 10840m | -5.5m/s | -56.4°C | 6.8% | 241.6hPa | 4V | 00:00:00 | 02:17:07 | 00:00:00 | |
| DM0DOS-11 | 2026-09-01 23:10:43 | 50.73765 | 5.95420 | 109° | 78km/h | 10884m | -5.8m/s | -56.9°C | 6.6% | 240hPa | 4V | 00:00:00 | 02:16:59 | 00:00:00 | |
| BIOWL1-15 | 2026-09-01 23:10:36 | 50.73793 | 5.95301 | 111° | 80km/h | 10907m | -6m/s | -57.1°C | 6.6% | 239.2hPa | 3.9V | 00:00:00 | 00:00:00 | 00:00:00 | |
| DM0DOS-11 | 2026-09-01 23:10:33 | 50.73837 | 5.95122 | 111° | 80km/h | 10941m | -5.7m/s | -57.3°C | 6.3% | 237.9hPa | 3.9V | 00:00:00 | 02:16:49 | 00:00:00 | |
| BIOWL1-15 | 2026-09-01 23:10:26 | 50.73908 | 5.94822 | 110° | 80km/h | 10997m | -6m/s | -57.8°C | 6.2% | 235.8hPa | 3.8V | 00:00:00 | 00:00:00 | 00:00:00 | |
| DM0DOS-11 | 2026-09-01 23:10:23 | 50.73908 | 5.94822 | 109° | 80km/h | 10997m | -5.8m/s | -57.8°C | 6.1% | 235.8hPa | 3.8V | 00:00:00 | 02:16:39 | 00:00:00 | |
| BIOWL1-15 | 2026-09-01 23:10:14 | 50.73964 | 5.94577 | 109° | 80km/h | 11043m | -5m/s | -58.2°C | 6% | 234.2hPa | 3.7V | 00:00:00 | 00:00:00 | 00:00:00 | |
| DM0DOS-11 | 2026-09-01 23:10:13 | 50.73978 | 5.94516 | 108° | 82km/h | 11054m | -5.8m/s | -58.3°C | 5.9% | 233.7hPa | 3.6V | 00:00:00 | 02:16:29 | 00:00:00 | |
| BIOWL1-15 | 2026-09-01 23:10:04 | 50.74031 | 5.94267 | 108° | 82km/h | 11100m | -6m/s | -58.7°C | 5.8% | 232.1hPa | 3.4V | 00:00:00 | 00:00:00 | 00:00:00 | |
| DM0DOS-11 | 2026-09-01 23:10:03 | 50.74044 | 5.94205 | 107° | 84km/h | 11112m | -5.7m/s | -58.7°C | 5.6% | 231.7hPa | 3.3V | 00:00:00 | 02:16:19 | 00:00:00 | |
| BIOWL1-15 | 2026-09-01 23:09:54 | 50.74094 | 5.93948 | 107° | 86km/h | 11158m | -6m/s | -59.1°C | 5.6% | 230hPa | 3V | 00:00:00 | 00:00:00 | 00:00:00 | |
| DM0DOS-11 | 2026-09-01 23:09:53 | 50.74106 | 5.93883 | 106° | 88km/h | 11170m | -5.6m/s | -59.1°C | 5.5% | 229.6hPa | 3V | 00:00:00 | 02:16:09 | 00:00:00 | |
| GOEST3-10 | 2026-09-01 23:09:53 | 50.74087 | 5.93981 | 107° | 88km/h | 11152m | -5.8m/s | -59.0°C | 5.5% | 230.2hPa | 3V | 00:00:00 | 00:00:00 | 00:00:00 | |
| DB0UT-7 | 2026-09-01 23:09:48 | 50.74118 | 5.93817 | 105° | 93km/h | 11181m | -5.8m/s | -59.1°C | 5.5% | 229.1hPa | 3V | 00:00:00 | 02:16:07 | 00:00:00 | |
| DM0DOS-11 | 2026-09-01 23:09:43 | 50.74163 | 5.93543 | 101° | 89km/h | 11227m | -6.1m/s | -59.4°C | 5.2% | 227.5hPa | 3V | 00:00:00 | 02:15:59 | 00:00:00 | |
| BIOWL1-15 | 2026-09-01 23:09:41 | 50.74157 | 5.93577 | 105° | 88km/h | 11222m | -5m/s | -59.4°C | 5.4% | 227.7hPa | 3V | 00:00:00 | 00:00:00 | 00:00:00 | |
| BIOWL1-15 | 2026-09-01 23:09:35 | 50.74212 | 5.93222 | 102° | 91km/h | 11280m | -6m/s | -59.9°C | 5.1% | 225.6hPa | 3V | 00:00:00 | 00:00:00 | 00:00:00 | |
| GOEST3-10 | 2026-09-01 23:09:34 | 50.74194 | 5.93330 | 104° | 93km/h | 11263m | -5.8m/s | -59.7°C | 5.1% | 226.2hPa | 3V | 00:00:00 | 02:15:53 | 00:00:00 | |
| DM0DOS-11 | 2026-09-01 23:09:33 | 50.74216 | 5.93186 | 102° | 93km/h | 11286m | -5.8m/s | -59.9°C | 5% | 225.4hPa | 3V | 00:00:00 | 02:15:49 | 00:00:00 | |
| BIOWL1-15 | 2026-09-01 23:09:24 | 50.74259 | 5.92810 | 101° | 97km/h | 11344m | -5m/s | -59.9°C | 4.8% | 223.4hPa | 3V | 00:00:00 | 00:00:00 | 00:00:00 | |
| DM0DOS-11 | 2026-09-01 23:09:23 | 50.74259 | 5.92810 | 100° | 93km/h | 11344m | -5.6m/s | -59.9°C | 4.7% | 223.4hPa | 3V | 00:00:00 | 02:15:39 | 00:00:00 | |
| GOEST3-10 | 2026-09-01 23:09:19 | 50.74263 | 5.92772 | 102° | 89km/h | 11349m | -5.9m/s | -59.8°C | 4.7% | 223.1hPa | 3.1V | 00:00:00 | 02:15:38 | 00:00:00 | |
| DB0UT-7 | 2026-09-01 23:09:18 | 50.74268 | 5.92735 | 102° | 82km/h | 11355m | -5.7m/s | -59.7°C | 4.7% | 222.9hPa | 3.1V | 00:00:00 | 00:00:00 | 00:00:00 | |
| DM0DOS-11 | 2026-09-01 23:09:13 | 50.74307 | 5.92447 | 101° | 86km/h | 11401m | -6.2m/s | -58.2°C | 4.5% | 221.4hPa | 3.1V | 00:00:00 | 02:15:29 | 00:00:00 | |
| BIOWL1-15 | 2026-09-01 23:09:09 | 50.74312 | 5.92413 | 103° | 86km/h | 11407m | -7m/s | -58.1°C | 4.6% | 221.2hPa | 3.1V | 00:00:00 | 00:00:00 | 00:00:00 | |
| BIOWL1-15 | 2026-09-01 23:08:58 | 50.74364 | 5.92050 | 101° | 80km/h | 11474m | -6m/s | -58.4°C | 4.5% | 218.9hPa | 3.1V | 00:00:00 | 00:00:00 | 00:00:00 | |
| GOEST3-10 | 2026-09-01 23:08:55 | 50.74375 | 5.91957 | 102° | 75km/h | 11492m | -6.3m/s | -58.5°C | 4.4% | 218.3hPa | 3.1V | 00:00:00 | 02:15:14 | 00:00:00 | |
| DM0DOS-11 | 2026-09-01 23:08:53 | 50.74397 | 5.91808 | 104° | 73km/h | 11523m | -6.3m/s | -58.7°C | 4.2% | 217.3hPa | 3.1V | 00:00:00 | 02:15:09 | 00:00:00 | |
| BIOWL1-15 | 2026-09-01 23:08:48 | 50.74421 | 5.91640 | 101° | 71km/h | 11561m | -6m/s | -58.7°C | 4.2% | 216.1hPa | 3.1V | 00:00:00 | 00:00:00 | 00:00:00 | |
| DB0UT-7 | 2026-09-01 23:08:48 | 50.74406 | 5.91751 | 103° | 77km/h | 11536m | -6.2m/s | -58.7°C | 4.2% | 216.8hPa | 3.1V | 00:00:00 | 02:15:07 | 00:00:00 | |
| GOEST3-10 | 2026-09-01 23:08:45 | 50.74417 | 5.91668 | 101° | 75km/h | 11555m | -6.3m/s | -58.7°C | 4.2% | 216.2hPa | 3.1V | 00:00:00 | 02:15:04 | 00:00:00 | |
| DM0DOS-11 | 2026-09-01 23:08:43 | 50.74441 | 5.91494 | 105° | 78km/h | 11594m | -6.4m/s | -58.3°C | 4.1% | 215hPa | 3.1V | 00:00:00 | 02:14:58 | 00:00:00 | |
| BIOWL1-15 | 2026-09-01 23:08:36 | 50.74469 | 5.91309 | 101° | 77km/h | 11632m | -7m/s | -58.1°C | 4.1% | 213.8hPa | 3.1V | 00:00:00 | 00:00:00 | 00:00:00 | |
| GOEST3-10 | 2026-09-01 23:08:34 | 50.74465 | 5.91339 | 102° | 75km/h | 11626m | -6.5m/s | -58.1°C | 4.0% | 213.9hPa | 3.1V | 00:00:00 | 02:14:53 | 00:00:00 | |
| DM0DOS-11 | 2026-09-01 23:08:33 | 50.74482 | 5.91188 | 98° | 77km/h | 11658m | -6.3m/s | -57.5°C | 4% | 213hPa | 3.1V | 00:00:00 | 02:14:48 | 00:00:00 | |
| DM0DOS-11 | 2026-09-01 23:08:23 | 50.74509 | 5.90886 | 94° | 78km/h | 11719m | -8m/s | -57.5°C | 3.8% | 210.9hPa | 3.1V | 00:00:00 | 02:14:38 | 00:00:00 | |
| BIOWL1-15 | 2026-09-01 23:08:23 | 50.74512 | 5.90792 | 95° | 82km/h | 11741m | -9m/s | -57.6°C | 3.9% | 210.2hPa | 3.2V | 00:00:00 | 00:00:00 | 00:00:00 | |
| DB0UT-7 | 2026-09-01 23:08:18 | 50.74510 | 5.90855 | 93° | 75km/h | 11725m | -8.7m/s | -57.5°C | 3.8% | 210.6hPa | 3.2V | 00:00:00 | 00:00:00 | 00:00:00 | |
| DM0DOS-11 | 2026-09-01 23:08:13 | 50.74535 | 5.90569 | 104° | 73km/h | 11807m | -9.2m/s | -56.7°C | 3.7% | 208hPa | 3.2V | 00:00:00 | 02:14:28 | 00:00:00 | |
| BIOWL1-15 | 2026-09-01 23:08:09 | 50.74535 | 5.90569 | 105° | 78km/h | 11807m | -9m/s | -56.7°C | 3.8% | 208hPa | 3.2V | 00:00:00 | 00:00:00 | 00:00:00 | |
| DM0DOS-11 | 2026-09-01 23:08:03 | 50.74576 | 5.90291 | 103° | 69km/h | 11898m | -8.9m/s | -55.6°C | 3.7% | 205hPa | 3.2V | 00:00:00 | 02:14:18 | 00:00:00 | |
| BIOWL1-15 | 2026-09-01 23:07:58 | 50.74580 | 5.90265 | 106° | 68km/h | 11907m | -9m/s | -55.5°C | 3.8% | 204.7hPa | 3.2V | 00:00:00 | 00:00:00 | 00:00:00 | |
| DM0DOS-11 | 2026-09-01 23:07:53 | 50.74635 | 5.90015 | 101° | 75km/h | 11987m | -8.9m/s | -55.2°C | 3.6% | 202hPa | 3.2V | 00:00:00 | 02:14:08 | 00:00:00 | |
| BIOWL1-15 | 2026-09-01 23:07:47 | 50.74643 | 5.89953 | 98° | 77km/h | 12005m | -9m/s | -55°C | 3.7% | 201.4hPa | 3.2V | 00:00:00 | 00:00:00 | 00:00:00 | |
| BIOWL1-15 | 2026-09-01 23:07:37 | 50.74664 | 5.89603 | 103° | 73km/h | 12110m | -7m/s | -54.4°C | 3.6% | 198.1hPa | 3.2V | 00:00:00 | 00:00:00 | 00:00:00 | |
| BIOWL1-15 | 2026-09-01 23:07:24 | 50.74682 | 5.89291 | 99° | 71km/h | 12177m | -6m/s | -53.6°C | 3.6% | 196.1hPa | 3.2V | 00:00:00 | 00:00:00 | 00:00:00 | |
| DM0DOS-11 | 2026-09-01 23:07:23 | 50.74694 | 5.89175 | 99° | 73km/h | 12200m | -6m/s | -53.1°C | 3.5% | 195.3hPa | 3.2V | 00:00:00 | 02:13:38 | 00:00:00 | |
| BIOWL1-15 | 2026-09-01 23:07:13 | 50.74712 | 5.89005 | 102° | 73km/h | 12237m | -6m/s | -52.3°C | 3.5% | 194.2hPa | 3.2V | 00:00:00 | 00:00:00 | 00:00:00 | |
| DM0DOS-11 | 2026-09-01 23:07:13 | 50.74729 | 5.88888 | 100° | 78km/h | 12262m | -5.3m/s | -52.3°C | 3.5% | 193.5hPa | 3.3V | 00:00:00 | 02:13:28 | 00:00:00 | |
| DL1XH1-15 | 2026-09-01 23:07:12 | 50.74721 | 5.88948 | 102° | 77km/h | 12250m | -5.3m/s | -52.3°C | 3.5% | 193.8hPa | 3.2V | 00:00:00 | 02:13:30 | 00:00:00 | |
| DM0DOS-11 | 2026-09-01 23:07:03 | 50.74753 | 5.88579 | 93° | 69km/h | 12313m | -5.4m/s | -52.1°C | 3.5% | 191.9hPa | 3.3V | 00:00:00 | 02:13:18 | 00:00:00 | |
| BIOWL1-15 | 2026-09-01 23:07:03 | 50.74751 | 5.88609 | 96° | 75km/h | 12307m | -6m/s | -52°C | 3.5% | 192.1hPa | 3.3V | 00:00:00 | 00:00:00 | 00:00:00 | |
| DL1XH1-15 | 2026-09-01 23:07:02 | 50.74749 | 5.88639 | 94° | 71km/h | 12302m | -5.5m/s | -52°C | 3.5% | 192.3hPa | 3.3V | 00:00:00 | 02:13:20 | 00:00:00 | |
| DM0DOS-11 | 2026-09-01 23:06:53 | 50.74781 | 5.88327 | 111° | 69km/h | 12371m | -5.6m/s | -51.9°C | 3.5% | 190.2hPa | 3.3V | 00:00:00 | 02:13:08 | 00:00:00 | |
| BIOWL1-15 | 2026-09-01 23:06:52 | 50.74765 | 5.88393 | 106° | 55km/h | 12351m | -6m/s | -52.1°C | 3.6% | 190.8hPa | 3.3V | 00:00:00 | 00:00:00 | 00:00:00 | |
| DL1XH1-15 | 2026-09-01 23:06:52 | 50.74769 | 5.88372 | 112° | 68km/h | 12357m | -5.9m/s | -52°C | 3.5% | 190.6hPa | 3.3V | 00:00:00 | 02:13:10 | 00:00:00 | |
| DB0UT-7 | 2026-09-01 23:06:48 | 50.74787 | 5.88302 | 107° | 66km/h | 12377m | -5.4m/s | -51.8°C | 3.5% | 190.0hPa | 3.3V | 00:00:00 | 02:13:07 | 00:00:00 | |
| DM0DOS-11 | 2026-09-01 23:06:43 | 50.74823 | 5.88066 | 112° | 66km/h | 12429m | -5.8m/s | -51.9°C | 3.5% | 188.4hPa | 3.3V | 00:00:00 | 02:12:58 | 00:00:00 | |
| BIOWL1-15 | 2026-09-01 23:06:42 | 50.74840 | 5.87996 | 103° | 68km/h | 12446m | -5m/s | -52°C | 3.5% | 187.9hPa | 3.3V | 00:00:00 | 00:00:00 | 00:00:00 | |
| DL1XH-west | 2026-09-01 23:06:37 | 50.74834 | 5.88020 | 0° | 0km/h | 12441m | 0m/s | -52°C | 3.6% | 188.1hPa | 3.3V | 00:00:00 | 00:00:00 | 00:00:00 | |
| DL1XH1-15 | 2026-09-01 23:06:37 | 50.74834 | 5.88020 | 110° | 68km/h | 12441m | -5.6m/s | -52°C | 3.5% | 188.1hPa | 3.3V | 00:00:00 | 02:12:56 | 00:00:00 | |
| DM0DOS-11 | 2026-09-01 23:06:33 | 50.74862 | 5.87804 | 102° | 66km/h | 12487m | -6m/s | -52.1°C | 3.5% | 186.7hPa | 3.3V | 00:00:00 | 02:12:48 | 00:00:00 | |
| GOEST3-10 | 2026-09-01 23:06:33 | 50.74851 | 5.87914 | 99° | 68km/h | 12463m | -6.0m/s | -51.9°C | 3.5% | 187.4hPa | 3.3V | 00:00:00 | 00:00:00 | 00:00:00 | |
| BIOWL1-15 | 2026-09-01 23:06:33 | 50.74859 | 5.87831 | 100° | 68km/h | 12482m | -5m/s | -52°C | 3.6% | 186.9hPa | 3.3V | 00:00:00 | 00:00:00 | 00:00:00 | |
| DL1XH1-15 | 2026-09-01 23:06:27 | 50.74870 | 5.87752 | 102° | 64km/h | 12500m | -5.5m/s | -52.2°C | 3.5% | 186.3hPa | 3.3V | 00:00:00 | 02:12:46 | 00:00:00 | |
| DL1XH-west | 2026-09-01 23:06:26 | 50.74873 | 5.87727 | 0° | 0km/h | 12505m | 0m/s | -52.2°C | 3.6% | 186.2hPa | 3.3V | 00:00:00 | 00:00:00 | 00:00:00 | |
| BIOWL1-15 | 2026-09-01 23:06:24 | 50.74887 | 5.87581 | 93° | 62km/h | 12539m | -8m/s | -52.5°C | 3.5% | 185.2hPa | 3.3V | 00:00:00 | 00:00:00 | 00:00:00 | |
| DM0DOS-11 | 2026-09-01 23:06:23 | 50.74888 | 5.87557 | 92° | 69km/h | 12547m | -5.5m/s | -52.5°C | 3.5% | 185hPa | 3.3V | 00:00:00 | 02:12:38 | 00:00:00 | |
| DL1XH1-15 | 2026-09-01 23:06:17 | 50.74890 | 5.87505 | 97° | 69km/h | 12557m | -5.8m/s | -52.6°C | 3.5% | 184.7hPa | 3.3V | 00:00:00 | 02:12:36 | 00:00:00 | |
| DM0DOS-11 | 2026-09-01 23:06:13 | 50.74907 | 5.87275 | 93° | 68km/h | 12604m | -5.4m/s | -52.8°C | 3.5% | 183.4hPa | 3.3V | 00:00:00 | 02:12:28 | 00:00:00 | |
| BIOWL1-15 | 2026-09-01 23:06:10 | 50.74908 | 5.87248 | 95° | 66km/h | 12609m | -5m/s | -52.8°C | 3.6% | 183.3hPa | 3.3V | 00:00:00 | 00:00:00 | 00:00:00 | |
| BIOWL1-15 | 2026-09-01 23:06:02 | 50.74926 | 5.87008 | 96° | 69km/h | 12658m | -5m/s | -52.9°C | 3.5% | 182hPa | 3.3V | 00:00:00 | 00:00:00 | 00:00:00 | |
| DL1XH1-15 | 2026-09-01 23:05:57 | 50.74932 | 5.86893 | 97° | 75km/h | 12680m | -5.5m/s | -52.8°C | 3.5% | 181.4hPa | 3.3V | 00:00:00 | 02:12:14 | 00:00:00 | |
| DM0DOS-11 | 2026-09-01 23:05:53 | 50.74947 | 5.86713 | 99° | 75km/h | 12713m | -5.6m/s | -52.8°C | 3.5% | 180.5hPa | 3.4V | 00:00:00 | 02:12:08 | 00:00:00 | |
| BIOWL1-15 | 2026-09-01 23:05:49 | 50.74947 | 5.86713 | 100° | 78km/h | 12713m | -6m/s | -52.8°C | 3.6% | 180.5hPa | 3.4V | 00:00:00 | 00:00:00 | 00:00:00 | |
| DL1XH-west | 2026-09-01 23:05:43 | 50.74962 | 5.86534 | 0° | 0km/h | 12746m | 0m/s | -52.8°C | 3.6% | 179.6hPa | 3.4V | 00:00:00 | 00:00:00 | 00:00:00 | |
| DL1XH1-15 | 2026-09-01 23:05:42 | 50.74971 | 5.86423 | 97° | 71km/h | 12768m | -5.9m/s | -52.9°C | 3.5% | 179hPa | 3.4V | 00:00:00 | 02:11:58 | 00:00:00 | |
| BIOWL1-15 | 2026-09-01 23:05:38 | 50.74973 | 5.86396 | 96° | 69km/h | 12774m | -6m/s | -52.9°C | 3.5% | 178.8hPa | 3.4V | 00:00:00 | 00:00:00 | 00:00:00 | |
| DL1XH1-15 | 2026-09-01 23:05:32 | 50.74985 | 5.86139 | 91° | 73km/h | 12826m | -5.6m/s | -53.1°C | 3.5% | 177.4hPa | 3.4V | 00:00:00 | 02:11:48 | 00:00:00 | |
| DL1XH-west | 2026-09-01 23:05:31 | 50.74984 | 5.86168 | 0° | 0km/h | 12819m | 0m/s | -53.1°C | 3.5% | 177.6hPa | 3.4V | 00:00:00 | 00:00:00 | 00:00:00 | |
| BIOWL1-15 | 2026-09-01 23:05:27 | 50.74986 | 5.86082 | 94° | 71km/h | 12838m | -5m/s | -53.1°C | 3.5% | 177.1hPa | 3.4V | 00:00:00 | 00:00:00 | 00:00:00 | |
| DL1XH1-15 | 2026-09-01 23:05:22 | 50.75006 | 5.85841 | 92° | 75km/h | 12879m | -8.4m/s | -52.8°C | 3.5% | 175.8hPa | 3.4V | 00:00:00 | 02:11:38 | 00:00:00 | |
| DL1XH-west | 2026-09-01 23:05:20 | 50.75005 | 5.85873 | 0° | 0km/h | 12873m | 0m/s | -52.8°C | 3.5% | 176hPa | 3.4V | 00:00:00 | 00:00:00 | 00:00:00 | |
| BIOWL1-15 | 2026-09-01 23:05:17 | 50.75017 | 5.85692 | 104° | 71km/h | 12925m | -9m/s | -52.6°C | 3.5% | 174.6hPa | 3.4V | 00:00:00 | 00:00:00 | 00:00:00 | |
| DL1XH1-15 | 2026-09-01 23:05:12 | 50.75039 | 5.85549 | 103° | 71km/h | 12958m | -5.8m/s | -52.4°C | 3.5% | 173.7hPa | 3.4V | 00:00:00 | 02:11:28 | 00:00:00 | |
| BIOWL1-15 | 2026-09-01 23:05:10 | 50.75061 | 5.85409 | 101° | 66km/h | 12986m | -5m/s | -52°C | 3.5% | 173hPa | 3.4V | 00:00:00 | 00:00:00 | 00:00:00 | |
| DL1XH-west | 2026-09-01 23:05:09 | 50.75039 | 5.85549 | 0° | 0km/h | 12958m | 0m/s | -52.4°C | 3.5% | 173.7hPa | 3.4V | 00:00:00 | 00:00:00 | 00:00:00 | |
| DL1XH1-15 | 2026-09-01 23:05:02 | 50.75075 | 5.85281 | 99° | 66km/h | 13018m | -5.2m/s | -52.2°C | 3.5% | 172.2hPa | 3.4V | 00:00:00 | 02:11:18 | 00:00:00 | |
| DL1XH-west | 2026-09-01 23:04:59 | 50.75075 | 5.85281 | 0° | 0km/h | 13018m | 0m/s | -52.2°C | 3.5% | 172.2hPa | 3.4V | 00:00:00 | 00:00:00 | 00:00:00 | |
| BIOWL1-15 | 2026-09-01 23:04:54 | 50.75087 | 5.85151 | 100° | 68km/h | 13043m | -6m/s | -52.3°C | 3.5% | 171.5hPa | 3.4V | 00:00:00 | 00:00:00 | 00:00:00 | |
| DL1XH1-15 | 2026-09-01 23:04:52 | 50.75105 | 5.85017 | 103° | 66km/h | 13071m | -5.7m/s | -52.3°C | 3.5% | 170.7hPa | 3.4V | 00:00:00 | 02:11:08 | 00:00:00 | |
| DL1XH-west | 2026-09-01 23:04:48 | 50.75108 | 5.84992 | 0° | 0km/h | 13077m | 0m/s | -52.3°C | 3.5% | 170.6hPa | 3.4V | 00:00:00 | 00:00:00 | 00:00:00 | |
| BIOWL1-15 | 2026-09-01 23:04:43 | 50.75130 | 5.84754 | 101° | 69km/h | 13128m | -6m/s | -52.5°C | 3.5% | 169.2hPa | 3.4V | 00:00:00 | 00:00:00 | 00:00:00 | |
| DL1XH1-15 | 2026-09-01 23:04:42 | 50.75130 | 5.84754 | 101° | 68km/h | 13128m | -6m/s | -52.5°C | 3.5% | 169.2hPa | 3.4V | 00:00:00 | 02:10:58 | 00:00:00 | |
| DL1XH-west | 2026-09-01 23:04:37 | 50.75138 | 5.84699 | 0° | 0km/h | 13140m | 0m/s | -52.5°C | 3.5% | 168.9hPa | 3.4V | 00:00:00 | 00:00:00 | 00:00:00 | |
| BIOWL1-15 | 2026-09-01 23:04:33 | 50.75166 | 5.84544 | 102° | 66km/h | 13176m | -6m/s | -52.5°C | 3.5% | 168hPa | 3.4V | 00:00:00 | 00:00:00 | 00:00:00 | |
| DL1XH1-15 | 2026-09-01 23:04:32 | 50.75172 | 5.84493 | 96° | 66km/h | 13188m | -6.2m/s | -52.4°C | 3.5% | 167.7hPa | 3.4V | 00:00:00 | 02:10:48 | 00:00:00 | |
| DL1XH-west | 2026-09-01 23:04:27 | 50.75175 | 5.84440 | 0° | 0km/h | 13200m | 0m/s | -52.4°C | 3.5% | 167.4hPa | 3.4V | 00:00:00 | 00:00:00 | 00:00:00 | |
| GOEST3-10 | 2026-09-01 23:04:24 | 50.75180 | 5.84362 | 96° | 64km/h | 13220m | -5.9m/s | -52.6°C | 3.5% | 166.9hPa | 3.4V | 00:00:00 | 00:00:00 | 00:00:00 | |
| DL1XH1-15 | 2026-09-01 23:04:22 | 50.75194 | 5.84237 | 107° | 66km/h | 13250m | -5.9m/s | -52.6°C | 3.5% | 166.2hPa | 3.4V | 00:00:00 | 02:10:38 | 00:00:00 | |
| BIOWL1-15 | 2026-09-01 23:04:20 | 50.75190 | 5.84263 | 103° | 66km/h | 13244m | -6m/s | -52.6°C | 3.5% | 166.3hPa | 3.4V | 00:00:00 | 00:00:00 | 00:00:00 | |
| DL1XH-west | 2026-09-01 23:04:17 | 50.75203 | 5.84187 | 0° | 0km/h | 13262m | 0m/s | -52.6°C | 3.5% | 165.9hPa | 3.4V | 00:00:00 | 00:00:00 | 00:00:00 | |
| GOEST3-10 | 2026-09-01 23:04:13 | 50.75216 | 5.84081 | 102° | 62km/h | 13285m | -5.9m/s | -52.5°C | 3.5% | 165.2hPa | 3.4V | 00:00:00 | 00:00:00 | 00:00:00 | |
| DL1XH1-15 | 2026-09-01 23:04:12 | 50.75231 | 5.83978 | 104° | 62km/h | 13309m | -5.8m/s | -52.6°C | 3.5% | 164.7hPa | 3.5V | 00:00:00 | 02:10:28 | 00:00:00 | |
| BIOWL1-15 | 2026-09-01 23:04:10 | 50.75238 | 5.83930 | 100° | 60km/h | 13320m | -6m/s | -52.6°C | 3.5% | 164.4hPa | 3.5V | 00:00:00 | 00:00:00 | 00:00:00 | |
| DL1XH-west | 2026-09-01 23:04:06 | 50.75240 | 5.83907 | 0° | 0km/h | 13326m | 0m/s | -52.6°C | 3.5% | 164.2hPa | 3.5V | 00:00:00 | 00:00:00 | 00:00:00 | |
| GOEST3-10 | 2026-09-01 23:04:03 | 50.75246 | 5.83832 | 101° | 62km/h | 13344m | -6.1m/s | -52.5°C | 3.5% | 163.7hPa | 3.5V | 00:00:00 | 00:00:00 | 00:00:00 | |
| DL1XH1-15 | 2026-09-01 23:04:02 | 50.75259 | 5.83733 | 107° | 60km/h | 13368m | -6.3m/s | -52.7°C | 3.5% | 163.1hPa | 3.5V | 00:00:00 | 02:10:18 | 00:00:00 | |
| DL1XH-west | 2026-09-01 23:03:56 | 50.75272 | 5.83666 | 0° | 0km/h | 13387m | 0m/s | -52.9°C | 3.6% | 162.7hPa | 3.5V | 00:00:00 | 00:00:00 | 00:00:00 | |
| BIOWL1-15 | 2026-09-01 23:03:46 | 50.75278 | 5.83352 | 90° | 58km/h | 13464m | -6m/s | -53.3°C | 3.6% | 160.8hPa | 3.5V | 00:00:00 | 00:00:00 | 00:00:00 | |
| DL1XH-west | 2026-09-01 23:03:45 | 50.75278 | 5.83375 | 0° | 0km/h | 13457m | 0m/s | -53.3°C | 3.5% | 160.9hPa | 3.5V | 00:00:00 | 00:00:00 | 00:00:00 | |
| GOEST3-10 | 2026-09-01 23:03:43 | 50.75278 | 5.83329 | 91° | 66km/h | 13470m | -6.8m/s | -53.2°C | 3.5% | 160.6hPa | 3.5V | 00:00:00 | 00:00:00 | 00:00:00 | |
| DL1XH1-15 | 2026-09-01 23:03:42 | 50.75279 | 5.83230 | 96° | 66km/h | 13499m | -6.4m/s | -53.5°C | 3.5% | 159.9hPa | 3.5V | 00:00:00 | 02:09:58 | 00:00:00 | |
| BIOWL1-15 | 2026-09-01 23:03:35 | 50.75295 | 5.83072 | 99° | 69km/h | 13536m | -6m/s | -53.7°C | 3.6% | 159hPa | 3.5V | 00:00:00 | 00:00:00 | 00:00:00 | |
| GOEST3-10 | 2026-09-01 23:03:33 | 50.75295 | 5.83072 | 99° | 68km/h | 13536m | -5.9m/s | -53.7°C | 3.5% | 158.9hPa | 3.5V | 00:00:00 | 00:00:00 | 00:00:00 | |
| DL1XH1-15 | 2026-09-01 23:03:32 | 50.75304 | 5.82962 | 97° | 66km/h | 13560m | -6m/s | -53.6°C | 3.5% | 158.4hPa | 3.5V | 00:00:00 | 02:09:48 | 00:00:00 | |
| BIOWL1-15 | 2026-09-01 23:03:26 | 50.75317 | 5.82835 | 98° | 68km/h | 13590m | -5m/s | -53.6°C | 3.6% | 157.7hPa | 3.5V | 00:00:00 | 00:00:00 | 00:00:00 | |
| DL1XH-west | 2026-09-01 23:03:26 | 50.75312 | 5.82886 | 0° | 0km/h | 13578m | 0m/s | -53.5°C | 3.6% | 158hPa | 3.5V | 00:00:00 | 00:00:00 | 00:00:00 | |
| BIOWL1-15 | 2026-09-01 23:03:22 | 50.75344 | 5.82542 | 102° | 71km/h | 13647m | -7m/s | -53.3°C | 3.6% | 156.3hPa | 3.5V | 00:00:00 | 00:00:00 | 00:00:00 | |
| DL1XH1-15 | 2026-09-01 23:03:22 | 50.75327 | 5.82690 | 98° | 75km/h | 13619m | -5.7m/s | -53.5°C | 3.5% | 157hPa | 3.5V | 00:00:00 | 02:09:38 | 00:00:00 | |
| DL1XH-west | 2026-09-01 23:03:15 | 50.75340 | 5.82570 | 0° | 0km/h | 13641m | 0m/s | -53.4°C | 3.6% | 156.5hPa | 3.5V | 00:00:00 | 00:00:00 | 00:00:00 | |
| BIOWL1-15 | 2026-09-01 23:03:08 | 50.75404 | 5.82106 | 106° | 75km/h | 13735m | -5m/s | -53.2°C | 3.6% | 154.3hPa | 3.5V | 00:00:00 | 00:00:00 | 00:00:00 | |
| DL1XH-west | 2026-09-01 23:03:05 | 50.75375 | 5.82279 | 0° | 0km/h | 13701m | 0m/s | -53.3°C | 3.6% | 155hPa | 3.5V | 00:00:00 | 00:00:00 | 00:00:00 | |
| GOEST3-10 | 2026-09-01 23:03:03 | 50.75386 | 5.82223 | 105° | 75km/h | 13713m | -5.5m/s | -53.3°C | 3.5% | 154.7hPa | 3.5V | 00:00:00 | 00:00:00 | 00:00:00 | |
| DL1XH1-15 | 2026-09-01 23:03:02 | 50.75404 | 5.82106 | 106° | 75km/h | 13735m | -5.8m/s | -53.2°C | 3.5% | 154.2hPa | 3.5V | 00:00:00 | 02:09:18 | 00:00:00 | |
| DL1XH-west | 2026-09-01 23:02:54 | 50.75432 | 5.81966 | 0° | 0km/h | 13765m | 0m/s | -52.9°C | 3.6% | 153.5hPa | 3.5V | 00:00:00 | 00:00:00 | 00:00:00 | |
| BIOWL1-15 | 2026-09-01 23:02:53 | 50.75437 | 5.81937 | 102° | 75km/h | 13771m | -5m/s | -52.8°C | 3.6% | 153.4hPa | 3.5V | 00:00:00 | 00:00:00 | 00:00:00 | |
| DL1XH-west | 2026-09-01 23:02:44 | 50.75466 | 5.81661 | 0° | 0km/h | 13825m | 0m/s | -53.1°C | 3.6% | 152.1hPa | 3.5V | 00:00:00 | 00:00:00 | 00:00:00 | |
| BIOWL1-15 | 2026-09-01 23:02:43 | 50.75482 | 5.81571 | 110° | 75km/h | 13842m | -5m/s | -52.9°C | 3.6% | 151.7hPa | 3.5V | 00:00:00 | 00:00:00 | 00:00:00 | |
| DL1XH-west | 2026-09-01 23:02:34 | 50.75529 | 5.81358 | 0° | 0km/h | 13888m | 0m/s | -52.1°C | 3.6% | 150.7hPa | 3.5V | 00:00:00 | 00:00:00 | 00:00:00 | |
| BIOWL1-15 | 2026-09-01 23:02:31 | 50.75544 | 5.81287 | 110° | 62km/h | 13906m | -6m/s | -51.7°C | 3.6% | 150.3hPa | 3.5V | 00:00:00 | 00:00:00 | 00:00:00 | |
| DL1XH-west | 2026-09-01 23:02:23 | 50.75579 | 5.81118 | 0° | 0km/h | 13945m | 0m/s | -50.8°C | 3.6% | 149.4hPa | 3.5V | 00:00:00 | 00:00:00 | 00:00:00 | |
| DM0DOS-11 | 2026-09-01 23:02:20 | 50.75599 | 5.81029 | 111° | 62km/h | 13970m | -6m/s | -50.8°C | 3.5% | 148.8hPa | 3.5V | 00:00:00 | 02:08:38 | 00:00:00 | |
| BIOWL1-15 | 2026-09-01 23:02:20 | 50.75622 | 5.80934 | 108° | 64km/h | 13994m | -6m/s | -50.9°C | 3.6% | 148.3hPa | 3.5V | 00:00:00 | 00:00:00 | 00:00:00 | |
| DL1XH-west | 2026-09-01 23:02:14 | 50.75632 | 5.80885 | 0° | 0km/h | 14007m | 0m/s | -51°C | 3.6% | 148hPa | 3.5V | 00:00:00 | 00:00:00 | 00:00:00 | |
| GOEST3-10 | 2026-09-01 23:02:13 | 50.75632 | 5.80885 | 107° | 49km/h | 14007m | -5.7m/s | -50.9°C | 3.5% | 148.0hPa | 3.6V | 00:00:00 | 02:08:32 | 00:00:00 | |
| DM0DOS-11 | 2026-09-01 23:02:10 | 50.75647 | 5.80804 | 108° | 47km/h | 14030m | -6m/s | -50.9°C | 3.5% | 147.5hPa | 3.6V | 00:00:00 | 02:08:28 | 00:00:00 | |
| BIOWL1-15 | 2026-09-01 23:02:09 | 50.75647 | 5.80804 | 108° | 44km/h | 14030m | -6m/s | -50.9°C | 3.6% | 147.5hPa | 3.6V | 00:00:00 | 00:00:00 | 00:00:00 | |
| DL1XH-west | 2026-09-01 23:02:03 | 50.75677 | 5.80669 | 0° | 0km/h | 14071m | 0m/s | -50.8°C | 3.6% | 146.6hPa | 3.6V | 00:00:00 | 00:00:00 | 00:00:00 | |
| BIOWL1-15 | 2026-09-01 23:02:01 | 50.75688 | 5.80609 | 105° | 42km/h | 14092m | -6m/s | -51°C | 3.6% | 146.1hPa | 3.6V | 00:00:00 | 00:00:00 | 00:00:00 | |
| DM0DOS-11 | 2026-09-01 23:02:00 | 50.75688 | 5.80609 | 104° | 42km/h | 14092m | -6.7m/s | -51°C | 3.5% | 146.1hPa | 3.6V | 00:00:00 | 02:08:18 | 00:00:00 | |
| DL1XH-west | 2026-09-01 23:01:52 | 50.75700 | 5.80495 | 0° | 0km/h | 14142m | 0m/s | -51.4°C | 3.6% | 145hPa | 3.6V | 00:00:00 | 00:00:00 | 00:00:00 | |
| DM0DOS-11 | 2026-09-01 23:01:50 | 50.75709 | 5.80436 | 100° | 44km/h | 14161m | -6.3m/s | -51.5°C | 3.5% | 144.6hPa | 3.6V | 00:00:00 | 02:08:08 | 00:00:00 | |
| BIOWL1-15 | 2026-09-01 23:01:49 | 50.75713 | 5.80367 | 90° | 38km/h | 14186m | -6m/s | -51.6°C | 3.6% | 144hPa | 3.6V | 00:00:00 | 00:00:00 | 00:00:00 | |
| DL1XH-west | 2026-09-01 23:01:41 | 50.75714 | 5.80302 | 0° | 0km/h | 14211m | 0m/s | -51.8°C | 3.6% | 143.5hPa | 3.6V | 00:00:00 | 00:00:00 | 00:00:00 | |
| DM0DOS-11 | 2026-09-01 23:01:40 | 50.75716 | 5.80266 | 97° | 49km/h | 14223m | -6.6m/s | -51.8°C | 3.5% | 143.2hPa | 3.6V | 00:00:00 | 02:07:58 | 00:00:00 | |
| BIOWL1-15 | 2026-09-01 23:01:37 | 50.75719 | 5.80228 | 93° | 51km/h | 14235m | -7m/s | -51.8°C | 3.6% | 143hPa | 3.6V | 00:00:00 | 00:00:00 | 00:00:00 | |
| DL1XH-west | 2026-09-01 23:01:30 | 50.75717 | 5.80087 | 0° | 0km/h | 14287m | 0m/s | -51.7°C | 3.6% | 141.8hPa | 3.6V | 00:00:00 | 00:00:00 | 00:00:00 | |
| DM0DOS-11 | 2026-09-01 23:01:29 | 50.75714 | 5.80066 | 83° | 55km/h | 14298m | -7.6m/s | -51.7°C | 3.5% | 141.6hPa | 3.6V | 00:00:00 | 02:07:48 | 00:00:00 | |
| BIOWL1-15 | 2026-09-01 23:01:26 | 50.75711 | 5.80004 | 87° | 55km/h | 14322m | -8m/s | -51.8°C | 3.6% | 141.1hPa | 3.6V | 00:00:00 | 00:00:00 | 00:00:00 | |
| DL1XH-west | 2026-09-01 23:01:20 | 50.75705 | 5.79866 | 0° | 0km/h | 14361m | 0m/s | -51.7°C | 3.6% | 140.2hPa | 3.6V | 00:00:00 | 00:00:00 | 00:00:00 | |
| DM0DOS-11 | 2026-09-01 23:01:19 | 50.75704 | 5.79843 | 85° | 55km/h | 14368m | -7.1m/s | -51.7°C | 3.5% | 140.1hPa | 3.6V | 00:00:00 | 02:07:38 | 00:00:00 | |
| DB0UT-7 | 2026-09-01 23:01:18 | 50.75703 | 5.79819 | 87° | 58km/h | 14377m | -6.5m/s | -51.6°C | 3.5% | 139.8hPa | 3.6V | 00:00:00 | 00:00:00 | 00:00:00 | |
| GOEST3-10 | 2026-09-01 23:01:17 | 50.75702 | 5.79797 | 81° | 57km/h | 14383m | -6.6m/s | -51.5°C | 3.5% | 139.7hPa | 3.6V | 00:00:00 | 02:07:36 | 00:00:00 | |
| GOEST3-10 | 2026-09-01 23:01:12 | 50.75688 | 5.79693 | 79° | 58km/h | 14417m | -6.4m/s | -51.5°C | 3.6% | 139.0hPa | 3.6V | 00:00:00 | 00:00:00 | 00:00:00 | |
| DL1XH1-15 | 2026-09-01 23:01:11 | 50.75683 | 5.79620 | 94° | 58km/h | 14436m | -6.4m/s | -51.3°C | 3.6% | 138.6hPa | 3.6V | 00:00:00 | 02:07:28 | 00:00:00 | |
| DL1XH-west | 2026-09-01 23:01:10 | 50.75683 | 5.79620 | 0° | 0km/h | 14436m | 0m/s | -51.3°C | 3.7% | 138.6hPa | 3.6V | 00:00:00 | 00:00:00 | 00:00:00 | |
| BIOWL1-15 | 2026-09-01 23:01:03 | 50.75689 | 5.79444 | 73° | 53km/h | 14489m | -8m/s | -51.2°C | 3.7% | 137.5hPa | 3.6V | 00:00:00 | 00:00:00 | 00:00:00 | |
| GOEST3-10 | 2026-09-01 23:01:02 | 50.75692 | 5.79464 | 78° | 60km/h | 14481m | -7.9m/s | -51.2°C | 3.5% | 137.6hPa | 3.6V | 00:00:00 | 00:00:00 | 00:00:00 | |
| DL1XH1-15 | 2026-09-01 23:01:01 | 50.75682 | 5.79402 | 77° | 64km/h | 14507m | -7.2m/s | -51.2°C | 3.6% | 137.1hPa | 3.6V | 00:00:00 | 02:07:18 | 00:00:00 | |
| DL1XH-west | 2026-09-01 23:00:58 | 50.75678 | 5.79378 | 0° | 0km/h | 14515m | 0m/s | -51.3°C | 3.7% | 137hPa | 3.6V | 00:00:00 | 00:00:00 | 00:00:00 | |
| BIOWL1-15 | 2026-09-01 23:00:53 | 50.75682 | 5.79180 | 85° | 53km/h | 14569m | -7m/s | -51.7°C | 3.7% | 135.8hPa | 3.6V | 00:00:00 | 00:00:00 | 00:00:00 | |
| GOEST3-10 | 2026-09-01 23:00:52 | 50.75681 | 5.79222 | 94° | 58km/h | 14556m | -6.8m/s | -51.6°C | 3.6% | 136.1hPa | 3.6V | 00:00:00 | 00:00:00 | 00:00:00 | |
| DL1XH1-15 | 2026-09-01 23:00:51 | 50.75681 | 5.79159 | 82° | 60km/h | 14576m | -6.8m/s | -51.7°C | 3.6% | 135.7hPa | 3.6V | 00:00:00 | 02:07:08 | 00:00:00 | |
| DL1XH-west | 2026-09-01 23:00:48 | 50.75677 | 5.79112 | 0° | 0km/h | 14590m | 0m/s | -51.9°C | 3.7% | 135.4hPa | 3.6V | 00:00:00 | 00:00:00 | 00:00:00 | |
| GOEST3-10 | 2026-09-01 23:00:47 | 50.75677 | 5.79112 | 84° | 60km/h | 14590m | -6.6m/s | -51.8°C | 3.6% | 135.4hPa | 3.6V | 00:00:00 | 02:07:06 | 00:00:00 | |
| DL1XH1-15 | 2026-09-01 23:00:41 | 50.75663 | 5.78922 | 78° | 60km/h | 14643m | -6m/s | -52.3°C | 3.6% | 134.3hPa | 3.6V | 00:00:00 | 02:06:58 | 00:00:00 | |
| DL1XH-west | 2026-09-01 23:00:37 | 50.75657 | 5.78876 | 0° | 0km/h | 14655m | 0m/s | -52.4°C | 3.7% | 134.1hPa | 3.6V | 00:00:00 | 00:00:00 | 00:00:00 | |
| BIOWL1-15 | 2026-09-01 23:00:33 | 50.75602 | 5.78497 | 83° | 69km/h | 14745m | -7m/s | -52.6°C | 3.7% | 132.3hPa | 3.6V | 00:00:00 | 00:00:00 | 00:00:00 | |
| DL1XH1-15 | 2026-09-01 23:00:31 | 50.75627 | 5.78678 | 75° | 66km/h | 14702m | -6.1m/s | -52.6°C | 3.6% | 133.1hPa | 3.6V | 00:00:00 | 02:06:48 | 00:00:00 | |
| DL1XH-west | 2026-09-01 23:00:27 | 50.75614 | 5.78602 | 0° | 0km/h | 14720m | 0m/s | -52.4°C | 3.7% | 132.8hPa | 3.6V | 00:00:00 | 00:00:00 | 00:00:00 | |
| GOEST3-10 | 2026-09-01 23:00:24 | 50.75606 | 5.78551 | 83° | 69km/h | 14732m | -6.4m/s | -52.5°C | 3.6% | 132.5hPa | 3.6V | 00:00:00 | 02:06:43 | 00:00:00 | |
| DM0DOS-11 | 2026-09-01 23:00:21 | 50.75594 | 5.78415 | 77° | 69km/h | 14764m | -6.5m/s | -52.7°C | 3.6% | 131.9hPa | 3.6V | 00:00:00 | 02:06:38 | 00:00:00 | |
| BIOWL1-15 | 2026-09-01 23:00:16 | 50.75582 | 5.78337 | 76° | 68km/h | 14782m | -7m/s | -52.7°C | 3.7% | 131.5hPa | 3.6V | 00:00:00 | 00:00:00 | 00:00:00 | |
| DL1XH-west | 2026-09-01 23:00:16 | 50.75578 | 5.78311 | 0° | 0km/h | 14789m | 0m/s | -52.6°C | 3.7% | 131.4hPa | 3.6V | 00:00:00 | 00:00:00 | 00:00:00 | |
| GOEST3-10 | 2026-09-01 23:00:15 | 50.75574 | 5.78283 | 85° | 75km/h | 14796m | -7.1m/s | -52.5°C | 3.6% | 131.2hPa | 3.6V | 00:00:00 | 02:06:33 | 00:00:00 | |
| DM0DOS-11 | 2026-09-01 23:00:09 | 50.75570 | 5.78136 | 88° | 75km/h | 14833m | -6.7m/s | -51.9°C | 3.6% | 130.6hPa | 3.6V | 00:00:00 | 02:06:28 | 00:00:00 | |
| BIOWL1-15 | 2026-09-01 23:00:05 | 50.75566 | 5.78019 | 88° | 78km/h | 14860m | -6m/s | -51.9°C | 3.7% | 130hPa | 3.6V | 00:00:00 | 00:00:00 | 00:00:00 | |
| BIOWL1-15 | 2026-09-01 22:59:55 | 50.75578 | 5.77545 | 100° | 84km/h | 14959m | -7m/s | -51.2°C | 3.7% | 128.1hPa | 3.6V | 00:00:00 | 00:00:00 | 00:00:00 | |
| DL1XH-west | 2026-09-01 22:59:54 | 50.75568 | 5.77672 | 0° | 0km/h | 14931m | 0m/s | -51.5°C | 3.8% | 128.7hPa | 3.6V | 00:00:00 | 00:00:00 | 00:00:00 | |
| GOEST3-10 | 2026-09-01 22:59:52 | 50.75571 | 5.77609 | 100° | 84km/h | 14945m | -6.9m/s | -51.2°C | 3.7% | 128.3hPa | 3.6V | 00:00:00 | 02:06:11 | 00:00:00 | |
| DM0DOS-11 | 2026-09-01 22:59:49 | 50.75582 | 5.77513 | 100° | 84km/h | 14966m | -6.9m/s | -51.2°C | 3.7% | 128hPa | 3.6V | 00:00:00 | 02:06:08 | 00:00:00 | |
| DL1XH-west | 2026-09-01 22:59:44 | 50.75595 | 5.77348 | 0° | 0km/h | 15000m | 0m/s | -51.3°C | 3.8% | 127.4hPa | 3.6V | 00:00:00 | 00:00:00 | 00:00:00 | |
| BIOWL1-15 | 2026-09-01 22:59:43 | 50.75597 | 5.77315 | 94° | 84km/h | 15008m | -7m/s | -51.4°C | 3.8% | 127.2hPa | 3.6V | 00:00:00 | 00:00:00 | 00:00:00 | |
| DL1XH-west | 2026-09-01 22:59:34 | 50.75623 | 5.77009 | 0° | 0km/h | 15070m | 0m/s | -51.4°C | 3.8% | 126.1hPa | 3.6V | 00:00:00 | 00:00:00 | 00:00:00 | |
| BIOWL1-15 | 2026-09-01 22:59:33 | 50.75634 | 5.76906 | 100° | 89km/h | 15091m | -7m/s | -51.6°C | 3.8% | 125.7hPa | 3.7V | 00:00:00 | 00:00:00 | 00:00:00 | |
| DL1XH-west | 2026-09-01 22:59:23 | 50.75668 | 5.76629 | 0° | 0km/h | 15151m | 0m/s | -50.9°C | 3.8% | 124.6hPa | 3.7V | 00:00:00 | 00:00:00 | 00:00:00 | |
| BIOWL1-15 | 2026-09-01 22:59:23 | 50.75681 | 5.76565 | 111° | 86km/h | 15166m | -8m/s | -50.6°C | 3.8% | 124.3hPa | 3.7V | 00:00:00 | 00:00:00 | 00:00:00 | |
| DL1XH-west | 2026-09-01 22:59:13 | 50.75735 | 5.76303 | 0° | 0km/h | 15226m | 0m/s | -50.7°C | 3.8% | 123.2hPa | 3.7V | 00:00:00 | 00:00:00 | 00:00:00 | |
| BIOWL1-15 | 2026-09-01 22:59:12 | 50.75749 | 5.76214 | 105° | 73km/h | 15252m | -10m/s | -50.9°C | 3.8% | 122.8hPa | 3.7V | 00:00:00 | 00:00:00 | 00:00:00 | |
| DL1XH-west | 2026-09-01 22:59:04 | 50.75786 | 5.76027 | 0° | 0km/h | 15308m | 0m/s | -50.9°C | 3.9% | 121.7hPa | 3.7V | 00:00:00 | 00:00:00 | 00:00:00 | |
| BIOWL1-15 | 2026-09-01 22:59:00 | 50.75803 | 5.75951 | 112° | 64km/h | 15334m | -11m/s | -50.9°C | 3.9% | 121.2hPa | 3.7V | 00:00:00 | 00:00:00 | 00:00:00 | |
| DL1XH-west | 2026-09-01 22:58:54 | 50.75843 | 5.75801 | 0° | 0km/h | 15410m | 0m/s | -51.3°C | 3.9% | 119.8hPa | 3.7V | 00:00:00 | 00:00:00 | 00:00:00 | |
| BIOWL1-15 | 2026-09-01 22:58:49 | 50.75864 | 5.75729 | 114° | 46km/h | 15452m | -10m/s | -51.4°C | 3.9% | 119hPa | 3.7V | 00:00:00 | 00:00:00 | 00:00:00 | |
| DM0DOS-11 | 2026-09-01 22:58:49 | 50.75864 | 5.75729 | 113° | 42km/h | 15452m | -10.2m/s | -51.4°C | 3.8% | 119hPa | 3.7V | 00:00:00 | 02:05:08 | 00:00:00 | |
| DL1XH-west | 2026-09-01 22:58:43 | 50.75889 | 5.75637 | 0° | 0km/h | 15514m | 0m/s | -51.6°C | 3.9% | 117.8hPa | 3.7V | 00:00:00 | 00:00:00 | 00:00:00 | |
| DM0DOS-11 | 2026-09-01 22:58:39 | 50.75899 | 5.75584 | 100° | 35km/h | 15555m | -8.8m/s | -51.6°C | 3.8% | 117.1hPa | 3.7V | 00:00:00 | 02:04:58 | 00:00:00 | |
| BIOWL1-15 | 2026-09-01 22:58:39 | 50.75901 | 5.75571 | 100° | 35km/h | 15564m | -9m/s | -51.7°C | 3.9% | 116.9hPa | 3.7V | 00:00:00 | 00:00:00 | 00:00:00 | |
| DL1XH-west | 2026-09-01 22:58:33 | 50.75908 | 5.75487 | 0° | 0km/h | 15616m | 0m/s | -51.9°C | 3.9% | 116hPa | 3.7V | 00:00:00 | 00:00:00 | 00:00:00 | |
| DM0DOS-11 | 2026-09-01 22:58:29 | 50.75911 | 5.75448 | 90° | 40km/h | 15643m | -8.7m/s | -52°C | 3.8% | 115.5hPa | 3.7V | 00:00:00 | 02:04:48 | 00:00:00 | |
| BIOWL1-15 | 2026-09-01 22:58:28 | 50.75908 | 5.75387 | 85° | 47km/h | 15677m | -8m/s | -51.9°C | 3.9% | 114.8hPa | 3.7V | 00:00:00 | 00:00:00 | 00:00:00 | |
| DL1XH-west | 2026-09-01 22:58:21 | 50.75908 | 5.75310 | 0° | 0km/h | 15714m | 0m/s | -52°C | 3.9% | 114.2hPa | 3.7V | 00:00:00 | 00:00:00 | 00:00:00 | |
| BIOWL1-15 | 2026-09-01 22:58:15 | 50.75906 | 5.75140 | 88° | 55km/h | 15795m | -8m/s | -52.4°C | 3.9% | 112.8hPa | 3.7V | 00:00:00 | 00:00:00 | 00:00:00 | |
| DL1XH-west | 2026-09-01 22:58:12 | 50.75906 | 5.75118 | 0° | 0km/h | 15803m | 0m/s | -52.3°C | 3.9% | 112.6hPa | 3.7V | 00:00:00 | 00:00:00 | 00:00:00 | |
| GOEST3-10 | 2026-09-01 22:58:11 | 50.75906 | 5.75118 | 91° | 47km/h | 15803m | -7.0m/s | -52.3°C | 3.8% | 112.6hPa | 3.7V | 00:00:00 | 00:00:00 | 00:00:00 | |
| DM0DOS-11 | 2026-09-01 22:58:09 | 50.75906 | 5.75077 | 91° | 47km/h | 15817m | -6.8m/s | -52.3°C | 3.8% | 112.4hPa | 3.7V | 00:00:00 | 02:04:28 | 00:00:00 | |
| BIOWL1-15 | 2026-09-01 22:58:03 | 50.75912 | 5.74966 | 97° | 47km/h | 15858m | -6m/s | -52.2°C | 3.9% | 111.7hPa | 3.7V | 00:00:00 | 00:00:00 | 00:00:00 | |
| DL1XH-west | 2026-09-01 22:58:00 | 50.75915 | 5.74907 | 0° | 0km/h | 15877m | 0m/s | -52.2°C | 3.9% | 111.4hPa | 3.7V | 00:00:00 | 00:00:00 | 00:00:00 | |
| DM0DOS-11 | 2026-09-01 22:57:59 | 50.75915 | 5.74887 | 93° | 46km/h | 15884m | -7.2m/s | -52.3°C | 3.8% | 111.2hPa | 3.7V | 00:00:00 | 02:04:18 | 00:00:00 | |
| BIOWL1-15 | 2026-09-01 22:57:53 | 50.75928 | 5.74753 | 90° | 47km/h | 15942m | -9m/s | -52.3°C | 3.9% | 110.3hPa | 3.7V | 00:00:00 | 00:00:00 | 00:00:00 | |
| DL1XH-west | 2026-09-01 22:57:50 | 50.75928 | 5.74734 | 0° | 0km/h | 15951m | 0m/s | -52.3°C | 3.9% | 110.1hPa | 3.7V | 00:00:00 | 00:00:00 | 00:00:00 | |
| DL1XH1-15 | 2026-09-01 22:57:50 | 50.75927 | 5.74714 | 86° | 51km/h | 15958m | -6.8m/s | -52.3°C | 3.8% | 110hPa | 3.7V | 00:00:00 | 02:04:08 | 00:00:00 | |
| BIOWL1-15 | 2026-09-01 22:57:42 | 50.75924 | 5.74580 | 90° | 35km/h | 16005m | -8m/s | -52.6°C | 3.9% | 109.2hPa | 3.7V | 00:00:00 | 00:00:00 | 00:00:00 | |
| DL1XH1-15 | 2026-09-01 22:57:40 | 50.75924 | 5.74534 | 90° | 47km/h | 16028m | -7.5m/s | -52.6°C | 3.8% | 108.8hPa | 3.7V | 00:00:00 | 02:03:58 | 00:00:00 | |
| DL1XH-west | 2026-09-01 22:57:40 | 50.75924 | 5.74534 | 0° | 0km/h | 16028m | 0m/s | -52.6°C | 3.9% | 108.8hPa | 3.7V | 00:00:00 | 00:00:00 | 00:00:00 | |
| BIOWL1-15 | 2026-09-01 22:57:32 | 50.75920 | 5.74356 | 90° | 40km/h | 16094m | -8m/s | -52.6°C | 4% | 107.7hPa | 3.7V | 00:00:00 | 00:00:00 | 00:00:00 | |
| DL1XH1-15 | 2026-09-01 22:57:30 | 50.75920 | 5.74339 | 90° | 40km/h | 16102m | -7.6m/s | -52.5°C | 4% | 107.6hPa | 3.7V | 00:00:00 | 02:03:48 | 00:00:00 | |
| DL1XH-west | 2026-09-01 22:57:29 | 50.75920 | 5.74339 | 0° | 0km/h | 16102m | 0m/s | -52.5°C | 4% | 107.6hPa | 3.7V | 00:00:00 | 00:00:00 | 00:00:00 | |
| BIOWL1-15 | 2026-09-01 22:57:21 | 50.75920 | 5.74179 | 90° | 55km/h | 16173m | -8m/s | -52.8°C | 4% | 106.5hPa | 3.7V | 00:00:00 | 00:00:00 | 00:00:00 | |
| DL1XH1-15 | 2026-09-01 22:57:20 | 50.75920 | 5.74156 | 90° | 51km/h | 16181m | -7.1m/s | -52.8°C | 4% | 106.4hPa | 3.7V | 00:00:00 | 02:03:38 | 00:00:00 | |
| DL1XH-west | 2026-09-01 22:57:19 | 50.75920 | 5.74135 | 0° | 0km/h | 16188m | 0m/s | -52.9°C | 4% | 106.2hPa | 3.7V | 00:00:00 | 00:00:00 | 00:00:00 | |
| BIOWL1-15 | 2026-09-01 22:57:11 | 50.75916 | 5.73975 | 89° | 58km/h | 16246m | -6m/s | -52.9°C | 4% | 105.3hPa | 3.7V | 00:00:00 | 00:00:00 | 00:00:00 | |
| DL1XH1-15 | 2026-09-01 22:57:09 | 50.75916 | 5.73951 | 90° | 53km/h | 16252m | -7.5m/s | -52.9°C | 4% | 105.2hPa | 3.7V | 00:00:00 | 02:03:28 | 00:00:00 | |
| DL1XH-west | 2026-09-01 22:57:08 | 50.75916 | 5.73928 | 0° | 0km/h | 16260m | 0m/s | -53°C | 4% | 105.1hPa | 3.7V | 00:00:00 | 00:00:00 | 00:00:00 | |
| BIOWL1-15 | 2026-09-01 22:57:00 | 50.75920 | 5.73762 | 92° | 53km/h | 16319m | -7m/s | -53°C | 4% | 104.2hPa | 3.7V | 00:00:00 | 00:00:00 | 00:00:00 | |
| DL1XH1-15 | 2026-09-01 22:56:59 | 50.75921 | 5.73741 | 94° | 51km/h | 16326m | -7.2m/s | -53°C | 4% | 104hPa | 3.7V | 00:00:00 | 02:03:18 | 00:00:00 | |
| DL1XH-west | 2026-09-01 22:56:58 | 50.75922 | 5.73719 | 0° | 0km/h | 16333m | 0m/s | -53°C | 4% | 103.9hPa | 3.7V | 00:00:00 | 00:00:00 | 00:00:00 | |
| BIOWL1-15 | 2026-09-01 22:56:50 | 50.75934 | 5.73543 | 90° | 44km/h | 16399m | -8m/s | -53.2°C | 4% | 102.9hPa | 3.7V | 00:00:00 | 00:00:00 | 00:00:00 | |
| DL1XH1-15 | 2026-09-01 22:56:49 | 50.75934 | 5.73543 | 90° | 44km/h | 16399m | -8.1m/s | -53.2°C | 4% | 102.9hPa | 3.7V | 00:00:00 | 02:03:08 | 00:00:00 | |
| DL1XH-west | 2026-09-01 22:56:48 | 50.75934 | 5.73525 | 0° | 0km/h | 16407m | 0m/s | -53.2°C | 4% | 102.8hPa | 3.7V | 00:00:00 | 00:00:00 | 00:00:00 | |
| DB0UT-7 | 2026-09-01 22:56:47 | 50.75933 | 5.73508 | 91° | 47km/h | 16415m | -8.1m/s | -53.2°C | 4.0% | 102.6hPa | 3.7V | 00:00:00 | 02:03:06 | 00:00:00 | |
| GOEST3-10 | 2026-09-01 22:56:45 | 50.75933 | 5.73473 | 91° | 46km/h | 16432m | -7.7m/s | -53.3°C | 4.0% | 102.3hPa | 3.7V | 00:00:00 | 00:00:00 | 00:00:00 | |
| DL1XH1-15 | 2026-09-01 22:56:39 | 50.75930 | 5.73362 | 80° | 47km/h | 16479m | -7.4m/s | -53.4°C | 4% | 101.7hPa | 3.7V | 00:00:00 | 02:02:58 | 00:00:00 | |
| BIOWL1-15 | 2026-09-01 22:56:38 | 50.75928 | 5.73344 | 81° | 47km/h | 16486m | -7m/s | -53.4°C | 4% | 101.6hPa | 3.7V | 00:00:00 | 00:00:00 | 00:00:00 | |
| GOEST3-10 | 2026-09-01 22:56:33 | 50.75921 | 5.73252 | 89° | 51km/h | 16524m | -7.4m/s | -53.3°C | 4.0% | 101.0hPa | 3.7V | 00:00:00 | 00:00:00 | 00:00:00 | |
| DL1XH1-15 | 2026-09-01 22:56:29 | 50.75920 | 5.73173 | 84° | 51km/h | 16553m | -7.5m/s | -53.4°C | 4% | 100.5hPa | 3.7V | 00:00:00 | 02:02:48 | 00:00:00 | |
| DL1XH-west | 2026-09-01 22:56:27 | 50.75917 | 5.73132 | 0° | 0km/h | 16568m | 0m/s | -53.5°C | 4% | 100.3hPa | 3.7V | 00:00:00 | 00:00:00 | 00:00:00 | |
| GOEST3-10 | 2026-09-01 22:56:22 | 50.75911 | 5.73026 | 96° | 47km/h | 16606m | -7.6m/s | -53.3°C | 4.0% | 99.7hPa | 3.7V | 00:00:00 | 00:00:00 | 00:00:00 | |
| DM0DOS-11 | 2026-09-01 22:56:21 | 50.75915 | 5.72951 | 91° | 47km/h | 16635m | -8.2m/s | -53.1°C | 4% | 99.3hPa | 3.7V | 00:00:00 | 02:02:37 | 00:00:00 | |
| DL1XH1-15 | 2026-09-01 22:56:19 | 50.75914 | 5.72968 | 96° | 46km/h | 16629m | -7.7m/s | -53.1°C | 4% | 99.4hPa | 3.7V | 00:00:00 | 02:02:38 | 00:00:00 | |
| BIOWL1-15 | 2026-09-01 22:56:17 | 50.75916 | 5.72934 | 92° | 44km/h | 16644m | -8m/s | -53.1°C | 4.1% | 99.2hPa | 3.7V | 00:00:00 | 00:00:00 | 00:00:00 | |
| DL1XH-west | 2026-09-01 22:56:16 | 50.75916 | 5.72916 | 0° | 0km/h | 16652m | 0m/s | -53.1°C | 4.1% | 99.1hPa | 3.7V | 00:00:00 | 00:00:00 | 00:00:00 | |
| GOEST3-10 | 2026-09-01 22:56:12 | 50.75915 | 5.72834 | 89° | 47km/h | 16683m | -8.2m/s | -53.0°C | 4.0% | 98.6hPa | 3.7V | 00:00:00 | 00:00:00 | 00:00:00 | |
| DM0DOS-11 | 2026-09-01 22:56:11 | 50.75918 | 5.72749 | 99° | 46km/h | 16718m | -8.3m/s | -53.1°C | 4% | 98.1hPa | 3.7V | 00:00:00 | 02:02:27 | 00:00:00 | |
| DL1XH1-15 | 2026-09-01 22:56:09 | 50.75916 | 5.72768 | 97° | 46km/h | 16707m | -9m/s | -53.1°C | 4% | 98.3hPa | 3.7V | 00:00:00 | 02:02:28 | 00:00:00 | |
| BIOWL1-15 | 2026-09-01 22:56:07 | 50.75915 | 5.72624 | 80° | 53km/h | 16778m | -8m/s | -53.2°C | 4% | 97.2hPa | 3.8V | 00:00:00 | 00:00:00 | 00:00:00 | |
| DL1XH-west | 2026-09-01 22:56:05 | 50.75921 | 5.72697 | 0° | 0km/h | 16742m | 0m/s | -53.3°C | 4.1% | 97.7hPa | 3.8V | 00:00:00 | 00:00:00 | 00:00:00 | |
| DM0DOS-11 | 2026-09-01 22:56:01 | 50.75909 | 5.72561 | 86° | 44km/h | 16803m | -7.6m/s | -53°C | 4% | 96.8hPa | 3.8V | 00:00:00 | 02:02:17 | 00:00:00 | |
| DL1XH1-15 | 2026-09-01 22:55:59 | 50.75911 | 5.72581 | 83° | 46km/h | 16795m | -7.7m/s | -53.1°C | 4% | 96.9hPa | 3.8V | 00:00:00 | 02:02:18 | 00:00:00 | |
| DL1XH-west | 2026-09-01 22:55:56 | 50.75909 | 5.72510 | 0° | 0km/h | 16825m | 0m/s | -52.8°C | 4.1% | 96.5hPa | 3.8V | 00:00:00 | 00:00:00 | 00:00:00 | |
| BIOWL1-15 | 2026-09-01 22:55:52 | 50.75917 | 5.72444 | 92° | 49km/h | 16857m | -8m/s | -52.9°C | 4.1% | 96hPa | 3.8V | 00:00:00 | 00:00:00 | 00:00:00 | |
| DM0DOS-11 | 2026-09-01 22:55:51 | 50.75914 | 5.72385 | 80° | 44km/h | 16881m | -8.9m/s | -52.9°C | 4% | 95.7hPa | 3.8V | 00:00:00 | 02:02:07 | 00:00:00 | |
| DL1XH-west | 2026-09-01 22:55:44 | 50.75909 | 5.72316 | 0° | 0km/h | 16918m | 0m/s | -52.9°C | 4.1% | 95.1hPa | 3.8V | 00:00:00 | 00:00:00 | 00:00:00 | |
| BIOWL1-15 | 2026-09-01 22:55:41 | 50.75911 | 5.72230 | 90° | 51km/h | 16959m | -8m/s | -52.8°C | 4.1% | 94.5hPa | 3.8V | 00:00:00 | 00:00:00 | 00:00:00 | |
| GOEST3-10 | 2026-09-01 22:55:41 | 50.75908 | 5.72267 | 96° | 49km/h | 16944m | -7.7m/s | -52.8°C | 4.0% | 94.7hPa | 3.8V | 00:00:00 | 02:02:00 | 00:00:00 | |
| DL1XH1-15 | 2026-09-01 22:55:39 | 50.75911 | 5.72230 | 90° | 49km/h | 16959m | -7.8m/s | -52.8°C | 4% | 94.5hPa | 3.8V | 00:00:00 | 02:01:58 | 00:00:00 | |
| GOEST3-10 | 2026-09-01 22:55:36 | 50.75908 | 5.72168 | 77° | 46km/h | 16982m | -7.8m/s | -52.8°C | 4.0% | 94.2hPa | 3.7V | 00:00:00 | 00:00:00 | 00:00:00 | |
| DL1XH1-15 | 2026-09-01 22:55:34 | 50.75895 | 5.72024 | 96° | 42km/h | 17044m | -8m/s | -52.9°C | 4% | 93.3hPa | 3.8V | 00:00:00 | 02:01:47 | 00:00:00 | |
| DL1XH-west | 2026-09-01 22:55:33 | 50.75899 | 5.72109 | 0° | 0km/h | 17005m | 0m/s | -52.9°C | 4.1% | 93.9hPa | 3.8V | 00:00:00 | 00:00:00 | 00:00:00 | |
| BIOWL1-15 | 2026-09-01 22:55:30 | 50.75894 | 5.72040 | 94° | 42km/h | 17037m | -7m/s | -52.9°C | 4.1% | 93.4hPa | 3.8V | 00:00:00 | 00:00:00 | 00:00:00 | |
| DM0DOS-11 | 2026-09-01 22:55:30 | 50.75895 | 5.72024 | 96° | 42km/h | 17044m | -8m/s | -52.9°C | 4% | 93.3hPa | 3.8V | 00:00:00 | 02:01:47 | 00:00:00 | |
| GOEST3-10 | 2026-09-01 22:55:26 | 50.75896 | 5.71991 | 86° | 46km/h | 17060m | -8.0m/s | -52.8°C | 4.0% | 93.0hPa | 3.8V | 00:00:00 | 00:00:00 | 00:00:00 | |
| DM0DOS-11 | 2026-09-01 22:55:24 | 50.75885 | 5.71843 | 86° | 42km/h | 17125m | -7.5m/s | -52.8°C | 4% | 92.2hPa | 3.8V | 00:00:00 | 02:01:37 | 00:00:00 | |
| DL1XH-west | 2026-09-01 22:55:23 | 50.75891 | 5.71920 | 0° | 0km/h | 17093m | 0m/s | -52.8°C | 4.1% | 92.6hPa | 3.8V | 00:00:00 | 00:00:00 | 00:00:00 | |
| BIOWL1-15 | 2026-09-01 22:55:22 | 50.75886 | 5.71862 | 86° | 47km/h | 17117m | -8m/s | -52.8°C | 4.1% | 92.3hPa | 3.8V | 00:00:00 | 00:00:00 | 00:00:00 | |
| DL1XH1-15 | 2026-09-01 22:55:22 | 50.75886 | 5.71862 | 86° | 42km/h | 17117m | -7.6m/s | -52.8°C | 4% | 92.3hPa | 3.8V | 00:00:00 | 02:01:38 | 00:00:00 | |
| GOEST3-10 | 2026-09-01 22:55:21 | 50.75887 | 5.71881 | 86° | 40km/h | 17109m | -7.6m/s | -52.7°C | 4.0% | 92.4hPa | 3.7V | 00:00:00 | 02:01:39 | 00:00:00 | |
| DB0UT-7 | 2026-09-01 22:55:18 | 50.75884 | 5.71824 | 91° | 46km/h | 17132m | -7.6m/s | -52.7°C | 4.0% | 92.0hPa | 3.7V | 00:00:00 | 00:00:00 | 00:00:00 | |
| GOEST3-10 | 2026-09-01 22:55:15 | 50.75885 | 5.71790 | 98° | 38km/h | 17147m | -7.7m/s | -52.6°C | 4.0% | 91.8hPa | 3.8V | 00:00:00 | 00:00:00 | 00:00:00 | |
| DM0DOS-11 | 2026-09-01 22:55:11 | 50.75877 | 5.71692 | 78° | 46km/h | 17202m | -8.2m/s | -52.5°C | 4% | 91.1hPa | 3.8V | 00:00:00 | 02:01:27 | 00:00:00 | |
| DL1XH1-15 | 2026-09-01 22:55:11 | 50.75880 | 5.71708 | 71° | 46km/h | 17194m | -8.2m/s | -52.5°C | 4% | 91.2hPa | 3.8V | 00:00:00 | 02:01:28 | 00:00:00 | |
| DL1XH-west | 2026-09-01 22:55:11 | 50.75883 | 5.71723 | 0° | 0km/h | 17186m | 0m/s | -52.5°C | 4.1% | 91.3hPa | 3.8V | 00:00:00 | 00:00:00 | 00:00:00 | |
| BIOWL1-15 | 2026-09-01 22:55:09 | 50.75880 | 5.71708 | 71° | 42km/h | 17194m | -8m/s | -52.5°C | 4.1% | 91.2hPa | 3.8V | 00:00:00 | 00:00:00 | 00:00:00 | |
| BIOWL1-15 | 2026-09-01 22:55:01 | 50.75865 | 5.71533 | 79° | 47km/h | 17274m | -11m/s | -52.7°C | 4.2% | 90.1hPa | 3.8V | 00:00:00 | 00:00:00 | 00:00:00 | |
| DM0DOS-11 | 2026-09-01 22:55:01 | 50.75863 | 5.71514 | 82° | 49km/h | 17285m | -10.5m/s | -52.7°C | 4.1% | 90hPa | 3.8V | 00:00:00 | 02:01:17 | 00:00:00 | |
| DL1XH1-15 | 2026-09-01 22:55:01 | 50.75865 | 5.71533 | 79° | 47km/h | 17274m | -10.7m/s | -52.7°C | 4.1% | 90.1hPa | 3.8V | 00:00:00 | 02:01:18 | 00:00:00 | |
| DL1XH-west | 2026-09-01 22:55:01 | 50.75867 | 5.71551 | 0° | 0km/h | 17267m | 0m/s | -52.7°C | 4.2% | 90.2hPa | 3.8V | 00:00:00 | 00:00:00 | 00:00:00 | |
| GOEST3-10 | 2026-09-01 22:55:00 | 50.75867 | 5.71551 | 79° | 49km/h | 17267m | -9.3m/s | -52.6°C | 4.1% | 90.2hPa | 3.8V | 00:00:00 | 02:01:19 | 00:00:00 | |
| DL1XH1-15 | 2026-09-01 22:54:55 | 50.75856 | 5.71334 | 86° | 49km/h | 17369m | -7.8m/s | -52.4°C | 4.1% | 88.8hPa | 3.8V | 00:00:00 | 02:01:08 | 00:00:00 | |
| DL1XH-west | 2026-09-01 22:54:49 | 50.75856 | 5.71334 | 0° | 0km/h | 17369m | 0m/s | -52.4°C | 4.2% | 88.8hPa | 3.8V | 00:00:00 | 00:00:00 | 00:00:00 | |
| BIOWL1-15 | 2026-09-01 22:54:49 | 50.75855 | 5.71292 | 87° | 51km/h | 17385m | -8m/s | -52.1°C | 4.1% | 88.6hPa | 3.8V | 00:00:00 | 00:00:00 | 00:00:00 | |
| DM0DOS-11 | 2026-09-01 22:54:48 | 50.75855 | 5.71313 | 88° | 47km/h | 17377m | -7.8m/s | -52.2°C | 4% | 88.7hPa | 3.8V | 00:00:00 | 02:01:07 | 00:00:00 | |
| DB0UT-7 | 2026-09-01 22:54:47 | 50.75855 | 5.71292 | 87° | 40km/h | 17385m | -7.6m/s | -52.1°C | 4.0% | 88.6hPa | 3.8V | 00:00:00 | 02:01:06 | 00:00:00 | |
| GOEST3-10 | 2026-09-01 22:54:45 | 50.75854 | 5.71252 | 91° | 44km/h | 17400m | -7.8m/s | -52.0°C | 4.1% | 88.4hPa | 3.8V | 00:00:00 | 00:00:00 | 00:00:00 | |
| DL1XH1-15 | 2026-09-01 22:54:42 | 50.75858 | 5.71148 | 101° | 42km/h | 17446m | -7.8m/s | -52.1°C | 4.1% | 87.8hPa | 3.8V | 00:00:00 | 02:00:58 | 00:00:00 | |
| DL1XH-west | 2026-09-01 22:54:38 | 50.75860 | 5.71130 | 0° | 0km/h | 17454m | 0m/s | -52.2°C | 4.2% | 87.7hPa | 3.8V | 00:00:00 | 00:00:00 | 00:00:00 | |
| DM0DOS-11 | 2026-09-01 22:54:38 | 50.75860 | 5.71130 | 99° | 42km/h | 17454m | -7.8m/s | -52.2°C | 4.1% | 87.7hPa | 3.8V | 00:00:00 | 02:00:57 | 00:00:00 | |
| GOEST3-10 | 2026-09-01 22:54:35 | 50.75865 | 5.71076 | 93° | 37km/h | 17478m | -7.6m/s | -52.2°C | 4.1% | 87.4hPa | 3.7V | 00:00:00 | 00:00:00 | 00:00:00 | |
| DM0DOS-11 | 2026-09-01 22:54:33 | 50.75867 | 5.70944 | 98° | 40km/h | 17546m | -8m/s | -52.4°C | 4.1% | 86.5hPa | 3.8V | 00:00:00 | 02:00:45 | 00:00:00 | |
| DL1XH1-15 | 2026-09-01 22:54:32 | 50.75865 | 5.70990 | 90° | 40km/h | 17522m | -8m/s | -52.5°C | 4.1% | 86.8hPa | 3.8V | 00:00:00 | 02:00:48 | 00:00:00 | |
| DL1XH-west | 2026-09-01 22:54:28 | 50.75867 | 5.70944 | 0° | 0km/h | 17546m | 0m/s | -52.4°C | 4.2% | 86.5hPa | 3.8V | 00:00:00 | 00:00:00 | 00:00:00 | |
| GOEST3-10 | 2026-09-01 22:54:27 | 50.75869 | 5.70927 | 95° | 38km/h | 17554m | -8.0m/s | -52.4°C | 4.1% | 86.4hPa | 3.8V | 00:00:00 | 00:00:00 | 00:00:00 | |
| DM0DOS-11 | 2026-09-01 22:54:20 | 50.75868 | 5.70785 | 85° | 35km/h | 17626m | -7.8m/s | -52.4°C | 4.1% | 85.5hPa | 3.8V | 00:00:00 | 02:00:35 | 00:00:00 | |
| GOEST3-10 | 2026-09-01 22:54:20 | 50.75871 | 5.70846 | 91° | 35km/h | 17595m | -7.7m/s | -52.5°C | 4.1% | 85.8hPa | 3.7V | 00:00:00 | 02:00:39 | 00:00:00 | |
| DL1XH1-15 | 2026-09-01 22:54:20 | 50.75871 | 5.70830 | 85° | 37km/h | 17603m | -7.7m/s | -52.5°C | 4.1% | 85.8hPa | 3.8V | 00:00:00 | 02:00:38 | 00:00:00 | |
| DB0UT-7 | 2026-09-01 22:54:17 | 50.75869 | 5.70800 | 86° | 44km/h | 17618m | -7.8m/s | -52.4°C | 4.1% | 85.5hPa | 3.8V | 00:00:00 | 00:00:00 | 00:00:00 | |
| DL1XH-west | 2026-09-01 22:54:16 | 50.75868 | 5.70785 | 0° | 0km/h | 17626m | 0m/s | -52.4°C | 4.2% | 85.5hPa | 3.8V | 00:00:00 | 00:00:00 | 00:00:00 | |
| GOEST3-10 | 2026-09-01 22:54:14 | 50.75867 | 5.70757 | 84° | 35km/h | 17641m | -7.8m/s | -52.3°C | 4.1% | 85.2hPa | 3.8V | 00:00:00 | 00:00:00 | 00:00:00 | |
| DM0DOS-11 | 2026-09-01 22:54:09 | 50.75855 | 5.70651 | 80° | 38km/h | 17702m | -8.6m/s | -52.3°C | 4.1% | 84.5hPa | 3.8V | 00:00:00 | 02:00:25 | 00:00:00 | |
| DL1XH1-15 | 2026-09-01 22:54:09 | 50.75861 | 5.70691 | 76° | 35km/h | 17680m | -7.8m/s | -52.3°C | 4.1% | 84.8hPa | 3.8V | 00:00:00 | 02:00:28 | 00:00:00 | |
| BIOWL1-15 | 2026-09-01 22:54:07 | 50.75855 | 5.70651 | 80° | 35km/h | 17702m | -9m/s | -52.3°C | 4.2% | 84.5hPa | 3.8V | 00:00:00 | 00:00:00 | 00:00:00 | |
| DL1XH-west | 2026-09-01 22:54:05 | 50.75854 | 5.70637 | 0° | 0km/h | 17711m | 0m/s | -52.3°C | 4.2% | 84.4hPa | 3.8V | 00:00:00 | 00:00:00 | 00:00:00 | |
| GOEST3-10 | 2026-09-01 22:54:03 | 50.75851 | 5.70609 | 81° | 44km/h | 17729m | -7.9m/s | -52.3°C | 4.1% | 84.1hPa | 3.7V | 00:00:00 | 00:00:00 | 00:00:00 | |
| DM0DOS-11 | 2026-09-01 22:53:59 | 50.75843 | 5.70496 | 91° | 53km/h | 17784m | -7.8m/s | -52.2°C | 4.2% | 83.4hPa | 3.8V | 00:00:00 | 02:00:15 | 00:00:00 | |
| DL1XH1-15 | 2026-09-01 22:53:59 | 50.75845 | 5.70548 | 85° | 47km/h | 17761m | -7.7m/s | -52.3°C | 4.1% | 83.7hPa | 3.8V | 00:00:00 | 02:00:18 | 00:00:00 | |
| BIOWL1-15 | 2026-09-01 22:53:59 | 50.75843 | 5.70496 | 92° | 49km/h | 17784m | -7m/s | -52.2°C | 4.3% | 83.5hPa | 3.8V | 00:00:00 | 00:00:00 | 00:00:00 | |
| DL1XH-west | 2026-09-01 22:53:55 | 50.75843 | 5.70476 | 0° | 0km/h | 17791m | 0m/s | -52.1°C | 4.2% | 83.3hPa | 3.8V | 00:00:00 | 00:00:00 | 00:00:00 | |
| GOEST3-10 | 2026-09-01 22:53:53 | 50.75843 | 5.70432 | 85° | 51km/h | 17807m | -8.3m/s | -52.1°C | 4.1% | 83.1hPa | 3.8V | 00:00:00 | 00:00:00 | 00:00:00 | |
| DM0DOS-11 | 2026-09-01 22:53:48 | 50.75830 | 5.70287 | 93° | 49km/h | 17866m | -8.3m/s | -52°C | 4.2% | 82.4hPa | 3.8V | 00:00:00 | 02:00:05 | 00:00:00 | |
| BIOWL1-15 | 2026-09-01 22:53:45 | 50.75831 | 5.70267 | 97° | 51km/h | 17874m | -9m/s | -52°C | 4.3% | 82.3hPa | 3.8V | 00:00:00 | 00:00:00 | 00:00:00 | |
| DL1XH-west | 2026-09-01 22:53:44 | 50.75833 | 5.70247 | 0° | 0km/h | 17883m | 0m/s | -52°C | 4.3% | 82.2hPa | 3.8V | 00:00:00 | 00:00:00 | 00:00:00 | |
| GOEST3-10 | 2026-09-01 22:53:42 | 50.75837 | 5.70207 | 101° | 44km/h | 17900m | -8.1m/s | -52.0°C | 4.2% | 82.0hPa | 3.8V | 00:00:00 | 00:00:00 | 00:00:00 | |
| DM0DOS-11 | 2026-09-01 22:53:38 | 50.75842 | 5.70097 | 92° | 38km/h | 17949m | -8m/s | -52.1°C | 4.2% | 81.4hPa | 3.8V | 00:00:00 | 01:59:55 | 00:00:00 | |
| BIOWL1-15 | 2026-09-01 22:53:35 | 50.75842 | 5.70081 | 99° | 38km/h | 17957m | -8m/s | -52.1°C | 4.3% | 81.3hPa | 3.8V | 00:00:00 | 00:00:00 | 00:00:00 | |
| DL1XH-west | 2026-09-01 22:53:33 | 50.75845 | 5.70050 | 0° | 0km/h | 17973m | 0m/s | -52.1°C | 4.3% | 81.1hPa | 3.8V | 00:00:00 | 00:00:00 | 00:00:00 | |
| GOEST3-10 | 2026-09-01 22:53:32 | 50.75848 | 5.70035 | 107° | 37km/h | 17981m | -8.1m/s | -52.1°C | 4.2% | 81.0hPa | 3.7V | 00:00:00 | 00:00:00 | 00:00:00 | |
| DL1XH1-15 | 2026-09-01 22:53:29 | 50.75856 | 5.69988 | 98° | 37km/h | 18005m | -8.3m/s | -52.2°C | 4.2% | 80.7hPa | 3.8V | 00:00:00 | 01:59:48 | 00:00:00 | |
| DM0DOS-11 | 2026-09-01 22:53:28 | 50.75859 | 5.69941 | 92° | 33km/h | 18029m | -8.7m/s | -52.3°C | 4.2% | 80.4hPa | 3.8V | 00:00:00 | 01:59:45 | 00:00:00 | |
| BIOWL1-15 | 2026-09-01 22:53:24 | 50.75859 | 5.69912 | 101° | 31km/h | 18047m | -8m/s | -52.4°C | 4.3% | 80.2hPa | 3.8V | 00:00:00 | 00:00:00 | 00:00:00 | |
| DL1XH-west | 2026-09-01 22:53:23 | 50.75861 | 5.69900 | 0° | 0km/h | 18055m | 0m/s | -52.4°C | 4.3% | 80.1hPa | 3.8V | 00:00:00 | 00:00:00 | 00:00:00 | |
| DM0DOS-11 | 2026-09-01 22:53:23 | 50.75865 | 5.69818 | 74° | 35km/h | 18114m | -8.3m/s | -52.5°C | 4.4% | 79.4hPa | 3.8V | 00:00:00 | 01:59:35 | 00:00:00 | |
| BIOWL1-15 | 2026-09-01 22:53:14 | 50.75860 | 5.69791 | 74° | 38km/h | 18130m | -9m/s | -52.5°C | 4.3% | 79.2hPa | 3.8V | 00:00:00 | 00:00:00 | 00:00:00 | |
| DL1XH-west | 2026-09-01 22:53:12 | 50.75855 | 5.69762 | 0° | 0km/h | 18147m | 0m/s | -52.6°C | 4.4% | 79hPa | 3.8V | 00:00:00 | 00:00:00 | 00:00:00 | |
| GOEST3-10 | 2026-09-01 22:53:12 | 50.75855 | 5.69762 | 78° | 33km/h | 18147m | -8.7m/s | -52.5°C | 4.4% | 79.0hPa | 3.8V | 00:00:00 | 00:00:00 | 00:00:00 | |
| DL1XH1-15 | 2026-09-01 22:53:09 | 50.75854 | 5.69721 | 107° | 33km/h | 18173m | -9.1m/s | -52.4°C | 4.4% | 78.7hPa | 3.8V | 00:00:00 | 01:59:28 | 00:00:00 | |
| BIOWL1-15 | 2026-09-01 22:53:05 | 50.75871 | 5.69649 | 96° | 29km/h | 18228m | -8m/s | -52.5°C | 4.4% | 78.1hPa | 3.8V | 00:00:00 | 00:00:00 | 00:00:00 | |
| DL1XH-west | 2026-09-01 22:53:01 | 50.75872 | 5.69625 | 0° | 0km/h | 18245m | 0m/s | -52.5°C | 4.4% | 77.9hPa | 3.8V | 00:00:00 | 00:00:00 | 00:00:00 | |
| DM0DOS-11 | 2026-09-01 22:53:00 | 50.75879 | 5.69559 | 104° | 29km/h | 18288m | -9.2m/s | -52.4°C | 4.4% | 77.3hPa | 3.8V | 00:00:00 | 01:59:15 | 00:00:00 | |
| DL1XH1-15 | 2026-09-01 22:52:59 | 50.75874 | 5.69597 | 97° | 31km/h | 18262m | -8.8m/s | -52.4°C | 4.4% | 77.7hPa | 3.8V | 00:00:00 | 01:59:18 | 00:00:00 | |
| DL1XH1-15 | 2026-09-01 22:52:54 | 50.75876 | 5.69463 | 72° | 35km/h | 18363m | -8.8m/s | -52.8°C | 4.4% | 76.5hPa | 3.8V | 00:00:00 | 01:59:07 | 00:00:00 | |
| BIOWL1-15 | 2026-09-01 22:52:52 | 50.75882 | 5.69514 | 90° | 29km/h | 18326m | -9m/s | -52.6°C | 4.4% | 76.9hPa | 3.8V | 00:00:00 | 00:00:00 | 00:00:00 | |
| DL1XH-west | 2026-09-01 22:52:50 | 50.75881 | 5.69490 | 0° | 0km/h | 18344m | 0m/s | -52.7°C | 4.4% | 76.7hPa | 3.8V | 00:00:00 | 00:00:00 | 00:00:00 | |
| DM0DOS-11 | 2026-09-01 22:52:49 | 50.75872 | 5.69438 | 90° | 37km/h | 18381m | -8.6m/s | -52.9°C | 4.4% | 76.3hPa | 3.8V | 00:00:00 | 01:59:05 | 00:00:00 | |
| BIOWL1-15 | 2026-09-01 22:52:42 | 50.75875 | 5.69383 | 97° | 38km/h | 18415m | -9m/s | -52.8°C | 4.4% | 75.9hPa | 3.8V | 00:00:00 | 00:00:00 | 00:00:00 | |
| DL1XH1-15 | 2026-09-01 22:52:42 | 50.75872 | 5.69321 | 78° | 38km/h | 18450m | -9.1m/s | -52.8°C | 4.4% | 75.5hPa | 3.8V | 00:00:00 | 01:58:57 | 00:00:00 | |
| DL1XH-west | 2026-09-01 22:52:40 | 50.75874 | 5.69337 | 0° | 0km/h | 18441m | 0m/s | -52.8°C | 4.4% | 75.6hPa | 3.8V | 00:00:00 | 00:00:00 | 00:00:00 | |
| GOEST3-10 | 2026-09-01 22:52:39 | 50.75874 | 5.69336 | 86° | 35km/h | 18441m | -8.7m/s | -52.8°C | 4.4% | 75.5hPa | 3.8V | 00:00:00 | 00:00:00 | 00:00:00 | |
| DM0DOS-11 | 2026-09-01 22:52:36 | 50.75868 | 5.69293 | 85° | 38km/h | 18469m | -8.7m/s | -52.7°C | 4.4% | 75.3hPa | 3.8V | 00:00:00 | 01:58:55 | 00:00:00 | |
| DL1XH1-15 | 2026-09-01 22:52:32 | 50.75882 | 5.69163 | 92° | 29km/h | 18541m | -8.8m/s | -52.7°C | 4.4% | 74.4hPa | 3.8V | 00:00:00 | 01:58:47 | 00:00:00 | |
| BIOWL1-15 | 2026-09-01 22:52:31 | 50.75875 | 5.69212 | 105° | 46km/h | 18512m | -9m/s | -52.7°C | 4.4% | 74.8hPa | 3.8V | 00:00:00 | 00:00:00 | 00:00:00 | |
| DL1XH-west | 2026-09-01 22:52:29 | 50.75881 | 5.69178 | 0° | 0km/h | 18531m | 0m/s | -52.7°C | 4.4% | 74.5hPa | 3.8V | 00:00:00 | 00:00:00 | 00:00:00 | |
| BIOWL1-15 | 2026-09-01 22:52:22 | 50.75892 | 5.69021 | 96° | 31km/h | 18648m | -9m/s | -52.8°C | 4.4% | 73.2hPa | 3.8V | 00:00:00 | 00:00:00 | 00:00:00 | |
| DL1XH1-15 | 2026-09-01 22:52:22 | 50.75887 | 5.69046 | 111° | 31km/h | 18631m | -8.9m/s | -52.7°C | 4.4% | 73.4hPa | 3.8V | 00:00:00 | 01:58:37 | 00:00:00 | |
| GOEST3-10 | 2026-09-01 22:52:22 | 50.75876 | 5.69097 | 99° | 31km/h | 18594m | -9.0m/s | -52.6°C | 4.4% | 73.8hPa | 3.7V | 00:00:00 | 00:00:00 | 00:00:00 | |
| DM0DOS-11 | 2026-09-01 22:52:21 | 50.75892 | 5.69021 | 95° | 29km/h | 18648m | -9.2m/s | -52.8°C | 4.4% | 73.2hPa | 3.8V | 00:00:00 | 01:58:35 | 00:00:00 | |
| DL1XH-west | 2026-09-01 22:52:21 | 50.75887 | 5.69046 | 0° | 0km/h | 18631m | 0m/s | -52.7°C | 4.4% | 73.4hPa | 3.8V | 00:00:00 | 00:00:00 | 00:00:00 | |
| DB0UT-7 | 2026-09-01 22:52:17 | 50.75890 | 5.69033 | 107° | 31km/h | 18639m | -9.1m/s | -52.7°C | 4.4% | 73.3hPa | 3.7V | 00:00:00 | 00:00:00 | 00:00:00 | |
| GOEST3-10 | 2026-09-01 22:52:12 | 50.75891 | 5.68973 | 81° | 29km/h | 18686m | -8.7m/s | -52.8°C | 4.5% | 72.8hPa | 3.8V | 00:00:00 | 00:00:00 | 00:00:00 | |
| DL1XH1-15 | 2026-09-01 22:52:11 | 50.75888 | 5.68930 | 90° | 29km/h | 18721m | -8.7m/s | -52.8°C | 4.4% | 72.4hPa | 3.8V | 00:00:00 | 01:58:27 | 00:00:00 | |
| BIOWL1-15 | 2026-09-01 22:52:11 | 50.75889 | 5.68951 | 87° | 27km/h | 18703m | -9m/s | -52.9°C | 4.5% | 72.6hPa | 3.8V | 00:00:00 | 00:00:00 | 00:00:00 | |
| DL1XH-west | 2026-09-01 22:52:08 | 50.75888 | 5.68930 | 0° | 0km/h | 18721m | 0m/s | -52.8°C | 4.4% | 72.4hPa | 3.8V | 00:00:00 | 00:00:00 | 00:00:00 | |
| DM0DOS-11 | 2026-09-01 22:52:07 | 50.75888 | 5.68906 | 90° | 31km/h | 18739m | -8.4m/s | -52.8°C | 4.5% | 72.2hPa | 3.8V | 00:00:00 | 01:58:25 | 00:00:00 | |
| GOEST3-10 | 2026-09-01 22:52:07 | 50.75888 | 5.68918 | 91° | 31km/h | 18730m | -8.5m/s | -52.8°C | 4.5% | 72.3hPa | 3.7V | 00:00:00 | 01:58:26 | 00:00:00 | |
| GOEST3-10 | 2026-09-01 22:52:02 | 50.75886 | 5.68858 | 91° | 35km/h | 18771m | -8.9m/s | -52.7°C | 4.5% | 71.8hPa | 3.8V | 00:00:00 | 00:00:00 | 00:00:00 | |
| DL1XH1-15 | 2026-09-01 22:52:01 | 50.75890 | 5.68806 | 102° | 35km/h | 18807m | -8.8m/s | -52.8°C | 4.5% | 71.5hPa | 3.8V | 00:00:00 | 01:58:17 | 00:00:00 | |
| BIOWL1-15 | 2026-09-01 22:51:59 | 50.75888 | 5.68820 | 100° | 35km/h | 18798m | -9m/s | -52.8°C | 4.5% | 71.6hPa | 3.8V | 00:00:00 | 00:00:00 | 00:00:00 | |
| DL1XH-west | 2026-09-01 22:51:57 | 50.75891 | 5.68792 | 0° | 0km/h | 18815m | 0m/s | -52.8°C | 4.5% | 71.4hPa | 3.8V | 00:00:00 | 00:00:00 | 00:00:00 | |
| DM0DOS-11 | 2026-09-01 22:51:57 | 50.75893 | 5.68777 | 99° | 35km/h | 18823m | -9.4m/s | -52.8°C | 4.5% | 71.3hPa | 3.8V | 00:00:00 | 01:58:15 | 00:00:00 | |
| GOEST3-10 | 2026-09-01 22:51:57 | 50.75891 | 5.68792 | 102° | 33km/h | 18815m | -9.0m/s | -52.7°C | 4.5% | 71.4hPa | 3.8V | 00:00:00 | 01:58:16 | 00:00:00 | |
| DL1XH1-15 | 2026-09-01 22:51:51 | 50.75897 | 5.68671 | 83° | 26km/h | 18898m | -9.3m/s | -52.5°C | 4.5% | 70.5hPa | 3.8V | 00:00:00 | 01:58:07 | 00:00:00 | |
| BIOWL1-15 | 2026-09-01 22:51:48 | 50.75897 | 5.68671 | 83° | 26km/h | 18898m | -9m/s | -52.5°C | 4.5% | 70.5hPa | 3.8V | 00:00:00 | 00:00:00 | 00:00:00 | |
| DM0DOS-11 | 2026-09-01 22:51:47 | 50.75895 | 5.68650 | 83° | 27km/h | 18916m | -9.5m/s | -52.6°C | 4.5% | 70.3hPa | 3.8V | 00:00:00 | 01:58:05 | 00:00:00 | |
| DL1XH-west | 2026-09-01 22:51:46 | 50.75895 | 5.68650 | 0° | 0km/h | 18916m | 0m/s | -52.6°C | 4.5% | 70.3hPa | 3.8V | 00:00:00 | 00:00:00 | 00:00:00 | |
| BIOWL1-15 | 2026-09-01 22:51:42 | 50.75889 | 5.68570 | 79° | 24km/h | 18990m | -10m/s | -52.8°C | 4.5% | 69.6hPa | 3.8V | 00:00:00 | 00:00:00 | 00:00:00 | |
| DL1XH1-15 | 2026-09-01 22:51:41 | 50.75889 | 5.68570 | 78° | 27km/h | 18990m | -9.7m/s | -52.8°C | 4.5% | 69.5hPa | 3.8V | 00:00:00 | 01:57:57 | 00:00:00 | |
| GOEST3-10 | 2026-09-01 22:51:41 | 50.75892 | 5.68596 | 83° | 27km/h | 18963m | -9.3m/s | -52.7°C | 4.5% | 69.8hPa | 3.8V | 00:00:00 | 00:00:00 | 00:00:00 | |
| DM0DOS-11 | 2026-09-01 22:51:37 | 50.75887 | 5.68551 | 83° | 29km/h | 19009m | -9.8m/s | -52.8°C | 4.5% | 69.4hPa | 3.8V | 00:00:00 | 01:57:55 | 00:00:00 | |
| DL1XH-west | 2026-09-01 22:51:35 | 50.75886 | 5.68540 | 0° | 0km/h | 19019m | 0m/s | -52.7°C | 4.5% | 69.2hPa | 3.8V | 00:00:00 | 00:00:00 | 00:00:00 | |
| GOEST3-10 | 2026-09-01 22:51:35 | 50.75886 | 5.68540 | 82° | 29km/h | 19019m | -9.6m/s | -52.6°C | 4.5% | 69.2hPa | 3.7V | 00:00:00 | 01:57:54 | 00:00:00 | |
| DL1XH1-15 | 2026-09-01 22:51:31 | 50.75876 | 5.68460 | 84° | 29km/h | 19088m | -9.6m/s | -52.1°C | 4.5% | 68.5hPa | 3.8V | 00:00:00 | 01:57:47 | 00:00:00 | |
| BIOWL1-15 | 2026-09-01 22:51:28 | 50.75876 | 5.68460 | 84° | 29km/h | 19088m | -10m/s | -52.1°C | 4.5% | 68.5hPa | 3.8V | 00:00:00 | 00:00:00 | 00:00:00 | |
| DM0DOS-11 | 2026-09-01 22:51:26 | 50.75875 | 5.68437 | 93° | 29km/h | 19107m | -9.6m/s | -51.8°C | 4.5% | 68.3hPa | 3.8V | 00:00:00 | 01:57:45 | 00:00:00 | |
| DL1XH-west | 2026-09-01 22:51:24 | 50.75877 | 5.68414 | 0° | 0km/h | 19126m | 0m/s | -51.6°C | 4.6% | 68.1hPa | 3.8V | 00:00:00 | 00:00:00 | 00:00:00 | |
| DL1XH1-15 | 2026-09-01 22:51:21 | 50.75874 | 5.68340 | 84° | 26km/h | 19183m | -9.5m/s | -51.4°C | 4.5% | 67.5hPa | 3.8V | 00:00:00 | 01:57:37 | 00:00:00 | |
| BIOWL1-15 | 2026-09-01 22:51:17 | 50.75873 | 5.68328 | 96° | 27km/h | 19192m | -10m/s | -51.4°C | 4.6% | 67.5hPa | 3.8V | 00:00:00 | 00:00:00 | 00:00:00 | |
| DM0DOS-11 | 2026-09-01 22:51:16 | 50.75874 | 5.68318 | 106° | 22km/h | 19202m | -9.5m/s | -51.3°C | 4.5% | 67.4hPa | 3.8V | 00:00:00 | 01:57:35 | 00:00:00 | |
| DL1XH-west | 2026-09-01 22:51:14 | 50.75878 | 5.68299 | 0° | 0km/h | 19220m | 0m/s | -51.2°C | 4.6% | 67.2hPa | 3.8V | 00:00:00 | 00:00:00 | 00:00:00 | |
| GOEST3-10 | 2026-09-01 22:51:14 | 50.75878 | 5.68299 | 117° | 18km/h | 19220m | -9.8m/s | -51.2°C | 4.5% | 67.1hPa | 3.8V | 00:00:00 | 01:57:33 | 00:00:00 | |
| DL1XH1-15 | 2026-09-01 22:51:11 | 50.75885 | 5.68255 | 72° | 16km/h | 19278m | -10.5m/s | -51.2°C | 4.5% | 66.6hPa | 3.8V | 00:00:00 | 01:57:27 | 00:00:00 | |
| BIOWL1-15 | 2026-09-01 22:51:07 | 50.75867 | 5.68172 | 70° | 31km/h | 19393m | -10m/s | -51°C | 4.7% | 65.4hPa | 3.8V | 00:00:00 | 00:00:00 | 00:00:00 | |
| DL1XH-west | 2026-09-01 22:51:07 | 50.75879 | 5.68226 | 0° | 0km/h | 19332m | 0m/s | -51.3°C | 4.6% | 66hPa | 3.8V | 00:00:00 | 00:00:00 | 00:00:00 | |
| GOEST3-10 | 2026-09-01 22:51:06 | 50.75880 | 5.68234 | 71° | 26km/h | 19322m | -10.0m/s | -51.2°C | 4.5% | 66.1hPa | 3.7V | 00:00:00 | 01:57:23 | 00:00:00 | |
| GOEST3-10 | 2026-09-01 22:50:59 | 50.75872 | 5.68191 | 69° | 31km/h | 19374m | -9.4m/s | -51.2°C | 4.5% | 65.6hPa | 3.8V | 00:00:00 | 00:00:00 | 00:00:00 | |
| DM0DOS-11 | 2026-09-01 22:50:57 | 50.75865 | 5.68160 | 69° | 31km/h | 19403m | -9.1m/s | -51°C | 4.5% | 65.4hPa | 3.8V | 00:00:00 | 01:57:15 | 00:00:00 | |
| DL1XH-west | 2026-09-01 22:50:53 | 50.75855 | 5.68121 | 0° | 0km/h | 19431m | 0m/s | -51°C | 4.6% | 65.1hPa | 3.8V | 00:00:00 | 00:00:00 | 00:00:00 | |
| DL1XH1-15 | 2026-09-01 22:50:51 | 50.75837 | 5.68078 | 46° | 29km/h | 19475m | -9.9m/s | -51°C | 4.5% | 64.7hPa | 3.8V | 00:00:00 | 01:57:07 | 00:00:00 | |
| BIOWL1-15 | 2026-09-01 22:50:50 | 50.75845 | 5.68091 | 55° | 20km/h | 19457m | -9m/s | -50.9°C | 4.6% | 64.8hPa | 3.8V | 00:00:00 | 00:00:00 | 00:00:00 | |
| DL1XH-west | 2026-09-01 22:50:42 | 50.75812 | 5.68019 | 0° | 0km/h | 19535m | 0m/s | -51.2°C | 4.6% | 64hPa | 3.8V | 00:00:00 | 00:00:00 | 00:00:00 | |
| BIOWL1-15 | 2026-09-01 22:50:39 | 50.75803 | 5.67983 | 61° | 31km/h | 19561m | -10m/s | -51.3°C | 4.7% | 63.8hPa | 3.8V | 00:00:00 | 00:00:00 | 00:00:00 | |
| GOEST3-10 | 2026-09-01 22:50:39 | 50.75803 | 5.67983 | 62° | 35km/h | 19561m | -9.2m/s | -51.2°C | 4.6% | 63.7hPa | 3.8V | 00:00:00 | 00:00:00 | 00:00:00 | |
| DM0DOS-11 | 2026-09-01 22:50:37 | 50.75790 | 5.67952 | 50° | 35km/h | 19589m | -8.9m/s | -51.3°C | 4.6% | 63.5hPa | 3.8V | 00:00:00 | 01:56:55 | 00:00:00 | |
| GOEST3-10 | 2026-09-01 22:50:34 | 50.75779 | 5.67931 | 59° | 37km/h | 19607m | -8.8m/s | -51.4°C | 4.6% | 63.3hPa | 3.9V | 00:00:00 | 01:56:53 | 00:00:00 | |
| DL1XH1-15 | 2026-09-01 22:50:33 | 50.75758 | 5.67856 | 55° | 38km/h | 19660m | -9.2m/s | -51.7°C | 4.6% | 62.9hPa | 3.9V | 00:00:00 | 01:56:47 | 00:00:00 | |
| DL1XH-west | 2026-09-01 22:50:32 | 50.75766 | 5.67881 | 0° | 0km/h | 19642m | 0m/s | -51.7°C | 4.7% | 63hPa | 3.9V | 00:00:00 | 00:00:00 | 00:00:00 | |
| BIOWL1-15 | 2026-09-01 22:50:29 | 50.75728 | 5.67776 | 80° | 42km/h | 19714m | -10m/s | -51.8°C | 4.7% | 62.4hPa | 3.9V | 00:00:00 | 00:00:00 | 00:00:00 | |
| GOEST3-10 | 2026-09-01 22:50:29 | 50.75762 | 5.67868 | 63° | 38km/h | 19651m | -9.1m/s | -51.7°C | 4.6% | 62.9hPa | 3.9V | 00:00:00 | 00:00:00 | 00:00:00 | |
| DM0DOS-11 | 2026-09-01 22:50:27 | 50.75741 | 5.67819 | 58° | 40km/h | 19688m | -9.1m/s | -51.8°C | 4.6% | 62.6hPa | 3.9V | 00:00:00 | 01:56:44 | 00:00:00 | |
| DL1XH-west | 2026-09-01 22:50:21 | 50.75726 | 5.67760 | 0° | 0km/h | 19724m | 0m/s | -51.8°C | 4.7% | 62.3hPa | 3.9V | 00:00:00 | 00:00:00 | 00:00:00 | |
| DL1XH1-15 | 2026-09-01 22:50:21 | 50.75718 | 5.67710 | 69° | 37km/h | 19753m | -9.1m/s | -51.7°C | 4.6% | 62hPa | 3.9V | 00:00:00 | 01:56:37 | 00:00:00 | |
| BIOWL1-15 | 2026-09-01 22:50:19 | 50.75706 | 5.67639 | 81° | 29km/h | 19799m | -8m/s | -51.5°C | 4.7% | 61.6hPa | 3.9V | 00:00:00 | 00:00:00 | 00:00:00 | |
| GOEST3-10 | 2026-09-01 22:50:19 | 50.75720 | 5.67727 | 73° | 33km/h | 19744m | -9.0m/s | -51.7°C | 4.6% | 62.0hPa | 3.9V | 00:00:00 | 00:00:00 | 00:00:00 | |
| DB0UT-7 | 2026-09-01 22:50:17 | 50.75714 | 5.67694 | 75° | 26km/h | 19762m | -9.1m/s | -51.6°C | 4.6% | 61.9hPa | 3.9V | 00:00:00 | 00:00:00 | 00:00:00 | |
| DM0DOS-11 | 2026-09-01 22:50:15 | 50.75708 | 5.67665 | 77° | 31km/h | 19781m | -8.9m/s | -51.6°C | 4.6% | 61.8hPa | 3.9V | 00:00:00 | 01:56:34 | 00:00:00 | |
| DL1XH-west | 2026-09-01 22:50:10 | 50.75703 | 5.67604 | 0° | 0km/h | 19825m | 0m/s | -51.5°C | 4.7% | 61.4hPa | 3.9V | 00:00:00 | 00:00:00 | 00:00:00 | |
| DL1XH1-15 | 2026-09-01 22:50:09 | 50.75700 | 5.67576 | 77° | 35km/h | 19843m | -9.7m/s | -51.5°C | 4.6% | 61.2hPa | 3.9V | 00:00:00 | 01:56:27 | 00:00:00 | |
| BIOWL1-15 | 2026-09-01 22:50:05 | 50.75692 | 5.67513 | 74° | 27km/h | 19881m | -10m/s | -51.4°C | 4.7% | 60.8hPa | 3.9V | 00:00:00 | 00:00:00 | 00:00:00 | |
| DL1XH-west | 2026-09-01 22:50:00 | 50.75689 | 5.67484 | 0° | 0km/h | 19923m | 0m/s | -51.4°C | 4.8% | 60.5hPa | 3.9V | 00:00:00 | 00:00:00 | 00:00:00 | |
| DM0DOS-11 | 2026-09-01 22:49:58 | 50.75676 | 5.67431 | 58° | 27km/h | 19990m | -10.3m/s | -51.4°C | 4.7% | 59.8hPa | 3.9V | 00:00:00 | 01:56:12 | 00:00:00 | |
| BIOWL1-15 | 2026-09-01 22:49:58 | 50.75680 | 5.67442 | 61° | 31km/h | 19981m | -9m/s | -51.4°C | 4.8% | 59.9hPa | 3.9V | 00:00:00 | 00:00:00 | 00:00:00 | |
| DL1XH-west | 2026-09-01 22:49:49 | 50.75660 | 5.67389 | 0° | 0km/h | 20032m | 0m/s | -51.4°C | 4.8% | 59.5hPa | 3.9V | 00:00:00 | 00:00:00 | 00:00:00 | |
| DL1XH1-15 | 2026-09-01 22:49:49 | 50.75652 | 5.67363 | 80° | 15km/h | 20062m | -10m/s | -51.5°C | 4.7% | 59.2hPa | 3.9V | 00:00:00 | 01:56:05 | 00:00:00 | |
| BIOWL1-15 | 2026-09-01 22:49:44 | 50.75650 | 5.67339 | 90° | 13km/h | 20102m | -10m/s | -51.5°C | 4.8% | 58.9hPa | 3.9V | 00:00:00 | 00:00:00 | 00:00:00 | |
| DL1XH-west | 2026-09-01 22:49:39 | 50.75650 | 5.67322 | 0° | 0km/h | 20132m | 0m/s | -51.6°C | 4.9% | 58.6hPa | 3.9V | 00:00:00 | 00:00:00 | 00:00:00 | |
| GOEST3-10 | 2026-09-01 22:49:38 | 50.75649 | 5.67315 | 76° | 16km/h | 20142m | -9.8m/s | -51.6°C | 4.7% | 58.5hPa | 3.9V | 00:00:00 | 00:00:00 | 00:00:00 | |
| DL1XH1-15 | 2026-09-01 22:49:37 | 50.75647 | 5.67300 | 64° | 16km/h | 20162m | -9.7m/s | -51.8°C | 4.7% | 58.3hPa | 3.9V | 00:00:00 | 01:55:55 | 00:00:00 | |
| BIOWL1-15 | 2026-09-01 22:49:31 | 50.75637 | 5.67269 | 65° | 11km/h | 20211m | -10m/s | -52°C | 4.8% | 57.9hPa | 3.9V | 00:00:00 | 00:00:00 | 00:00:00 | |
| DL1XH1-15 | 2026-09-01 22:49:31 | 50.75631 | 5.67249 | 66° | 18km/h | 20262m | -9.7m/s | -52.2°C | 4.7% | 57.4hPa | 3.9V | 00:00:00 | 01:55:45 | 00:00:00 | |
| DL1XH-west | 2026-09-01 22:49:29 | 50.75632 | 5.67254 | 0° | 0km/h | 20252m | 0m/s | -52.1°C | 4.8% | 57.5hPa | 3.9V | 00:00:00 | 00:00:00 | 00:00:00 | |
| DM0DOS-11 | 2026-09-01 22:49:28 | 50.75624 | 5.67227 | 78° | 15km/h | 20291m | -9.8m/s | -52.3°C | 4.9% | 57.2hPa | 3.9V | 00:00:00 | 01:55:42 | 00:00:00 | |
| GOEST3-10 | 2026-09-01 22:49:23 | 50.75624 | 5.67227 | 79° | 16km/h | 20291m | -9.7m/s | -52.3°C | 4.9% | 57.1hPa | 3.9V | 00:00:00 | 01:55:42 | 00:00:00 | |
| DL1XH1-15 | 2026-09-01 22:49:19 | 50.75613 | 5.67191 | 52° | 24km/h | 20359m | -9.7m/s | -52.5°C | 4.9% | 56.6hPa | 3.9V | 00:00:00 | 01:55:35 | 00:00:00 | |
| DL1XH-west | 2026-09-01 22:49:17 | 50.75616 | 5.67198 | 0° | 0km/h | 20350m | 0m/s | -52.5°C | 4.9% | 56.7hPa | 3.9V | 00:00:00 | 00:00:00 | 00:00:00 | |
| DB0UT-7 | 2026-09-01 22:49:17 | 50.75616 | 5.67197 | 55° | 26km/h | 20350m | -9.5m/s | -52.4°C | 4.9% | 56.7hPa | 3.9V | 00:00:00 | 00:00:00 | 00:00:00 | |
| DM0DOS-11 | 2026-09-01 22:49:15 | 50.75604 | 5.67168 | 65° | 24km/h | 20388m | -9.9m/s | -52.6°C | 4.9% | 56.4hPa | 3.9V | 00:00:00 | 01:55:32 | 00:00:00 | |
| NBG1-10 | 2026-09-01 22:49:12 | 50.75601 | 5.67160 | 75° | 27km/h | 20398m | -9.8m/s | -52.6°C | 4.9% | 56.3hPa | 3.9V | 00:00:00 | 01:55:31 | 00:00:00 | |
| DL1XH1-15 | 2026-09-01 22:49:07 | 50.75595 | 5.67098 | 86° | 26km/h | 20458m | -9.2m/s | -52.8°C | 4.9% | 55.8hPa | 3.9V | 00:00:00 | 01:55:25 | 00:00:00 | |
| BIOWL1-15 | 2026-09-01 22:49:06 | 50.75595 | 5.67098 | 87° | 27km/h | 20458m | -8m/s | -52.8°C | 4.9% | 55.8hPa | 3.9V | 00:00:00 | 00:00:00 | 00:00:00 | |
| DM0DOS-11 | 2026-09-01 22:49:03 | 50.75595 | 5.67067 | 93° | 26km/h | 20485m | -9.8m/s | -52.7°C | 4.9% | 55.5hPa | 3.9V | 00:00:00 | 01:55:22 | 00:00:00 | |
| GOEST3-10 | 2026-09-01 22:49:01 | 50.75596 | 5.67049 | 94° | 27km/h | 20504m | -9.9m/s | -52.5°C | 4.9% | 55.4hPa | 3.9V | 00:00:00 | 01:55:20 | 00:00:00 | |
| DM0DOS-11 | 2026-09-01 22:48:57 | 50.75581 | 5.66964 | 64° | 22km/h | 20584m | -10m/s | -52.5°C | 5% | 54.8hPa | 3.9V | 00:00:00 | 01:55:12 | 00:00:00 | |
| BIOWL1-15 | 2026-09-01 22:48:56 | 50.75583 | 5.66972 | 65° | 22km/h | 20573m | -11m/s | -52.5°C | 5% | 54.9hPa | 3.9V | 00:00:00 | 00:00:00 | 00:00:00 | |
| DL1XH-west | 2026-09-01 22:48:55 | 50.75587 | 5.66981 | 0° | 0km/h | 20563m | 0m/s | -52.4°C | 4.9% | 54.9hPa | 3.9V | 00:00:00 | 00:00:00 | 00:00:00 | |
| GOEST3-10 | 2026-09-01 22:48:51 | 50.75578 | 5.66951 | 97° | 29km/h | 20602m | -10.5m/s | -52.4°C | 5.0% | 54.5hPa | 3.9V | 00:00:00 | 01:55:10 | 00:00:00 | |
| DL1XH1-15 | 2026-09-01 22:48:49 | 50.75583 | 5.66900 | 106° | 31km/h | 20657m | -9.6m/s | -52°C | 5% | 54.1hPa | 3.9V | 00:00:00 | 01:55:05 | 00:00:00 | |
| DL1XH-west | 2026-09-01 22:48:45 | 50.75586 | 5.66888 | 0° | 0km/h | 20667m | 0m/s | -52.1°C | 5% | 54.1hPa | 3.9V | 00:00:00 | 00:00:00 | 00:00:00 | |
| DM0DOS-11 | 2026-09-01 22:48:45 | 50.75587 | 5.66866 | 93° | 31km/h | 20685m | -9.7m/s | -52.1°C | 5% | 53.9hPa | 3.9V | 00:00:00 | 01:55:02 | 00:00:00 | |
| BIOWL1-15 | 2026-09-01 22:48:44 | 50.75587 | 5.66830 | 90° | 35km/h | 20715m | -9m/s | -51.9°C | 5% | 53.7hPa | 3.9V | 00:00:00 | 00:00:00 | 00:00:00 | |
| GOEST3-10 | 2026-09-01 22:48:40 | 50.75587 | 5.66830 | 91° | 33km/h | 20715m | -9.5m/s | -51.9°C | 5.0% | 53.6hPa | 3.9V | 00:00:00 | 01:54:59 | 00:00:00 | |
| DL1XH1-15 | 2026-09-01 22:48:37 | 50.75591 | 5.66775 | 109° | 33km/h | 20754m | -9.6m/s | -51.6°C | 5% | 53.3hPa | 3.9V | 00:00:00 | 01:54:55 | 00:00:00 | |
| DL1XH-west | 2026-09-01 22:48:34 | 50.75597 | 5.66747 | 0° | 0km/h | 20773m | 0m/s | -51.5°C | 5% | 53.2hPa | 3.9V | 00:00:00 | 00:00:00 | 00:00:00 | |
| BIOWL1-15 | 2026-09-01 22:48:33 | 50.75604 | 5.66708 | 93° | 29km/h | 20802m | -9m/s | -51.2°C | 5% | 53hPa | 3.9V | 00:00:00 | 00:00:00 | 00:00:00 | |
| DM0DOS-11 | 2026-09-01 22:48:33 | 50.75601 | 5.66733 | 105° | 27km/h | 20783m | -9.5m/s | -51.5°C | 5% | 53.1hPa | 3.9V | 00:00:00 | 01:54:52 | 00:00:00 | |
| DL1XH1-15 | 2026-09-01 22:48:31 | 50.75601 | 5.66661 | 86° | 22km/h | 20850m | -9.8m/s | -51.1°C | 5% | 52.6hPa | 3.9V | 00:00:00 | 01:54:45 | 00:00:00 | |
| GOEST3-10 | 2026-09-01 22:48:30 | 50.75605 | 5.66697 | 87° | 22km/h | 20811m | -9.7m/s | -51.0°C | 5.0% | 52.8hPa | 3.9V | 00:00:00 | 01:54:49 | 00:00:00 | |
| DM0DOS-11 | 2026-09-01 22:48:27 | 50.75603 | 5.66635 | 120° | 22km/h | 20879m | -10.1m/s | -51.1°C | 5% | 52.3hPa | 3.9V | 00:00:00 | 01:54:42 | 00:00:00 | |
| DL1XH-west | 2026-09-01 22:48:24 | 50.75601 | 5.66643 | 0° | 0km/h | 20869m | 0m/s | -51.1°C | 5% | 52.4hPa | 3.9V | 00:00:00 | 00:00:00 | 00:00:00 | |
| BIOWL1-15 | 2026-09-01 22:48:21 | 50.75614 | 5.66605 | 99° | 20km/h | 20920m | -9m/s | -51.3°C | 5.1% | 52hPa | 3.9V | 00:00:00 | 00:00:00 | 00:00:00 | |
| GOEST3-10 | 2026-09-01 22:48:20 | 50.75612 | 5.66612 | 113° | 22km/h | 20910m | -9.8m/s | -51.2°C | 5.0% | 52.1hPa | 3.9V | 00:00:00 | 01:54:39 | 00:00:00 | |
| DL1XH1-15 | 2026-09-01 22:48:19 | 50.75615 | 5.66579 | 90° | 20km/h | 20949m | -10.2m/s | -51.5°C | 5% | 51.8hPa | 3.9V | 00:00:00 | 01:54:35 | 00:00:00 | |
| DM0DOS-11 | 2026-09-01 22:48:15 | 50.75616 | 5.66551 | 98° | 16km/h | 20981m | -9.7m/s | -51.7°C | 5% | 51.5hPa | 3.9V | 00:00:00 | 01:54:32 | 00:00:00 | |
| DL1XH-west | 2026-09-01 22:48:13 | 50.75616 | 5.66551 | 0° | 0km/h | 20981m | 0m/s | -51.7°C | 5% | 51.5hPa | 3.9V | 00:00:00 | 00:00:00 | 00:00:00 | |
| BIOWL1-15 | 2026-09-01 22:48:11 | 50.75622 | 5.66520 | 96° | 15km/h | 21028m | -11m/s | -51.9°C | 5.1% | 51.2hPa | 3.9V | 00:00:00 | 00:00:00 | 00:00:00 | |
| DM0DOS-11 | 2026-09-01 22:48:10 | 50.75626 | 5.66484 | 111° | 15km/h | 21077m | -9.8m/s | -52.2°C | 5% | 50.8hPa | 3.9V | 00:00:00 | 01:54:22 | 00:00:00 | |
| GOEST3-10 | 2026-09-01 22:48:10 | 50.75619 | 5.66530 | 110° | 16km/h | 21010m | -9.6m/s | -51.7°C | 5.0% | 51.3hPa | 3.9V | 00:00:00 | 01:54:29 | 00:00:00 | |
| DL1XH1-15 | 2026-09-01 22:48:07 | 50.75623 | 5.66508 | 94° | 18km/h | 21049m | -9.5m/s | -52°C | 5% | 51hPa | 3.9V | 00:00:00 | 01:54:25 | 00:00:00 | |
| DL1XH-west | 2026-09-01 22:48:03 | 50.75628 | 5.66476 | 0° | 0km/h | 21086m | 0m/s | -52.3°C | 5.1% | 50.7hPa | 3.9V | 00:00:00 | 00:00:00 | 00:00:00 | |
| BIOWL1-15 | 2026-09-01 22:47:58 | 50.75640 | 5.66448 | 121° | 15km/h | 21167m | -10m/s | -52.9°C | 5.1% | 50.1hPa | 3.9V | 00:00:00 | 00:00:00 | 00:00:00 | |
| DM0DOS-11 | 2026-09-01 22:47:56 | 50.75642 | 5.66443 | 121° | 9km/h | 21177m | -10m/s | -52.9°C | 5% | 50hPa | 3.9V | 00:00:00 | 01:54:12 | 00:00:00 | |
| DL1XH-west | 2026-09-01 22:47:52 | 50.75646 | 5.66433 | 0° | 0km/h | 21198m | 0m/s | -53°C | 5.1% | 49.9hPa | 3.9V | 00:00:00 | 00:00:00 | 00:00:00 | |
| DL1XH1-15 | 2026-09-01 22:47:51 | 50.75646 | 5.66431 | 299° | 5km/h | 21246m | -10.1m/s | -53.2°C | 5.1% | 49.5hPa | 3.9V | 00:00:00 | 01:54:05 | 00:00:00 | |
| GOEST3-10 | 2026-09-01 22:47:50 | 50.75646 | 5.66430 | 111° | 4km/h | 21207m | -9.8m/s | -53.0°C | 5.0% | 49.7hPa | 3.9V | 00:00:00 | 01:54:09 | 00:00:00 | |
| DB0UT-7 | 2026-09-01 22:47:47 | 50.75646 | 5.66430 | 289° | 9km/h | 21236m | -10.0m/s | -53.1°C | 5.0% | 49.5hPa | 3.9V | 00:00:00 | 01:54:06 | 00:00:00 | |
| GOEST3-10 | 2026-09-01 22:47:45 | 50.75645 | 5.66432 | 1° | 7km/h | 21256m | -10.2m/s | -53.3°C | 5.0% | 49.4hPa | 3.9V | 00:00:00 | 00:00:00 | 00:00:00 | |
| DM0DOS-11 | 2026-09-01 22:47:44 | 50.75644 | 5.66431 | 104° | 7km/h | 21277m | -9.8m/s | -53.3°C | 5% | 49.2hPa | 3.9V | 00:00:00 | 01:54:02 | 00:00:00 | |
| DL1XH-west | 2026-09-01 22:47:40 | 50.75644 | 5.66422 | 0° | 0km/h | 21306m | 0m/s | -53.2°C | 5.1% | 49hPa | 3.9V | 00:00:00 | 00:00:00 | 00:00:00 | |
| GOEST3-10 | 2026-09-01 22:47:40 | 50.75644 | 5.66422 | 360° | 7km/h | 21306m | -10.1m/s | -53.2°C | 5.0% | 49.0hPa | 3.9V | 00:00:00 | 01:53:59 | 00:00:00 | |
| DM0DOS-11 | 2026-09-01 22:47:38 | 50.75632 | 5.66420 | 330° | 7km/h | 21375m | -10.1m/s | -53.2°C | 5.1% | 48.5hPa | 3.9V | 00:00:00 | 01:53:52 | 00:00:00 | |
| BIOWL1-15 | 2026-09-01 22:47:34 | 50.75629 | 5.66422 | 344° | 9km/h | 21394m | -11m/s | -53.3°C | 5.2% | 48.3hPa | 3.9V | 00:00:00 | 00:00:00 | 00:00:00 | |
| DL1XH-west | 2026-09-01 22:47:29 | 50.75624 | 5.66424 | 0° | 0km/h | 21415m | 0m/s | -53.3°C | 5.2% | 48.2hPa | 3.9V | 00:00:00 | 00:00:00 | 00:00:00 | |
| DM0DOS-11 | 2026-09-01 22:47:26 | 50.75613 | 5.66424 | 270° | 7km/h | 21480m | -9.8m/s | -53.2°C | 5.1% | 47.7hPa | 3.9V | 00:00:00 | 01:53:42 | 00:00:00 | |
| BIOWL1-15 | 2026-09-01 22:47:21 | 50.75612 | 5.66427 | 3° | 11km/h | 21512m | -10m/s | -53.2°C | 5.2% | 47.4hPa | 3.9V | 00:00:00 | 00:00:00 | 00:00:00 | |
| DL1XH-west | 2026-09-01 22:47:20 | 50.75610 | 5.66426 | 0° | 0km/h | 21522m | 0m/s | -53.2°C | 5.2% | 47.4hPa | 3.9V | 00:00:00 | 00:00:00 | 00:00:00 | |
| GOEST3-10 | 2026-09-01 22:47:18 | 50.75606 | 5.66425 | 24° | 13km/h | 21533m | -6.6m/s | -53.1°C | 5.1% | 47.2hPa | 3.9V | 00:00:00 | 00:00:00 | 00:00:00 | |
| DB0UT-7 | 2026-09-01 22:47:17 | 50.75602 | 5.66422 | 35° | 13km/h | 21545m | -5.7m/s | -53.1°C | 5.1% | 47.1hPa | 3.9V | 00:00:00 | 00:00:00 | 00:00:00 | |
| DM0DOS-11 | 2026-09-01 22:47:14 | 50.75588 | 5.66408 | 11° | 11km/h | 21592m | 2.8m/s | -53.3°C | 5.1% | 46.8hPa | 3.9V | 00:00:00 | 01:53:32 | 00:00:00 | |
| NBG1-10 | 2026-09-01 22:47:14 | 50.75591 | 5.66410 | 20° | 13km/h | 21582m | -0.4m/s | -53.1°C | 5.1% | 46.9hPa | 3.9V | 00:00:00 | 01:53:33 | 00:00:00 | |
| GOEST3-10 | 2026-09-01 22:47:13 | 50.75588 | 5.66408 | 13° | 11km/h | 21592m | 4.0m/s | -53.2°C | 5.1% | 46.8hPa | 3.9V | 00:00:00 | 01:53:32 | 00:00:00 | |
| DL1XH1-15 | 2026-09-01 22:47:11 | 50.75571 | 5.66402 | 344° | 16km/h | 21564m | 4.7m/s | -53.3°C | 5.1% | 47hPa | 3.9V | 00:00:00 | 01:53:25 | 00:00:00 | |
| BIOWL1-15 | 2026-09-01 22:47:10 | 50.75580 | 5.66405 | 45° | 9km/h | 21586m | 5m/s | -53.3°C | 5.2% | 46.9hPa | 3.9V | 00:00:00 | 00:00:00 | 00:00:00 | |
| DL1XH-west | 2026-09-01 22:47:08 | 50.75577 | 5.66400 | 0° | 0km/h | 21576m | 0m/s | -53.3°C | 5.2% | 46.9hPa | 3.9V | 00:00:00 | 00:00:00 | 00:00:00 | |
| GOEST3-10 | 2026-09-01 22:47:08 | 50.75577 | 5.66400 | 5° | 16km/h | 21576m | 5.2m/s | -53.2°C | 5.1% | 46.9hPa | 3.9V | 00:00:00 | 00:00:00 | 00:00:00 | |
| DL1XH1-15 | 2026-09-01 22:47:03 | 50.75547 | 5.66386 | 302° | 13km/h | 21514m | 5.2m/s | -53.4°C | 5.1% | 47.4hPa | 3.9V | 00:00:00 | 01:53:15 | 00:00:00 | |
| BIOWL1-15 | 2026-09-01 22:47:00 | 50.75553 | 5.66381 | 46° | 9km/h | 21535m | 5m/s | -53.4°C | 5.2% | 47.2hPa | 3.9V | 00:00:00 | 00:00:00 | 00:00:00 | |
| DL1XH-west | 2026-09-01 22:46:58 | 50.75549 | 5.66380 | 0° | 0km/h | 21525m | 0m/s | -53.4°C | 5.2% | 47.3hPa | 3.9V | 00:00:00 | 00:00:00 | 00:00:00 | |
| GOEST3-10 | 2026-09-01 22:46:58 | 50.75549 | 5.66380 | 304° | 13km/h | 21525m | 5.3m/s | -53.3°C | 5.1% | 47.3hPa | 3.9V | 00:00:00 | 00:00:00 | 00:00:00 | |
| DM0DOS-11 | 2026-09-01 22:46:55 | 50.75535 | 5.66395 | 39° | 13km/h | 21493m | 5.2m/s | -53.4°C | 5.1% | 47.5hPa | 3.9V | 00:00:00 | 01:53:11 | 00:00:00 | |
| GOEST3-10 | 2026-09-01 22:46:53 | 50.75539 | 5.66396 | 38° | 11km/h | 21498m | 5.0m/s | -53.3°C | 5.1% | 47.5hPa | 3.9V | 00:00:00 | 01:53:12 | 00:00:00 | |
| DL1XH1-15 | 2026-09-01 22:46:51 | 50.75526 | 5.66390 | 296° | 11km/h | 21462m | 5.4m/s | -53.4°C | 5.1% | 47.8hPa | 3.9V | 00:00:00 | 01:53:05 | 00:00:00 | |
| BIOWL1-15 | 2026-09-01 22:46:50 | 50.75528 | 5.66384 | 306° | 18km/h | 21467m | 5m/s | -53.4°C | 5.3% | 47.7hPa | 3.9V | 00:00:00 | 00:00:00 | 00:00:00 | |
| DL1XH-west | 2026-09-01 22:46:48 | 50.75530 | 5.66381 | 0° | 0km/h | 21473m | 0m/s | -53.4°C | 5.2% | 47.7hPa | 3.9V | 00:00:00 | 00:00:00 | 00:00:00 | |
| GOEST3-10 | 2026-09-01 22:46:48 | 50.75530 | 5.66381 | 310° | 11km/h | 21473m | 5.3m/s | -53.3°C | 5.1% | 47.7hPa | 3.9V | 00:00:00 | 00:00:00 | 00:00:00 | |
| DB0UT-7 | 2026-09-01 22:46:46 | 50.75525 | 5.66390 | 297° | 11km/h | 21462m | 5.3m/s | -53.4°C | 5.1% | 47.7hPa | 3.9V | 00:00:00 | 01:53:05 | 00:00:00 | |
| GOEST3-10 | 2026-09-01 22:46:43 | 50.75521 | 5.66401 | 5° | 11km/h | 21446m | 5.2m/s | -53.4°C | 5.1% | 47.8hPa | 3.9V | 00:00:00 | 01:53:02 | 00:00:00 | |
| DL1XH1-15 | 2026-09-01 22:46:41 | 50.75511 | 5.66386 | 321° | 13km/h | 21410m | 5.1m/s | -53.4°C | 5.2% | 48.1hPa | 3.9V | 00:00:00 | 01:52:55 | 00:00:00 | |
| BIOWL1-15 | 2026-09-01 22:46:38 | 50.75513 | 5.66387 | 58° | 5km/h | 21420m | 5m/s | -53.4°C | 5.3% | 48.1hPa | 3.9V | 00:00:00 | 00:00:00 | 00:00:00 | |
| DL1XH-west | 2026-09-01 22:46:37 | 50.75512 | 5.66385 | 0° | 0km/h | 21415m | 0m/s | -53.4°C | 5.2% | 48.1hPa | 3.9V | 00:00:00 | 00:00:00 | 00:00:00 | |
| GOEST3-10 | 2026-09-01 22:46:32 | 50.75501 | 5.66405 | 271° | 11km/h | 21390m | 5.0m/s | -53.3°C | 5.2% | 48.2hPa | 3.9V | 00:00:00 | 01:52:51 | 00:00:00 | |
| DL1XH1-15 | 2026-09-01 22:46:31 | 50.75491 | 5.66395 | 339° | 13km/h | 21359m | 4.9m/s | -53.4°C | 5.2% | 48.5hPa | 3.9V | 00:00:00 | 01:52:45 | 00:00:00 | |
| BIOWL1-15 | 2026-09-01 22:46:28 | 50.75481 | 5.66417 | 215° | 4km/h | 21335m | 6m/s | -53.5°C | 5.3% | 48.7hPa | 3.9V | 00:00:00 | 00:00:00 | 00:00:00 | |
| DL1XH-west | 2026-09-01 22:46:26 | 50.75491 | 5.66395 | 0° | 0km/h | 21359m | 0m/s | -53.4°C | 5.3% | 48.5hPa | 3.9V | 00:00:00 | 00:00:00 | 00:00:00 | |
| DM0DOS-11 | 2026-09-01 22:46:25 | 50.75482 | 5.66413 | 284° | 11km/h | 21340m | 5.2m/s | -53.5°C | 5.2% | 48.6hPa | 3.9V | 00:00:00 | 01:52:41 | 00:00:00 | |
| GOEST3-10 | 2026-09-01 22:46:24 | 50.75488 | 5.66399 | 303° | 13km/h | 21349m | 4.9m/s | -53.4°C | 5.2% | 48.5hPa | 3.9V | 00:00:00 | 00:00:00 | 00:00:00 | |
| DL1XH1-15 | 2026-09-01 22:46:21 | 50.75486 | 5.66397 | 44° | 9km/h | 21308m | 4.8m/s | -53.5°C | 5.2% | 48.9hPa | 3.9V | 00:00:00 | 01:52:35 | 00:00:00 | |
| BIOWL1-15 | 2026-09-01 22:46:16 | 50.75486 | 5.66397 | 44° | 13km/h | 21308m | 4m/s | -53.5°C | 5.3% | 48.9hPa | 3.9V | 00:00:00 | 00:00:00 | 00:00:00 | |
| DL1XH-west | 2026-09-01 22:46:15 | 50.75484 | 5.66394 | 0° | 0km/h | 21304m | 0m/s | -53.6°C | 5.3% | 48.9hPa | 3.9V | 00:00:00 | 00:00:00 | 00:00:00 | |
| DM0DOS-11 | 2026-09-01 22:46:13 | 50.75479 | 5.66386 | 4° | 7km/h | 21289m | 5.2m/s | -53.5°C | 5.2% | 49hPa | 3.9V | 00:00:00 | 01:52:31 | 00:00:00 | |
| GOEST3-10 | 2026-09-01 22:46:12 | 50.75479 | 5.66386 | 5° | 9km/h | 21289m | 5.2m/s | -53.5°C | 5.2% | 49.0hPa | 3.9V | 00:00:00 | 00:00:00 | 00:00:00 | |
| DL1XH1-15 | 2026-09-01 22:46:11 | 50.75489 | 5.66385 | 135° | 5km/h | 21258m | 5.5m/s | -53.4°C | 5.4% | 49.3hPa | 3.9V | 00:00:00 | 01:52:25 | 00:00:00 | |
| BIOWL1-15 | 2026-09-01 22:46:05 | 50.75491 | 5.66383 | 66° | 4km/h | 21252m | 5m/s | -53.3°C | 5.3% | 49.3hPa | 3.9V | 00:00:00 | 00:00:00 | 00:00:00 | |
| DM0DOS-11 | 2026-09-01 22:46:05 | 50.75489 | 5.66378 | 117° | 7km/h | 21235m | 5m/s | -53.2°C | 5.2% | 49.5hPa | 3.9V | 00:00:00 | 01:52:21 | 00:00:00 | |
| DL1XH-west | 2026-09-01 22:46:04 | 50.75490 | 5.66381 | 0° | 0km/h | 21247m | 0m/s | -53.3°C | 5.3% | 49.4hPa | 3.9V | 00:00:00 | 00:00:00 | 00:00:00 | |
| GOEST3-10 | 2026-09-01 22:46:02 | 50.75489 | 5.66378 | 118° | 11km/h | 21235m | 5.0m/s | -53.2°C | 5.2% | 49.4hPa | 3.9V | 00:00:00 | 00:00:00 | 00:00:00 | |
| DL1XH1-15 | 2026-09-01 22:46:01 | 50.75503 | 5.66377 | 158° | 13km/h | 21204m | 4.9m/s | -53°C | 5.4% | 49.7hPa | 3.9V | 00:00:00 | 01:52:15 | 00:00:00 | |
| DM0DOS-11 | 2026-09-01 22:45:57 | 50.75507 | 5.66369 | 28° | 11km/h | 21184m | 5.1m/s | -52.9°C | 5.4% | 49.8hPa | 3.9V | 00:00:00 | 01:52:11 | 00:00:00 | |
| BIOWL1-15 | 2026-09-01 22:45:57 | 50.75510 | 5.66372 | 72° | 5km/h | 21195m | 6m/s | -53°C | 5.4% | 49.8hPa | 3.9V | 00:00:00 | 00:00:00 | 00:00:00 | |
| GOEST3-10 | 2026-09-01 22:45:57 | 50.75497 | 5.66379 | 168° | 11km/h | 21209m | 4.9m/s | -53.0°C | 5.4% | 49.6hPa | 3.9V | 00:00:00 | 01:52:16 | 00:00:00 | |
| DL1XH-west | 2026-09-01 22:45:55 | 50.75509 | 5.66370 | 0° | 0km/h | 21189m | 0m/s | -52.9°C | 5.4% | 49.8hPa | 3.9V | 00:00:00 | 00:00:00 | 00:00:00 | |
| GOEST3-10 | 2026-09-01 22:45:52 | 50.75507 | 5.66369 | 29° | 11km/h | 21184m | 5.0m/s | -52.8°C | 5.4% | 49.8hPa | 3.9V | 00:00:00 | 00:00:00 | 00:00:00 | |
| DL1XH1-15 | 2026-09-01 22:45:51 | 50.75515 | 5.66347 | 131° | 7km/h | 21153m | 5.7m/s | -52.6°C | 5.4% | 50.1hPa | 3.9V | 00:00:00 | 01:52:05 | 00:00:00 | |
| DM0DOS-11 | 2026-09-01 22:45:48 | 50.75521 | 5.66344 | 165° | 13km/h | 21130m | 5.5m/s | -52.5°C | 5.4% | 50.2hPa | 3.9V | 00:00:00 | 01:52:01 | 00:00:00 | |
| BIOWL1-15 | 2026-09-01 22:45:43 | 50.75518 | 5.66345 | 176° | 11km/h | 21136m | 6m/s | -52.5°C | 5.4% | 50.2hPa | 3.9V | 00:00:00 | 00:00:00 | 00:00:00 | |
| DL1XH-west | 2026-09-01 22:45:42 | 50.75521 | 5.66344 | 0° | 0km/h | 21130m | 0m/s | -52.5°C | 5.4% | 50.2hPa | 3.9V | 00:00:00 | 00:00:00 | 00:00:00 | |
| GOEST3-10 | 2026-09-01 22:45:42 | 50.75521 | 5.66344 | 166° | 15km/h | 21130m | 5.5m/s | -52.5°C | 5.4% | 50.2hPa | 3.9V | 00:00:00 | 00:00:00 | 00:00:00 | |
| DL1XH1-15 | 2026-09-01 22:45:41 | 50.75527 | 5.66318 | 113° | 16km/h | 21096m | 5.1m/s | -52.3°C | 5.4% | 50.5hPa | 3.9V | 00:00:00 | 01:51:55 | 00:00:00 | |
| DM0DOS-11 | 2026-09-01 22:45:37 | 50.75530 | 5.66296 | 82° | 16km/h | 21075m | 5.3m/s | -52.2°C | 5.4% | 50.6hPa | 3.9V | 00:00:00 | 01:51:51 | 00:00:00 | |
| BIOWL1-15 | 2026-09-01 22:45:32 | 50.75530 | 5.66296 | 83° | 11km/h | 21075m | 4m/s | -52.2°C | 5.4% | 50.7hPa | 3.9V | 00:00:00 | 00:00:00 | 00:00:00 | |
| GOEST3-10 | 2026-09-01 22:45:32 | 50.75530 | 5.66296 | 83° | 18km/h | 21075m | 5.3m/s | -52.2°C | 5.4% | 50.6hPa | 3.9V | 00:00:00 | 00:00:00 | 00:00:00 | |
| DM0DOS-11 | 2026-09-01 22:45:27 | 50.75541 | 5.66222 | 72° | 18km/h | 21020m | 5m/s | -51.9°C | 5.5% | 51.1hPa | 3.9V | 00:00:00 | 01:51:41 | 00:00:00 | |
| DL1XH-west | 2026-09-01 22:45:21 | 50.75540 | 5.66217 | 0° | 0km/h | 21016m | 0m/s | -51.8°C | 5.5% | 51.1hPa | 3.9V | 00:00:00 | 00:00:00 | 00:00:00 | |
| DM0DOS-11 | 2026-09-01 22:45:17 | 50.75553 | 5.66145 | 96° | 22km/h | 20968m | 5.4m/s | -51.6°C | 5.5% | 51.5hPa | 3.9V | 00:00:00 | 01:51:31 | 00:00:00 | |
| BIOWL1-15 | 2026-09-01 22:45:11 | 50.75554 | 5.66136 | 81° | 20km/h | 20962m | 6m/s | -51.6°C | 5.5% | 51.5hPa | 3.9V | 00:00:00 | 00:00:00 | 00:00:00 | |
| DL1XH-west | 2026-09-01 22:45:10 | 50.75553 | 5.66128 | 0° | 0km/h | 20956m | 0m/s | -51.5°C | 5.5% | 51.6hPa | 3.9V | 00:00:00 | 00:00:00 | 00:00:00 | |
| NBG1-10 | 2026-09-01 22:45:10 | 50.75553 | 5.66128 | 97° | 26km/h | 20956m | 5.5m/s | -51.5°C | 5.5% | 51.5hPa | 3.9V | 00:00:00 | 01:51:29 | 00:00:00 | |
| GOEST3-10 | 2026-09-01 22:45:07 | 50.75554 | 5.66101 | 108° | 22km/h | 20940m | 5.4m/s | -51.3°C | 5.5% | 51.6hPa | 3.9V | 00:00:00 | 01:51:26 | 00:00:00 | |
| DM0DOS-11 | 2026-09-01 22:45:02 | 50.75562 | 5.66013 | 101° | 24km/h | 20885m | 5.4m/s | -51.3°C | 5.5% | 52.1hPa | 3.9V | 00:00:00 | 01:51:16 | 00:00:00 | |
| GOEST3-10 | 2026-09-01 22:45:02 | 50.75559 | 5.66053 | 108° | 22km/h | 20912m | 5.3m/s | -51.2°C | 5.5% | 51.8hPa | 3.9V | 00:00:00 | 00:00:00 | 00:00:00 | |
| DL1XH1-15 | 2026-09-01 22:45:01 | 50.75563 | 5.66001 | 105° | 22km/h | 20879m | 5.2m/s | -51.3°C | 5.5% | 52.1hPa | 3.9V | 00:00:00 | 01:51:15 | 00:00:00 | |
| BIOWL1-15 | 2026-09-01 22:45:00 | 50.75562 | 5.66038 | 95° | 18km/h | 20902m | 6m/s | -51.3°C | 5.5% | 52hPa | 3.9V | 00:00:00 | 00:00:00 | 00:00:00 | |
| DL1XH-west | 2026-09-01 22:44:59 | 50.75562 | 5.66031 | 0° | 0km/h | 20896m | 0m/s | -51.3°C | 5.5% | 52hPa | 3.9V | 00:00:00 | 00:00:00 | 00:00:00 | |
| BIOWL1-15 | 2026-09-01 22:44:52 | 50.75570 | 5.65960 | 101° | 24km/h | 20848m | 6m/s | -51.3°C | 5.6% | 52.4hPa | 3.9V | 00:00:00 | 00:00:00 | 00:00:00 | |
| DM0DOS-11 | 2026-09-01 22:44:52 | 50.75571 | 5.65925 | 87° | 29km/h | 20831m | 5.4m/s | -51.2°C | 5.5% | 52.5hPa | 3.9V | 00:00:00 | 01:51:06 | 00:00:00 | |
| GOEST3-10 | 2026-09-01 22:44:52 | 50.75568 | 5.65969 | 100° | 26km/h | 20858m | 5.2m/s | -51.2°C | 5.5% | 52.2hPa | 3.9V | 00:00:00 | 00:00:00 | 00:00:00 | |
| DL1XH1-15 | 2026-09-01 22:44:51 | 50.75571 | 5.65913 | 90° | 27km/h | 20825m | 5.2m/s | -51.2°C | 5.5% | 52.6hPa | 3.9V | 00:00:00 | 01:51:05 | 00:00:00 | |
| DL1XH-west | 2026-09-01 22:44:48 | 50.75571 | 5.65939 | 0° | 0km/h | 20837m | 0m/s | -51.2°C | 5.6% | 52.5hPa | 3.9V | 00:00:00 | 00:00:00 | 00:00:00 | |
| GOEST3-10 | 2026-09-01 22:44:47 | 50.75571 | 5.65925 | 88° | 29km/h | 20831m | 5.4m/s | -51.2°C | 5.5% | 52.5hPa | 3.9V | 00:00:00 | 01:51:06 | 00:00:00 | |
| DB0UT-7 | 2026-09-01 22:44:46 | 50.75571 | 5.65913 | 91° | 33km/h | 20825m | 5.2m/s | -51.2°C | 5.5% | 52.5hPa | 3.9V | 00:00:00 | 01:51:05 | 00:00:00 | |
| DM0DOS-11 | 2026-09-01 22:44:42 | 50.75582 | 5.65819 | 96° | 40km/h | 20776m | 5.5m/s | -51.7°C | 5.5% | 53hPa | 3.9V | 00:00:00 | 01:50:56 | 00:00:00 | |
| GOEST3-10 | 2026-09-01 22:44:42 | 50.75578 | 5.65871 | 121° | 33km/h | 20804m | 5.5m/s | -51.4°C | 5.5% | 52.7hPa | 3.9V | 00:00:00 | 00:00:00 | 00:00:00 | |
| DL1XH1-15 | 2026-09-01 22:44:41 | 50.75583 | 5.65803 | 98° | 40km/h | 20770m | 5.4m/s | -51.7°C | 5.5% | 53hPa | 3.9V | 00:00:00 | 01:50:55 | 00:00:00 | |
| BIOWL1-15 | 2026-09-01 22:44:40 | 50.75583 | 5.65843 | 81° | 27km/h | 20787m | 5m/s | -51.7°C | 5.6% | 52.9hPa | 3.9V | 00:00:00 | 00:00:00 | 00:00:00 | |
| DL1XH-west | 2026-09-01 22:44:39 | 50.75582 | 5.65832 | 0° | 0km/h | 20782m | 0m/s | -51.7°C | 5.6% | 52.9hPa | 3.9V | 00:00:00 | 00:00:00 | 00:00:00 | |
| GOEST3-10 | 2026-09-01 22:44:37 | 50.75582 | 5.65819 | 97° | 38km/h | 20776m | 5.5m/s | -51.6°C | 5.5% | 52.9hPa | 3.9V | 00:00:00 | 01:50:56 | 00:00:00 | |
| NBG1-10 | 2026-09-01 22:44:35 | 50.75584 | 5.65786 | 101° | 31km/h | 20765m | 5.5m/s | -51.7°C | 5.5% | 53.0hPa | 3.9V | 00:00:00 | 01:50:54 | 00:00:00 | |
| DM0DOS-11 | 2026-09-01 22:44:32 | 50.75600 | 5.65671 | 78° | 37km/h | 20721m | 5.1m/s | -51.9°C | 5.5% | 53.4hPa | 3.9V | 00:00:00 | 01:50:46 | 00:00:00 | |
| GOEST3-10 | 2026-09-01 22:44:32 | 50.75590 | 5.65738 | 114° | 37km/h | 20749m | 5.6m/s | -51.8°C | 5.5% | 53.1hPa | 3.9V | 00:00:00 | 00:00:00 | 00:00:00 | |
| DL1XH1-15 | 2026-09-01 22:44:31 | 50.75598 | 5.65656 | 83° | 35km/h | 20717m | 5.5m/s | -52°C | 5.5% | 53.4hPa | 3.9V | 00:00:00 | 01:50:45 | 00:00:00 | |
| BIOWL1-15 | 2026-09-01 22:44:30 | 50.75601 | 5.65686 | 81° | 37km/h | 20726m | 5m/s | -51.9°C | 5.6% | 53.4hPa | 3.9V | 00:00:00 | 00:00:00 | 00:00:00 | |
| DL1XH-west | 2026-09-01 22:44:27 | 50.75600 | 5.65671 | 0° | 0km/h | 20721m | 0m/s | -51.9°C | 5.6% | 53.4hPa | 3.9V | 00:00:00 | 00:00:00 | 00:00:00 | |
| GOEST3-10 | 2026-09-01 22:44:27 | 50.75600 | 5.65671 | 79° | 35km/h | 20721m | 5.1m/s | -51.9°C | 5.5% | 53.3hPa | 3.9V | 00:00:00 | 01:50:46 | 00:00:00 | |
| DM0DOS-11 | 2026-09-01 22:44:22 | 50.75610 | 5.65531 | 90° | 27km/h | 20670m | 5.5m/s | -52.1°C | 5.6% | 53.8hPa | 3.9V | 00:00:00 | 01:50:36 | 00:00:00 | |
| GOEST3-10 | 2026-09-01 22:44:22 | 50.75603 | 5.65600 | 101° | 27km/h | 20695m | 5.4m/s | -52.0°C | 5.6% | 53.5hPa | 3.9V | 00:00:00 | 00:00:00 | 00:00:00 | |
| DL1XH1-15 | 2026-09-01 22:44:21 | 50.75610 | 5.65518 | 83° | 26km/h | 20665m | 5.7m/s | -52.1°C | 5.6% | 53.9hPa | 3.9V | 00:00:00 | 01:50:35 | 00:00:00 | |
| BIOWL1-15 | 2026-09-01 22:44:18 | 50.75608 | 5.65544 | 100° | 35km/h | 20674m | 4m/s | -52.1°C | 5.7% | 53.8hPa | 3.9V | 00:00:00 | 00:00:00 | 00:00:00 | |
| DL1XH-west | 2026-09-01 22:44:17 | 50.75610 | 5.65518 | 0° | 0km/h | 20665m | 0m/s | -52.1°C | 5.7% | 53.9hPa | 3.9V | 00:00:00 | 00:00:00 | 00:00:00 | |
| DB0UT-7 | 2026-09-01 22:44:16 | 50.75610 | 5.65518 | 84° | 27km/h | 20665m | 5.6m/s | -52.0°C | 5.6% | 53.8hPa | 3.9V | 00:00:00 | 00:00:00 | 00:00:00 | |
| GOEST3-10 | 2026-09-01 22:44:15 | 50.75609 | 5.65507 | 72° | 26km/h | 20658m | 5.2m/s | -52.0°C | 5.6% | 53.8hPa | 3.9V | 00:00:00 | 01:50:34 | 00:00:00 | |
| DM0DOS-11 | 2026-09-01 22:44:12 | 50.75605 | 5.65424 | 84° | 26km/h | 20617m | 5.5m/s | -52.3°C | 5.6% | 54.2hPa | 3.9V | 00:00:00 | 01:50:26 | 00:00:00 | |
| DL1XH1-15 | 2026-09-01 22:44:11 | 50.75605 | 5.65412 | 96° | 24km/h | 20611m | 5.3m/s | -52.3°C | 5.6% | 54.3hPa | 3.9V | 00:00:00 | 01:50:25 | 00:00:00 | |
| BIOWL1-15 | 2026-09-01 22:44:08 | 50.75607 | 5.65437 | 77° | 33km/h | 20621m | 4m/s | -52.3°C | 5.7% | 54.2hPa | 3.9V | 00:00:00 | 00:00:00 | 00:00:00 | |
| DL1XH-west | 2026-09-01 22:44:05 | 50.75605 | 5.65402 | 0° | 0km/h | 20605m | 0m/s | -52.4°C | 5.7% | 54.3hPa | 3.9V | 00:00:00 | 00:00:00 | 00:00:00 | |
| GOEST3-10 | 2026-09-01 22:44:05 | 50.75605 | 5.65401 | 103° | 27km/h | 20605m | 5.0m/s | -52.3°C | 5.6% | 54.3hPa | 3.9V | 00:00:00 | 01:50:24 | 00:00:00 | |
| DM0DOS-11 | 2026-09-01 22:44:02 | 50.75596 | 5.65318 | 78° | 24km/h | 20563m | 5.4m/s | -52.5°C | 5.6% | 54.7hPa | 3.9V | 00:00:00 | 01:50:16 | 00:00:00 | |
| DL1XH1-15 | 2026-09-01 22:44:01 | 50.75595 | 5.65306 | 65° | 24km/h | 20557m | 5.2m/s | -52.5°C | 5.6% | 54.7hPa | 3.9V | 00:00:00 | 01:50:15 | 00:00:00 | |
| BIOWL1-15 | 2026-09-01 22:43:57 | 50.75596 | 5.65318 | 78° | 29km/h | 20563m | 6m/s | -52.5°C | 5.7% | 54.7hPa | 3.9V | 00:00:00 | 00:00:00 | 00:00:00 | |
| DL1XH-west | 2026-09-01 22:43:55 | 50.75592 | 5.65297 | 0° | 0km/h | 20552m | 0m/s | -52.4°C | 5.7% | 54.8hPa | 3.9V | 00:00:00 | 00:00:00 | 00:00:00 | |
| GOEST3-10 | 2026-09-01 22:43:55 | 50.75592 | 5.65297 | 68° | 26km/h | 20552m | 5.2m/s | -52.4°C | 5.6% | 54.7hPa | 3.9V | 00:00:00 | 01:50:14 | 00:00:00 | |
| DM0DOS-11 | 2026-09-01 22:43:52 | 50.75580 | 5.65215 | 84° | 27km/h | 20509m | 5m/s | -52.3°C | 5.7% | 55.1hPa | 3.9V | 00:00:00 | 01:50:06 | 00:00:00 | |
| DL1XH1-15 | 2026-09-01 22:43:51 | 50.75579 | 5.65203 | 80° | 26km/h | 20505m | 5.3m/s | -52.4°C | 5.7% | 55.1hPa | 3.9V | 00:00:00 | 01:50:05 | 00:00:00 | |
| BIOWL1-15 | 2026-09-01 22:43:50 | 50.75580 | 5.65215 | 85° | 31km/h | 20509m | 4m/s | -52.4°C | 5.8% | 55.1hPa | 3.9V | 00:00:00 | 00:00:00 | 00:00:00 | |
| DL1XH-west | 2026-09-01 22:43:45 | 50.75576 | 5.65182 | 0° | 0km/h | 20494m | 0m/s | -52.5°C | 5.8% | 55.2hPa | 3.9V | 00:00:00 | 00:00:00 | 00:00:00 | |
| GOEST3-10 | 2026-09-01 22:43:45 | 50.75578 | 5.65191 | 69° | 27km/h | 20499m | 5.1m/s | -52.4°C | 5.7% | 55.1hPa | 3.9V | 00:00:00 | 01:50:04 | 00:00:00 | |
| DM0DOS-11 | 2026-09-01 22:43:42 | 50.75575 | 5.65105 | 92° | 31km/h | 20458m | 5.6m/s | -52.7°C | 5.7% | 55.5hPa | 3.9V | 00:00:00 | 01:49:56 | 00:00:00 | |
| DL1XH1-15 | 2026-09-01 22:43:41 | 50.75576 | 5.65088 | 92° | 29km/h | 20452m | 5.4m/s | -52.7°C | 5.7% | 55.6hPa | 3.9V | 00:00:00 | 01:49:55 | 00:00:00 | |
| BIOWL1-15 | 2026-09-01 22:43:38 | 50.75575 | 5.65105 | 92° | 42km/h | 20458m | 6m/s | -52.7°C | 5.8% | 55.5hPa | 3.9V | 00:00:00 | 00:00:00 | 00:00:00 | |
| DL1XH-west | 2026-09-01 22:43:33 | 50.75573 | 5.65050 | 0° | 0km/h | 20435m | 0m/s | -52.7°C | 5.8% | 55.7hPa | 3.9V | 00:00:00 | 00:00:00 | 00:00:00 | |
| DM0DOS-11 | 2026-09-01 22:43:32 | 50.75569 | 5.64997 | 74° | 27km/h | 20403m | 5.3m/s | -52.6°C | 5.9% | 56hPa | 3.9V | 00:00:00 | 01:49:46 | 00:00:00 | |
| DL1XH1-15 | 2026-09-01 22:43:31 | 50.75567 | 5.64984 | 71° | 26km/h | 20398m | 5.3m/s | -52.6°C | 5.9% | 56hPa | 3.9V | 00:00:00 | 01:49:45 | 00:00:00 | |
| BIOWL1-15 | 2026-09-01 22:43:28 | 50.75567 | 5.64984 | 72° | 33km/h | 20398m | 5m/s | -52.6°C | 5.9% | 56hPa | 3.9V | 00:00:00 | 00:00:00 | 00:00:00 | |
| DL1XH-west | 2026-09-01 22:43:23 | 50.75561 | 5.64951 | 0° | 0km/h | 20382m | 0m/s | -52.5°C | 5.8% | 56.2hPa | 3.9V | 00:00:00 | 00:00:00 | 00:00:00 | |
| DM0DOS-11 | 2026-09-01 22:43:22 | 50.75556 | 5.64905 | 68° | 24km/h | 20350m | 5.3m/s | -52.3°C | 5.9% | 56.5hPa | 3.9V | 00:00:00 | 01:49:36 | 00:00:00 | |
| NBG1-10 | 2026-09-01 22:43:22 | 50.75559 | 5.64943 | 75° | 18km/h | 20376m | 5.2m/s | -52.5°C | 5.9% | 56.2hPa | 3.9V | 00:00:00 | 01:49:41 | 00:00:00 | |
| DL1XH1-15 | 2026-09-01 22:43:21 | 50.75553 | 5.64895 | 55° | 24km/h | 20344m | 5m/s | -52.3°C | 5.9% | 56.5hPa | 3.9V | 00:00:00 | 01:49:35 | 00:00:00 | |
| BIOWL1-15 | 2026-09-01 22:43:16 | 50.75553 | 5.64895 | 56° | 31km/h | 20344m | 4m/s | -52.3°C | 5.9% | 56.5hPa | 3.9V | 00:00:00 | 00:00:00 | 00:00:00 | |
| DL1XH-west | 2026-09-01 22:43:13 | 50.75541 | 5.64867 | 0° | 0km/h | 20329m | 0m/s | -52.3°C | 5.9% | 56.6hPa | 3.9V | 00:00:00 | 00:00:00 | 00:00:00 | |
| DL1XH1-15 | 2026-09-01 22:43:11 | 50.75530 | 5.64822 | 60° | 16km/h | 20291m | 5.2m/s | -52.2°C | 5.9% | 56.9hPa | 3.9V | 00:00:00 | 01:49:25 | 00:00:00 | |
| BIOWL1-15 | 2026-09-01 22:43:06 | 50.75530 | 5.64822 | 61° | 18km/h | 20291m | 5m/s | -52.2°C | 5.9% | 57hPa | 3.9V | 00:00:00 | 00:00:00 | 00:00:00 | |
| DL1XH-west | 2026-09-01 22:43:02 | 50.75518 | 5.64800 | 0° | 0km/h | 20271m | 0m/s | -52.1°C | 5.9% | 57.1hPa | 3.9V | 00:00:00 | 00:00:00 | 00:00:00 | |
| DM0DOS-11 | 2026-09-01 22:43:02 | 50.75513 | 5.64770 | 65° | 15km/h | 20245m | 5.5m/s | -51.9°C | 5.9% | 57.3hPa | 3.9V | 00:00:00 | 01:49:16 | 00:00:00 | |
| BIOWL1-15 | 2026-09-01 22:42:58 | 50.75510 | 5.64758 | 64° | 7km/h | 20234m | 5m/s | -51.8°C | 5.9% | 57.4hPa | 3.9V | 00:00:00 | 00:00:00 | 00:00:00 | |
| GOEST3-10 | 2026-09-01 22:42:54 | 50.75509 | 5.64756 | 24° | 15km/h | 20229m | 5.7m/s | -51.8°C | 6.0% | 57.4hPa | 3.9V | 00:00:00 | 01:49:13 | 00:00:00 | |
| DM0DOS-11 | 2026-09-01 22:42:52 | 50.75494 | 5.64732 | 86° | 18km/h | 20190m | 5.3m/s | -51.7°C | 6% | 57.8hPa | 3.9V | 00:00:00 | 01:49:06 | 00:00:00 | |
| DL1XH-west | 2026-09-01 22:42:51 | 50.75499 | 5.64750 | 0° | 0km/h | 20211m | 0m/s | -51.8°C | 6% | 57.6hPa | 3.9V | 00:00:00 | 00:00:00 | 00:00:00 | |
| BIOWL1-15 | 2026-09-01 22:42:45 | 50.75493 | 5.64714 | 85° | 18km/h | 20180m | 6m/s | -51.7°C | 6% | 57.9hPa | 3.9V | 00:00:00 | 00:00:00 | 00:00:00 | |
| GOEST3-10 | 2026-09-01 22:42:44 | 50.75492 | 5.64707 | 65° | 16km/h | 20174m | 5.3m/s | -51.6°C | 6.0% | 57.9hPa | 3.9V | 00:00:00 | 01:49:03 | 00:00:00 | |
| DM0DOS-11 | 2026-09-01 22:42:42 | 50.75478 | 5.64687 | 90° | 22km/h | 20137m | 5.4m/s | -51.5°C | 6% | 58.3hPa | 3.9V | 00:00:00 | 01:48:56 | 00:00:00 | |
| DL1XH1-15 | 2026-09-01 22:42:41 | 50.75478 | 5.64680 | 80° | 22km/h | 20132m | 5.5m/s | -51.5°C | 6% | 58.3hPa | 3.9V | 00:00:00 | 01:48:55 | 00:00:00 | |
| DL1XH-west | 2026-09-01 22:42:40 | 50.75482 | 5.64693 | 0° | 0km/h | 20153m | 0m/s | -51.6°C | 6% | 58.2hPa | 3.9V | 00:00:00 | 00:00:00 | 00:00:00 | |
| BIOWL1-15 | 2026-09-01 22:42:35 | 50.75477 | 5.64669 | 79° | 31km/h | 20126m | 5m/s | -51.5°C | 6% | 58.4hPa | 3.9V | 00:00:00 | 00:00:00 | 00:00:00 | |
| DM0DOS-11 | 2026-09-01 22:42:32 | 50.75463 | 5.64623 | 90° | 16km/h | 20084m | 5.2m/s | -51.2°C | 6% | 58.8hPa | 3.9V | 00:00:00 | 01:48:46 | 00:00:00 | |
| DL1XH1-15 | 2026-09-01 22:42:32 | 50.75463 | 5.64620 | 97° | 20km/h | 20078m | 4.9m/s | -51.2°C | 6% | 58.8hPa | 3.9V | 00:00:00 | 01:48:45 | 00:00:00 | |
| DL1XH-west | 2026-09-01 22:42:32 | 50.75470 | 5.64631 | 0° | 0km/h | 20099m | 0m/s | -51.3°C | 6.1% | 58.6hPa | 3.9V | 00:00:00 | 00:00:00 | 00:00:00 | |
| BIOWL1-15 | 2026-09-01 22:42:25 | 50.75463 | 5.64616 | 90° | 16km/h | 20074m | 4m/s | -51.3°C | 6.1% | 58.8hPa | 3.9V | 00:00:00 | 00:00:00 | 00:00:00 | |
| GOEST3-10 | 2026-09-01 22:42:24 | 50.75463 | 5.64609 | 73° | 27km/h | 20070m | 5.6m/s | -51.2°C | 6.0% | 58.8hPa | 3.9V | 00:00:00 | 00:00:00 | 00:00:00 | |
| DM0DOS-11 | 2026-09-01 22:42:22 | 50.75450 | 5.64550 | 63° | 24km/h | 20032m | 5.2m/s | -51.2°C | 6% | 59.2hPa | 3.9V | 00:00:00 | 01:48:36 | 00:00:00 | |
| DL1XH1-15 | 2026-09-01 22:42:21 | 50.75448 | 5.64544 | 53° | 27km/h | 20027m | 5.3m/s | -51.2°C | 6% | 59.2hPa | 3.9V | 00:00:00 | 01:48:35 | 00:00:00 | |
| DL1XH-west | 2026-09-01 22:42:19 | 50.75451 | 5.64560 | 0° | 0km/h | 20042m | 0m/s | -51.2°C | 6.1% | 59.1hPa | 3.9V | 00:00:00 | 00:00:00 | 00:00:00 | |
| BIOWL1-15 | 2026-09-01 22:42:15 | 50.75444 | 5.64536 | 57° | 31km/h | 20021m | 5m/s | -51.2°C | 6.1% | 59.3hPa | 3.9V | 00:00:00 | 00:00:00 | 00:00:00 | |
| GOEST3-10 | 2026-09-01 22:42:13 | 50.75436 | 5.64515 | 65° | 26km/h | 20011m | 5.1m/s | -51.1°C | 6.0% | 59.4hPa | 3.9V | 00:00:00 | 01:48:32 | 00:00:00 | |
| DM0DOS-11 | 2026-09-01 22:42:12 | 50.75419 | 5.64464 | 78° | 26km/h | 19981m | 5.2m/s | -51.3°C | 6.1% | 59.7hPa | 3.9V | 00:00:00 | 01:48:26 | 00:00:00 | |
| NBG1-10 | 2026-09-01 22:42:12 | 50.75432 | 5.64505 | 72° | 26km/h | 20005m | 4.8m/s | -51.1°C | 6.0% | 59.4hPa | 3.9V | 00:00:00 | 01:48:31 | 00:00:00 | |
| DL1XH1-15 | 2026-09-01 22:42:11 | 50.75418 | 5.64455 | 79° | 26km/h | 19975m | 4.9m/s | -51.4°C | 6.1% | 59.7hPa | 3.9V | 00:00:00 | 01:48:25 | 00:00:00 | |
| DL1XH-west | 2026-09-01 22:42:09 | 50.75425 | 5.64481 | 0° | 0km/h | 19990m | 0m/s | -51.2°C | 6.1% | 59.6hPa | 3.9V | 00:00:00 | 00:00:00 | 00:00:00 | |
| BIOWL1-15 | 2026-09-01 22:42:09 | 50.75415 | 5.64435 | 59° | 29km/h | 19966m | 6m/s | -51.5°C | 6.2% | 59.8hPa | 3.9V | 00:00:00 | 00:00:00 | 00:00:00 | |
| GOEST3-10 | 2026-09-01 22:42:08 | 50.75421 | 5.64472 | 72° | 27km/h | 19986m | 5.2m/s | -51.2°C | 6.1% | 59.6hPa | 3.9V | 00:00:00 | 00:00:00 | 00:00:00 | |
| GOEST3-10 | 2026-09-01 22:42:03 | 50.75411 | 5.64425 | 54° | 24km/h | 19960m | 5.1m/s | -51.4°C | 6.1% | 59.8hPa | 3.9V | 00:00:00 | 01:48:22 | 00:00:00 | |
| DM0DOS-11 | 2026-09-01 22:42:02 | 50.75389 | 5.64374 | 67° | 24km/h | 19929m | 5.4m/s | -51.4°C | 6.1% | 60.1hPa | 3.9V | 00:00:00 | 01:48:16 | 00:00:00 | |
| DL1XH1-15 | 2026-09-01 22:42:01 | 50.75387 | 5.64366 | 94° | 24km/h | 19924m | 5.6m/s | -51.4°C | 6.1% | 60.2hPa | 3.9V | 00:00:00 | 01:48:15 | 00:00:00 | |
| DL1XH-west | 2026-09-01 22:41:59 | 50.75395 | 5.64388 | 0° | 0km/h | 19939m | 0m/s | -51.4°C | 6.2% | 60.1hPa | 3.9V | 00:00:00 | 00:00:00 | 00:00:00 | |
| BIOWL1-15 | 2026-09-01 22:41:54 | 50.75389 | 5.64349 | 97° | 26km/h | 19912m | 5m/s | -51.4°C | 6.2% | 60.3hPa | 3.9V | 00:00:00 | 00:00:00 | 00:00:00 | |
| GOEST3-10 | 2026-09-01 22:41:53 | 50.75389 | 5.64338 | 80° | 27km/h | 19907m | 5.1m/s | -51.3°C | 6.1% | 60.3hPa | 3.9V | 00:00:00 | 01:48:12 | 00:00:00 | |
| DM0DOS-11 | 2026-09-01 22:41:52 | 50.75375 | 5.64277 | 83° | 26km/h | 19876m | 5.3m/s | -51.3°C | 6.1% | 60.6hPa | 3.9V | 00:00:00 | 01:48:06 | 00:00:00 | |
| DL1XH1-15 | 2026-09-01 22:41:51 | 50.75374 | 5.64266 | 73° | 26km/h | 19870m | 5m/s | -51.3°C | 6.1% | 60.7hPa | 3.9V | 00:00:00 | 01:48:05 | 00:00:00 | |
| DL1XH-west | 2026-09-01 22:41:49 | 50.75378 | 5.64299 | 0° | 0km/h | 19886m | 0m/s | -51.3°C | 6.2% | 60.5hPa | 3.9V | 00:00:00 | 00:00:00 | 00:00:00 | |
| BIOWL1-15 | 2026-09-01 22:41:46 | 50.75371 | 5.64247 | 86° | 24km/h | 19861m | 6m/s | -51.4°C | 6.2% | 60.8hPa | 3.9V | 00:00:00 | 00:00:00 | 00:00:00 | |
| DB0UT-7 | 2026-09-01 22:41:46 | 50.75374 | 5.64266 | 74° | 35km/h | 19870m | 5.0m/s | -51.3°C | 6.1% | 60.6hPa | 3.9V | 00:00:00 | 01:48:05 | 00:00:00 | |
| GOEST3-10 | 2026-09-01 22:41:43 | 50.75371 | 5.64238 | 98° | 31km/h | 19855m | 5.1m/s | -51.4°C | 6.2% | 60.8hPa | 3.9V | 00:00:00 | 01:48:02 | 00:00:00 | |
| DM0DOS-11 | 2026-09-01 22:41:42 | 50.75363 | 5.64171 | 77° | 33km/h | 19824m | 5.2m/s | -51.4°C | 6.2% | 61.1hPa | 3.9V | 00:00:00 | 01:47:56 | 00:00:00 | |
| DL1XH1-15 | 2026-09-01 22:41:41 | 50.75361 | 5.64157 | 79° | 33km/h | 19819m | 5.2m/s | -51.4°C | 6.2% | 61.1hPa | 3.9V | 00:00:00 | 01:47:55 | 00:00:00 | |
| DL1XH-west | 2026-09-01 22:41:38 | 50.75364 | 5.64185 | 0° | 0km/h | 19829m | 0m/s | -51.4°C | 6.3% | 61hPa | 3.9V | 00:00:00 | 00:00:00 | 00:00:00 | |
| BIOWL1-15 | 2026-09-01 22:41:34 | 50.75359 | 5.64131 | 90° | 31km/h | 19808m | 5m/s | -51.5°C | 6.3% | 61.2hPa | 3.9V | 00:00:00 | 00:00:00 | 00:00:00 | |
| DM0DOS-11 | 2026-09-01 22:41:32 | 50.75348 | 5.64046 | 74° | 40km/h | 19773m | 5.1m/s | -51.5°C | 6.2% | 61.6hPa | 3.9V | 00:00:00 | 01:47:46 | 00:00:00 | |
| GOEST3-10 | 2026-09-01 22:41:32 | 50.75360 | 5.64106 | 79° | 38km/h | 19798m | 5.0m/s | -51.4°C | 6.2% | 61.3hPa | 3.9V | 00:00:00 | 01:47:51 | 00:00:00 | |
| DL1XH1-15 | 2026-09-01 22:41:31 | 50.75345 | 5.64029 | 76° | 38km/h | 19768m | 5.1m/s | -51.6°C | 6.2% | 61.6hPa | 3.9V | 00:00:00 | 01:47:45 | 00:00:00 | |
| DL1XH-west | 2026-09-01 22:41:28 | 50.75352 | 5.64062 | 0° | 0km/h | 19779m | 0m/s | -51.5°C | 6.3% | 61.5hPa | 3.9V | 00:00:00 | 00:00:00 | 00:00:00 | |
| GOEST3-10 | 2026-09-01 22:41:25 | 50.75342 | 5.64012 | 79° | 38km/h | 19763m | 5.1m/s | -51.5°C | 6.2% | 61.6hPa | 3.9V | 00:00:00 | 00:00:00 | 00:00:00 | |
| BIOWL1-15 | 2026-09-01 22:41:24 | 50.75338 | 5.63983 | 80° | 35km/h | 19753m | 5m/s | -51.6°C | 6.3% | 61.8hPa | 3.9V | 00:00:00 | 00:00:00 | 00:00:00 | |
| DM0DOS-11 | 2026-09-01 22:41:22 | 50.75325 | 5.63902 | 63° | 46km/h | 19722m | 5.4m/s | -51.9°C | 6.3% | 62hPa | 3.9V | 00:00:00 | 01:47:36 | 00:00:00 | |
| DL1XH1-15 | 2026-09-01 22:41:21 | 50.75320 | 5.63886 | 67° | 46km/h | 19716m | 5.2m/s | -51.9°C | 6.2% | 62.1hPa | 3.9V | 00:00:00 | 01:47:35 | 00:00:00 | |
| DL1XH-west | 2026-09-01 22:41:18 | 50.75331 | 5.63916 | 0° | 0km/h | 19726m | 0m/s | -51.9°C | 6.4% | 62hPa | 3.9V | 00:00:00 | 00:00:00 | 00:00:00 | |
| BIOWL1-15 | 2026-09-01 22:41:13 | 50.75307 | 5.63829 | 69° | 46km/h | 19701m | 5m/s | -52°C | 6.4% | 62.2hPa | 3.9V | 00:00:00 | 00:00:00 | 00:00:00 | |
| DM0DOS-11 | 2026-09-01 22:41:12 | 50.75281 | 5.63744 | 54° | 38km/h | 19669m | 5.1m/s | -51.9°C | 6.3% | 62.5hPa | 3.9V | 00:00:00 | 01:47:26 | 00:00:00 | |
| DL1XH1-15 | 2026-09-01 22:41:11 | 50.75276 | 5.63732 | 62° | 38km/h | 19664m | 5.2m/s | -51.8°C | 6.3% | 62.6hPa | 3.9V | 00:00:00 | 01:47:25 | 00:00:00 | |
| DL1XH-west | 2026-09-01 22:41:07 | 50.75281 | 5.63744 | 0° | 0km/h | 19669m | 0m/s | -51.9°C | 6.4% | 62.5hPa | 3.9V | 00:00:00 | 00:00:00 | 00:00:00 | |
| BIOWL1-15 | 2026-09-01 22:41:03 | 50.75265 | 5.63686 | 70° | 40km/h | 19649m | 6m/s | -51.8°C | 6.4% | 62.7hPa | 3.9V | 00:00:00 | 00:00:00 | 00:00:00 | |
| DM0DOS-11 | 2026-09-01 22:41:02 | 50.75237 | 5.63607 | 52° | 35km/h | 19619m | 5.3m/s | -51.6°C | 6.5% | 63hPa | 3.9V | 00:00:00 | 01:47:16 | 00:00:00 | |
| DL1XH1-15 | 2026-09-01 22:41:01 | 50.75231 | 5.63594 | 47° | 33km/h | 19613m | 5m/s | -51.5°C | 6.5% | 63.1hPa | 3.9V | 00:00:00 | 01:47:15 | 00:00:00 | |
| DL1XH-west | 2026-09-01 22:40:57 | 50.75237 | 5.63607 | 0° | 0km/h | 19619m | 0m/s | -51.6°C | 6.5% | 63hPa | 3.9V | 00:00:00 | 00:00:00 | 00:00:00 | |
| BIOWL1-15 | 2026-09-01 22:40:53 | 50.75216 | 5.63562 | 76° | 31km/h | 19598m | 5m/s | -51.5°C | 6.5% | 63.2hPa | 3.9V | 00:00:00 | 00:00:00 | 00:00:00 | |
| DL1XH1-15 | 2026-09-01 22:40:53 | 50.75194 | 5.63479 | 55° | 33km/h | 19562m | 5.4m/s | -51.4°C | 6.5% | 63.5hPa | 3.9V | 00:00:00 | 01:47:05 | 00:00:00 | |
| DL1XH-west | 2026-09-01 22:40:46 | 50.75194 | 5.63479 | 0° | 0km/h | 19562m | 0m/s | -51.4°C | 6.5% | 63.5hPa | 3.9V | 00:00:00 | 00:00:00 | 00:00:00 | |
| BIOWL1-15 | 2026-09-01 22:40:42 | 50.75172 | 5.63436 | 69° | 26km/h | 19540m | 5m/s | -51.4°C | 6.5% | 63.8hPa | 3.9V | 00:00:00 | 00:00:00 | 00:00:00 | |
| DL1XH1-15 | 2026-09-01 22:40:41 | 50.75156 | 5.63379 | 61° | 35km/h | 19510m | 5.3m/s | -51.3°C | 6.5% | 64hPa | 3.9V | 00:00:00 | 01:46:55 | 00:00:00 | |
| DL1XH-west | 2026-09-01 22:40:36 | 50.75156 | 5.63379 | 0° | 0km/h | 19510m | 0m/s | -51.3°C | 6.5% | 64hPa | 3.9V | 00:00:00 | 00:00:00 | 00:00:00 | |
| GOEST3-10 | 2026-09-01 22:40:35 | 50.75151 | 5.63364 | 58° | 27km/h | 19504m | 5.0m/s | -51.2°C | 6.5% | 64.1hPa | 3.9V | 00:00:00 | 01:46:54 | 00:00:00 | |
| DM0DOS-11 | 2026-09-01 22:40:32 | 50.75122 | 5.63285 | 51° | 31km/h | 19463m | 5.1m/s | -51.2°C | 6.5% | 64.5hPa | 3.9V | 00:00:00 | 01:46:46 | 00:00:00 | |
| BIOWL1-15 | 2026-09-01 22:40:31 | 50.75132 | 5.63322 | 65° | 26km/h | 19484m | 6m/s | -51.2°C | 6.5% | 64.3hPa | 3.9V | 00:00:00 | 00:00:00 | 00:00:00 | |
| DL1XH-west | 2026-09-01 22:40:25 | 50.75114 | 5.63268 | 0° | 0km/h | 19453m | 0m/s | -51.3°C | 6.6% | 64.6hPa | 3.9V | 00:00:00 | 00:00:00 | 00:00:00 | |
| GOEST3-10 | 2026-09-01 22:40:25 | 50.75114 | 5.63268 | 62° | 29km/h | 19453m | 5.2m/s | -51.2°C | 6.5% | 64.5hPa | 3.9V | 00:00:00 | 01:46:44 | 00:00:00 | |
| DM0DOS-11 | 2026-09-01 22:40:22 | 50.75090 | 5.63172 | 80° | 27km/h | 19411m | 5.1m/s | -51.4°C | 6.5% | 65hPa | 3.9V | 00:00:00 | 01:46:36 | 00:00:00 | |
| BIOWL1-15 | 2026-09-01 22:40:21 | 50.75100 | 5.63213 | 63° | 29km/h | 19432m | 5m/s | -51.3°C | 6.6% | 64.8hPa | 3.9V | 00:00:00 | 00:00:00 | 00:00:00 | |
| DL1XH1-15 | 2026-09-01 22:40:21 | 50.75089 | 5.63161 | 79° | 29km/h | 19406m | 5.1m/s | -51.5°C | 6.5% | 65hPa | 3.9V | 00:00:00 | 01:46:35 | 00:00:00 | |
| DL1XH-west | 2026-09-01 22:40:14 | 50.75085 | 5.63141 | 0° | 0km/h | 19396m | 0m/s | -51.6°C | 6.6% | 65.2hPa | 3.9V | 00:00:00 | 00:00:00 | 00:00:00 | |
| GOEST3-10 | 2026-09-01 22:40:14 | 50.75085 | 5.63141 | 64° | 26km/h | 19396m | 5.0m/s | -51.6°C | 6.5% | 65.1hPa | 3.9V | 00:00:00 | 01:46:33 | 00:00:00 | |
| DM0DOS-11 | 2026-09-01 22:40:12 | 50.75056 | 5.63081 | 85° | 24km/h | 19361m | 5m/s | -51.6°C | 6.6% | 65.5hPa | 3.9V | 00:00:00 | 01:46:26 | 00:00:00 | |
| DL1XH1-15 | 2026-09-01 22:40:11 | 50.75056 | 5.63074 | 90° | 24km/h | 19355m | 4.7m/s | -51.6°C | 6.6% | 65.5hPa | 3.9V | 00:00:00 | 01:46:25 | 00:00:00 | |
| BIOWL1-15 | 2026-09-01 22:40:10 | 50.75066 | 5.63095 | 37° | 22km/h | 19376m | 5m/s | -51.7°C | 6.7% | 65.3hPa | 3.9V | 00:00:00 | 00:00:00 | 00:00:00 | |
| DL1XH-west | 2026-09-01 22:40:04 | 50.75056 | 5.63051 | 0° | 0km/h | 19346m | 0m/s | -51.5°C | 6.7% | 65.6hPa | 3.9V | 00:00:00 | 00:00:00 | 00:00:00 | |
| BIOWL1-15 | 2026-09-01 22:40:03 | 50.75042 | 5.63013 | 71° | 18km/h | 19322m | 5m/s | -51.4°C | 6.7% | 65.9hPa | 3.9V | 00:00:00 | 00:00:00 | 00:00:00 | |
| DM0DOS-11 | 2026-09-01 22:40:02 | 50.75039 | 5.63000 | 73° | 18km/h | 19312m | 4.8m/s | -51.4°C | 6.6% | 66hPa | 3.9V | 00:00:00 | 01:46:16 | 00:00:00 | |
| DL1XH1-15 | 2026-09-01 22:40:01 | 50.75038 | 5.62994 | 73° | 18km/h | 19307m | 4.8m/s | -51.3°C | 6.6% | 66hPa | 3.9V | 00:00:00 | 01:46:15 | 00:00:00 | |
| DL1XH-west | 2026-09-01 22:39:56 | 50.75037 | 5.62981 | 0° | 0km/h | 19297m | 0m/s | -51.4°C | 6.7% | 66.1hPa | 3.9V | 00:00:00 | 00:00:00 | 00:00:00 | |
| GOEST3-10 | 2026-09-01 22:39:54 | 50.75037 | 5.62981 | 108° | 22km/h | 19297m | 4.7m/s | -51.3°C | 6.6% | 66.1hPa | 3.9V | 00:00:00 | 01:46:13 | 00:00:00 | |
| DM0DOS-11 | 2026-09-01 22:39:52 | 50.75026 | 5.62926 | 97° | 22km/h | 19264m | 5m/s | -51.3°C | 6.7% | 66.5hPa | 3.9V | 00:00:00 | 01:46:06 | 00:00:00 | |
| BIOWL1-15 | 2026-09-01 22:39:51 | 50.75032 | 5.62942 | 51° | 24km/h | 19273m | 4m/s | -51.4°C | 6.8% | 66.4hPa | 3.9V | 00:00:00 | 00:00:00 | 00:00:00 | |
| DL1XH1-15 | 2026-09-01 22:39:51 | 50.75027 | 5.62918 | 112° | 20km/h | 19259m | 5m/s | -51.3°C | 6.7% | 66.5hPa | 3.9V | 00:00:00 | 01:46:05 | 00:00:00 | |
| DL1XH-west | 2026-09-01 22:39:43 | 50.75033 | 5.62894 | 0° | 0km/h | 19244m | 0m/s | -51.4°C | 6.8% | 66.7hPa | 3.9V | 00:00:00 | 00:00:00 | 00:00:00 | |
| DM0DOS-11 | 2026-09-01 22:39:42 | 50.75033 | 5.62847 | 90° | 24km/h | 19213m | 5m/s | -51.5°C | 6.7% | 67hPa | 3.9V | 00:00:00 | 01:45:56 | 00:00:00 | |
| DL1XH1-15 | 2026-09-01 22:39:41 | 50.75033 | 5.62838 | 90° | 26km/h | 19208m | 5.1m/s | -51.5°C | 6.7% | 67hPa | 3.9V | 00:00:00 | 01:45:55 | 00:00:00 | |
| BIOWL1-15 | 2026-09-01 22:39:38 | 50.75033 | 5.62857 | 94° | 24km/h | 19219m | 6m/s | -51.5°C | 6.8% | 66.9hPa | 3.9V | 00:00:00 | 00:00:00 | 00:00:00 | |
| DL1XH-west | 2026-09-01 22:39:32 | 50.75037 | 5.62798 | 0° | 0km/h | 19188m | 0m/s | -51.5°C | 6.9% | 67.2hPa | 3.9V | 00:00:00 | 00:00:00 | 00:00:00 | |
| DL1XH1-15 | 2026-09-01 22:39:31 | 50.75035 | 5.62736 | 92° | 29km/h | 19159m | 5.3m/s | -51.8°C | 6.8% | 67.5hPa | 3.9V | 00:00:00 | 01:45:45 | 00:00:00 | |
| BIOWL1-15 | 2026-09-01 22:39:28 | 50.75034 | 5.62760 | 96° | 29km/h | 19168m | 5m/s | -51.6°C | 6.9% | 67.4hPa | 3.9V | 00:00:00 | 00:00:00 | 00:00:00 | |
| DL1XH-west | 2026-09-01 22:39:24 | 50.75034 | 5.62690 | 0° | 0km/h | 19137m | 0m/s | -52°C | 6.9% | 67.8hPa | 3.9V | 00:00:00 | 00:00:00 | 00:00:00 | |
| DM0DOS-11 | 2026-09-01 22:39:23 | 50.75031 | 5.62632 | 78° | 35km/h | 19112m | 5.1m/s | -52.3°C | 6.8% | 68hPa | 3.9V | 00:00:00 | 01:45:36 | 00:00:00 | |
| BIOWL1-15 | 2026-09-01 22:39:19 | 50.75031 | 5.62632 | 78° | 37km/h | 19112m | 6m/s | -52.3°C | 6.9% | 68hPa | 3.9V | 00:00:00 | 00:00:00 | 00:00:00 | |
| DB0UT-7 | 2026-09-01 22:39:16 | 50.75029 | 5.62618 | 88° | 27km/h | 19106m | 4.8m/s | -52.3°C | 6.8% | 68.0hPa | 3.9V | 00:00:00 | 00:00:00 | 00:00:00 | |
| GOEST3-10 | 2026-09-01 22:39:15 | 50.75029 | 5.62603 | 91° | 29km/h | 19101m | 4.7m/s | -52.4°C | 6.8% | 68.0hPa | 3.9V | 00:00:00 | 00:00:00 | 00:00:00 | |
| DM0DOS-11 | 2026-09-01 22:39:12 | 50.75024 | 5.62506 | 67° | 31km/h | 19061m | 4.7m/s | -52.8°C | 7% | 68.5hPa | 3.9V | 00:00:00 | 01:45:26 | 00:00:00 | |
| DL1XH-west | 2026-09-01 22:39:11 | 50.75026 | 5.62547 | 0° | 0km/h | 19082m | 0m/s | -52.6°C | 6.9% | 68.3hPa | 3.9V | 00:00:00 | 00:00:00 | 00:00:00 | |
| BIOWL1-15 | 2026-09-01 22:39:07 | 50.75024 | 5.62506 | 67° | 31km/h | 19061m | 4m/s | -52.8°C | 7% | 68.5hPa | 3.9V | 00:00:00 | 00:00:00 | 00:00:00 | |
| GOEST3-10 | 2026-09-01 22:39:04 | 50.75017 | 5.62466 | 84° | 24km/h | 19046m | 4.7m/s | -52.8°C | 7.0% | 68.6hPa | 3.9V | 00:00:00 | 00:00:00 | 00:00:00 | |
| DM0DOS-11 | 2026-09-01 22:39:02 | 50.75007 | 5.62395 | 93° | 26km/h | 19013m | 5.1m/s | -53.1°C | 7% | 69hPa | 3.9V | 00:00:00 | 01:45:16 | 00:00:00 | |
| DL1XH-west | 2026-09-01 22:39:00 | 50.75010 | 5.62419 | 0° | 0km/h | 19028m | 0m/s | -53°C | 7% | 68.9hPa | 3.9V | 00:00:00 | 00:00:00 | 00:00:00 | |
| BIOWL1-15 | 2026-09-01 22:38:57 | 50.75008 | 5.62386 | 90° | 24km/h | 19008m | 5m/s | -53.1°C | 7% | 69.1hPa | 3.9V | 00:00:00 | 00:00:00 | 00:00:00 | |
| GOEST3-10 | 2026-09-01 22:38:53 | 50.75007 | 5.62355 | 91° | 27km/h | 18993m | 5.1m/s | -53.0°C | 7.0% | 69.2hPa | 3.9V | 00:00:00 | 00:00:00 | 00:00:00 | |
| DM0DOS-11 | 2026-09-01 22:38:52 | 50.75003 | 5.62292 | 95° | 29km/h | 18962m | 4.8m/s | -52.9°C | 7% | 69.6hPa | 3.9V | 00:00:00 | 01:45:06 | 00:00:00 | |
| DL1XH-west | 2026-09-01 22:38:50 | 50.75006 | 5.62322 | 0° | 0km/h | 18977m | 0m/s | -53°C | 7% | 69.4hPa | 3.9V | 00:00:00 | 00:00:00 | 00:00:00 | |
| BIOWL1-15 | 2026-09-01 22:38:49 | 50.75004 | 5.62281 | 96° | 31km/h | 18958m | 5m/s | -52.8°C | 7.1% | 69.6hPa | 3.9V | 00:00:00 | 00:00:00 | 00:00:00 | |
| GOEST3-10 | 2026-09-01 22:38:47 | 50.75003 | 5.62292 | 96° | 29km/h | 18962m | 4.8m/s | -52.8°C | 7.0% | 69.5hPa | 3.9V | 00:00:00 | 01:45:06 | 00:00:00 | |
| DB0UT-7 | 2026-09-01 22:38:46 | 50.75004 | 5.62280 | 96° | 33km/h | 18958m | 5.1m/s | -52.8°C | 7.0% | 69.6hPa | 3.9V | 00:00:00 | 01:45:05 | 00:00:00 | |
| DM0DOS-11 | 2026-09-01 22:38:42 | 50.75003 | 5.62175 | 94° | 35km/h | 18911m | 4.8m/s | -52.7°C | 7% | 70.1hPa | 3.9V | 00:00:00 | 01:44:56 | 00:00:00 | |
| GOEST3-10 | 2026-09-01 22:38:42 | 50.75004 | 5.62234 | 96° | 31km/h | 18938m | 5.2m/s | -52.8°C | 7.0% | 69.8hPa | 3.9V | 00:00:00 | 00:00:00 | 00:00:00 | |
| DL1XH1-15 | 2026-09-01 22:38:41 | 50.75004 | 5.62161 | 90° | 35km/h | 18907m | 5.1m/s | -52.7°C | 7% | 70.2hPa | 3.9V | 00:00:00 | 01:44:55 | 00:00:00 | |
| DL1XH-west | 2026-09-01 22:38:40 | 50.75005 | 5.62211 | 0° | 0km/h | 18927m | 0m/s | -52.8°C | 7.1% | 70hPa | 3.9V | 00:00:00 | 00:00:00 | 00:00:00 | |
| BIOWL1-15 | 2026-09-01 22:38:38 | 50.75004 | 5.62161 | 90° | 35km/h | 18907m | 5m/s | -52.7°C | 7.1% | 70.2hPa | 3.9V | 00:00:00 | 00:00:00 | 00:00:00 | |
| GOEST3-10 | 2026-09-01 22:38:37 | 50.75003 | 5.62175 | 95° | 33km/h | 18911m | 4.8m/s | -52.7°C | 7.0% | 70.1hPa | 3.9V | 00:00:00 | 01:44:56 | 00:00:00 | |
| DM0DOS-11 | 2026-09-01 22:38:32 | 50.75010 | 5.62047 | 98° | 38km/h | 18862m | 5m/s | -52.9°C | 7% | 70.7hPa | 3.9V | 00:00:00 | 01:44:46 | 00:00:00 | |
| GOEST3-10 | 2026-09-01 22:38:32 | 50.75005 | 5.62106 | 103° | 33km/h | 18886m | 4.9m/s | -52.6°C | 7.0% | 70.4hPa | 3.9V | 00:00:00 | 00:00:00 | 00:00:00 | |
| DL1XH1-15 | 2026-09-01 22:38:31 | 50.75011 | 5.62034 | 100° | 38km/h | 18856m | 4.8m/s | -52.9°C | 7% | 70.7hPa | 3.9V | 00:00:00 | 01:44:45 | 00:00:00 | |
| DL1XH-west | 2026-09-01 22:38:30 | 50.75009 | 5.62080 | 0° | 0km/h | 18877m | 0m/s | -52.7°C | 7.1% | 70.5hPa | 3.9V | 00:00:00 | 00:00:00 | 00:00:00 | |
| BIOWL1-15 | 2026-09-01 22:38:26 | 50.75011 | 5.62034 | 101° | 40km/h | 18856m | 4m/s | -52.9°C | 7.1% | 70.7hPa | 3.9V | 00:00:00 | 00:00:00 | 00:00:00 | |
| GOEST3-10 | 2026-09-01 22:38:26 | 50.75011 | 5.62034 | 99° | 37km/h | 18856m | 4.8m/s | -52.8°C | 7.0% | 70.7hPa | 3.9V | 00:00:00 | 01:44:45 | 00:00:00 | |
| DM0DOS-11 | 2026-09-01 22:38:21 | 50.75027 | 5.61890 | 101° | 33km/h | 18808m | 5.1m/s | -52.9°C | 7.1% | 71.2hPa | 3.9V | 00:00:00 | 01:44:35 | 00:00:00 | |
| DL1XH-west | 2026-09-01 22:38:19 | 50.75022 | 5.61925 | 0° | 0km/h | 18823m | 0m/s | -53°C | 7.1% | 71.1hPa | 3.9V | 00:00:00 | 00:00:00 | 00:00:00 | |
| BIOWL1-15 | 2026-09-01 22:38:17 | 50.75028 | 5.61879 | 106° | 33km/h | 18803m | 5m/s | -52.9°C | 7.2% | 71.3hPa | 3.9V | 00:00:00 | 00:00:00 | 00:00:00 | |
| NBG1-10 | 2026-09-01 22:38:17 | 50.75026 | 5.61901 | 97° | 33km/h | 18812m | 4.8m/s | -52.9°C | 7.1% | 71.1hPa | 3.9V | 00:00:00 | 01:44:36 | 00:00:00 | |
| GOEST3-10 | 2026-09-01 22:38:16 | 50.75028 | 5.61879 | 106° | 35km/h | 18803m | 4.9m/s | -52.8°C | 7.1% | 71.2hPa | 3.9V | 00:00:00 | 01:44:34 | 00:00:00 | |
| DL1XH1-15 | 2026-09-01 22:38:11 | 50.75037 | 5.61760 | 86° | 33km/h | 18756m | 4.7m/s | -52.9°C | 7.1% | 71.8hPa | 3.9V | 00:00:00 | 01:44:25 | 00:00:00 | |
| DL1XH-west | 2026-09-01 22:38:08 | 50.75037 | 5.61782 | 0° | 0km/h | 18767m | 0m/s | -52.8°C | 7.2% | 71.7hPa | 3.9V | 00:00:00 | 00:00:00 | 00:00:00 | |
| BIOWL1-15 | 2026-09-01 22:38:07 | 50.75037 | 5.61738 | 97° | 35km/h | 18747m | 5m/s | -52.9°C | 7.2% | 71.9hPa | 3.9V | 00:00:00 | 00:00:00 | 00:00:00 | |
| GOEST3-10 | 2026-09-01 22:38:05 | 50.75036 | 5.61750 | 91° | 35km/h | 18752m | 5.0m/s | -52.8°C | 7.2% | 71.8hPa | 3.9V | 00:00:00 | 01:44:24 | 00:00:00 | |
| DM0DOS-11 | 2026-09-01 22:38:01 | 50.75032 | 5.61622 | 80° | 29km/h | 18708m | 5.2m/s | -53.1°C | 7.2% | 72.3hPa | 3.9V | 00:00:00 | 01:44:15 | 00:00:00 | |
| DL1XH-west | 2026-09-01 22:37:57 | 50.75033 | 5.61635 | 0° | 0km/h | 18713m | 0m/s | -53.1°C | 7.3% | 72.3hPa | 3.9V | 00:00:00 | 00:00:00 | 00:00:00 | |
| BIOWL1-15 | 2026-09-01 22:37:53 | 50.75030 | 5.61588 | 95° | 31km/h | 18692m | 5m/s | -53°C | 7.3% | 72.5hPa | 3.9V | 00:00:00 | 00:00:00 | 00:00:00 | |
| DM0DOS-11 | 2026-09-01 22:37:51 | 50.75027 | 5.61503 | 103° | 31km/h | 18657m | 5.4m/s | -52.9°C | 7.2% | 72.9hPa | 3.9V | 00:00:00 | 01:44:05 | 00:00:00 | |
| DL1XH-west | 2026-09-01 22:37:47 | 50.75027 | 5.61514 | 0° | 0km/h | 18663m | 0m/s | -52.9°C | 7.3% | 72.8hPa | 3.9V | 00:00:00 | 00:00:00 | 00:00:00 | |
| BIOWL1-15 | 2026-09-01 22:37:45 | 50.75033 | 5.61466 | 105° | 29km/h | 18640m | 5m/s | -52.9°C | 7.3% | 73.1hPa | 3.9V | 00:00:00 | 00:00:00 | 00:00:00 | |
| GOEST3-10 | 2026-09-01 22:37:44 | 50.75031 | 5.61478 | 104° | 33km/h | 18646m | 5.3m/s | -52.8°C | 7.2% | 73.0hPa | 3.9V | 00:00:00 | 01:44:03 | 00:00:00 | |
| DL1XH1-15 | 2026-09-01 22:37:41 | 50.75043 | 5.61381 | 87° | 35km/h | 18604m | 5.2m/s | -52.8°C | 7.3% | 73.5hPa | 3.9V | 00:00:00 | 01:43:55 | 00:00:00 | |
| DL1XH-west | 2026-09-01 22:37:37 | 50.75044 | 5.61395 | 0° | 0km/h | 18609m | 0m/s | -52.8°C | 7.4% | 73.4hPa | 3.9V | 00:00:00 | 00:00:00 | 00:00:00 | |
| BIOWL1-15 | 2026-09-01 22:37:33 | 50.75048 | 5.61325 | 108° | 29km/h | 18583m | 5m/s | -52.7°C | 7.4% | 73.7hPa | 3.9V | 00:00:00 | 00:00:00 | 00:00:00 | |
| DM0DOS-11 | 2026-09-01 22:37:30 | 50.75059 | 5.61230 | 90° | 38km/h | 18548m | 5.2m/s | -52.8°C | 7.3% | 74.1hPa | 3.9V | 00:00:00 | 01:43:44 | 00:00:00 | |
| DL1XH-west | 2026-09-01 22:37:27 | 50.75059 | 5.61259 | 0° | 0km/h | 18557m | 0m/s | -52.8°C | 7.4% | 74hPa | 3.9V | 00:00:00 | 00:00:00 | 00:00:00 | |
| BIOWL1-15 | 2026-09-01 22:37:21 | 50.75067 | 5.61170 | 102° | 38km/h | 18527m | 5m/s | -52.8°C | 7.4% | 74.3hPa | 3.9V | 00:00:00 | 00:00:00 | 00:00:00 | |
| DL1XH1-15 | 2026-09-01 22:37:21 | 50.75074 | 5.61090 | 85° | 38km/h | 18502m | 5.1m/s | -52.8°C | 7.5% | 74.6hPa | 3.9V | 00:00:00 | 01:43:35 | 00:00:00 | |
| DL1XH-west | 2026-09-01 22:37:17 | 50.75074 | 5.61106 | 0° | 0km/h | 18507m | 0m/s | -52.8°C | 7.5% | 74.5hPa | 3.9V | 00:00:00 | 00:00:00 | 00:00:00 | |
| DB0UT-7 | 2026-09-01 22:37:16 | 50.75074 | 5.61090 | 86° | 37km/h | 18502m | 5.1m/s | -52.8°C | 7.5% | 74.5hPa | 3.9V | 00:00:00 | 00:00:00 | 00:00:00 | |
| DL1XH1-15 | 2026-09-01 22:37:11 | 50.75085 | 5.60940 | 83° | 38km/h | 18451m | 5.1m/s | -53°C | 7.5% | 75.2hPa | 4V | 00:00:00 | 01:43:25 | 00:00:00 | |
| BIOWL1-15 | 2026-09-01 22:37:11 | 50.75079 | 5.61002 | 102° | 38km/h | 18471m | 5m/s | -53°C | 7.5% | 75hPa | 4V | 00:00:00 | 00:00:00 | 00:00:00 | |
| DM0DOS-11 | 2026-09-01 22:37:10 | 50.75084 | 5.60926 | 76° | 38km/h | 18445m | 4.8m/s | -53°C | 7.5% | 75.3hPa | 4V | 00:00:00 | 01:43:24 | 00:00:00 | |
| DL1XH-west | 2026-09-01 22:37:07 | 50.75084 | 5.60956 | 0° | 0km/h | 18456m | 0m/s | -53.1°C | 7.5% | 75.1hPa | 4V | 00:00:00 | 00:00:00 | 00:00:00 | |
| GOEST3-10 | 2026-09-01 22:37:07 | 50.75084 | 5.60956 | 89° | 35km/h | 18456m | 5.0m/s | -53.0°C | 7.5% | 75.1hPa | 4V | 00:00:00 | 01:43:26 | 00:00:00 | |
| DL1XH1-15 | 2026-09-01 22:37:01 | 50.75083 | 5.60785 | 82° | 33km/h | 18401m | 5.2m/s | -53.1°C | 7.5% | 75.8hPa | 4V | 00:00:00 | 01:43:15 | 00:00:00 | |
| DM0DOS-11 | 2026-09-01 22:37:01 | 50.75082 | 5.60772 | 67° | 33km/h | 18395m | 5m/s | -53.1°C | 7.5% | 75.8hPa | 4V | 00:00:00 | 01:43:14 | 00:00:00 | |
| BIOWL1-15 | 2026-09-01 22:37:01 | 50.75080 | 5.60831 | 99° | 40km/h | 18415m | 5m/s | -53°C | 7.6% | 75.6hPa | 4V | 00:00:00 | 00:00:00 | 00:00:00 | |
| DL1XH-west | 2026-09-01 22:36:56 | 50.75083 | 5.60785 | 0° | 0km/h | 18401m | 0m/s | -53.1°C | 7.6% | 75.8hPa | 4V | 00:00:00 | 00:00:00 | 00:00:00 | |
| GOEST3-10 | 2026-09-01 22:36:54 | 50.75079 | 5.60760 | 61° | 33km/h | 18390m | 5.0m/s | -53.0°C | 7.5% | 75.9hPa | 4.0V | 00:00:00 | 00:00:00 | 00:00:00 | |
| DL1XH1-15 | 2026-09-01 22:36:51 | 50.75071 | 5.60655 | 92° | 33km/h | 18349m | 5.1m/s | -52.8°C | 7.5% | 76.4hPa | 4V | 00:00:00 | 01:43:05 | 00:00:00 | |
| DM0DOS-11 | 2026-09-01 22:36:50 | 50.75071 | 5.60640 | 92° | 31km/h | 18344m | 5.2m/s | -52.7°C | 7.6% | 76.4hPa | 4V | 00:00:00 | 01:43:04 | 00:00:00 | |
| BIOWL1-15 | 2026-09-01 22:36:48 | 50.75069 | 5.60682 | 96° | 31km/h | 18360m | 4m/s | -52.9°C | 7.6% | 76.2hPa | 4V | 00:00:00 | 00:00:00 | 00:00:00 | |
| DL1XH-west | 2026-09-01 22:36:45 | 50.75071 | 5.60640 | 0° | 0km/h | 18344m | 0m/s | -52.7°C | 7.7% | 76.4hPa | 4V | 00:00:00 | 00:00:00 | 00:00:00 | |
| GOEST3-10 | 2026-09-01 22:36:44 | 50.75071 | 5.60624 | 88° | 29km/h | 18339m | 5.2m/s | -52.6°C | 7.5% | 76.5hPa | 4V | 00:00:00 | 00:00:00 | 00:00:00 | |
| DL1XH1-15 | 2026-09-01 22:36:41 | 50.75070 | 5.60525 | 84° | 31km/h | 18298m | 5.1m/s | -52.4°C | 7.6% | 77hPa | 4V | 00:00:00 | 01:42:55 | 00:00:00 | |
| DM0DOS-11 | 2026-09-01 22:36:40 | 50.75069 | 5.60511 | 90° | 31km/h | 18293m | 5.1m/s | -52.4°C | 7.6% | 77hPa | 4V | 00:00:00 | 01:42:54 | 00:00:00 | |
| BIOWL1-15 | 2026-09-01 22:36:39 | 50.75071 | 5.60538 | 88° | 35km/h | 18303m | 5m/s | -52.5°C | 7.7% | 76.9hPa | 4V | 00:00:00 | 00:00:00 | 00:00:00 | |
| DL1XH-west | 2026-09-01 22:36:35 | 50.75069 | 5.60511 | 0° | 0km/h | 18293m | 0m/s | -52.4°C | 7.7% | 77hPa | 4V | 00:00:00 | 00:00:00 | 00:00:00 | |
| GOEST3-10 | 2026-09-01 22:36:34 | 50.75069 | 5.60498 | 93° | 33km/h | 18288m | 5.1m/s | -52.3°C | 7.6% | 77.0hPa | 4V | 00:00:00 | 00:00:00 | 00:00:00 | |
| DL1XH1-15 | 2026-09-01 22:36:31 | 50.75078 | 5.60400 | 99° | 37km/h | 18246m | 5m/s | -52.5°C | 7.7% | 77.6hPa | 4V | 00:00:00 | 01:42:45 | 00:00:00 | |
| DM0DOS-11 | 2026-09-01 22:36:30 | 50.75079 | 5.60386 | 105° | 37km/h | 18242m | 5.3m/s | -52.5°C | 7.6% | 77.6hPa | 4V | 00:00:00 | 01:42:44 | 00:00:00 | |
| BIOWL1-15 | 2026-09-01 22:36:27 | 50.75076 | 5.60415 | 102° | 38km/h | 18252m | 6m/s | -52.4°C | 7.8% | 77.5hPa | 4V | 00:00:00 | 00:00:00 | 00:00:00 | |
| DL1XH-west | 2026-09-01 22:36:25 | 50.75082 | 5.60370 | 0° | 0km/h | 18236m | 0m/s | -52.5°C | 7.8% | 77.7hPa | 4V | 00:00:00 | 00:00:00 | 00:00:00 | |
| GOEST3-10 | 2026-09-01 22:36:24 | 50.75082 | 5.60370 | 104° | 35km/h | 18236m | 5.0m/s | -52.5°C | 7.7% | 77.6hPa | 4.0V | 00:00:00 | 00:00:00 | 00:00:00 | |
| DL1XH1-15 | 2026-09-01 22:36:21 | 50.75098 | 5.60261 | 106° | 37km/h | 18195m | 4.9m/s | -52.5°C | 7.7% | 78.2hPa | 4V | 00:00:00 | 01:42:35 | 00:00:00 | |
| DM0DOS-11 | 2026-09-01 22:36:20 | 50.75101 | 5.60246 | 104° | 35km/h | 18190m | 4.9m/s | -52.5°C | 7.7% | 78.2hPa | 4V | 00:00:00 | 01:42:34 | 00:00:00 | |
| BIOWL1-15 | 2026-09-01 22:36:16 | 50.75098 | 5.60261 | 106° | 38km/h | 18195m | 5m/s | -52.5°C | 7.8% | 78.2hPa | 4V | 00:00:00 | 00:00:00 | 00:00:00 | |
| DL1XH-west | 2026-09-01 22:36:13 | 50.75105 | 5.60218 | 0° | 0km/h | 18181m | 0m/s | -52.5°C | 7.8% | 78.3hPa | 4V | 00:00:00 | 00:00:00 | 00:00:00 | |
| DL1XH1-15 | 2026-09-01 22:36:11 | 50.75107 | 5.60124 | 98° | 37km/h | 18145m | 5.1m/s | -52.4°C | 7.8% | 78.8hPa | 4V | 00:00:00 | 01:42:25 | 00:00:00 | |
| GOEST3-10 | 2026-09-01 22:36:11 | 50.75108 | 5.60188 | 91° | 35km/h | 18170m | 5.0m/s | -52.4°C | 7.7% | 78.4hPa | 4V | 00:00:00 | 00:00:00 | 00:00:00 | |
| DM0DOS-11 | 2026-09-01 22:36:10 | 50.75108 | 5.60108 | 99° | 35km/h | 18140m | 5.2m/s | -52.4°C | 7.8% | 78.8hPa | 4V | 00:00:00 | 01:42:24 | 00:00:00 | |
| BIOWL1-15 | 2026-09-01 22:36:08 | 50.75107 | 5.60124 | 99° | 40km/h | 18145m | 5m/s | -52.4°C | 7.9% | 78.8hPa | 4V | 00:00:00 | 00:00:00 | 00:00:00 | |
| DL1XH-west | 2026-09-01 22:36:03 | 50.75111 | 5.60080 | 0° | 0km/h | 18130m | 0m/s | -52.5°C | 7.9% | 79hPa | 4V | 00:00:00 | 00:00:00 | 00:00:00 | |
| DL1XH1-15 | 2026-09-01 22:36:01 | 50.75101 | 5.59987 | 74° | 37km/h | 18094m | 5.1m/s | -52.4°C | 7.8% | 79.4hPa | 4V | 00:00:00 | 01:42:15 | 00:00:00 | |
| GOEST3-10 | 2026-09-01 22:36:01 | 50.75110 | 5.60052 | 81° | 37km/h | 18119m | 5.1m/s | -52.5°C | 7.8% | 79.0hPa | 4V | 00:00:00 | 00:00:00 | 00:00:00 | |
| DM0DOS-11 | 2026-09-01 22:36:00 | 50.75098 | 5.59972 | 77° | 37km/h | 18089m | 5.1m/s | -52.3°C | 7.8% | 79.4hPa | 4V | 00:00:00 | 01:42:14 | 00:00:00 | |
| BIOWL1-15 | 2026-09-01 22:35:56 | 50.75098 | 5.59972 | 77° | 40km/h | 18089m | 5m/s | -52.4°C | 7.9% | 79.5hPa | 4V | 00:00:00 | 00:00:00 | 00:00:00 | |
| DL1XH-west | 2026-09-01 22:35:53 | 50.75094 | 5.59929 | 0° | 0km/h | 18073m | 0m/s | -52.3°C | 8% | 79.6hPa | 4V | 00:00:00 | 00:00:00 | 00:00:00 | |
| DM0DOS-11 | 2026-09-01 22:35:50 | 50.75090 | 5.59834 | 90° | 33km/h | 18039m | 5.2m/s | -52.2°C | 8% | 80hPa | 4V | 00:00:00 | 01:42:04 | 00:00:00 | |
| BIOWL1-15 | 2026-09-01 22:35:45 | 50.75090 | 5.59834 | 90° | 27km/h | 18039m | 5m/s | -52.2°C | 8% | 80.1hPa | 4V | 00:00:00 | 00:00:00 | 00:00:00 | |
| DL1XH-west | 2026-09-01 22:35:42 | 50.75089 | 5.59781 | 0° | 0km/h | 18019m | 0m/s | -52.2°C | 8% | 80.3hPa | 4V | 00:00:00 | 00:00:00 | 00:00:00 | |
| DL1XH1-15 | 2026-09-01 22:35:41 | 50.75094 | 5.59712 | 103° | 37km/h | 17993m | 4.9m/s | -52.1°C | 8% | 80.6hPa | 4V | 00:00:00 | 01:41:55 | 00:00:00 | |
| BIOWL1-15 | 2026-09-01 22:35:37 | 50.75096 | 5.59699 | 101° | 33km/h | 17988m | 4m/s | -52.1°C | 8.1% | 80.7hPa | 4V | 00:00:00 | 00:00:00 | 00:00:00 | |
| GOEST3-10 | 2026-09-01 22:35:33 | 50.75098 | 5.59673 | 86° | 44km/h | 17979m | 5.1m/s | -52.0°C | 8.0% | 80.7hPa | 4.0V | 00:00:00 | 01:41:52 | 00:00:00 | |
| DL1XH1-15 | 2026-09-01 22:35:31 | 50.75105 | 5.59558 | 100° | 46km/h | 17942m | 5.1m/s | -52.1°C | 8% | 81.2hPa | 4V | 00:00:00 | 01:41:45 | 00:00:00 | |
| DL1XH-west | 2026-09-01 22:35:30 | 50.75097 | 5.59623 | 0° | 0km/h | 17963m | 0m/s | -52°C | 8.1% | 81hPa | 4V | 00:00:00 | 00:00:00 | 00:00:00 | |
| BIOWL1-15 | 2026-09-01 22:35:26 | 50.75109 | 5.59526 | 100° | 46km/h | 17931m | 4m/s | -52.2°C | 8.1% | 81.4hPa | 4V | 00:00:00 | 00:00:00 | 00:00:00 | |
| GOEST3-10 | 2026-09-01 22:35:25 | 50.75106 | 5.59542 | 107° | 47km/h | 17936m | 4.7m/s | -52.1°C | 8.0% | 81.2hPa | 4V | 00:00:00 | 00:00:00 | 00:00:00 | |
| DL1XH1-15 | 2026-09-01 22:35:22 | 50.75117 | 5.59371 | 92° | 44km/h | 17893m | 4.8m/s | -52.2°C | 8.1% | 81.8hPa | 4V | 00:00:00 | 01:41:35 | 00:00:00 | |
| DM0DOS-11 | 2026-09-01 22:35:20 | 50.75118 | 5.59356 | 85° | 46km/h | 17888m | 4.8m/s | -52.2°C | 8.1% | 81.9hPa | 4V | 00:00:00 | 01:41:34 | 00:00:00 | |
| DL1XH-west | 2026-09-01 22:35:19 | 50.75111 | 5.59424 | 0° | 0km/h | 17907m | 0m/s | -52.1°C | 8.1% | 81.7hPa | 4V | 00:00:00 | 00:00:00 | 00:00:00 | |
| BIOWL1-15 | 2026-09-01 22:35:16 | 50.75117 | 5.59323 | 92° | 49km/h | 17879m | 6m/s | -52.3°C | 8.2% | 82hPa | 4V | 00:00:00 | 00:00:00 | 00:00:00 | |
| DB0UT-7 | 2026-09-01 22:35:16 | 50.75117 | 5.59371 | 93° | 46km/h | 17893m | 4.8m/s | -52.1°C | 8.1% | 81.8hPa | 4.0V | 00:00:00 | 00:00:00 | 00:00:00 | |
| GOEST3-10 | 2026-09-01 22:35:14 | 50.75117 | 5.59340 | 89° | 49km/h | 17884m | 5.0m/s | -52.2°C | 8.1% | 81.9hPa | 4.0V | 00:00:00 | 00:00:00 | 00:00:00 | |
| DL1XH1-15 | 2026-09-01 22:35:11 | 50.75116 | 5.59182 | 91° | 51km/h | 17844m | 4.8m/s | -52.5°C | 8.1% | 82.4hPa | 4V | 00:00:00 | 01:41:25 | 00:00:00 | |
| DM0DOS-11 | 2026-09-01 22:35:10 | 50.75117 | 5.59161 | 88° | 51km/h | 17840m | 5.1m/s | -52.5°C | 8.1% | 82.5hPa | 4V | 00:00:00 | 01:41:24 | 00:00:00 | |
| DL1XH-west | 2026-09-01 22:35:09 | 50.75116 | 5.59240 | 0° | 0km/h | 17859m | 0m/s | -52.4°C | 8.2% | 82.3hPa | 4V | 00:00:00 | 00:00:00 | 00:00:00 | |
| BIOWL1-15 | 2026-09-01 22:35:02 | 50.75110 | 5.59098 | 79° | 53km/h | 17825m | 6m/s | -52.6°C | 8.2% | 82.7hPa | 4V | 00:00:00 | 00:00:00 | 00:00:00 | |
| DM0DOS-11 | 2026-09-01 22:35:00 | 50.75106 | 5.58964 | 88° | 44km/h | 17790m | 5m/s | -52.6°C | 8.3% | 83.1hPa | 4V | 00:00:00 | 01:41:14 | 00:00:00 | |
| DL1XH-west | 2026-09-01 22:34:58 | 50.75107 | 5.59018 | 0° | 0km/h | 17805m | 0m/s | -52.6°C | 8.3% | 82.9hPa | 4V | 00:00:00 | 00:00:00 | 00:00:00 | |
| BIOWL1-15 | 2026-09-01 22:34:53 | 50.75101 | 5.58891 | 78° | 46km/h | 17770m | 4m/s | -52.6°C | 8.3% | 83.4hPa | 4V | 00:00:00 | 00:00:00 | 00:00:00 | |
| DL1XH1-15 | 2026-09-01 22:34:51 | 50.75101 | 5.58808 | 82° | 35km/h | 17746m | 4.8m/s | -52.6°C | 8.3% | 83.7hPa | 4V | 00:00:00 | 01:41:05 | 00:00:00 | |
| GOEST3-10 | 2026-09-01 22:34:50 | 50.75098 | 5.58873 | 89° | 38km/h | 17766m | 5.0m/s | -52.6°C | 8.3% | 83.4hPa | 4.0V | 00:00:00 | 01:41:09 | 00:00:00 | |
| DM0DOS-11 | 2026-09-01 22:34:49 | 50.75098 | 5.58781 | 77° | 35km/h | 17736m | 4.7m/s | -52.6°C | 8.3% | 83.8hPa | 4V | 00:00:00 | 01:41:03 | 00:00:00 | |
| DL1XH-west | 2026-09-01 22:34:48 | 50.75100 | 5.58839 | 0° | 0km/h | 17756m | 0m/s | -52.6°C | 8.3% | 83.6hPa | 4V | 00:00:00 | 00:00:00 | 00:00:00 | |
| DB0UT-7 | 2026-09-01 22:34:46 | 50.75101 | 5.58808 | 83° | 38km/h | 17746m | 4.8m/s | -52.5°C | 8.3% | 83.6hPa | 4.0V | 00:00:00 | 01:41:05 | 00:00:00 | |
| NBG1-10 | 2026-09-01 22:34:45 | 50.75100 | 5.58795 | 77° | 40km/h | 17741m | 4.7m/s | -52.5°C | 8.3% | 83.7hPa | 4.0V | 00:00:00 | 01:41:04 | 00:00:00 | |
| DL1XH1-15 | 2026-09-01 22:34:41 | 50.75085 | 5.58670 | 87° | 33km/h | 17698m | 4.8m/s | -52.7°C | 8.3% | 84.3hPa | 4V | 00:00:00 | 01:40:55 | 00:00:00 | |
| BIOWL1-15 | 2026-09-01 22:34:40 | 50.75089 | 5.58722 | 72° | 38km/h | 17717m | 4m/s | -52.7°C | 8.4% | 84hPa | 4V | 00:00:00 | 00:00:00 | 00:00:00 | |
| GOEST3-10 | 2026-09-01 22:34:40 | 50.75089 | 5.58722 | 72° | 33km/h | 17717m | 4.7m/s | -52.6°C | 8.3% | 84.0hPa | 4V | 00:00:00 | 01:40:59 | 00:00:00 | |
| DM0DOS-11 | 2026-09-01 22:34:39 | 50.75083 | 5.58646 | 79° | 35km/h | 17688m | 4.6m/s | -52.7°C | 8.3% | 84.4hPa | 4V | 00:00:00 | 01:40:53 | 00:00:00 | |
| DL1XH-west | 2026-09-01 22:34:37 | 50.75084 | 5.58682 | 0° | 0km/h | 17702m | 0m/s | -52.7°C | 8.4% | 84.2hPa | 4V | 00:00:00 | 00:00:00 | 00:00:00 | |
| GOEST3-10 | 2026-09-01 22:34:35 | 50.75085 | 5.58658 | 79° | 37km/h | 17693m | 4.8m/s | -52.7°C | 8.3% | 84.3hPa | 4.0V | 00:00:00 | 00:00:00 | 00:00:00 | |
| DL1XH1-15 | 2026-09-01 22:34:31 | 50.75077 | 5.58538 | 97° | 38km/h | 17650m | 4.7m/s | -53°C | 8.5% | 84.9hPa | 4V | 00:00:00 | 01:40:45 | 00:00:00 | |
| BIOWL1-15 | 2026-09-01 22:34:29 | 50.75080 | 5.58580 | 80° | 37km/h | 17664m | 5m/s | -52.8°C | 8.4% | 84.7hPa | 4V | 00:00:00 | 00:00:00 | 00:00:00 | |
| DL1XH-west | 2026-09-01 22:34:27 | 50.75077 | 5.58552 | 0° | 0km/h | 17655m | 0m/s | -52.9°C | 8.5% | 84.9hPa | 4V | 00:00:00 | 00:00:00 | 00:00:00 | |
| GOEST3-10 | 2026-09-01 22:34:24 | 50.75079 | 5.58510 | 91° | 44km/h | 17641m | 4.8m/s | -53.0°C | 8.5% | 85.0hPa | 4V | 00:00:00 | 00:00:00 | 00:00:00 | |
| DL1XH1-15 | 2026-09-01 22:34:21 | 50.75082 | 5.58371 | 90° | 42km/h | 17602m | 4.8m/s | -52.8°C | 8.5% | 85.5hPa | 4V | 00:00:00 | 01:40:35 | 00:00:00 | |
| BIOWL1-15 | 2026-09-01 22:34:19 | 50.75082 | 5.58424 | 94° | 44km/h | 17617m | 5m/s | -52.9°C | 8.5% | 85.4hPa | 4V | 00:00:00 | 00:00:00 | 00:00:00 | |
| DM0DOS-11 | 2026-09-01 22:34:19 | 50.75083 | 5.58337 | 102° | 42km/h | 17592m | 4.6m/s | -52.8°C | 8.5% | 85.7hPa | 4V | 00:00:00 | 01:40:33 | 00:00:00 | |
| DL1XH-west | 2026-09-01 22:34:17 | 50.75082 | 5.58389 | 0° | 0km/h | 17607m | 0m/s | -52.9°C | 8.5% | 85.5hPa | 4V | 00:00:00 | 00:00:00 | 00:00:00 | |
| DB0UT-7 | 2026-09-01 22:34:16 | 50.75082 | 5.58371 | 91° | 42km/h | 17602m | 4.7m/s | -52.8°C | 8.5% | 85.5hPa | 4.0V | 00:00:00 | 00:00:00 | 00:00:00 | |
| NBG1-10 | 2026-09-01 22:34:12 | 50.75086 | 5.58304 | 94° | 44km/h | 17583m | 4.7m/s | -52.8°C | 8.5% | 85.8hPa | 4V | 00:00:00 | 01:40:31 | 00:00:00 | |
| DL1XH1-15 | 2026-09-01 22:34:11 | 50.75090 | 5.58206 | 85° | 38km/h | 17554m | 4.2m/s | -52.8°C | 8.5% | 86.2hPa | 4V | 00:00:00 | 01:40:25 | 00:00:00 | |
| DM0DOS-11 | 2026-09-01 22:34:11 | 50.75089 | 5.58175 | 101° | 38km/h | 17546m | 4.4m/s | -52.8°C | 8.5% | 86.3hPa | 4V | 00:00:00 | 01:40:23 | 00:00:00 | |
| BIOWL1-15 | 2026-09-01 22:34:09 | 50.75089 | 5.58237 | 94° | 38km/h | 17564m | 4m/s | -52.9°C | 8.6% | 86.1hPa | 4V | 00:00:00 | 00:00:00 | 00:00:00 | |
| DL1XH-west | 2026-09-01 22:34:07 | 50.75090 | 5.58221 | 0° | 0km/h | 17560m | 0m/s | -52.9°C | 8.6% | 86.1hPa | 4V | 00:00:00 | 00:00:00 | 00:00:00 | |
| GOEST3-10 | 2026-09-01 22:34:07 | 50.75090 | 5.58221 | 87° | 40km/h | 17560m | 4.4m/s | -52.8°C | 8.5% | 86.1hPa | 4V | 00:00:00 | 01:40:26 | 00:00:00 | |
| DL1XH1-15 | 2026-09-01 22:34:01 | 50.75095 | 5.58052 | 94° | 44km/h | 17510m | 4.6m/s | -52.7°C | 8.6% | 86.8hPa | 4V | 00:00:00 | 01:40:15 | 00:00:00 | |
| GOEST3-10 | 2026-09-01 22:34:00 | 50.75099 | 5.58118 | 91° | 42km/h | 17530m | 5.0m/s | -52.7°C | 8.5% | 86.5hPa | 4.0V | 00:00:00 | 00:00:00 | 00:00:00 | |
| DM0DOS-11 | 2026-09-01 22:33:59 | 50.75097 | 5.58019 | 93° | 44km/h | 17501m | 4.8m/s | -52.7°C | 8.6% | 86.9hPa | 4V | 00:00:00 | 01:40:13 | 00:00:00 | |
| BIOWL1-15 | 2026-09-01 22:33:57 | 50.75096 | 5.58068 | 88° | 42km/h | 17515m | 5m/s | -52.7°C | 8.7% | 86.7hPa | 4V | 00:00:00 | 00:00:00 | 00:00:00 | |
| DL1XH-west | 2026-09-01 22:33:57 | 50.75095 | 5.58052 | 0° | 0km/h | 17510m | 0m/s | -52.7°C | 8.7% | 86.8hPa | 4V | 00:00:00 | 00:00:00 | 00:00:00 | |
| GOEST3-10 | 2026-09-01 22:33:55 | 50.75096 | 5.58035 | 95° | 46km/h | 17506m | 4.8m/s | -52.6°C | 8.6% | 86.8hPa | 4V | 00:00:00 | 01:40:14 | 00:00:00 | |
| DL1XH1-15 | 2026-09-01 22:33:51 | 50.75100 | 5.57879 | 91° | 51km/h | 17463m | 4.9m/s | -52.7°C | 8.6% | 87.4hPa | 4V | 00:00:00 | 01:40:05 | 00:00:00 | |
| BIOWL1-15 | 2026-09-01 22:33:49 | 50.75100 | 5.57898 | 86° | 46km/h | 17468m | 5m/s | -52.7°C | 8.7% | 87.3hPa | 4V | 00:00:00 | 00:00:00 | 00:00:00 | |
| DM0DOS-11 | 2026-09-01 22:33:49 | 50.75101 | 5.57839 | 96° | 51km/h | 17453m | 4.8m/s | -52.7°C | 8.6% | 87.5hPa | 4V | 00:00:00 | 01:40:03 | 00:00:00 | |
| DL1XH-west | 2026-09-01 22:33:46 | 50.75100 | 5.57879 | 0° | 0km/h | 17463m | 0m/s | -52.7°C | 8.7% | 87.4hPa | 4V | 00:00:00 | 00:00:00 | 00:00:00 | |
| DB0UT-7 | 2026-09-01 22:33:46 | 50.75099 | 5.57879 | 92° | 49km/h | 17463m | 4.8m/s | -52.6°C | 8.6% | 87.4hPa | 4V | 00:00:00 | 01:40:05 | 00:00:00 | |
| DL1XH1-15 | 2026-09-01 22:33:42 | 50.75106 | 5.57686 | 86° | 51km/h | 17415m | 4.6m/s | -53.3°C | 8.8% | 88hPa | 4V | 00:00:00 | 01:39:55 | 00:00:00 | |
| DM0DOS-11 | 2026-09-01 22:33:39 | 50.75105 | 5.57646 | 96° | 53km/h | 17406m | 4.7m/s | -53.3°C | 8.8% | 88.2hPa | 4V | 00:00:00 | 01:39:53 | 00:00:00 | |
| BIOWL1-15 | 2026-09-01 22:33:38 | 50.75106 | 5.57686 | 86° | 47km/h | 17415m | 4m/s | -53.3°C | 8.8% | 88.1hPa | 4V | 00:00:00 | 00:00:00 | 00:00:00 | |
| DL1XH-west | 2026-09-01 22:33:35 | 50.75105 | 5.57667 | 0° | 0km/h | 17411m | 0m/s | -53.3°C | 8.8% | 88.1hPa | 4V | 00:00:00 | 00:00:00 | 00:00:00 | |
| GOEST3-10 | 2026-09-01 22:33:32 | 50.75108 | 5.57601 | 92° | 44km/h | 17397m | 4.9m/s | -53.3°C | 8.8% | 88.2hPa | 4V | 00:00:00 | 00:00:00 | 00:00:00 | |
| DL1XH1-15 | 2026-09-01 22:33:31 | 50.75104 | 5.57483 | 81° | 53km/h | 17368m | 4.9m/s | -53.3°C | 8.8% | 88.7hPa | 4V | 00:00:00 | 01:39:45 | 00:00:00 | |
| DM0DOS-11 | 2026-09-01 22:33:29 | 50.75100 | 5.57441 | 83° | 51km/h | 17359m | 5.1m/s | -53.2°C | 8.8% | 88.8hPa | 4V | 00:00:00 | 01:39:43 | 00:00:00 | |
| DL1XH-west | 2026-09-01 22:33:25 | 50.75102 | 5.57463 | 0° | 0km/h | 17363m | 0m/s | -53.3°C | 8.9% | 88.8hPa | 4V | 00:00:00 | 00:00:00 | 00:00:00 | |
| DL1XH1-15 | 2026-09-01 22:33:21 | 50.75090 | 5.57288 | 77° | 46km/h | 17319m | 4.9m/s | -53.1°C | 8.8% | 89.4hPa | 4V | 00:00:00 | 01:39:35 | 00:00:00 | |
| DM0DOS-11 | 2026-09-01 22:33:19 | 50.75086 | 5.57253 | 83° | 47km/h | 17309m | 4.8m/s | -53.1°C | 8.8% | 89.5hPa | 4V | 00:00:00 | 01:39:33 | 00:00:00 | |
| DL1XH-west | 2026-09-01 22:33:14 | 50.75086 | 5.57253 | 0° | 0km/h | 17309m | 0m/s | -53.1°C | 8.9% | 89.5hPa | 4V | 00:00:00 | 00:00:00 | 00:00:00 | |
| DL1XH1-15 | 2026-09-01 22:33:11 | 50.75077 | 5.57108 | 81° | 40km/h | 17271m | 4.9m/s | -53°C | 9% | 90hPa | 4V | 00:00:00 | 01:39:25 | 00:00:00 | |
| DM0DOS-11 | 2026-09-01 22:33:09 | 50.75074 | 5.57076 | 81° | 40km/h | 17261m | 4.8m/s | -53°C | 9% | 90.2hPa | 4V | 00:00:00 | 01:39:23 | 00:00:00 | |
| BIOWL1-15 | 2026-09-01 22:33:04 | 50.75074 | 5.57076 | 82° | 42km/h | 17261m | 5m/s | -53°C | 9% | 90.2hPa | 4V | 00:00:00 | 00:00:00 | 00:00:00 | |
| DL1XH-west | 2026-09-01 22:33:03 | 50.75072 | 5.57060 | 0° | 0km/h | 17256m | 0m/s | -53°C | 9% | 90.2hPa | 4V | 00:00:00 | 00:00:00 | 00:00:00 | |
| DL1XH1-15 | 2026-09-01 22:33:01 | 50.75067 | 5.56949 | 92° | 40km/h | 17223m | 4.8m/s | -53°C | 9% | 90.7hPa | 4V | 00:00:00 | 01:39:15 | 00:00:00 | |
| DM0DOS-11 | 2026-09-01 22:32:59 | 50.75067 | 5.56916 | 85° | 38km/h | 17214m | 4.9m/s | -53°C | 9% | 90.8hPa | 4V | 00:00:00 | 01:39:13 | 00:00:00 | |
| BIOWL1-15 | 2026-09-01 22:32:53 | 50.75066 | 5.56899 | 88° | 40km/h | 17209m | 5m/s | -53°C | 9.1% | 90.9hPa | 4V | 00:00:00 | 00:00:00 | 00:00:00 | |
| DL1XH-west | 2026-09-01 22:32:52 | 50.75066 | 5.56883 | 0° | 0km/h | 17204m | 0m/s | -53°C | 9.1% | 90.9hPa | 4V | 00:00:00 | 00:00:00 | 00:00:00 | |
| DM0DOS-11 | 2026-09-01 22:32:49 | 50.75071 | 5.56763 | 105° | 42km/h | 17165m | 4.7m/s | -53.1°C | 9% | 91.5hPa | 4V | 00:00:00 | 01:39:03 | 00:00:00 | |
| BIOWL1-15 | 2026-09-01 22:32:42 | 50.75075 | 5.56732 | 90° | 40km/h | 17156m | 5m/s | -53.1°C | 9.2% | 91.6hPa | 4V | 00:00:00 | 00:00:00 | 00:00:00 | |
| DL1XH-west | 2026-09-01 22:32:41 | 50.75075 | 5.56715 | 0° | 0km/h | 17151m | 0m/s | -53.2°C | 9.2% | 91.7hPa | 4V | 00:00:00 | 00:00:00 | 00:00:00 | |
| DM0DOS-11 | 2026-09-01 22:32:39 | 50.75078 | 5.56592 | 101° | 40km/h | 17116m | 4.6m/s | -53.1°C | 9.1% | 92.1hPa | 4V | 00:00:00 | 01:38:53 | 00:00:00 | |
| BIOWL1-15 | 2026-09-01 22:32:35 | 50.75080 | 5.56547 | 83° | 38km/h | 17102m | 4m/s | -53.2°C | 9.2% | 92.3hPa | 4V | 00:00:00 | 00:00:00 | 00:00:00 | |
| DL1XH1-15 | 2026-09-01 22:32:35 | 50.75078 | 5.56464 | 93° | 46km/h | 17078m | 4.7m/s | -53.3°C | 9.1% | 92.7hPa | 4V | 00:00:00 | 01:38:45 | 00:00:00 | |
| DL1XH-west | 2026-09-01 22:32:31 | 50.75079 | 5.56532 | 0° | 0km/h | 17098m | 0m/s | -53.2°C | 9.2% | 92.4hPa | 4V | 00:00:00 | 00:00:00 | 00:00:00 | |
| DM0DOS-11 | 2026-09-01 22:32:29 | 50.75081 | 5.56428 | 103° | 44km/h | 17068m | 4.4m/s | -53.4°C | 9.3% | 92.8hPa | 4V | 00:00:00 | 01:38:43 | 00:00:00 | |
| NBG1-10 | 2026-09-01 22:32:25 | 50.75079 | 5.56446 | 102° | 42km/h | 17073m | 4.6m/s | -53.3°C | 9.3% | 92.7hPa | 4V | 00:00:00 | 01:38:44 | 00:00:00 | |
| DL1XH1-15 | 2026-09-01 22:32:21 | 50.75076 | 5.56286 | 86° | 46km/h | 17031m | 4.7m/s | -53.3°C | 9.3% | 93.4hPa | 4V | 00:00:00 | 01:38:35 | 00:00:00 | |
| BIOWL1-15 | 2026-09-01 22:32:20 | 50.75082 | 5.56360 | 73° | 46km/h | 17050m | 4m/s | -53.4°C | 9.3% | 93.1hPa | 4V | 00:00:00 | 00:00:00 | 00:00:00 | |
| DL1XH-west | 2026-09-01 22:32:19 | 50.75079 | 5.56343 | 0° | 0km/h | 17046m | 0m/s | -53.4°C | 9.3% | 93.1hPa | 4V | 00:00:00 | 00:00:00 | 00:00:00 | |
| DB0UT-7 | 2026-09-01 22:32:16 | 50.75076 | 5.56286 | 87° | 44km/h | 17031m | 4.6m/s | -53.3°C | 9.3% | 93.3hPa | 4V | 00:00:00 | 00:00:00 | 00:00:00 | |
| DL1XH1-15 | 2026-09-01 22:32:11 | 50.75071 | 5.56112 | 91° | 49km/h | 16985m | 4.8m/s | -53.3°C | 9.3% | 94hPa | 4V | 00:00:00 | 01:38:25 | 00:00:00 | |
| DL1XH-west | 2026-09-01 22:32:09 | 50.75076 | 5.56163 | 0° | 0km/h | 16998m | 0m/s | -53.2°C | 9.4% | 93.8hPa | 4V | 00:00:00 | 00:00:00 | 00:00:00 | |
| DL1XH1-15 | 2026-09-01 22:32:01 | 50.75074 | 5.55934 | 91° | 47km/h | 16937m | 4.6m/s | -53.4°C | 9.5% | 94.7hPa | 4V | 00:00:00 | 01:38:15 | 00:00:00 | |
| DL1XH-west | 2026-09-01 22:31:58 | 50.75076 | 5.55965 | 0° | 0km/h | 16946m | 0m/s | -53.4°C | 9.5% | 94.6hPa | 4V | 00:00:00 | 00:00:00 | 00:00:00 | |
| DL1XH1-15 | 2026-09-01 22:31:51 | 50.75077 | 5.55759 | 85° | 42km/h | 16890m | 4.5m/s | -53.2°C | 9.5% | 95.4hPa | 4V | 00:00:00 | 01:38:05 | 00:00:00 | |
| DL1XH-west | 2026-09-01 22:31:48 | 50.75077 | 5.55786 | 0° | 0km/h | 16900m | 0m/s | -53.3°C | 9.5% | 95.2hPa | 4V | 00:00:00 | 00:00:00 | 00:00:00 | |
| GOEST3-10 | 2026-09-01 22:31:47 | 50.75077 | 5.55772 | 87° | 44km/h | 16896m | 4.8m/s | -53.2°C | 9.5% | 95.3hPa | 4V | 00:00:00 | 01:38:06 | 00:00:00 | |
| DB0UT-7 | 2026-09-01 22:31:46 | 50.75077 | 5.55759 | 86° | 46km/h | 16890m | 4.4m/s | -53.2°C | 9.5% | 95.4hPa | 4V | 00:00:00 | 01:38:05 | 00:00:00 | |
| DL1XH1-15 | 2026-09-01 22:31:41 | 50.75080 | 5.55585 | 87° | 44km/h | 16842m | 4.7m/s | -53.4°C | 9.5% | 96.1hPa | 4V | 00:00:00 | 01:37:55 | 00:00:00 | |
| BIOWL1-15 | 2026-09-01 22:31:39 | 50.75081 | 5.55600 | 88° | 38km/h | 16847m | 5m/s | -53.3°C | 9.6% | 96hPa | 4V | 00:00:00 | 00:00:00 | 00:00:00 | |
| DM0DOS-11 | 2026-09-01 22:31:39 | 50.75080 | 5.55553 | 93° | 46km/h | 16832m | 4.6m/s | -53.5°C | 9.5% | 96.2hPa | 4V | 00:00:00 | 01:37:53 | 00:00:00 | |
| DL1XH-west | 2026-09-01 22:31:38 | 50.75080 | 5.55617 | 0° | 0km/h | 16852m | 0m/s | -53.3°C | 9.6% | 96hPa | 4V | 00:00:00 | 00:00:00 | 00:00:00 | |
| GOEST3-10 | 2026-09-01 22:31:35 | 50.75080 | 5.55569 | 92° | 44km/h | 16838m | 4.9m/s | -53.4°C | 9.6% | 96.1hPa | 4V | 00:00:00 | 01:37:54 | 00:00:00 | |
| DL1XH1-15 | 2026-09-01 22:31:31 | 50.75083 | 5.55404 | 87° | 42km/h | 16793m | 4.5m/s | -53.5°C | 9.6% | 96.8hPa | 4V | 00:00:00 | 01:37:45 | 00:00:00 | |
| DM0DOS-11 | 2026-09-01 22:31:29 | 50.75082 | 5.55371 | 91° | 46km/h | 16784m | 4.6m/s | -53.5°C | 9.6% | 97hPa | 4V | 00:00:00 | 01:37:43 | 00:00:00 | |
| DL1XH-west | 2026-09-01 22:31:28 | 50.75082 | 5.55439 | 0° | 0km/h | 16804m | 0m/s | -53.5°C | 9.7% | 96.7hPa | 4V | 00:00:00 | 00:00:00 | 00:00:00 | |
| BIOWL1-15 | 2026-09-01 22:31:27 | 50.75083 | 5.55421 | 90° | 42km/h | 16799m | 6m/s | -53.5°C | 9.7% | 96.7hPa | 4V | 00:00:00 | 00:00:00 | 00:00:00 | |
| GOEST3-10 | 2026-09-01 22:31:25 | 50.75082 | 5.55388 | 91° | 49km/h | 16789m | 4.8m/s | -53.4°C | 9.6% | 96.8hPa | 4V | 00:00:00 | 00:00:00 | 00:00:00 | |
| DL1XH1-15 | 2026-09-01 22:31:21 | 50.75085 | 5.55229 | 93° | 47km/h | 16747m | 4.8m/s | -53.4°C | 9.8% | 97.5hPa | 4V | 00:00:00 | 01:37:35 | 00:00:00 | |
| DM0DOS-11 | 2026-09-01 22:31:21 | 50.75086 | 5.55193 | 93° | 49km/h | 16738m | 4.9m/s | -53.4°C | 9.8% | 97.7hPa | 4V | 00:00:00 | 01:37:33 | 00:00:00 | |
| DL1XH-west | 2026-09-01 22:31:17 | 50.75084 | 5.55247 | 0° | 0km/h | 16752m | 0m/s | -53.4°C | 9.7% | 97.5hPa | 4V | 00:00:00 | 00:00:00 | 00:00:00 | |
| BIOWL1-15 | 2026-09-01 22:31:16 | 50.75085 | 5.55229 | 94° | 46km/h | 16747m | 5m/s | -53.4°C | 9.8% | 97.5hPa | 4V | 00:00:00 | 00:00:00 | 00:00:00 | |
| DB0UT-7 | 2026-09-01 22:31:16 | 50.75085 | 5.55229 | 94° | 49km/h | 16747m | 4.7m/s | -53.3°C | 9.8% | 97.5hPa | 4.0V | 00:00:00 | 00:00:00 | 00:00:00 | |
| DL1XH1-15 | 2026-09-01 22:31:11 | 50.75092 | 5.55037 | 100° | 49km/h | 16700m | 4.8m/s | -53.2°C | 9.8% | 98.2hPa | 4V | 00:00:00 | 01:37:25 | 00:00:00 | |
| GOEST3-10 | 2026-09-01 22:31:11 | 50.75089 | 5.55132 | 93° | 51km/h | 16723m | 4.9m/s | -53.3°C | 9.8% | 97.8hPa | 4.0V | 00:00:00 | 01:37:30 | 00:00:00 | |
| DM0DOS-11 | 2026-09-01 22:31:09 | 50.75095 | 5.54998 | 86° | 49km/h | 16690m | 4.7m/s | -53.2°C | 9.8% | 98.4hPa | 4V | 00:00:00 | 01:37:23 | 00:00:00 | |
| DL1XH-west | 2026-09-01 22:31:06 | 50.75092 | 5.55037 | 0° | 0km/h | 16700m | 0m/s | -53.3°C | 9.8% | 98.2hPa | 4V | 00:00:00 | 00:00:00 | 00:00:00 | |
| DL1XH1-15 | 2026-09-01 22:31:01 | 50.75090 | 5.54833 | 98° | 51km/h | 16651m | 4.9m/s | -53.2°C | 10% | 99hPa | 4V | 00:00:00 | 01:37:15 | 00:00:00 | |
| DL1XH-west | 2026-09-01 22:30:56 | 50.75090 | 5.54833 | 0° | 0km/h | 16651m | 0m/s | -53.2°C | 10% | 99hPa | 4V | 00:00:00 | 00:00:00 | 00:00:00 | |
| GOEST3-10 | 2026-09-01 22:30:55 | 50.75092 | 5.54813 | 91° | 51km/h | 16646m | 4.7m/s | -53.2°C | 9.8% | 99.0hPa | 4V | 00:00:00 | 00:00:00 | 00:00:00 | |
| DL1XH1-15 | 2026-09-01 22:30:51 | 50.75092 | 5.54636 | 90° | 51km/h | 16604m | 4.5m/s | -53.5°C | 10% | 99.7hPa | 4V | 00:00:00 | 01:37:05 | 00:00:00 | |
| BIOWL1-15 | 2026-09-01 22:30:46 | 50.75092 | 5.54636 | 90° | 51km/h | 16604m | 4m/s | -53.5°C | 10% | 99.7hPa | 4V | 00:00:00 | 00:00:00 | 00:00:00 | |
| DB0UT-7 | 2026-09-01 22:30:46 | 50.75092 | 5.54636 | 91° | 51km/h | 16604m | 4.4m/s | -53.5°C | 10.0% | 99.6hPa | 4V | 00:00:00 | 01:37:05 | 00:00:00 | |
| DL1XH1-15 | 2026-09-01 22:30:42 | 50.75084 | 5.54429 | 83° | 51km/h | 16557m | 4.7m/s | -53.4°C | 10% | 100.4hPa | 4V | 00:00:00 | 01:36:55 | 00:00:00 | |
| DL1XH-west | 2026-09-01 22:30:35 | 50.75082 | 5.54409 | 0° | 0km/h | 16552m | 0m/s | -53.4°C | 10.1% | 100.5hPa | 4V | 00:00:00 | 00:00:00 | 00:00:00 | |
| DL1XH1-15 | 2026-09-01 22:30:31 | 50.75064 | 5.54223 | 80° | 46km/h | 16510m | 5m/s | -53.2°C | 10.1% | 101.1hPa | 4V | 00:00:00 | 01:36:45 | 00:00:00 | |
| BIOWL1-15 | 2026-09-01 22:30:24 | 50.75063 | 5.54188 | 90° | 44km/h | 16499m | 4m/s | -53.2°C | 10.2% | 101.3hPa | 4V | 00:00:00 | 00:00:00 | 00:00:00 | |
| DL1XH1-15 | 2026-09-01 22:30:21 | 50.75055 | 5.54028 | 83° | 47km/h | 16461m | 4.5m/s | -53.2°C | 10.3% | 101.9hPa | 4V | 00:00:00 | 01:36:35 | 00:00:00 | |
| DL1XH-west | 2026-09-01 22:30:15 | 50.75051 | 5.53989 | 0° | 0km/h | 16453m | 0m/s | -53.2°C | 10.3% | 102hPa | 4V | 00:00:00 | 00:00:00 | 00:00:00 | |
| DL1XH1-15 | 2026-09-01 22:30:11 | 50.75051 | 5.53842 | 90° | 46km/h | 16414m | 4.8m/s | -53.1°C | 10.3% | 102.6hPa | 4V | 00:00:00 | 01:36:25 | 00:00:00 | |
| DM0DOS-11 | 2026-09-01 22:30:07 | 50.75049 | 5.53771 | 93° | 51km/h | 16396m | 5m/s | -53°C | 10.3% | 102.9hPa | 4V | 00:00:00 | 01:36:21 | 00:00:00 | |
| BIOWL1-15 | 2026-09-01 22:30:06 | 50.75051 | 5.53808 | 82° | 46km/h | 16404m | 4m/s | -53.1°C | 10.3% | 102.8hPa | 4V | 00:00:00 | 00:00:00 | 00:00:00 | |
| DL1XH-west | 2026-09-01 22:30:03 | 50.75049 | 5.53790 | 0° | 0km/h | 16400m | 0m/s | -53.1°C | 10.4% | 102.8hPa | 4V | 00:00:00 | 00:00:00 | 00:00:00 | |
| DL1XH1-15 | 2026-09-01 22:30:01 | 50.75054 | 5.53648 | 88° | 47km/h | 16367m | 5m/s | -52.8°C | 10.3% | 103.3hPa | 4V | 00:00:00 | 01:36:15 | 00:00:00 | |
| DM0DOS-11 | 2026-09-01 22:29:57 | 50.75053 | 5.53575 | 91° | 53km/h | 16347m | 5m/s | -52.7°C | 10.5% | 103.7hPa | 4V | 00:00:00 | 01:36:11 | 00:00:00 | |
| BIOWL1-15 | 2026-09-01 22:29:53 | 50.75054 | 5.53594 | 88° | 47km/h | 16352m | 5m/s | -52.7°C | 10.4% | 103.6hPa | 4V | 00:00:00 | 00:00:00 | 00:00:00 | |
| DL1XH1-15 | 2026-09-01 22:29:51 | 50.75061 | 5.53443 | 85° | 51km/h | 16317m | 4.5m/s | -52.7°C | 10.5% | 104.1hPa | 4V | 00:00:00 | 01:36:05 | 00:00:00 | |
| DM0DOS-11 | 2026-09-01 22:29:47 | 50.75061 | 5.53364 | 91° | 55km/h | 16299m | 4.8m/s | -52.7°C | 10.5% | 104.4hPa | 4V | 00:00:00 | 01:36:01 | 00:00:00 | |
| DL1XH-west | 2026-09-01 22:29:42 | 50.75061 | 5.53364 | 0° | 0km/h | 16299m | 0m/s | -52.7°C | 10.6% | 104.4hPa | 4V | 00:00:00 | 00:00:00 | 00:00:00 | |
| BIOWL1-15 | 2026-09-01 22:29:37 | 50.75063 | 5.53122 | 89° | 58km/h | 16245m | 4m/s | -52.5°C | 10.7% | 105.3hPa | 4V | 00:00:00 | 00:00:00 | 00:00:00 | |
| DM0DOS-11 | 2026-09-01 22:29:37 | 50.75064 | 5.53144 | 86° | 57km/h | 16250m | 4.8m/s | -52.5°C | 10.6% | 105.2hPa | 4V | 00:00:00 | 01:35:51 | 00:00:00 | |
| DL1XH-west | 2026-09-01 22:29:32 | 50.75064 | 5.53144 | 0° | 0km/h | 16250m | 0m/s | -52.5°C | 10.7% | 105.2hPa | 4V | 00:00:00 | 00:00:00 | 00:00:00 | |
| DL1XH1-15 | 2026-09-01 22:29:31 | 50.75064 | 5.53008 | 81° | 55km/h | 16221m | 4.8m/s | -52.5°C | 10.6% | 105.7hPa | 4V | 00:00:00 | 01:35:45 | 00:00:00 | |
| DM0DOS-11 | 2026-09-01 22:29:27 | 50.75055 | 5.52922 | 88° | 55km/h | 16202m | 5m/s | -52.5°C | 10.8% | 106hPa | 4V | 00:00:00 | 01:35:41 | 00:00:00 | |
| DL1XH-west | 2026-09-01 22:29:22 | 50.75055 | 5.52922 | 0° | 0km/h | 16202m | 0m/s | -52.5°C | 10.8% | 106hPa | 4V | 00:00:00 | 00:00:00 | 00:00:00 | |
| DL1XH1-15 | 2026-09-01 22:29:21 | 50.75051 | 5.52787 | 83° | 53km/h | 16173m | 5m/s | -52.4°C | 10.8% | 106.5hPa | 4V | 00:00:00 | 01:35:35 | 00:00:00 | |
| BIOWL1-15 | 2026-09-01 22:29:20 | 50.75054 | 5.52879 | 86° | 58km/h | 16191m | 4m/s | -52.4°C | 10.8% | 106.2hPa | 4V | 00:00:00 | 00:00:00 | 00:00:00 | |
| GOEST3-10 | 2026-09-01 22:29:18 | 50.75052 | 5.52832 | 89° | 53km/h | 16183m | 4.9m/s | -52.4°C | 10.8% | 106.3hPa | 4V | 00:00:00 | 00:00:00 | 00:00:00 | |
| DM0DOS-11 | 2026-09-01 22:29:17 | 50.75041 | 5.52705 | 79° | 53km/h | 16152m | 4.5m/s | -52.4°C | 10.8% | 106.8hPa | 4V | 00:00:00 | 01:35:31 | 00:00:00 | |
| BIOWL1-15 | 2026-09-01 22:29:11 | 50.75034 | 5.52642 | 85° | 64km/h | 16138m | 4m/s | -52.4°C | 10.9% | 107hPa | 4V | 00:00:00 | 00:00:00 | 00:00:00 | |
| DL1XH-west | 2026-09-01 22:29:11 | 50.75039 | 5.52686 | 0° | 0km/h | 16149m | 0m/s | -52.4°C | 10.9% | 106.9hPa | 4V | 00:00:00 | 00:00:00 | 00:00:00 | |
| GOEST3-10 | 2026-09-01 22:29:11 | 50.75039 | 5.52686 | 81° | 51km/h | 16149m | 4.8m/s | -52.3°C | 10.8% | 106.8hPa | 4.0V | 00:00:00 | 01:35:30 | 00:00:00 | |
| DM0DOS-11 | 2026-09-01 22:29:07 | 50.75032 | 5.52490 | 78° | 49km/h | 16106m | 5m/s | -52.3°C | 11% | 107.6hPa | 4V | 00:00:00 | 01:35:21 | 00:00:00 | |
| DL1XH-west | 2026-09-01 22:29:01 | 50.75029 | 5.52472 | 0° | 0km/h | 16100m | 0m/s | -52.3°C | 11% | 107.7hPa | 4V | 00:00:00 | 00:00:00 | 00:00:00 | |
| DL1XH1-15 | 2026-09-01 22:29:01 | 50.75024 | 5.52368 | 95° | 47km/h | 16076m | 4.7m/s | -52.3°C | 11% | 108.1hPa | 4V | 00:00:00 | 01:35:15 | 00:00:00 | |
| BIOWL1-15 | 2026-09-01 22:29:00 | 50.75024 | 5.52412 | 87° | 57km/h | 16086m | 4m/s | -52.3°C | 11% | 107.9hPa | 4V | 00:00:00 | 00:00:00 | 00:00:00 | |
| GOEST3-10 | 2026-09-01 22:28:58 | 50.75024 | 5.52412 | 92° | 53km/h | 16086m | 3.2m/s | -52.3°C | 11.0% | 107.8hPa | 4.0V | 00:00:00 | 01:35:17 | 00:00:00 | |
| GOEST3-10 | 2026-09-01 22:28:53 | 50.75025 | 5.52310 | 86° | 58km/h | 16062m | 2.0m/s | 0°C | 11.0% | 108.3hPa | 4.0V | 00:00:00 | 00:00:00 | 00:00:00 | |
| DL1XH1-15 | 2026-09-01 22:28:51 | 50.75018 | 5.52179 | 95° | 46km/h | 16028m | 5m/s | -52.2°C | 11% | 108.9hPa | 4V | 00:00:00 | 01:35:05 | 00:00:00 | |
| DL1XH-west | 2026-09-01 22:28:50 | 50.75023 | 5.52259 | 0° | 0km/h | 16048m | 0m/s | -52.2°C | 11.1% | 108.5hPa | 4V | 00:00:00 | 00:00:00 | 00:00:00 | |
| BIOWL1-15 | 2026-09-01 22:28:49 | 50.75018 | 5.52200 | 90° | 53km/h | 16033m | 5m/s | -52.2°C | 11.1% | 108.8hPa | 4V | 00:00:00 | 00:00:00 | 00:00:00 | |
| DB0UT-7 | 2026-09-01 22:28:46 | 50.75018 | 5.52179 | 96° | 46km/h | 16028m | 4.9m/s | -52.1°C | 11.0% | 108.8hPa | 4V | 00:00:00 | 01:35:05 | 00:00:00 | |
| DL1XH1-15 | 2026-09-01 22:28:41 | 50.75016 | 5.51998 | 91° | 46km/h | 15978m | 5m/s | -52°C | 11.1% | 109.7hPa | 4V | 00:00:00 | 01:34:55 | 00:00:00 | |
| DL1XH-west | 2026-09-01 22:28:39 | 50.75019 | 5.52056 | 0° | 0km/h | 15994m | 0m/s | -52.1°C | 11.2% | 109.5hPa | 4V | 00:00:00 | 00:00:00 | 00:00:00 | |
| DM0DOS-11 | 2026-09-01 22:28:37 | 50.75016 | 5.51923 | 83° | 42km/h | 15957m | 4.6m/s | -51.9°C | 11.3% | 110.1hPa | 4V | 00:00:00 | 01:34:51 | 00:00:00 | |
| BIOWL1-15 | 2026-09-01 22:28:36 | 50.75016 | 5.51998 | 92° | 49km/h | 15978m | 5m/s | -52°C | 11.2% | 109.7hPa | 4V | 00:00:00 | 00:00:00 | 00:00:00 | |
| DL1XH1-15 | 2026-09-01 22:28:31 | 50.75016 | 5.51819 | 84° | 44km/h | 15929m | 4.9m/s | -51.9°C | 11.3% | 110.5hPa | 4V | 00:00:00 | 01:34:45 | 00:00:00 | |
| DL1XH-west | 2026-09-01 22:28:29 | 50.75016 | 5.51874 | 0° | 0km/h | 15943m | 0m/s | -51.9°C | 11.3% | 110.3hPa | 4V | 00:00:00 | 00:00:00 | 00:00:00 | |
| DM0DOS-11 | 2026-09-01 22:28:27 | 50.75014 | 5.51750 | 86° | 46km/h | 15909m | 4.8m/s | -51.8°C | 11.3% | 110.9hPa | 4V | 00:00:00 | 01:34:41 | 00:00:00 | |
| BIOWL1-15 | 2026-09-01 22:28:26 | 50.75016 | 5.51819 | 84° | 46km/h | 15929m | 5m/s | -51.9°C | 11.3% | 110.5hPa | 4V | 00:00:00 | 00:00:00 | 00:00:00 | |
| DL1XH1-15 | 2026-09-01 22:28:21 | 50.75013 | 5.51640 | 90° | 46km/h | 15881m | 5m/s | -51.8°C | 11.5% | 111.3hPa | 4V | 00:00:00 | 01:34:35 | 00:00:00 | |
| DL1XH-west | 2026-09-01 22:28:18 | 50.75014 | 5.51679 | 0° | 0km/h | 15889m | 0m/s | -51.8°C | 11.4% | 111.2hPa | 4V | 00:00:00 | 00:00:00 | 00:00:00 | |
| DM0DOS-11 | 2026-09-01 22:28:17 | 50.75017 | 5.51569 | 90° | 46km/h | 15861m | 4.9m/s | -51.8°C | 11.5% | 111.7hPa | 4V | 00:00:00 | 01:34:31 | 00:00:00 | |
| BIOWL1-15 | 2026-09-01 22:28:15 | 50.75013 | 5.51621 | 96° | 46km/h | 15876m | 5m/s | -51.8°C | 11.4% | 111.4hPa | 4V | 00:00:00 | 00:00:00 | 00:00:00 | |
| DL1XH1-15 | 2026-09-01 22:28:11 | 50.75017 | 5.51457 | 91° | 46km/h | 15831m | 4.7m/s | -51.8°C | 11.5% | 112.2hPa | 4V | 00:00:00 | 01:34:25 | 00:00:00 | |
| DL1XH-west | 2026-09-01 22:28:08 | 50.75018 | 5.51496 | 0° | 0km/h | 15842m | 0m/s | -51.7°C | 11.5% | 112hPa | 4V | 00:00:00 | 00:00:00 | 00:00:00 | |
| BIOWL1-15 | 2026-09-01 22:28:05 | 50.75018 | 5.51439 | 96° | 46km/h | 15826m | 5m/s | -51.8°C | 11.6% | 112.3hPa | 4V | 00:00:00 | 00:00:00 | 00:00:00 | |
| DL1XH1-15 | 2026-09-01 22:28:01 | 50.75026 | 5.51275 | 81° | 53km/h | 15784m | 4.9m/s | -51.8°C | 11.6% | 113hPa | 4V | 00:00:00 | 01:34:15 | 00:00:00 | |
| DL1XH-west | 2026-09-01 22:27:57 | 50.75027 | 5.51295 | 0° | 0km/h | 15789m | 0m/s | -51.8°C | 11.7% | 112.9hPa | 4V | 00:00:00 | 00:00:00 | 00:00:00 | |
| BIOWL1-15 | 2026-09-01 22:27:55 | 50.75024 | 5.51254 | 85° | 53km/h | 15779m | 6m/s | -51.8°C | 11.7% | 113.1hPa | 4V | 00:00:00 | 00:00:00 | 00:00:00 | |
| DL1XH1-15 | 2026-09-01 22:27:51 | 50.75030 | 5.51059 | 88° | 53km/h | 15737m | 5m/s | -51.9°C | 11.8% | 113.8hPa | 4V | 00:00:00 | 01:34:05 | 00:00:00 | |
| DM0DOS-11 | 2026-09-01 22:27:47 | 50.75029 | 5.50972 | 93° | 46km/h | 15717m | 4.7m/s | -51.8°C | 11.8% | 114.1hPa | 4V | 00:00:00 | 01:34:01 | 00:00:00 | |
| DL1XH-west | 2026-09-01 22:27:46 | 50.75030 | 5.51059 | 0° | 0km/h | 15737m | 0m/s | -51.9°C | 11.8% | 113.8hPa | 4V | 00:00:00 | 00:00:00 | 00:00:00 | |
| BIOWL1-15 | 2026-09-01 22:27:45 | 50.75029 | 5.51037 | 87° | 57km/h | 15731m | 4m/s | -51.9°C | 11.8% | 113.9hPa | 4V | 00:00:00 | 00:00:00 | 00:00:00 | |
| DL1XH1-15 | 2026-09-01 22:27:41 | 50.75030 | 5.50864 | 86° | 46km/h | 15688m | 4.5m/s | -51.7°C | 11.8% | 114.7hPa | 4V | 00:00:00 | 01:33:55 | 00:00:00 | |
| DM0DOS-11 | 2026-09-01 22:27:37 | 50.75027 | 5.50788 | 95° | 42km/h | 15670m | 4.6m/s | -51.6°C | 12% | 114.9hPa | 4V | 00:00:00 | 01:33:51 | 00:00:00 | |
| DL1XH-west | 2026-09-01 22:27:36 | 50.75030 | 5.50864 | 0° | 0km/h | 15688m | 0m/s | -51.7°C | 11.9% | 114.7hPa | 4V | 00:00:00 | 00:00:00 | 00:00:00 | |
| BIOWL1-15 | 2026-09-01 22:27:35 | 50.75029 | 5.50845 | 85° | 49km/h | 15683m | 4m/s | -51.6°C | 12% | 114.8hPa | 4V | 00:00:00 | 00:00:00 | 00:00:00 | |
| DL1XH1-15 | 2026-09-01 22:27:31 | 50.75029 | 5.50688 | 90° | 40km/h | 15642m | 4.6m/s | -51.4°C | 12% | 115.4hPa | 4V | 00:00:00 | 01:33:45 | 00:00:00 | |
| DM0DOS-11 | 2026-09-01 22:27:27 | 50.75029 | 5.50624 | 99° | 38km/h | 15623m | 4.7m/s | -51.4°C | 12% | 115.8hPa | 4V | 00:00:00 | 01:33:41 | 00:00:00 | |
| DL1XH-west | 2026-09-01 22:27:25 | 50.75029 | 5.50671 | 0° | 0km/h | 15638m | 0m/s | -51.4°C | 12.1% | 115.5hPa | 4V | 00:00:00 | 00:00:00 | 00:00:00 | |
| BIOWL1-15 | 2026-09-01 22:27:24 | 50.75029 | 5.50654 | 90° | 38km/h | 15633m | 4m/s | -51.4°C | 12.1% | 115.6hPa | 4V | 00:00:00 | 00:00:00 | 00:00:00 | |
| DL1XH1-15 | 2026-09-01 22:27:21 | 50.75031 | 5.50527 | 93° | 38km/h | 15595m | 4.5m/s | -51.5°C | 12.1% | 116.2hPa | 4V | 00:00:00 | 01:33:35 | 00:00:00 | |
| DM0DOS-11 | 2026-09-01 22:27:17 | 50.75031 | 5.50464 | 100° | 33km/h | 15578m | 4.8m/s | -51.4°C | 12.1% | 116.6hPa | 4V | 00:00:00 | 01:33:31 | 00:00:00 | |
| DL1XH-west | 2026-09-01 22:27:14 | 50.75032 | 5.50492 | 0° | 0km/h | 15586m | 0m/s | -51.5°C | 12.2% | 116.4hPa | 4V | 00:00:00 | 00:00:00 | 00:00:00 | |
| DL1XH1-15 | 2026-09-01 22:27:11 | 50.75040 | 5.50391 | 91° | 40km/h | 15550m | 5m/s | -51.3°C | 12.3% | 117hPa | 4V | 00:00:00 | 01:33:25 | 00:00:00 | |
| DM0DOS-11 | 2026-09-01 22:27:07 | 50.75051 | 5.50322 | 112° | 31km/h | 15531m | 5.4m/s | -51.3°C | 12.3% | 117.4hPa | 4V | 00:00:00 | 01:33:21 | 00:00:00 | |
| BIOWL1-15 | 2026-09-01 22:27:05 | 50.75048 | 5.50336 | 113° | 38km/h | 15536m | 5m/s | -51.3°C | 12.4% | 117.3hPa | 4V | 00:00:00 | 00:00:00 | 00:00:00 | |
| DL1XH-west | 2026-09-01 22:27:04 | 50.75043 | 5.50354 | 0° | 0km/h | 15540m | 0m/s | -51.3°C | 12.3% | 117.2hPa | 4V | 00:00:00 | 00:00:00 | 00:00:00 | |
| DL1XH1-15 | 2026-09-01 22:27:01 | 50.75065 | 5.50254 | 114° | 42km/h | 15498m | 5.7m/s | -51°C | 12.5% | 118hPa | 4V | 00:00:00 | 01:33:15 | 00:00:00 | |
| DM0DOS-11 | 2026-09-01 22:26:57 | 50.75078 | 5.50191 | 109° | 40km/h | 15476m | 5.7m/s | -51.2°C | 12.5% | 118.4hPa | 4V | 00:00:00 | 01:33:11 | 00:00:00 | |
| DL1XH-west | 2026-09-01 22:26:53 | 50.75076 | 5.50205 | 0° | 0km/h | 15480m | 0m/s | -51.1°C | 12.5% | 118.3hPa | 4V | 00:00:00 | 00:00:00 | 00:00:00 | |
| DL1XH1-15 | 2026-09-01 22:26:51 | 50.75104 | 5.50106 | 118° | 46km/h | 15442m | 5.2m/s | -51.1°C | 12.5% | 119hPa | 4V | 00:00:00 | 01:33:05 | 00:00:00 | |
| DM0DOS-11 | 2026-09-01 22:26:47 | 50.75128 | 5.50045 | 114° | 49km/h | 15420m | 4.5m/s | -50.9°C | 12.6% | 119.3hPa | 4V | 00:00:00 | 01:33:01 | 00:00:00 | |
| DL1XH-west | 2026-09-01 22:26:42 | 50.75128 | 5.50045 | 0° | 0km/h | 15420m | 0m/s | -50.9°C | 12.7% | 119.3hPa | 4V | 00:00:00 | 00:00:00 | 00:00:00 | |
| DM0DOS-11 | 2026-09-01 22:26:37 | 50.75179 | 5.49870 | 116° | 51km/h | 15375m | 5.1m/s | -50.6°C | 12.8% | 120.2hPa | 4V | 00:00:00 | 01:32:51 | 00:00:00 | |
| BIOWL1-15 | 2026-09-01 22:26:31 | 50.75185 | 5.49853 | 109° | 47km/h | 15369m | 5m/s | -50.6°C | 12.8% | 120.3hPa | 4V | 00:00:00 | 00:00:00 | 00:00:00 | |
| DM0DOS-11 | 2026-09-01 22:26:27 | 50.75229 | 5.49676 | 111° | 55km/h | 15325m | 4.5m/s | -50.4°C | 13% | 121.1hPa | 4V | 00:00:00 | 01:32:41 | 00:00:00 | |
| DL1XH-west | 2026-09-01 22:26:21 | 50.75233 | 5.49658 | 0° | 0km/h | 15321m | 0m/s | -50.4°C | 13% | 121.2hPa | 4V | 00:00:00 | 00:00:00 | 00:00:00 | |
| BIOWL1-15 | 2026-09-01 22:26:20 | 50.75238 | 5.49640 | 109° | 51km/h | 15317m | 5m/s | -50.4°C | 13% | 121.3hPa | 4V | 00:00:00 | 00:00:00 | 00:00:00 | |
| DM0DOS-11 | 2026-09-01 22:26:17 | 50.75281 | 5.49457 | 107° | 64km/h | 15278m | 4.8m/s | -50.3°C | 13% | 122hPa | 4V | 00:00:00 | 01:32:31 | 00:00:00 | |
| DB0UT-7 | 2026-09-01 22:26:15 | 50.75263 | 5.49532 | 115° | 71km/h | 15293m | 4.9m/s | -50.3°C | 13.0% | 121.7hPa | 4V | 00:00:00 | 00:00:00 | 00:00:00 | |
| DL1XH1-15 | 2026-09-01 22:26:11 | 50.75314 | 5.49314 | 110° | 69km/h | 15249m | 4.7m/s | -50.6°C | 13.1% | 122.5hPa | 4V | 00:00:00 | 01:32:25 | 00:00:00 | |
| DL1XH-west | 2026-09-01 22:26:10 | 50.75291 | 5.49411 | 0° | 0km/h | 15268m | 0m/s | -50.4°C | 13.2% | 122.2hPa | 4V | 00:00:00 | 00:00:00 | 00:00:00 | |
| BIOWL1-15 | 2026-09-01 22:26:09 | 50.75297 | 5.49389 | 111° | 62km/h | 15264m | 5m/s | -50.5°C | 13.2% | 122.3hPa | 4V | 00:00:00 | 00:00:00 | 00:00:00 | |
| DM0DOS-11 | 2026-09-01 22:26:07 | 50.75336 | 5.49211 | 105° | 69km/h | 15230m | 4.6m/s | -50.6°C | 13.2% | 122.9hPa | 4V | 00:00:00 | 01:32:21 | 00:00:00 | |
| DL1XH1-15 | 2026-09-01 22:26:01 | 50.75367 | 5.49051 | 108° | 73km/h | 15202m | 4.7m/s | -50.5°C | 13.3% | 123.4hPa | 4V | 00:00:00 | 01:32:15 | 00:00:00 | |
| DL1XH-west | 2026-09-01 22:26:00 | 50.75346 | 5.49158 | 0° | 0km/h | 15221m | 0m/s | -50.6°C | 13.3% | 123hPa | 4V | 00:00:00 | 00:00:00 | 00:00:00 | |
| BIOWL1-15 | 2026-09-01 22:25:59 | 50.75351 | 5.49133 | 108° | 68km/h | 15216m | 5m/s | -50.5°C | 13.3% | 123.2hPa | 4V | 00:00:00 | 00:00:00 | 00:00:00 | |
| DM0DOS-11 | 2026-09-01 22:25:57 | 50.75389 | 5.48938 | 100° | 73km/h | 15183m | 4.8m/s | -50.5°C | 13.5% | 123.8hPa | 4V | 00:00:00 | 01:32:11 | 00:00:00 | |
| BIOWL1-15 | 2026-09-01 22:25:52 | 50.75405 | 5.48828 | 103° | 77km/h | 15164m | 5m/s | -50.6°C | 13.5% | 124.1hPa | 4.1V | 00:00:00 | 00:00:00 | 00:00:00 | |
| DL1XH1-15 | 2026-09-01 22:25:51 | 50.75415 | 5.48767 | 108° | 82km/h | 15155m | 4.9m/s | -50.7°C | 13.5% | 124.3hPa | 4.1V | 00:00:00 | 01:32:05 | 00:00:00 | |
| DL1XH-west | 2026-09-01 22:25:49 | 50.75401 | 5.48855 | 0° | 0km/h | 15169m | 0m/s | -50.5°C | 13.5% | 124hPa | 4.1V | 00:00:00 | 00:00:00 | 00:00:00 | |
| DB0UT-7 | 2026-09-01 22:25:45 | 50.75421 | 5.48736 | 110° | 84km/h | 15149m | 4.4m/s | -50.6°C | 13.5% | 124.3hPa | 4.1V | 00:00:00 | 01:32:04 | 00:00:00 | |
| DL1XH1-15 | 2026-09-01 22:25:41 | 50.75460 | 5.48453 | 101° | 82km/h | 15109m | 4.8m/s | -50.9°C | 13.6% | 125.2hPa | 4.1V | 00:00:00 | 01:31:55 | 00:00:00 | |
| BIOWL1-15 | 2026-09-01 22:25:39 | 50.75456 | 5.48487 | 101° | 84km/h | 15113m | 4m/s | -50.9°C | 13.7% | 125.1hPa | 4.1V | 00:00:00 | 00:00:00 | 00:00:00 | |
| DL1XH-west | 2026-09-01 22:25:38 | 50.75452 | 5.48519 | 0° | 0km/h | 15118m | 0m/s | -50.9°C | 13.7% | 125hPa | 4.1V | 00:00:00 | 00:00:00 | 00:00:00 | |
| DM0DOS-11 | 2026-09-01 22:25:37 | 50.75476 | 5.48325 | 102° | 84km/h | 15089m | 4.5m/s | -51°C | 13.7% | 125.5hPa | 4.1V | 00:00:00 | 01:31:51 | 00:00:00 | |
| DL1XH1-15 | 2026-09-01 22:25:31 | 50.75500 | 5.48126 | 97° | 84km/h | 15062m | 4.8m/s | -51.3°C | 13.7% | 126.1hPa | 4.1V | 00:00:00 | 01:31:45 | 00:00:00 | |
| DL1XH-west | 2026-09-01 22:25:28 | 50.75494 | 5.48195 | 0° | 0km/h | 15072m | 0m/s | -51.2°C | 13.8% | 125.9hPa | 4.1V | 00:00:00 | 00:00:00 | 00:00:00 | |
| BIOWL1-15 | 2026-09-01 22:25:26 | 50.75500 | 5.48126 | 97° | 86km/h | 15062m | 5m/s | -51.3°C | 13.8% | 126.1hPa | 4.1V | 00:00:00 | 00:00:00 | 00:00:00 | |
| DL1XH1-15 | 2026-09-01 22:25:21 | 50.75525 | 5.47790 | 91° | 88km/h | 15015m | 4.8m/s | -51.5°C | 14% | 127hPa | 4.1V | 00:00:00 | 01:31:35 | 00:00:00 | |
| DL1XH-west | 2026-09-01 22:25:17 | 50.75524 | 5.47828 | 0° | 0km/h | 15020m | 0m/s | -51.5°C | 14% | 126.9hPa | 4.1V | 00:00:00 | 00:00:00 | 00:00:00 | |
| BIOWL1-15 | 2026-09-01 22:25:15 | 50.75526 | 5.47753 | 92° | 88km/h | 15010m | 5m/s | -51.5°C | 14% | 127.1hPa | 4.1V | 00:00:00 | 00:00:00 | 00:00:00 | |
| DB0UT-7 | 2026-09-01 22:25:15 | 50.75526 | 5.47753 | 92° | 78km/h | 15010m | 4.7m/s | -51.4°C | 14.0% | 127.0hPa | 4.0V | 00:00:00 | 00:00:00 | 00:00:00 | |
| DL1XH1-15 | 2026-09-01 22:25:11 | 50.75536 | 5.47449 | 95° | 80km/h | 14967m | 4.7m/s | -51.4°C | 14% | 127.9hPa | 4.1V | 00:00:00 | 01:31:25 | 00:00:00 | |
| DM0DOS-11 | 2026-09-01 22:25:07 | 50.75539 | 5.47319 | 87° | 80km/h | 14948m | 5m/s | -51.5°C | 14.1% | 128.2hPa | 4.1V | 00:00:00 | 01:31:21 | 00:00:00 | |
| DL1XH-west | 2026-09-01 22:25:06 | 50.75536 | 5.47449 | 0° | 0km/h | 14967m | 0m/s | -51.4°C | 14.1% | 127.9hPa | 4.1V | 00:00:00 | 00:00:00 | 00:00:00 | |
| BIOWL1-15 | 2026-09-01 22:25:04 | 50.75539 | 5.47383 | 91° | 78km/h | 14958m | 5m/s | -51.4°C | 14.2% | 128.1hPa | 4.1V | 00:00:00 | 00:00:00 | 00:00:00 | |
| DL1XH1-15 | 2026-09-01 22:25:01 | 50.75544 | 5.47130 | 95° | 78km/h | 14918m | 4.4m/s | -51.9°C | 14.1% | 128.8hPa | 4.1V | 00:00:00 | 01:31:15 | 00:00:00 | |
| DM0DOS-11 | 2026-09-01 22:24:57 | 50.75547 | 5.47002 | 88° | 75km/h | 14900m | 4.7m/s | -52°C | 14.3% | 129.2hPa | 4.1V | 00:00:00 | 01:31:11 | 00:00:00 | |
| DL1XH-west | 2026-09-01 22:24:56 | 50.75544 | 5.47130 | 0° | 0km/h | 14918m | 0m/s | -51.9°C | 14.2% | 128.8hPa | 4.1V | 00:00:00 | 00:00:00 | 00:00:00 | |
| BIOWL1-15 | 2026-09-01 22:24:53 | 50.75547 | 5.47032 | 89° | 75km/h | 14906m | 6m/s | -52°C | 14.4% | 129.1hPa | 4.1V | 00:00:00 | 00:00:00 | 00:00:00 | |
| DL1XH1-15 | 2026-09-01 22:24:51 | 50.75546 | 5.46822 | 88° | 75km/h | 14872m | 5m/s | -52.1°C | 14.3% | 129.8hPa | 4.1V | 00:00:00 | 01:31:05 | 00:00:00 | |
| BIOWL1-15 | 2026-09-01 22:24:47 | 50.75545 | 5.46729 | 89° | 73km/h | 14857m | 5m/s | -52.2°C | 14.4% | 130.1hPa | 4.1V | 00:00:00 | 00:00:00 | 00:00:00 | |
| DM0DOS-11 | 2026-09-01 22:24:47 | 50.75544 | 5.46699 | 87° | 71km/h | 14852m | 5m/s | -52.2°C | 14.5% | 130.1hPa | 4.1V | 00:00:00 | 01:31:01 | 00:00:00 | |
| DL1XH-west | 2026-09-01 22:24:46 | 50.75546 | 5.46792 | 0° | 0km/h | 14867m | 0m/s | -52.2°C | 14.4% | 129.9hPa | 4.1V | 00:00:00 | 00:00:00 | 00:00:00 | |
| DB0UT-7 | 2026-09-01 22:24:45 | 50.75546 | 5.46792 | 88° | 68km/h | 14867m | 4.9m/s | -52.1°C | 14.3% | 129.8hPa | 4.1V | 00:00:00 | 01:31:04 | 00:00:00 | |
| DL1XH1-15 | 2026-09-01 22:24:41 | 50.75535 | 5.46532 | 83° | 71km/h | 14822m | 5.1m/s | -52.5°C | 14.5% | 130.7hPa | 4.1V | 00:00:00 | 01:30:55 | 00:00:00 | |
| DM0DOS-11 | 2026-09-01 22:24:37 | 50.75528 | 5.46415 | 82° | 68km/h | 14802m | 5.2m/s | -52.6°C | 14.5% | 131.1hPa | 4.1V | 00:00:00 | 01:30:51 | 00:00:00 | |
| DL1XH-west | 2026-09-01 22:24:35 | 50.75533 | 5.46503 | 0° | 0km/h | 14817m | 0m/s | -52.5°C | 14.6% | 130.8hPa | 4.1V | 00:00:00 | 00:00:00 | 00:00:00 | |
| BIOWL1-15 | 2026-09-01 22:24:32 | 50.75528 | 5.46415 | 83° | 73km/h | 14802m | 6m/s | -52.6°C | 14.6% | 131.2hPa | 4.1V | 00:00:00 | 00:00:00 | 00:00:00 | |
| DM0DOS-11 | 2026-09-01 22:24:27 | 50.75505 | 5.46152 | 81° | 66km/h | 14751m | 4.7m/s | -52.5°C | 14.7% | 132.1hPa | 4.1V | 00:00:00 | 01:30:41 | 00:00:00 | |
| BIOWL1-15 | 2026-09-01 22:24:26 | 50.75502 | 5.46125 | 78° | 71km/h | 14747m | 6m/s | -52.5°C | 14.8% | 132.2hPa | 4.1V | 00:00:00 | 00:00:00 | 00:00:00 | |
| DL1XH-west | 2026-09-01 22:24:25 | 50.75511 | 5.46233 | 0° | 0km/h | 14766m | 0m/s | -52.5°C | 14.7% | 131.9hPa | 4.1V | 00:00:00 | 00:00:00 | 00:00:00 | |
| DM0DOS-11 | 2026-09-01 22:24:17 | 50.75469 | 5.45904 | 73° | 64km/h | 14703m | 4.9m/s | -52.4°C | 15% | 133.1hPa | 4.1V | 00:00:00 | 01:30:31 | 00:00:00 | |
| DL1XH-west | 2026-09-01 22:24:15 | 50.75480 | 5.45975 | 0° | 0km/h | 14718m | 0m/s | -52.5°C | 14.9% | 132.8hPa | 4.1V | 00:00:00 | 00:00:00 | 00:00:00 | |
| BIOWL1-15 | 2026-09-01 22:24:10 | 50.75459 | 5.45852 | 74° | 71km/h | 14693m | 5m/s | -52.5°C | 15% | 133.3hPa | 4.1V | 00:00:00 | 00:00:00 | 00:00:00 | |
| DM0DOS-11 | 2026-09-01 22:24:07 | 50.75431 | 5.45666 | 79° | 58km/h | 14654m | 5.2m/s | -52.5°C | 15% | 134.1hPa | 4.1V | 00:00:00 | 01:30:21 | 00:00:00 | |
| DL1XH-west | 2026-09-01 22:24:04 | 50.75439 | 5.45706 | 0° | 0km/h | 14664m | 0m/s | -52.6°C | 15.1% | 133.9hPa | 4.1V | 00:00:00 | 00:00:00 | 00:00:00 | |
| DL1XH1-15 | 2026-09-01 22:24:01 | 50.75416 | 5.45525 | 79° | 55km/h | 14623m | 4.9m/s | -52.2°C | 15.1% | 134.8hPa | 4.1V | 00:00:00 | 01:30:15 | 00:00:00 | |
| BIOWL1-15 | 2026-09-01 22:24:00 | 50.75426 | 5.45620 | 81° | 66km/h | 14643m | 4m/s | -52.4°C | 15.2% | 134.4hPa | 4.1V | 00:00:00 | 00:00:00 | 00:00:00 | |
| DM0DOS-11 | 2026-09-01 22:23:57 | 50.75405 | 5.45441 | 82° | 60km/h | 14604m | 5.1m/s | -52.1°C | 15.2% | 135.1hPa | 4.1V | 00:00:00 | 01:30:11 | 00:00:00 | |
| DL1XH-west | 2026-09-01 22:23:53 | 50.75408 | 5.45463 | 0° | 0km/h | 14608m | 0m/s | -52.1°C | 15.3% | 135.1hPa | 4.1V | 00:00:00 | 00:00:00 | 00:00:00 | |
| BIOWL1-15 | 2026-09-01 22:23:52 | 50.75402 | 5.45395 | 83° | 66km/h | 14594m | 6m/s | -52°C | 15.3% | 135.4hPa | 4.1V | 00:00:00 | 00:00:00 | 00:00:00 | |
| DL1XH1-15 | 2026-09-01 22:23:51 | 50.75398 | 5.45293 | 86° | 55km/h | 14574m | 5.2m/s | -51.8°C | 15.3% | 135.8hPa | 4.1V | 00:00:00 | 01:30:05 | 00:00:00 | |
| DM0DOS-11 | 2026-09-01 22:23:47 | 50.75391 | 5.45209 | 85° | 57km/h | 14554m | 5.5m/s | -51.8°C | 15.5% | 136.2hPa | 4.1V | 00:00:00 | 01:30:01 | 00:00:00 | |
| DL1XH-west | 2026-09-01 22:23:43 | 50.75394 | 5.45230 | 0° | 0km/h | 14558m | 0m/s | -51.8°C | 15.4% | 136.1hPa | 4.1V | 00:00:00 | 00:00:00 | 00:00:00 | |
| DL1XH1-15 | 2026-09-01 22:23:41 | 50.75390 | 5.45069 | 91° | 57km/h | 14522m | 4.8m/s | -51.9°C | 15.5% | 136.8hPa | 4.1V | 00:00:00 | 01:29:55 | 00:00:00 | |
| BIOWL1-15 | 2026-09-01 22:23:39 | 50.75390 | 5.45143 | 89° | 62km/h | 14537m | 5m/s | -51.8°C | 15.5% | 136.5hPa | 4.1V | 00:00:00 | 00:00:00 | 00:00:00 | |
| DM0DOS-11 | 2026-09-01 22:23:37 | 50.75387 | 5.44978 | 93° | 57km/h | 14503m | 4.9m/s | -51.9°C | 15.5% | 137.2hPa | 4.1V | 00:00:00 | 01:29:51 | 00:00:00 | |
| DL1XH-west | 2026-09-01 22:23:33 | 50.75388 | 5.45000 | 0° | 0km/h | 14508m | 0m/s | -51.9°C | 15.6% | 137.1hPa | 4.1V | 00:00:00 | 00:00:00 | 00:00:00 | |
| BIOWL1-15 | 2026-09-01 22:23:29 | 50.75390 | 5.44911 | 92° | 58km/h | 14488m | 5m/s | -51.9°C | 15.7% | 137.5hPa | 4.1V | 00:00:00 | 00:00:00 | 00:00:00 | |
| DM0DOS-11 | 2026-09-01 22:23:27 | 50.75386 | 5.44754 | 78° | 58km/h | 14455m | 4.8m/s | -51.9°C | 15.7% | 138.2hPa | 4.1V | 00:00:00 | 01:29:41 | 00:00:00 | |
| DL1XH-west | 2026-09-01 22:23:21 | 50.75383 | 5.44731 | 0° | 0km/h | 14451m | 0m/s | -51.9°C | 15.9% | 138.3hPa | 4.1V | 00:00:00 | 00:00:00 | 00:00:00 | |
| DL1XH1-15 | 2026-09-01 22:23:21 | 50.75380 | 5.44616 | 86° | 57km/h | 14426m | 4.8m/s | -52°C | 16% | 138.9hPa | 4.1V | 00:00:00 | 01:29:35 | 00:00:00 | |
| BIOWL1-15 | 2026-09-01 22:23:20 | 50.75380 | 5.44685 | 92° | 57km/h | 14440m | 4m/s | -51.9°C | 15.9% | 138.6hPa | 4.1V | 00:00:00 | 00:00:00 | 00:00:00 | |
| DM0DOS-11 | 2026-09-01 22:23:17 | 50.75378 | 5.44525 | 84° | 58km/h | 14407m | 5m/s | -51.9°C | 16% | 139.2hPa | 4.1V | 00:00:00 | 01:29:31 | 00:00:00 | |
| DB0UT-7 | 2026-09-01 22:23:15 | 50.75379 | 5.44594 | 89° | 53km/h | 14422m | 5.0m/s | -51.9°C | 15.8% | 138.9hPa | 4.1V | 00:00:00 | 00:00:00 | 00:00:00 | |
| DL1XH1-15 | 2026-09-01 22:23:11 | 50.75373 | 5.44385 | 86° | 53km/h | 14377m | 4.8m/s | -52°C | 16.1% | 139.9hPa | 4.1V | 00:00:00 | 01:29:25 | 00:00:00 | |
| DL1XH-west | 2026-09-01 22:23:10 | 50.75375 | 5.44476 | 0° | 0km/h | 14397m | 0m/s | -51.9°C | 16.1% | 139.5hPa | 4.1V | 00:00:00 | 00:00:00 | 00:00:00 | |
| BIOWL1-15 | 2026-09-01 22:23:09 | 50.75374 | 5.44452 | 90° | 57km/h | 14391m | 4m/s | -51.9°C | 16.1% | 139.6hPa | 4.1V | 00:00:00 | 00:00:00 | 00:00:00 | |
| DM0DOS-11 | 2026-09-01 22:23:07 | 50.75371 | 5.44298 | 79° | 51km/h | 14357m | 4.8m/s | -52°C | 16.1% | 140.3hPa | 4.1V | 00:00:00 | 01:29:21 | 00:00:00 | |
| DL1XH1-15 | 2026-09-01 22:23:01 | 50.75362 | 5.44174 | 88° | 57km/h | 14328m | 4.7m/s | -52°C | 16.2% | 140.9hPa | 4.1V | 00:00:00 | 01:29:15 | 00:00:00 | |
| BIOWL1-15 | 2026-09-01 22:23:01 | 50.75364 | 5.44219 | 84° | 53km/h | 14338m | 5m/s | -52°C | 16.3% | 140.7hPa | 4.1V | 00:00:00 | 00:00:00 | 00:00:00 | |
| DL1XH-west | 2026-09-01 22:22:59 | 50.75365 | 5.44239 | 0° | 0km/h | 14342m | 0m/s | -52°C | 16.3% | 140.6hPa | 4.1V | 00:00:00 | 00:00:00 | 00:00:00 | |
| DM0DOS-11 | 2026-09-01 22:22:57 | 50.75364 | 5.44082 | 90° | 51km/h | 14310m | 5m/s | -52°C | 16.3% | 141.3hPa | 4.1V | 00:00:00 | 01:29:11 | 00:00:00 | |
| DL1XH1-15 | 2026-09-01 22:22:51 | 50.75359 | 5.43962 | 90° | 51km/h | 14280m | 4.9m/s | -52°C | 16.5% | 142hPa | 4.1V | 00:00:00 | 01:29:05 | 00:00:00 | |
| BIOWL1-15 | 2026-09-01 22:22:48 | 50.75362 | 5.44001 | 83° | 47km/h | 14290m | 6m/s | -52°C | 16.5% | 141.8hPa | 4.1V | 00:00:00 | 00:00:00 | 00:00:00 | |
| DB0UT-7 | 2026-09-01 22:22:45 | 50.75358 | 5.43941 | 99° | 49km/h | 14275m | 4.8m/s | -51.9°C | 16.5% | 142.0hPa | 4.1V | 00:00:00 | 01:29:04 | 00:00:00 | |
| DL1XH1-15 | 2026-09-01 22:22:41 | 50.75369 | 5.43765 | 93° | 47km/h | 14232m | 4.8m/s | -51.9°C | 16.6% | 143hPa | 4.1V | 00:00:00 | 01:28:55 | 00:00:00 | |
| DL1XH-west | 2026-09-01 22:22:37 | 50.75369 | 5.43783 | 0° | 0km/h | 14237m | 0m/s | -51.9°C | 16.7% | 142.9hPa | 4.1V | 00:00:00 | 00:00:00 | 00:00:00 | |
| DM0DOS-11 | 2026-09-01 22:22:37 | 50.75375 | 5.43691 | 101° | 47km/h | 14213m | 4.9m/s | -51.8°C | 16.7% | 143.4hPa | 4.1V | 00:00:00 | 01:28:51 | 00:00:00 | |
| DL1XH1-15 | 2026-09-01 22:22:31 | 50.75384 | 5.43583 | 93° | 51km/h | 14183m | 4.6m/s | -51.7°C | 16.8% | 144.1hPa | 4.1V | 00:00:00 | 01:28:45 | 00:00:00 | |
| DL1XH-west | 2026-09-01 22:22:27 | 50.75384 | 5.43601 | 0° | 0km/h | 14188m | 0m/s | -51.7°C | 16.9% | 144hPa | 4.1V | 00:00:00 | 00:00:00 | 00:00:00 | |
| DM0DOS-11 | 2026-09-01 22:22:27 | 50.75394 | 5.43503 | 113° | 49km/h | 14165m | 5m/s | -51.5°C | 17.1% | 144.5hPa | 4.1V | 00:00:00 | 01:28:41 | 00:00:00 | |
| BIOWL1-15 | 2026-09-01 22:22:26 | 50.75384 | 5.43583 | 93° | 51km/h | 14183m | 4m/s | -51.7°C | 16.9% | 144.1hPa | 4.1V | 00:00:00 | 00:00:00 | 00:00:00 | |
| DL1XH1-15 | 2026-09-01 22:22:21 | 50.75415 | 5.43386 | 109° | 49km/h | 14133m | 4.8m/s | -51.3°C | 17.1% | 145.2hPa | 4.1V | 00:00:00 | 01:28:35 | 00:00:00 | |
| BIOWL1-15 | 2026-09-01 22:22:17 | 50.75419 | 5.43369 | 114° | 44km/h | 14128m | 4m/s | -51.3°C | 17.2% | 145.3hPa | 4.1V | 00:00:00 | 00:00:00 | 00:00:00 | |
| DM0DOS-11 | 2026-09-01 22:22:17 | 50.75432 | 5.43318 | 105° | 57km/h | 14113m | 4.6m/s | -51.2°C | 17.1% | 145.6hPa | 4.1V | 00:00:00 | 01:28:31 | 00:00:00 | |
| DB0UT-7 | 2026-09-01 22:22:15 | 50.75419 | 5.43369 | 115° | 58km/h | 14128m | 4.7m/s | -51.2°C | 17.1% | 145.3hPa | 4.0V | 00:00:00 | 00:00:00 | 00:00:00 | |
| DL1XH1-15 | 2026-09-01 22:22:11 | 50.75462 | 5.43184 | 105° | 51km/h | 14083m | 4.3m/s | -51°C | 17.3% | 146.3hPa | 4.1V | 00:00:00 | 01:28:25 | 00:00:00 | |
| DM0DOS-11 | 2026-09-01 22:22:07 | 50.75476 | 5.43111 | 114° | 55km/h | 14066m | 4.8m/s | -50.9°C | 17.5% | 146.7hPa | 4.1V | 00:00:00 | 01:28:21 | 00:00:00 | |
| BIOWL1-15 | 2026-09-01 22:22:04 | 50.75468 | 5.43146 | 108° | 44km/h | 14076m | 5m/s | -51°C | 17.4% | 146.5hPa | 4.1V | 00:00:00 | 00:00:00 | 00:00:00 | |
| DL1XH-west | 2026-09-01 22:22:03 | 50.75471 | 5.43129 | 0° | 0km/h | 14071m | 0m/s | -51°C | 17.4% | 146.6hPa | 4.1V | 00:00:00 | 00:00:00 | 00:00:00 | |
| DL1XH1-15 | 2026-09-01 22:22:01 | 50.75509 | 5.42986 | 107° | 57km/h | 14036m | 4.7m/s | -50.9°C | 17.6% | 147.3hPa | 4.1V | 00:00:00 | 01:28:15 | 00:00:00 | |
| DM0DOS-11 | 2026-09-01 22:21:57 | 50.75523 | 5.42903 | 112° | 62km/h | 14017m | 4.6m/s | -51°C | 17.6% | 147.8hPa | 4.1V | 00:00:00 | 01:28:11 | 00:00:00 | |
| BIOWL1-15 | 2026-09-01 22:21:53 | 50.75519 | 5.42924 | 105° | 53km/h | 14022m | 5m/s | -51°C | 17.7% | 147.6hPa | 4.1V | 00:00:00 | 00:00:00 | 00:00:00 | |
| DL1XH-west | 2026-09-01 22:21:51 | 50.75528 | 5.42881 | 0° | 0km/h | 14012m | 0m/s | -51.1°C | 17.7% | 147.9hPa | 4.1V | 00:00:00 | 00:00:00 | 00:00:00 | |
| DL1XH1-15 | 2026-09-01 22:21:51 | 50.75560 | 5.42765 | 111° | 68km/h | 13988m | 4.6m/s | -51.8°C | 17.7% | 148.4hPa | 4.1V | 00:00:00 | 01:28:05 | 00:00:00 | |
| DM0DOS-11 | 2026-09-01 22:21:47 | 50.75579 | 5.42666 | 106° | 73km/h | 13969m | 4.6m/s | -52.1°C | 17.7% | 148.8hPa | 4.1V | 00:00:00 | 01:28:01 | 00:00:00 | |
| BIOWL1-15 | 2026-09-01 22:21:45 | 50.75575 | 5.42692 | 103° | 68km/h | 13974m | 5m/s | -52.1°C | 17.8% | 148.8hPa | 4.1V | 00:00:00 | 00:00:00 | 00:00:00 | |
| DB0UT-7 | 2026-09-01 22:21:45 | 50.75566 | 5.42742 | 108° | 77km/h | 13984m | 4.8m/s | -51.9°C | 17.7% | 148.5hPa | 4.1V | 00:00:00 | 01:28:04 | 00:00:00 | |
| DL1XH1-15 | 2026-09-01 22:21:41 | 50.75612 | 5.42494 | 104° | 73km/h | 13942m | 4.6m/s | -52.6°C | 17.8% | 149.4hPa | 4.1V | 00:00:00 | 01:27:55 | 00:00:00 | |
| DL1XH-west | 2026-09-01 22:21:38 | 50.75602 | 5.42553 | 0° | 0km/h | 13950m | 0m/s | -52.4°C | 17.9% | 149.3hPa | 4.1V | 00:00:00 | 00:00:00 | 00:00:00 | |
| DM0DOS-11 | 2026-09-01 22:21:37 | 50.75633 | 5.42382 | 113° | 75km/h | 13924m | 4.7m/s | -52.8°C | 18% | 149.9hPa | 4.1V | 00:00:00 | 01:27:51 | 00:00:00 | |
| BIOWL1-15 | 2026-09-01 22:21:34 | 50.75633 | 5.42382 | 113° | 73km/h | 13924m | 5m/s | -52.8°C | 18% | 149.9hPa | 4.1V | 00:00:00 | 00:00:00 | 00:00:00 | |
| DL1XH1-15 | 2026-09-01 22:21:29 | 50.75681 | 5.42157 | 108° | 80km/h | 13886m | 4.6m/s | -52.8°C | 18.1% | 150.8hPa | 4.1V | 00:00:00 | 01:27:43 | 00:00:00 | |
| DM0DOS-11 | 2026-09-01 22:21:27 | 50.75694 | 5.42095 | 107° | 78km/h | 13877m | 4.7m/s | -52.8°C | 18.1% | 151hPa | 4.1V | 00:00:00 | 01:27:41 | 00:00:00 | |
| BIOWL1-15 | 2026-09-01 22:21:23 | 50.75700 | 5.42063 | 106° | 78km/h | 13872m | 5m/s | -52.8°C | 18.3% | 151.1hPa | 4.1V | 00:00:00 | 00:00:00 | 00:00:00 | |
| DL1XH1-15 | 2026-09-01 22:21:18 | 50.75735 | 5.41818 | 98° | 82km/h | 13835m | 4.7m/s | -53.3°C | 18.3% | 151.9hPa | 4.1V | 00:00:00 | 01:27:32 | 00:00:00 | |
| DM0DOS-11 | 2026-09-01 22:21:17 | 50.75739 | 5.41784 | 97° | 84km/h | 13831m | 4.8m/s | -53.3°C | 18.3% | 152.1hPa | 4.1V | 00:00:00 | 01:27:31 | 00:00:00 | |
| BIOWL1-15 | 2026-09-01 22:21:12 | 50.75745 | 5.41715 | 97° | 84km/h | 13821m | 4m/s | -53.2°C | 18.4% | 152.3hPa | 4.1V | 00:00:00 | 00:00:00 | 00:00:00 | |
| DM0DOS-11 | 2026-09-01 22:21:07 | 50.75770 | 5.41460 | 100° | 78km/h | 13785m | 4.8m/s | -53.1°C | 18.6% | 153.1hPa | 4.1V | 00:00:00 | 01:27:21 | 00:00:00 | |
| BIOWL1-15 | 2026-09-01 22:20:59 | 50.75782 | 5.41366 | 105° | 80km/h | 13771m | 6m/s | -53.2°C | 18.6% | 153.5hPa | 4.1V | 00:00:00 | 00:00:00 | 00:00:00 | |
| DM0DOS-11 | 2026-09-01 22:20:57 | 50.75813 | 5.41154 | 103° | 75km/h | 13738m | 4.7m/s | -53.3°C | 18.7% | 154.3hPa | 4.1V | 00:00:00 | 01:27:11 | 00:00:00 | |
| BIOWL1-15 | 2026-09-01 22:20:49 | 50.75824 | 5.41068 | 100° | 77km/h | 13724m | 5m/s | -53.4°C | 18.9% | 154.6hPa | 4.1V | 00:00:00 | 00:00:00 | 00:00:00 | |
| DM0DOS-11 | 2026-09-01 22:20:47 | 50.75844 | 5.40860 | 94° | 77km/h | 13691m | 4.6m/s | -53.6°C | 19% | 155.4hPa | 4.1V | 00:00:00 | 01:27:01 | 00:00:00 | |
| BIOWL1-15 | 2026-09-01 22:20:38 | 50.75849 | 5.40736 | 97° | 77km/h | 13672m | 5m/s | -53.5°C | 19.1% | 155.9hPa | 4.1V | 00:00:00 | 00:00:00 | 00:00:00 | |
| DM0DOS-11 | 2026-09-01 22:20:37 | 50.75859 | 5.40560 | 97° | 71km/h | 13644m | 4.5m/s | -53.3°C | 19.1% | 156.6hPa | 4.1V | 00:00:00 | 01:26:51 | 00:00:00 | |
| DL1XH1-15 | 2026-09-01 22:20:36 | 50.75861 | 5.40532 | 95° | 68km/h | 13640m | 4.4m/s | -53.3°C | 19.2% | 156.6hPa | 4.1V | 00:00:00 | 01:26:50 | 00:00:00 | |
| BIOWL1-15 | 2026-09-01 22:20:28 | 50.75867 | 5.40445 | 97° | 73km/h | 13626m | 5m/s | -53.1°C | 19.4% | 157hPa | 4.1V | 00:00:00 | 00:00:00 | 00:00:00 | |
| DM0DOS-11 | 2026-09-01 22:20:27 | 50.75877 | 5.40282 | 102° | 68km/h | 13598m | 4.5m/s | -52.9°C | 19.5% | 157.6hPa | 4.1V | 00:00:00 | 01:26:41 | 00:00:00 | |
| DL1XH1-15 | 2026-09-01 22:20:26 | 50.75880 | 5.40257 | 98° | 68km/h | 13594m | 4.7m/s | -52.9°C | 19.5% | 157.8hPa | 4.1V | 00:00:00 | 01:26:40 | 00:00:00 | |
| BIOWL1-15 | 2026-09-01 22:20:18 | 50.75887 | 5.40177 | 97° | 71km/h | 13580m | 5m/s | -52.8°C | 19.5% | 158.1hPa | 4.1V | 00:00:00 | 00:00:00 | 00:00:00 | |
| DM0DOS-11 | 2026-09-01 22:20:17 | 50.75896 | 5.40010 | 101° | 62km/h | 13552m | 4.5m/s | -53°C | 19.6% | 158.8hPa | 4.1V | 00:00:00 | 01:26:31 | 00:00:00 | |
| DL1XH1-15 | 2026-09-01 22:20:16 | 50.75899 | 5.39986 | 101° | 62km/h | 13548m | 4.6m/s | -53°C | 19.6% | 158.9hPa | 4.1V | 00:00:00 | 01:26:30 | 00:00:00 | |
| DL1XH-west | 2026-09-01 22:20:11 | 50.75899 | 5.39986 | 0° | 0km/h | 13548m | 0m/s | -53°C | 19.7% | 158.9hPa | 4.1V | 00:00:00 | 00:00:00 | 00:00:00 | |
| BIOWL1-15 | 2026-09-01 22:20:08 | 50.75906 | 5.39915 | 100° | 62km/h | 13534m | 4m/s | -53°C | 19.7% | 159.2hPa | 4.1V | 00:00:00 | 00:00:00 | 00:00:00 | |
| DM0DOS-11 | 2026-09-01 22:20:07 | 50.75922 | 5.39755 | 105° | 60km/h | 13507m | 4.6m/s | -53.2°C | 19.8% | 159.9hPa | 4.1V | 00:00:00 | 01:26:21 | 00:00:00 | |
| DL1XH1-15 | 2026-09-01 22:20:06 | 50.75926 | 5.39730 | 100° | 60km/h | 13503m | 4.8m/s | -53.2°C | 19.8% | 160hPa | 4.1V | 00:00:00 | 01:26:20 | 00:00:00 | |
| DL1XH-west | 2026-09-01 22:20:01 | 50.75926 | 5.39730 | 0° | 0km/h | 13503m | 0m/s | -53.2°C | 19.9% | 160hPa | 4.1V | 00:00:00 | 00:00:00 | 00:00:00 | |
| BIOWL1-15 | 2026-09-01 22:19:58 | 50.75932 | 5.39661 | 98° | 57km/h | 13488m | 4m/s | -53.3°C | 20% | 160.3hPa | 4.1V | 00:00:00 | 00:00:00 | 00:00:00 | |
| DM0DOS-11 | 2026-09-01 22:19:57 | 50.75942 | 5.39507 | 100° | 64km/h | 13461m | 4.4m/s | -53.7°C | 20.1% | 161hPa | 4.1V | 00:00:00 | 01:26:11 | 00:00:00 | |
| DL1XH1-15 | 2026-09-01 22:19:56 | 50.75945 | 5.39481 | 96° | 64km/h | 13457m | 4.5m/s | -53.8°C | 20.1% | 161.1hPa | 4.1V | 00:00:00 | 01:26:10 | 00:00:00 | |
| DL1XH-west | 2026-09-01 22:19:51 | 50.75945 | 5.39481 | 0° | 0km/h | 13457m | 0m/s | -53.8°C | 20.1% | 161.1hPa | 4.1V | 00:00:00 | 00:00:00 | 00:00:00 | |
| BIOWL1-15 | 2026-09-01 22:19:50 | 50.75949 | 5.39408 | 96° | 64km/h | 13443m | 5m/s | -53.7°C | 20.2% | 161.5hPa | 4.1V | 00:00:00 | 00:00:00 | 00:00:00 | |
| DM0DOS-11 | 2026-09-01 22:19:47 | 50.75958 | 5.39252 | 99° | 66km/h | 13417m | 4.5m/s | -53.6°C | 20.3% | 162.1hPa | 4.2V | 00:00:00 | 01:26:01 | 00:00:00 | |
| DL1XH1-15 | 2026-09-01 22:19:46 | 50.75961 | 5.39226 | 101° | 66km/h | 13412m | 4.4m/s | -53.5°C | 20.2% | 162.2hPa | 4.2V | 00:00:00 | 01:26:00 | 00:00:00 | |
| DL1XH-west | 2026-09-01 22:19:40 | 50.75964 | 5.39200 | 0° | 0km/h | 13408m | 0m/s | -53.5°C | 20.4% | 162.3hPa | 4.2V | 00:00:00 | 00:00:00 | 00:00:00 | |
| BIOWL1-15 | 2026-09-01 22:19:40 | 50.75969 | 5.39149 | 93° | 64km/h | 13399m | 4m/s | -53.5°C | 20.4% | 162.5hPa | 4.2V | 00:00:00 | 00:00:00 | 00:00:00 | |
| DL1XH1-15 | 2026-09-01 22:19:36 | 50.75978 | 5.38968 | 99° | 64km/h | 13366m | 4.5m/s | -53.2°C | 20.6% | 163.3hPa | 4.2V | 00:00:00 | 01:25:50 | 00:00:00 | |
| DL1XH-west | 2026-09-01 22:19:29 | 50.75983 | 5.38917 | 0° | 0km/h | 13357m | 0m/s | -53.2°C | 20.7% | 163.6hPa | 4.2V | 00:00:00 | 00:00:00 | 00:00:00 | |
| BIOWL1-15 | 2026-09-01 22:19:27 | 50.75987 | 5.38868 | 98° | 64km/h | 13349m | 5m/s | -53.1°C | 20.7% | 163.8hPa | 4.2V | 00:00:00 | 00:00:00 | 00:00:00 | |
| DM0DOS-11 | 2026-09-01 22:19:27 | 50.75997 | 5.38745 | 92° | 64km/h | 13326m | 4.8m/s | -53°C | 20.8% | 164.3hPa | 4.2V | 00:00:00 | 01:25:41 | 00:00:00 | |
| BIOWL1-15 | 2026-09-01 22:19:20 | 50.76006 | 5.38594 | 102° | 62km/h | 13298m | 5m/s | -52.7°C | 21% | 165.1hPa | 4.2V | 00:00:00 | 00:00:00 | 00:00:00 | |
| DL1XH-west | 2026-09-01 22:19:19 | 50.75999 | 5.38667 | 0° | 0km/h | 13312m | 0m/s | -52.8°C | 20.9% | 164.7hPa | 4.2V | 00:00:00 | 00:00:00 | 00:00:00 | |
| DM0DOS-11 | 2026-09-01 22:19:17 | 50.76016 | 5.38499 | 95° | 62km/h | 13278m | 4.9m/s | -52.5°C | 21.1% | 165.6hPa | 4.2V | 00:00:00 | 01:25:31 | 00:00:00 | |
| DL1XH1-15 | 2026-09-01 22:19:16 | 50.76018 | 5.38476 | 101° | 64km/h | 13273m | 4.8m/s | -52.5°C | 21.1% | 165.7hPa | 4.2V | 00:00:00 | 01:25:30 | 00:00:00 | |
| DL1XH-west | 2026-09-01 22:19:08 | 50.76027 | 5.38399 | 0° | 0km/h | 13258m | 0m/s | -52.4°C | 21.3% | 166.1hPa | 4.2V | 00:00:00 | 00:00:00 | 00:00:00 | |
| BIOWL1-15 | 2026-09-01 22:19:07 | 50.76035 | 5.38326 | 106° | 62km/h | 13244m | 4m/s | -52.4°C | 21.4% | 166.4hPa | 4.2V | 00:00:00 | 00:00:00 | 00:00:00 | |
| DL1XH1-15 | 2026-09-01 22:19:06 | 50.76048 | 5.38230 | 100° | 68km/h | 13228m | 4.4m/s | -52.2°C | 21.3% | 166.8hPa | 4.2V | 00:00:00 | 01:25:20 | 00:00:00 | |
| DL1XH-west | 2026-09-01 22:18:57 | 50.76059 | 5.38121 | 0° | 0km/h | 13210m | 0m/s | -52.2°C | 21.6% | 167.3hPa | 4.2V | 00:00:00 | 00:00:00 | 00:00:00 | |
| BIOWL1-15 | 2026-09-01 22:18:56 | 50.76066 | 5.38041 | 102° | 68km/h | 13198m | 4m/s | -52.1°C | 21.7% | 167.6hPa | 4.2V | 00:00:00 | 00:00:00 | 00:00:00 | |
| DL1XH1-15 | 2026-09-01 22:18:56 | 50.76075 | 5.37966 | 103° | 64km/h | 13185m | 4.4m/s | -52.1°C | 21.6% | 167.9hPa | 4.2V | 00:00:00 | 01:25:10 | 00:00:00 | |
| DM0DOS-11 | 2026-09-01 22:18:47 | 50.76108 | 5.37740 | 98° | 64km/h | 13145m | 4.2m/s | -52.2°C | 22% | 169hPa | 4.2V | 00:00:00 | 01:25:01 | 00:00:00 | |
| DL1XH-west | 2026-09-01 22:18:46 | 50.76096 | 5.37846 | 0° | 0km/h | 13163m | 0m/s | -52.2°C | 21.9% | 168.5hPa | 4.2V | 00:00:00 | 00:00:00 | 00:00:00 | |
| BIOWL1-15 | 2026-09-01 22:18:43 | 50.76106 | 5.37766 | 98° | 66km/h | 13150m | 5m/s | -52.2°C | 22% | 168.8hPa | 4.2V | 00:00:00 | 00:00:00 | 00:00:00 | |
| DM0DOS-11 | 2026-09-01 22:18:37 | 50.76133 | 5.37484 | 98° | 68km/h | 13102m | 4.2m/s | -52.5°C | 22.2% | 170.1hPa | 4.2V | 00:00:00 | 01:24:51 | 00:00:00 | |
| DL1XH-west | 2026-09-01 22:18:36 | 50.76123 | 5.37586 | 0° | 0km/h | 13120m | 0m/s | -52.2°C | 22.2% | 169.6hPa | 4.2V | 00:00:00 | 00:00:00 | 00:00:00 | |
| DL1XH1-15 | 2026-09-01 22:18:36 | 50.76135 | 5.37460 | 99° | 69km/h | 13099m | 4.5m/s | -52.5°C | 22.2% | 170.2hPa | 4.2V | 00:00:00 | 01:24:50 | 00:00:00 | |
| BIOWL1-15 | 2026-09-01 22:18:32 | 50.76133 | 5.37484 | 99° | 60km/h | 13102m | 3m/s | -52.5°C | 22.3% | 170.1hPa | 4.2V | 00:00:00 | 00:00:00 | 00:00:00 | |
| DM0DOS-11 | 2026-09-01 22:18:27 | 50.76159 | 5.37210 | 94° | 68km/h | 13059m | 4.5m/s | -52.5°C | 22.6% | 171.2hPa | 4.2V | 00:00:00 | 01:24:41 | 00:00:00 | |
| DL1XH1-15 | 2026-09-01 22:18:26 | 50.76160 | 5.37185 | 93° | 69km/h | 13054m | 4.3m/s | -52.5°C | 22.6% | 171.3hPa | 4.2V | 00:00:00 | 01:24:40 | 00:00:00 | |
| DL1XH-west | 2026-09-01 22:18:25 | 50.76155 | 5.37293 | 0° | 0km/h | 13072m | 0m/s | -52.6°C | 22.5% | 170.9hPa | 4.2V | 00:00:00 | 00:00:00 | 00:00:00 | |
| BIOWL1-15 | 2026-09-01 22:18:22 | 50.76159 | 5.37210 | 94° | 64km/h | 13059m | 5m/s | -52.5°C | 22.6% | 171.2hPa | 4.2V | 00:00:00 | 00:00:00 | 00:00:00 | |
| DM0DOS-11 | 2026-09-01 22:18:17 | 50.76180 | 5.36938 | 96° | 68km/h | 13015m | 4.6m/s | -52.3°C | 22.7% | 172.4hPa | 4.2V | 00:00:00 | 01:24:31 | 00:00:00 | |
| DL1XH1-15 | 2026-09-01 22:18:15 | 50.76183 | 5.36887 | 98° | 71km/h | 13005m | 4.4m/s | -52.3°C | 22.8% | 172.6hPa | 4.2V | 00:00:00 | 01:24:29 | 00:00:00 | |
| DL1XH-west | 2026-09-01 22:18:14 | 50.76175 | 5.36990 | 0° | 0km/h | 13024m | 0m/s | -52.3°C | 22.8% | 172.2hPa | 4.2V | 00:00:00 | 00:00:00 | 00:00:00 | |
| BIOWL1-15 | 2026-09-01 22:18:11 | 50.76182 | 5.36913 | 95° | 66km/h | 13011m | 6m/s | -52.3°C | 22.9% | 172.5hPa | 4.2V | 00:00:00 | 00:00:00 | 00:00:00 | |
| DM0DOS-11 | 2026-09-01 22:18:07 | 50.76206 | 5.36664 | 104° | 71km/h | 12970m | 4.7m/s | -52.5°C | 23.1% | 173.6hPa | 4.2V | 00:00:00 | 01:24:21 | 00:00:00 | |
| DL1XH1-15 | 2026-09-01 22:18:05 | 50.76214 | 5.36610 | 103° | 75km/h | 12960m | 4.4m/s | -52.6°C | 23.1% | 173.9hPa | 4.2V | 00:00:00 | 01:24:19 | 00:00:00 | |
| BIOWL1-15 | 2026-09-01 22:18:03 | 50.76210 | 5.36638 | 104° | 69km/h | 12965m | 5m/s | -52.6°C | 23.2% | 173.8hPa | 4.2V | 00:00:00 | 00:00:00 | 00:00:00 | |
| DL1XH-west | 2026-09-01 22:18:02 | 50.76206 | 5.36664 | 0° | 0km/h | 12970m | 0m/s | -52.5°C | 23.2% | 173.6hPa | 4.2V | 00:00:00 | 00:00:00 | 00:00:00 | |
| DM0DOS-11 | 2026-09-01 22:17:57 | 50.76242 | 5.36372 | 102° | 77km/h | 12925m | 4.6m/s | -53.2°C | 23.3% | 174.8hPa | 4.2V | 00:00:00 | 01:24:11 | 00:00:00 | |
| DL1XH1-15 | 2026-09-01 22:17:55 | 50.76251 | 5.36313 | 101° | 75km/h | 12916m | 3.9m/s | -53.2°C | 23.5% | 175.1hPa | 4.2V | 00:00:00 | 01:24:09 | 00:00:00 | |
| BIOWL1-15 | 2026-09-01 22:17:51 | 50.76247 | 5.36343 | 103° | 77km/h | 12920m | 4m/s | -53.2°C | 23.4% | 174.9hPa | 4.2V | 00:00:00 | 00:00:00 | 00:00:00 | |
| DM0DOS-11 | 2026-09-01 22:17:47 | 50.76273 | 5.36068 | 99° | 77km/h | 12879m | 4.5m/s | -53.2°C | 23.6% | 176.1hPa | 4.2V | 00:00:00 | 01:24:01 | 00:00:00 | |
| DB0UT-7 | 2026-09-01 22:17:45 | 50.76264 | 5.36160 | 98° | 77km/h | 12892m | 4.4m/s | -53.1°C | 23.6% | 175.7hPa | 4.2V | 00:00:00 | 01:24:04 | 00:00:00 | |
| DL1XH1-15 | 2026-09-01 22:17:42 | 50.76286 | 5.35917 | 3° | 62km/h | 12856m | 0m/s | -53.3°C | 23.7% | 176.7hPa | 4.2V | 00:00:00 | 01:23:56 | 00:00:00 | |
| BIOWL1-15 | 2026-09-01 22:17:40 | 50.76279 | 5.36007 | 98° | 77km/h | 12870m | 4m/s | -53.2°C | 23.8% | 176.3hPa | 4.2V | 00:00:00 | 00:00:00 | 00:00:00 | |
| DM0DOS-11 | 2026-09-01 22:17:37 | 50.76297 | 5.35762 | 97° | 78km/h | 12832m | 4.7m/s | -53.4°C | 24% | 177.3hPa | 4.2V | 00:00:00 | 01:23:51 | 00:00:00 | |
| BIOWL1-15 | 2026-09-01 22:17:31 | 50.76304 | 5.35667 | 94° | 73km/h | 12817m | 4m/s | -53.3°C | 24.1% | 177.8hPa | 4.2V | 00:00:00 | 00:00:00 | 00:00:00 | |
| DM0DOS-11 | 2026-09-01 22:17:27 | 50.76314 | 5.35456 | 94° | 77km/h | 12785m | 4.7m/s | -53.3°C | 24.1% | 178.6hPa | 4.2V | 00:00:00 | 01:23:41 | 00:00:00 | |
| BIOWL1-15 | 2026-09-01 22:17:18 | 50.76321 | 5.35335 | 96° | 78km/h | 12766m | 5m/s | -53.2°C | 24.4% | 179.1hPa | 4.2V | 00:00:00 | 00:00:00 | 00:00:00 | |
| BIOWL1-15 | 2026-09-01 22:17:09 | 50.76345 | 5.34993 | 96° | 77km/h | 12714m | 5m/s | -53.3°C | 24.8% | 180.6hPa | 4.2V | 00:00:00 | 00:00:00 | 00:00:00 | |
| BIOWL1-15 | 2026-09-01 22:16:56 | 50.76367 | 5.34658 | 95° | 77km/h | 12662m | 6m/s | -53.1°C | 25.1% | 182.1hPa | 4.2V | 00:00:00 | 00:00:00 | 00:00:00 | |
| BIOWL1-15 | 2026-09-01 22:16:48 | 50.76381 | 5.34366 | 93° | 75km/h | 12614m | 4m/s | -53°C | 25.4% | 183.4hPa | 4.2V | 00:00:00 | 00:00:00 | 00:00:00 | |
| DM0DOS-11 | 2026-09-01 22:16:47 | 50.76386 | 5.34250 | 93° | 69km/h | 12597m | 4.8m/s | -52.9°C | 25.5% | 183.9hPa | 4.2V | 00:00:00 | 01:23:01 | 00:00:00 | |
| DB0UT-7 | 2026-09-01 22:16:45 | 50.76382 | 5.34335 | 94° | 64km/h | 12610m | 4.4m/s | -52.9°C | 25.5% | 183.5hPa | 4.2V | 00:00:00 | 01:23:04 | 00:00:00 | |
| DM0DOS-11 | 2026-09-01 22:16:37 | 50.76393 | 5.33972 | 92° | 66km/h | 12550m | 4.6m/s | -52.9°C | 26% | 185.2hPa | 4.2V | 00:00:00 | 01:22:51 | 00:00:00 | |
| BIOWL1-15 | 2026-09-01 22:16:36 | 50.76391 | 5.34083 | 92° | 71km/h | 12568m | 4m/s | -52.9°C | 25.8% | 184.7hPa | 4.2V | 00:00:00 | 00:00:00 | 00:00:00 | |
| DM0DOS-11 | 2026-09-01 22:16:27 | 50.76400 | 5.33718 | 98° | 62km/h | 12504m | 4.9m/s | -52.5°C | 26.2% | 186.5hPa | 4.2V | 00:00:00 | 01:22:41 | 00:00:00 | |
| BIOWL1-15 | 2026-09-01 22:16:25 | 50.76400 | 5.33793 | 89° | 62km/h | 12518m | 5m/s | -52.6°C | 26.2% | 186.1hPa | 4.2V | 00:00:00 | 00:00:00 | 00:00:00 | |
| BIOWL1-15 | 2026-09-01 22:16:17 | 50.76414 | 5.33548 | 92° | 57km/h | 12469m | 5m/s | -52.3°C | 26.6% | 187.5hPa | 4.2V | 00:00:00 | 00:00:00 | 00:00:00 | |
| DM0DOS-11 | 2026-09-01 22:16:17 | 50.76417 | 5.33478 | 96° | 62km/h | 12455m | 4.7m/s | -52.2°C | 26.6% | 187.9hPa | 4.2V | 00:00:00 | 01:22:31 | 00:00:00 | |
| DB0UT-7 | 2026-09-01 22:16:15 | 50.76414 | 5.33548 | 92° | 62km/h | 12469m | 4.7m/s | -52.2°C | 26.5% | 187.5hPa | 4.2V | 00:00:00 | 00:00:00 | 00:00:00 | |
| DM0DOS-11 | 2026-09-01 22:16:07 | 50.76446 | 5.33238 | 98° | 58km/h | 12406m | 4.3m/s | -51.9°C | 27% | 189.3hPa | 4.2V | 00:00:00 | 01:22:21 | 00:00:00 | |
| BIOWL1-15 | 2026-09-01 22:16:05 | 50.76440 | 5.33279 | 103° | 55km/h | 12416m | 5m/s | -51.9°C | 27% | 189.1hPa | 4.2V | 00:00:00 | 00:00:00 | 00:00:00 | |
| DM0DOS-11 | 2026-09-01 22:15:57 | 50.76478 | 5.32999 | 101° | 66km/h | 12362m | 4.7m/s | -52.1°C | 27.5% | 190.6hPa | 4.2V | 00:00:00 | 01:22:11 | 00:00:00 | |
| BIOWL1-15 | 2026-09-01 22:15:53 | 50.76475 | 5.33022 | 102° | 60km/h | 12367m | 5m/s | -52°C | 27.5% | 190.5hPa | 4.2V | 00:00:00 | 00:00:00 | 00:00:00 | |
| DM0DOS-11 | 2026-09-01 22:15:47 | 50.76519 | 5.32739 | 100° | 69km/h | 12318m | 4.2m/s | -52.6°C | 27.7% | 191.9hPa | 4.2V | 00:00:00 | 01:22:01 | 00:00:00 | |
| BIOWL1-15 | 2026-09-01 22:15:42 | 50.76519 | 5.32739 | 100° | 68km/h | 12318m | 4m/s | -52.6°C | 27.8% | 191.9hPa | 4.2V | 00:00:00 | 00:00:00 | 00:00:00 | |
| DM0DOS-11 | 2026-09-01 22:15:37 | 50.76569 | 5.32478 | 101° | 73km/h | 12276m | 4.5m/s | -52.8°C | 28.2% | 193.2hPa | 4.3V | 00:00:00 | 01:21:51 | 00:00:00 | |
| BIOWL1-15 | 2026-09-01 22:15:33 | 50.76572 | 5.32451 | 102° | 71km/h | 12271m | 4m/s | -52.8°C | 28.3% | 193.3hPa | 4.3V | 00:00:00 | 00:00:00 | 00:00:00 | |
| DM0DOS-11 | 2026-09-01 22:15:27 | 50.76614 | 5.32189 | 98° | 80km/h | 12230m | 4.6m/s | -53°C | 28.6% | 194.5hPa | 4.3V | 00:00:00 | 01:21:41 | 00:00:00 | |
| BIOWL1-15 | 2026-09-01 22:15:21 | 50.76617 | 5.32158 | 100° | 80km/h | 12225m | 4m/s | -53.2°C | 28.7% | 194.7hPa | 4.3V | 00:00:00 | 00:00:00 | 00:00:00 | |
| DM0DOS-11 | 2026-09-01 22:15:17 | 50.76659 | 5.31871 | 101° | 80km/h | 12186m | 4.2m/s | -53.8°C | 29% | 195.9hPa | 4.3V | 00:00:00 | 01:21:31 | 00:00:00 | |
| BIOWL1-15 | 2026-09-01 22:15:12 | 50.76667 | 5.31805 | 101° | 78km/h | 12178m | 4m/s | -53.9°C | 29.1% | 196.1hPa | 4.3V | 00:00:00 | 00:00:00 | 00:00:00 | |
| DM0DOS-11 | 2026-09-01 22:15:07 | 50.76693 | 5.31556 | 99° | 75km/h | 12143m | 4.2m/s | -54.9°C | 29.3% | 197.2hPa | 4.3V | 00:00:00 | 01:21:21 | 00:00:00 | |
| BIOWL1-15 | 2026-09-01 22:14:59 | 50.76701 | 5.31465 | 97° | 75km/h | 12131m | 5m/s | -55°C | 29.5% | 197.5hPa | 4.3V | 00:00:00 | 00:00:00 | 00:00:00 | |
| DM0DOS-11 | 2026-09-01 22:14:57 | 50.76718 | 5.31261 | 99° | 69km/h | 12100m | 4.6m/s | -55.1°C | 29.6% | 198.5hPa | 4.3V | 00:00:00 | 01:21:11 | 00:00:00 | |
| BIOWL1-15 | 2026-09-01 22:14:51 | 50.76728 | 5.31179 | 102° | 71km/h | 12086m | 5m/s | -55°C | 29.9% | 198.9hPa | 4.3V | 00:00:00 | 00:00:00 | 00:00:00 | |
| BIOWL1-15 | 2026-09-01 22:14:44 | 50.76768 | 5.30891 | 104° | 68km/h | 12038m | 4.5m/s | -55°C | 30.3% | 200.4hPa | 4.3V | 00:00:00 | 00:00:00 | 00:00:00 | |
| BIOWL1-15 | 2026-09-01 22:14:30 | 50.76820 | 5.30591 | 105° | 60km/h | 11985m | 4m/s | -55.2°C | 30.6% | 202hPa | 4.3V | 00:00:00 | 00:00:00 | 00:00:00 | |
| DM0DOS-11 | 2026-09-01 22:14:27 | 50.76837 | 5.30497 | 112° | 68km/h | 11968m | 4.5m/s | -55.5°C | 30.6% | 202.6hPa | 4.3V | 00:00:00 | 01:20:41 | 00:00:00 | |
| BIOWL1-15 | 2026-09-01 22:14:16 | 50.76873 | 5.30343 | 103° | 69km/h | 11941m | 5m/s | -56°C | 30.9% | 203.4hPa | 4.3V | 00:00:00 | 00:00:00 | 00:00:00 | |
| DM0DOS-11 | 2026-09-01 22:14:16 | 50.76896 | 5.30222 | 113° | 68km/h | 11918m | 4.4m/s | -56.4°C | 31% | 204.2hPa | 4.3V | 00:00:00 | 01:20:30 | 00:00:00 | |
| BIOWL1-15 | 2026-09-01 22:14:07 | 50.76928 | 5.30067 | 100° | 71km/h | 11891m | 5m/s | -56.4°C | 31.2% | 205hPa | 4.3V | 00:00:00 | 00:00:00 | 00:00:00 | |
| DM0DOS-11 | 2026-09-01 22:14:06 | 50.76945 | 5.29960 | 109° | 71km/h | 11875m | 4.5m/s | -56.6°C | 31.3% | 205.5hPa | 4.3V | 00:00:00 | 01:20:20 | 00:00:00 | |
| DM0DOS-11 | 2026-09-01 22:13:56 | 50.76994 | 5.29685 | 98° | 77km/h | 11828m | 4.1m/s | -57.3°C | 31.5% | 207.1hPa | 4.3V | 00:00:00 | 01:20:10 | 00:00:00 | |
| BIOWL1-15 | 2026-09-01 22:13:54 | 50.76984 | 5.29777 | 100° | 75km/h | 11843m | 5m/s | -57.2°C | 31.5% | 206.6hPa | 4.3V | 00:00:00 | 00:00:00 | 00:00:00 | |
| BIOWL1-15 | 2026-09-01 22:13:46 | 50.77024 | 5.29480 | 104° | 75km/h | 11800m | 4m/s | -57.6°C | 31.8% | 208hPa | 4.3V | 00:00:00 | 00:00:00 | 00:00:00 | |
| DM0DOS-11 | 2026-09-01 22:13:46 | 50.77038 | 5.29389 | 101° | 77km/h | 11787m | 4.2m/s | -57.8°C | 31.8% | 208.4hPa | 4.3V | 00:00:00 | 01:20:00 | 00:00:00 | |
| DB0UT-7 | 2026-09-01 22:13:45 | 50.77020 | 5.29508 | 104° | 80km/h | 11804m | 4.1m/s | -57.5°C | 31.7% | 207.8hPa | 4.3V | 00:00:00 | 01:20:04 | 00:00:00 | |
| DM0DOS-11 | 2026-09-01 22:13:36 | 50.77070 | 5.29089 | 99° | 82km/h | 11745m | 4.8m/s | -58.6°C | 32% | 209.9hPa | 4.3V | 00:00:00 | 01:19:50 | 00:00:00 | |
| BIOWL1-15 | 2026-09-01 22:13:34 | 50.77060 | 5.29183 | 98° | 75km/h | 11759m | 5m/s | -58.6°C | 32% | 209.4hPa | 4.3V | 00:00:00 | 00:00:00 | 00:00:00 | |
| DM0DOS-11 | 2026-09-01 22:13:26 | 50.77112 | 5.28769 | 102° | 80km/h | 11699m | 4.5m/s | -59°C | 32.2% | 211.4hPa | 4.3V | 00:00:00 | 01:19:40 | 00:00:00 | |
| BIOWL1-15 | 2026-09-01 22:13:23 | 50.77102 | 5.28830 | 105° | 80km/h | 11707m | 4m/s | -58.9°C | 32.1% | 211.2hPa | 4.3V | 00:00:00 | 00:00:00 | 00:00:00 | |
| DM0DOS-11 | 2026-09-01 22:13:16 | 50.77168 | 5.28455 | 105° | 82km/h | 11654m | 4.3m/s | -59.1°C | 32.2% | 212.9hPa | 4.3V | 00:00:00 | 01:19:30 | 00:00:00 | |
| BIOWL1-15 | 2026-09-01 22:13:14 | 50.77162 | 5.28486 | 106° | 80km/h | 11659m | 5m/s | -59.1°C | 32.3% | 212.8hPa | 4.3V | 00:00:00 | 00:00:00 | 00:00:00 | |
| DM0DOS-11 | 2026-09-01 22:13:06 | 50.77229 | 5.28148 | 102° | 84km/h | 11609m | 4.3m/s | -59.4°C | 32.3% | 214.4hPa | 4.3V | 00:00:00 | 01:19:20 | 00:00:00 | |
| BIOWL1-15 | 2026-09-01 22:13:02 | 50.77224 | 5.28178 | 105° | 77km/h | 11614m | 5m/s | -59.4°C | 32.5% | 214.3hPa | 4.3V | 00:00:00 | 00:00:00 | 00:00:00 | |
| DM0DOS-11 | 2026-09-01 22:12:56 | 50.77291 | 5.27829 | 107° | 84km/h | 11565m | 4.8m/s | -59.4°C | 32.5% | 215.9hPa | 4.3V | 00:00:00 | 01:19:10 | 00:00:00 | |
| BIOWL1-15 | 2026-09-01 22:12:50 | 50.77297 | 5.27797 | 106° | 84km/h | 11559m | 4m/s | -59.5°C | 32.6% | 216.1hPa | 4.3V | 00:00:00 | 00:00:00 | 00:00:00 | |
| DM0DOS-11 | 2026-09-01 22:12:46 | 50.77345 | 5.27495 | 103° | 88km/h | 11519m | 4.6m/s | -59.8°C | 32.5% | 217.5hPa | 4.3V | 00:00:00 | 01:19:00 | 00:00:00 | |
| BIOWL1-15 | 2026-09-01 22:12:42 | 50.77351 | 5.27461 | 103° | 86km/h | 11515m | 5m/s | -59.9°C | 32.6% | 217.7hPa | 4.3V | 00:00:00 | 00:00:00 | 00:00:00 | |
| DM0DOS-11 | 2026-09-01 22:12:36 | 50.77389 | 5.27150 | 98° | 88km/h | 11473m | 4.6m/s | -59.9°C | 32.5% | 219.1hPa | 4.3V | 00:00:00 | 01:18:50 | 00:00:00 | |
| BIOWL1-15 | 2026-09-01 22:12:29 | 50.77395 | 5.27082 | 98° | 86km/h | 11464m | 5m/s | -59.9°C | 32.6% | 219.4hPa | 4.3V | 00:00:00 | 00:00:00 | 00:00:00 | |
| DM0DOS-11 | 2026-09-01 22:12:26 | 50.77419 | 5.26801 | 95° | 88km/h | 11428m | 4.6m/s | -59.9°C | 32.5% | 220.6hPa | 4.3V | 00:00:00 | 01:18:40 | 00:00:00 | |
| BIOWL1-15 | 2026-09-01 22:12:18 | 50.77425 | 5.26697 | 97° | 91km/h | 11414m | 5m/s | -60°C | 32.6% | 221.2hPa | 4.3V | 00:00:00 | 00:00:00 | 00:00:00 | |
| DM0DOS-11 | 2026-09-01 22:12:16 | 50.77447 | 5.26453 | 93° | 88km/h | 11383m | 4.4m/s | -60°C | 32.5% | 222.2hPa | 4.3V | 00:00:00 | 01:18:30 | 00:00:00 | |
| BIOWL1-15 | 2026-09-01 22:12:08 | 50.77449 | 5.26350 | 93° | 91km/h | 11370m | 4m/s | -60.1°C | 32.4% | 222.7hPa | 4.3V | 00:00:00 | 00:00:00 | 00:00:00 | |
| DM0DOS-11 | 2026-09-01 22:12:06 | 50.77457 | 5.26095 | 90° | 89km/h | 11338m | 4.5m/s | -60°C | 32.3% | 223.8hPa | 4.3V | 00:00:00 | 01:18:20 | 00:00:00 | |
| BIOWL1-15 | 2026-09-01 22:11:57 | 50.77460 | 5.25953 | 94° | 89km/h | 11320m | 5m/s | -59.8°C | 32.5% | 224.5hPa | 4.4V | 00:00:00 | 00:00:00 | 00:00:00 | |
| BIOWL1-15 | 2026-09-01 22:11:46 | 50.77482 | 5.25557 | 99° | 91km/h | 11272m | 6m/s | -59.4°C | 32.4% | 226.2hPa | 4.4V | 00:00:00 | 00:00:00 | 00:00:00 | |
| BIOWL1-15 | 2026-09-01 22:11:35 | 50.77513 | 5.25176 | 97° | 86km/h | 11217m | 5m/s | -59°C | 32.4% | 228.2hPa | 4.4V | 00:00:00 | 00:00:00 | 00:00:00 | |
| DM0DOS-11 | 2026-09-01 22:11:26 | 50.77538 | 5.24719 | 93° | 78km/h | 11148m | 5.1m/s | -58.4°C | 32.2% | 230.7hPa | 4.4V | 00:00:00 | 01:17:40 | 00:00:00 | |
| BIOWL1-15 | 2026-09-01 22:11:25 | 50.77531 | 5.24849 | 99° | 84km/h | 11166m | 4m/s | -58.6°C | 32.3% | 230.1hPa | 4.4V | 00:00:00 | 00:00:00 | 00:00:00 | |
| BIOWL1-15 | 2026-09-01 22:11:17 | 50.77549 | 5.24528 | 97° | 82km/h | 11116m | 6m/s | -58.2°C | 32.3% | 231.9hPa | 4.4V | 00:00:00 | 00:00:00 | 00:00:00 | |
| DM0DOS-11 | 2026-09-01 22:11:16 | 50.77565 | 5.24401 | 105° | 80km/h | 11096m | 4.7m/s | -58°C | 32.2% | 232.7hPa | 4.4V | 00:00:00 | 01:17:30 | 00:00:00 | |
| DB0UT-7 | 2026-09-01 22:11:15 | 50.77549 | 5.24527 | 98° | 82km/h | 11116m | 5.0m/s | -58.1°C | 32.2% | 231.9hPa | 4.4V | 00:00:00 | 00:00:00 | 00:00:00 | |
| DM0DOS-11 | 2026-09-01 22:11:06 | 50.77600 | 5.24074 | 98° | 82km/h | 11051m | 5m/s | -57.6°C | 32.2% | 234.4hPa | 4.4V | 00:00:00 | 01:17:20 | 00:00:00 | |
| BIOWL1-15 | 2026-09-01 22:11:04 | 50.77586 | 5.24174 | 104° | 89km/h | 11064m | 4m/s | -57.7°C | 32.2% | 233.9hPa | 4.4V | 00:00:00 | 00:00:00 | 00:00:00 | |
| DM0DOS-11 | 2026-09-01 22:10:56 | 50.77644 | 5.23753 | 100° | 82km/h | 11002m | 4.6m/s | -57.1°C | 32% | 236.2hPa | 4.4V | 00:00:00 | 01:17:10 | 00:00:00 | |
| BIOWL1-15 | 2026-09-01 22:10:53 | 50.77633 | 5.23818 | 104° | 82km/h | 11012m | 5m/s | -57.2°C | 32.1% | 235.8hPa | 4.4V | 00:00:00 | 00:00:00 | 00:00:00 | |
| DM0DOS-11 | 2026-09-01 22:10:46 | 50.77681 | 5.23428 | 103° | 84km/h | 10955m | 4.8m/s | -56.7°C | 32% | 237.9hPa | 4.4V | 00:00:00 | 01:17:00 | 00:00:00 | |
| BIOWL1-15 | 2026-09-01 22:10:43 | 50.77672 | 5.23493 | 101° | 84km/h | 10965m | 4m/s | -56.8°C | 32.1% | 237.6hPa | 4.4V | 00:00:00 | 00:00:00 | 00:00:00 | |
| DM0DOS-11 | 2026-09-01 22:10:36 | 50.77726 | 5.23091 | 105° | 86km/h | 10907m | 5.1m/s | -56.3°C | 32% | 239.7hPa | 4.4V | 00:00:00 | 01:16:50 | 00:00:00 | |
| BIOWL1-15 | 2026-09-01 22:10:32 | 50.77721 | 5.23126 | 102° | 89km/h | 10912m | 5m/s | -56.4°C | 32% | 239.6hPa | 4.4V | 00:00:00 | 00:00:00 | 00:00:00 | |
| DM0DOS-11 | 2026-09-01 22:10:26 | 50.77774 | 5.22748 | 103° | 88km/h | 10857m | 5.1m/s | -55.9°C | 32% | 241.6hPa | 4.4V | 00:00:00 | 01:16:40 | 00:00:00 | |
| BIOWL1-15 | 2026-09-01 22:10:21 | 50.77774 | 5.22748 | 104° | 89km/h | 10857m | 6m/s | -55.9°C | 32% | 241.6hPa | 4.4V | 00:00:00 | 00:00:00 | 00:00:00 | |
| DM0DOS-11 | 2026-09-01 22:10:16 | 50.77827 | 5.22407 | 104° | 86km/h | 10808m | 4.8m/s | -55.5°C | 32% | 243.4hPa | 4.4V | 00:00:00 | 01:16:30 | 00:00:00 | |
| BIOWL1-15 | 2026-09-01 22:10:13 | 50.77833 | 5.22374 | 104° | 86km/h | 10803m | 4m/s | -55.5°C | 32.1% | 243.6hPa | 4.4V | 00:00:00 | 00:00:00 | 00:00:00 | |
| DM0DOS-11 | 2026-09-01 22:10:06 | 50.77884 | 5.22066 | 101° | 88km/h | 10761m | 4.6m/s | -55.1°C | 32% | 245.1hPa | 4.4V | 00:00:00 | 01:16:20 | 00:00:00 | |
| BIOWL1-15 | 2026-09-01 22:10:02 | 50.77888 | 5.22031 | 104° | 91km/h | 10757m | 6m/s | -55.1°C | 32.1% | 245.3hPa | 4.4V | 00:00:00 | 00:00:00 | 00:00:00 | |
| DM0DOS-11 | 2026-09-01 22:09:56 | 50.77937 | 5.21733 | 101° | 88km/h | 10716m | 4.8m/s | -54.9°C | 32% | 246.9hPa | 4.4V | 00:00:00 | 01:16:10 | 00:00:00 | |
| BIOWL1-15 | 2026-09-01 22:09:51 | 50.77947 | 5.21663 | 109° | 95km/h | 10706m | 3m/s | -54.8°C | 32% | 247.2hPa | 4.4V | 00:00:00 | 00:00:00 | 00:00:00 | |
| DM0DOS-11 | 2026-09-01 22:09:46 | 50.77996 | 5.21416 | 105° | 80km/h | 10665m | 5.3m/s | -54.4°C | 32% | 248.8hPa | 4.4V | 00:00:00 | 01:16:00 | 00:00:00 | |
| BIOWL1-15 | 2026-09-01 22:09:38 | 50.78011 | 5.21320 | 102° | 80km/h | 10648m | 4m/s | -54.3°C | 32% | 249.4hPa | 4.4V | 00:00:00 | 00:00:00 | 00:00:00 | |
| DM0DOS-11 | 2026-09-01 22:09:36 | 50.78052 | 5.21106 | 105° | 77km/h | 10612m | 5m/s | -54°C | 31.8% | 250.8hPa | 4.4V | 00:00:00 | 01:15:50 | 00:00:00 | |
| BIOWL1-15 | 2026-09-01 22:09:32 | 50.78068 | 5.21016 | 104° | 80km/h | 10596m | 4m/s | -53.9°C | 31.9% | 251.4hPa | 4.4V | 00:00:00 | 00:00:00 | 00:00:00 | |
| DM0DOS-11 | 2026-09-01 22:09:26 | 50.78104 | 5.20810 | 109° | 78km/h | 10566m | 5.4m/s | -53.6°C | 31.7% | 252.6hPa | 4.4V | 00:00:00 | 01:15:40 | 00:00:00 | |
| BIOWL1-15 | 2026-09-01 22:09:17 | 50.78130 | 5.20687 | 100° | 82km/h | 10545m | 6m/s | -53.3°C | 31.8% | 253.5hPa | 4.4V | 00:00:00 | 00:00:00 | 00:00:00 | |
| DM0DOS-11 | 2026-09-01 22:09:16 | 50.78154 | 5.20519 | 101° | 75km/h | 10510m | 5.3m/s | -53°C | 31.6% | 254.9hPa | 4.4V | 00:00:00 | 01:15:30 | 00:00:00 | |
| BIOWL1-15 | 2026-09-01 22:09:09 | 50.78168 | 5.20392 | 99° | 84km/h | 10493m | 4m/s | -52.9°C | 31.7% | 255.7hPa | 4.4V | 00:00:00 | 00:00:00 | 00:00:00 | |
| BIOWL1-15 | 2026-09-01 22:09:01 | 50.78208 | 5.20103 | 108° | 95km/h | 10440m | 5m/s | -52.3°C | 31.6% | 257.7hPa | 4.4V | 00:00:00 | 00:00:00 | 00:00:00 | |
| DM0DOS-11 | 2026-09-01 22:09:01 | 50.78216 | 5.20066 | 109° | 84km/h | 10435m | 5.4m/s | -52.3°C | 31.5% | 257.9hPa | 4.4V | 00:00:00 | 01:15:15 | 00:00:00 | |
| DM0DOS-11 | 2026-09-01 22:08:51 | 50.78260 | 5.19780 | 90° | 86km/h | 10377m | 6m/s | -51.7°C | 31.5% | 260.2hPa | 4.4V | 00:00:00 | 01:15:05 | 00:00:00 | |
| BIOWL1-15 | 2026-09-01 22:08:46 | 50.78260 | 5.19780 | 91° | 89km/h | 10377m | 7m/s | -51.7°C | 31.6% | 260.2hPa | 4.4V | 00:00:00 | 00:00:00 | 00:00:00 | |
| DB0UT-7 | 2026-09-01 22:08:45 | 50.78261 | 5.19744 | 91° | 73km/h | 10370m | 5.7m/s | -51.6°C | 31.5% | 260.4hPa | 4.4V | 00:00:00 | 01:15:04 | 00:00:00 | |
| DM0DOS-11 | 2026-09-01 22:08:41 | 50.78311 | 5.19487 | 98° | 77km/h | 10312m | 7.3m/s | -51°C | 31.5% | 262.9hPa | 4.4V | 00:00:00 | 01:14:55 | 00:00:00 | |
| BIOWL1-15 | 2026-09-01 22:08:38 | 50.78311 | 5.19487 | 99° | 60km/h | 10312m | 8m/s | -51°C | 31.6% | 262.9hPa | 4.4V | 00:00:00 | 00:00:00 | 00:00:00 | |
| DM0DOS-11 | 2026-09-01 22:08:31 | 50.78366 | 5.19174 | 101° | 68km/h | 10244m | 6.1m/s | -50.5°C | 31.6% | 265.7hPa | 4.4V | 00:00:00 | 01:14:45 | 00:00:00 | |
| BIOWL1-15 | 2026-09-01 22:08:26 | 50.78366 | 5.19174 | 102° | 73km/h | 10244m | 7m/s | -50.5°C | 31.7% | 265.7hPa | 4.4V | 00:00:00 | 00:00:00 | 00:00:00 | |
| DM0DOS-11 | 2026-09-01 22:08:21 | 50.78404 | 5.18917 | 107° | 68km/h | 10188m | 4.4m/s | -50.1°C | 31.8% | 268.1hPa | 4.4V | 00:00:00 | 01:14:35 | 00:00:00 | |
| BIOWL1-15 | 2026-09-01 22:08:15 | 50.78409 | 5.18892 | 109° | 69km/h | 10183m | 5m/s | -50.1°C | 31.8% | 268.3hPa | 4.4V | 00:00:00 | 00:00:00 | 00:00:00 | |
| BIOWL1-15 | 2026-09-01 22:08:07 | 50.78461 | 5.18636 | 108° | 68km/h | 10138m | 5m/s | -49.6°C | 31.8% | 270.1hPa | 4.4V | 00:00:00 | 00:00:00 | 00:00:00 | |
| DM0DOS-11 | 2026-09-01 22:08:05 | 50.78487 | 5.18507 | 108° | 66km/h | 10115m | 4.4m/s | -49.4°C | 31.7% | 271hPa | 4.4V | 00:00:00 | 01:14:19 | 00:00:00 | |
| BIOWL1-15 | 2026-09-01 22:07:57 | 50.78513 | 5.18380 | 107° | 68km/h | 10093m | 4m/s | -49.2°C | 31.8% | 272hPa | 4.4V | 00:00:00 | 00:00:00 | 00:00:00 | |
| DM0DOS-11 | 2026-09-01 22:07:55 | 50.78538 | 5.18249 | 109° | 66km/h | 10070m | 4.3m/s | -49.1°C | 31.8% | 272.9hPa | 4.4V | 00:00:00 | 01:14:09 | 00:00:00 | |
| BIOWL1-15 | 2026-09-01 22:07:45 | 50.78567 | 5.18124 | 108° | 68km/h | 10048m | 6m/s | -48.9°C | 31.9% | 273.8hPa | 4.4V | 00:00:00 | 00:00:00 | 00:00:00 | |
| BIOWL1-15 | 2026-09-01 22:07:37 | 50.78621 | 5.17877 | 105° | 64km/h | 10003m | 5m/s | -48.5°C | 32% | 275.7hPa | 4.4V | 00:00:00 | 00:00:00 | 00:00:00 | |
| DM0DOS-11 | 2026-09-01 22:07:35 | 50.78643 | 5.17755 | 106° | 64km/h | 9980m | 4.6m/s | -48.3°C | 32% | 276.5hPa | 4.4V | 00:00:00 | 01:13:49 | 00:00:00 | |
| BIOWL1-15 | 2026-09-01 22:07:26 | 50.78676 | 5.17609 | 108° | 64km/h | 9953m | 5m/s | -48°C | 32.1% | 277.7hPa | 4.4V | 00:00:00 | 00:00:00 | 00:00:00 | |
| DM0DOS-11 | 2026-09-01 22:07:25 | 50.78694 | 5.17507 | 103° | 66km/h | 9932m | 4.3m/s | -47.9°C | 32% | 278.5hPa | 4.4V | 00:00:00 | 01:13:39 | 00:00:00 | |
| BIOWL1-15 | 2026-09-01 22:07:15 | 50.78728 | 5.17332 | 104° | 69km/h | 9902m | 5m/s | -47.6°C | 32.1% | 279.8hPa | 4.4V | 00:00:00 | 00:00:00 | 00:00:00 | |
| DM0DOS-11 | 2026-09-01 22:07:15 | 50.78742 | 5.17254 | 105° | 69km/h | 9888m | 5.4m/s | -47.4°C | 32% | 280.4hPa | 4.4V | 00:00:00 | 01:13:29 | 00:00:00 | |
| BIOWL1-15 | 2026-09-01 22:07:05 | 50.78776 | 5.17065 | 105° | 69km/h | 9852m | 5m/s | -47.1°C | 32.1% | 281.9hPa | 4.4V | 00:00:00 | 00:00:00 | 00:00:00 | |
| DM0DOS-11 | 2026-09-01 22:07:05 | 50.78791 | 5.16985 | 107° | 68km/h | 9837m | 4.4m/s | -47°C | 32% | 282.5hPa | 4.4V | 00:00:00 | 01:13:19 | 00:00:00 | |
| DM0DOS-11 | 2026-09-01 22:06:55 | 50.78844 | 5.16723 | 106° | 69km/h | 9793m | 4.7m/s | -46.5°C | 32.2% | 284.4hPa | 4.4V | 00:00:00 | 01:13:09 | 00:00:00 | |
| BIOWL1-15 | 2026-09-01 22:06:53 | 50.78827 | 5.16802 | 110° | 71km/h | 9806m | 4m/s | -46.7°C | 32.2% | 283.8hPa | 4.4V | 00:00:00 | 00:00:00 | 00:00:00 | |
| DM0DOS-11 | 2026-09-01 22:06:45 | 50.78897 | 5.16457 | 103° | 69km/h | 9747m | 4.4m/s | -46.1°C | 32.3% | 286.3hPa | 4.5V | 00:00:00 | 01:12:59 | 00:00:00 | |
| BIOWL1-15 | 2026-09-01 22:06:42 | 50.78884 | 5.16509 | 113° | 69km/h | 9756m | 4m/s | -46.2°C | 32.3% | 285.9hPa | 4.5V | 00:00:00 | 00:00:00 | 00:00:00 | |
| DM0DOS-11 | 2026-09-01 22:06:34 | 50.78957 | 5.16163 | 108° | 68km/h | 9698m | 4.4m/s | -45.6°C | 32.5% | 288.4hPa | 4.5V | 00:00:00 | 01:12:48 | 00:00:00 | |
| BIOWL1-15 | 2026-09-01 22:06:31 | 50.78944 | 5.16216 | 110° | 73km/h | 9707m | 3m/s | -45.7°C | 32.5% | 288hPa | 4.5V | 00:00:00 | 00:00:00 | 00:00:00 | |
| DM0DOS-11 | 2026-09-01 22:06:24 | 50.79011 | 5.15894 | 108° | 71km/h | 9651m | 4.7m/s | -45.1°C | 32.7% | 290.5hPa | 4.5V | 00:00:00 | 01:12:38 | 00:00:00 | |
| BIOWL1-15 | 2026-09-01 22:06:21 | 50.79002 | 5.15950 | 103° | 75km/h | 9662m | 6m/s | -45.3°C | 32.6% | 290hPa | 4.5V | 00:00:00 | 00:00:00 | 00:00:00 | |
| DM0DOS-11 | 2026-09-01 22:06:14 | 50.79072 | 5.15627 | 108° | 71km/h | 9601m | 4.4m/s | -44.7°C | 33% | 292.6hPa | 4.5V | 00:00:00 | 01:12:28 | 00:00:00 | |
| BIOWL1-15 | 2026-09-01 22:06:10 | 50.79065 | 5.15652 | 112° | 69km/h | 9607m | 6m/s | -44.7°C | 33% | 292.4hPa | 4.5V | 00:00:00 | 00:00:00 | 00:00:00 | |
| DM0DOS-11 | 2026-09-01 22:06:04 | 50.79119 | 5.15348 | 106° | 71km/h | 9557m | 4.3m/s | -44.3°C | 33.3% | 294.6hPa | 4.5V | 00:00:00 | 01:12:18 | 00:00:00 | |
| BIOWL1-15 | 2026-09-01 22:06:00 | 50.79114 | 5.15377 | 106° | 73km/h | 9562m | 5m/s | -44.3°C | 33.4% | 294.4hPa | 4.5V | 00:00:00 | 00:00:00 | 00:00:00 | |
| DM0DOS-11 | 2026-09-01 22:05:54 | 50.79167 | 5.15078 | 106° | 73km/h | 9513m | 4.2m/s | -43.9°C | 33.7% | 296.5hPa | 4.5V | 00:00:00 | 01:12:08 | 00:00:00 | |
| BIOWL1-15 | 2026-09-01 22:05:52 | 50.79162 | 5.15105 | 107° | 69km/h | 9518m | 5m/s | -43.9°C | 33.6% | 296.4hPa | 4.5V | 00:00:00 | 00:00:00 | 00:00:00 | |
| DB0UT-7 | 2026-09-01 22:05:45 | 50.79185 | 5.14964 | 106° | 73km/h | 9496m | 4.1m/s | -43.7°C | 33.7% | 297.2hPa | 4.5V | 00:00:00 | 01:12:04 | 00:00:00 | |
| DM0DOS-11 | 2026-09-01 22:05:44 | 50.79215 | 5.14796 | 105° | 75km/h | 9471m | 4.1m/s | -43.5°C | 33.8% | 298.4hPa | 4.5V | 00:00:00 | 01:11:58 | 00:00:00 | |
| BIOWL1-15 | 2026-09-01 22:05:41 | 50.79215 | 5.14796 | 106° | 77km/h | 9471m | 3m/s | -43.5°C | 33.9% | 298.4hPa | 4.5V | 00:00:00 | 00:00:00 | 00:00:00 | |
| DM0DOS-11 | 2026-09-01 22:05:34 | 50.79263 | 5.14514 | 102° | 75km/h | 9428m | 4.5m/s | -43.1°C | 34% | 300.4hPa | 4.5V | 00:00:00 | 01:11:48 | 00:00:00 | |
| BIOWL1-15 | 2026-09-01 22:05:30 | 50.79267 | 5.14485 | 102° | 78km/h | 9423m | 4m/s | -43.1°C | 34% | 300.6hPa | 4.5V | 00:00:00 | 00:00:00 | 00:00:00 | |
| DM0DOS-11 | 2026-09-01 22:05:24 | 50.79306 | 5.14226 | 101° | 77km/h | 9383m | 4.5m/s | -42.7°C | 34% | 302.4hPa | 4.5V | 00:00:00 | 01:11:38 | 00:00:00 | |
| BIOWL1-15 | 2026-09-01 22:05:21 | 50.79314 | 5.14161 | 102° | 82km/h | 9375m | 4m/s | -42.7°C | 34.1% | 302.7hPa | 4.5V | 00:00:00 | 00:00:00 | 00:00:00 | |
| DB0UT-7 | 2026-09-01 22:05:15 | 50.79322 | 5.14100 | 104° | 66km/h | 9367m | 5.5m/s | -42.5°C | 34.0% | 303.1hPa | 4.5V | 00:00:00 | 00:00:00 | 00:00:00 | |
| DM0DOS-11 | 2026-09-01 22:05:14 | 50.79341 | 5.13939 | 100° | 69km/h | 9333m | 5.3m/s | -42.3°C | 34% | 304.6hPa | 4.5V | 00:00:00 | 01:11:28 | 00:00:00 | |
| BIOWL1-15 | 2026-09-01 22:05:09 | 50.79348 | 5.13882 | 99° | 68km/h | 9323m | 6m/s | -42.3°C | 34% | 305.1hPa | 4.5V | 00:00:00 | 00:00:00 | 00:00:00 | |
| DM0DOS-11 | 2026-09-01 22:05:04 | 50.79374 | 5.13673 | 98° | 64km/h | 9284m | 4.2m/s | -42°C | 33.5% | 306.9hPa | 4.7V | 00:00:00 | 01:11:18 | 00:00:00 | |
| BIOWL1-15 | 2026-09-01 22:04:57 | 50.79379 | 5.13621 | 98° | 62km/h | 9276m | 5m/s | -42°C | 33.4% | 307.3hPa | 4.5V | 00:00:00 | 00:00:00 | 00:00:00 | |
| DM0DOS-11 | 2026-09-01 22:04:54 | 50.79400 | 5.13421 | 96° | 64km/h | 9241m | 3.9m/s | -41.8°C | 32.7% | 308.8hPa | 4.5V | 00:00:00 | 01:11:08 | 00:00:00 | |
| BIOWL1-15 | 2026-09-01 22:04:49 | 50.79404 | 5.13370 | 99° | 66km/h | 9233m | 3m/s | -41.7°C | 32.6% | 309.1hPa | 4.5V | 00:00:00 | 00:00:00 | 00:00:00 | |
| DB0UT-7 | 2026-09-01 22:04:45 | 50.79409 | 5.13318 | 99° | 62km/h | 9225m | 4.0m/s | -41.6°C | 32.3% | 309.4hPa | 4.5V | 00:00:00 | 01:11:04 | 00:00:00 | |
| DM0DOS-11 | 2026-09-01 22:04:44 | 50.79421 | 5.13169 | 96° | 64km/h | 9200m | 4m/s | -41.4°C | 32% | 310.6hPa | 4.5V | 00:00:00 | 01:10:58 | 00:00:00 | |
| BIOWL1-15 | 2026-09-01 22:04:36 | 50.79427 | 5.13091 | 94° | 62km/h | 9188m | 4m/s | -41.4°C | 31.9% | 311.1hPa | 4.5V | 00:00:00 | 00:00:00 | 00:00:00 | |
| DM0DOS-11 | 2026-09-01 22:04:34 | 50.79441 | 5.12926 | 98° | 64km/h | 9160m | 4m/s | -41.1°C | 31.5% | 312.4hPa | 4.7V | 00:00:00 | 01:10:48 | 00:00:00 | |
| BIOWL1-15 | 2026-09-01 22:04:26 | 50.79447 | 5.12849 | 94° | 64km/h | 9149m | 4m/s | -41.1°C | 31.3% | 313hPa | 4.5V | 00:00:00 | 00:00:00 | 00:00:00 | |
| DM0DOS-11 | 2026-09-01 22:04:24 | 50.79457 | 5.12678 | 94° | 62km/h | 9119m | 4.4m/s | -40.8°C | 30.7% | 314.3hPa | 4.5V | 00:00:00 | 01:10:38 | 00:00:00 | |
| BIOWL1-15 | 2026-09-01 22:04:19 | 50.79461 | 5.12579 | 93° | 66km/h | 9102m | 5m/s | -40.7°C | 30.5% | 315.1hPa | 4.5V | 00:00:00 | 00:00:00 | 00:00:00 | |
| DB0UT-7 | 2026-09-01 22:04:15 | 50.79461 | 5.12579 | 93° | 64km/h | 9102m | 4.3m/s | -40.6°C | 30.5% | 315.1hPa | 4.5V | 00:00:00 | 00:00:00 | 00:00:00 | |
| DM0DOS-11 | 2026-09-01 22:04:14 | 50.79469 | 5.12424 | 94° | 64km/h | 9076m | 4.3m/s | -40.5°C | 29.7% | 316.2hPa | 4.5V | 00:00:00 | 01:10:28 | 00:00:00 | |
| BIOWL1-15 | 2026-09-01 22:04:08 | 50.79474 | 5.12297 | 94° | 66km/h | 9054m | 4m/s | -40.2°C | 29.2% | 317.2hPa | 4.5V | 00:00:00 | 00:00:00 | 00:00:00 | |
| BIOWL1-15 | 2026-09-01 22:03:56 | 50.79483 | 5.12037 | 94° | 66km/h | 9011m | 4m/s | -39.9°C | 28.2% | 319.2hPa | 4.5V | 00:00:00 | 00:00:00 | 00:00:00 | |
| BIOWL1-15 | 2026-09-01 22:03:45 | 50.79493 | 5.11754 | 93° | 62km/h | 8965m | 5m/s | -39.5°C | 26.9% | 321.3hPa | 4.5V | 00:00:00 | 00:00:00 | 00:00:00 | |
| DB0UT-7 | 2026-09-01 22:03:45 | 50.79492 | 5.11807 | 92° | 62km/h | 8972m | 3.9m/s | -39.5°C | 27.1% | 320.9hPa | 4.5V | 00:00:00 | 01:10:04 | 00:00:00 | |
| DM0DOS-11 | 2026-09-01 22:03:34 | 50.79505 | 5.11402 | 84° | 58km/h | 8904m | 4.3m/s | -39°C | 24.6% | 324.1hPa | 4.5V | 00:00:00 | 01:09:48 | 00:00:00 | |
| BIOWL1-15 | 2026-09-01 22:03:33 | 50.79501 | 5.11494 | 98° | 69km/h | 8924m | 5m/s | -39.2°C | 25.3% | 323.1hPa | 4.5V | 00:00:00 | 00:00:00 | 00:00:00 | |
| BIOWL1-15 | 2026-09-01 22:03:25 | 50.79507 | 5.11268 | 85° | 73km/h | 8876m | 5m/s | -38.8°C | 23.8% | 325.5hPa | 4.5V | 00:00:00 | 00:00:00 | 00:00:00 | |
| DM0DOS-11 | 2026-09-01 22:03:24 | 50.79504 | 5.11150 | 92° | 60km/h | 8858m | 4.9m/s | -38.6°C | 23.1% | 326.4hPa | 4.5V | 00:00:00 | 01:09:38 | 00:00:00 | |
| DB0UT-7 | 2026-09-01 22:03:15 | 50.79501 | 5.11058 | 84° | 58km/h | 8838m | 4.0m/s | -38.4°C | 22.6% | 327.3hPa | 4.7V | 00:00:00 | 00:00:00 | 00:00:00 | |
| DM0DOS-11 | 2026-09-01 22:03:14 | 50.79506 | 5.10902 | 93° | 62km/h | 8814m | 4.4m/s | -38.2°C | 21.6% | 328.6hPa | 4.7V | 00:00:00 | 01:09:28 | 00:00:00 | |
| BIOWL1-15 | 2026-09-01 22:03:12 | 50.79501 | 5.10989 | 96° | 69km/h | 8826m | 4m/s | -38.3°C | 22.1% | 327.9hPa | 4.5V | 00:00:00 | 00:00:00 | 00:00:00 | |
| BIOWL1-15 | 2026-09-01 22:03:04 | 50.79509 | 5.10739 | 87° | 58km/h | 8784m | 5m/s | -38.1°C | 20.4% | 330hPa | 4.5V | 00:00:00 | 00:00:00 | 00:00:00 | |
| DM0DOS-11 | 2026-09-01 22:03:04 | 50.79506 | 5.10669 | 86° | 57km/h | 8767m | 4.2m/s | -38°C | 19.8% | 330.8hPa | 4.5V | 00:00:00 | 01:09:18 | 00:00:00 | |
| DM0DOS-11 | 2026-09-01 22:02:54 | 50.79493 | 5.10440 | 82° | 57km/h | 8725m | 4.1m/s | -37.6°C | 18.1% | 332.9hPa | 4.8V | 00:00:00 | 01:09:08 | 00:00:00 | |
| BIOWL1-15 | 2026-09-01 22:02:51 | 50.79497 | 5.10483 | 81° | 57km/h | 8734m | 5m/s | -37.7°C | 18.5% | 332.4hPa | 4.7V | 00:00:00 | 00:00:00 | 00:00:00 | |
| DB0UT-7 | 2026-09-01 22:02:45 | 50.79487 | 5.10347 | 88° | 57km/h | 8708m | 4.2m/s | -37.4°C | 17.5% | 333.6hPa | 4.5V | 00:00:00 | 01:09:04 | 00:00:00 | |
| DM0DOS-11 | 2026-09-01 22:02:44 | 50.79480 | 5.10211 | 85° | 57km/h | 8683m | 3.9m/s | -37.2°C | 16.6% | 334.9hPa | 4.5V | 00:00:00 | 01:08:58 | 00:00:00 | |
| BIOWL1-15 | 2026-09-01 22:02:41 | 50.79482 | 5.10254 | 85° | 55km/h | 8691m | 4m/s | -37.3°C | 16.9% | 334.5hPa | 4.5V | 00:00:00 | 00:00:00 | 00:00:00 | |
| DM0DOS-11 | 2026-09-01 22:02:34 | 50.79471 | 5.09977 | 86° | 55km/h | 8646m | 4.1m/s | -36.9°C | 15.5% | 336.8hPa | 4.8V | 00:00:00 | 01:08:48 | 00:00:00 | |
| BIOWL1-15 | 2026-09-01 22:02:32 | 50.79471 | 5.10000 | 90° | 57km/h | 8649m | 3m/s | -36.9°C | 15.7% | 336.6hPa | 4.8V | 00:00:00 | 00:00:00 | 00:00:00 | |
| DM0DOS-11 | 2026-09-01 22:02:24 | 50.79461 | 5.09758 | 85° | 57km/h | 8605m | 4.1m/s | -36.5°C | 14.2% | 338.7hPa | 4.5V | 00:00:00 | 01:08:38 | 00:00:00 | |
| BIOWL1-15 | 2026-09-01 22:02:19 | 50.79461 | 5.09758 | 86° | 55km/h | 8605m | 4m/s | -36.5°C | 14.3% | 338.7hPa | 4.5V | 00:00:00 | 00:00:00 | 00:00:00 | |
| DB0UT-7 | 2026-09-01 22:02:15 | 50.79459 | 5.09669 | 85° | 57km/h | 8589m | 4.1m/s | -36.3°C | 13.7% | 339.5hPa | 4.5V | 00:00:00 | 00:00:00 | 00:00:00 | |
| DM0DOS-11 | 2026-09-01 22:02:14 | 50.79449 | 5.09529 | 80° | 57km/h | 8564m | 3.9m/s | -36.1°C | 13% | 340.7hPa | 4.5V | 00:00:00 | 01:08:28 | 00:00:00 | |
| BIOWL1-15 | 2026-09-01 22:02:11 | 50.79449 | 5.09529 | 81° | 57km/h | 8564m | 3m/s | -36.1°C | 13.1% | 340.7hPa | 4.5V | 00:00:00 | 00:00:00 | 00:00:00 | |
| DM0DOS-11 | 2026-09-01 22:02:04 | 50.79437 | 5.09303 | 84° | 58km/h | 8524m | 4.1m/s | -35.7°C | 11.6% | 342.7hPa | 4.6V | 00:00:00 | 01:08:18 | 00:00:00 | |
| BIOWL1-15 | 2026-09-01 22:01:58 | 50.79435 | 5.09280 | 83° | 58km/h | 8520m | 3m/s | -35.6°C | 11.6% | 342.9hPa | 4.8V | 00:00:00 | 00:00:00 | 00:00:00 | |
| DM0DOS-11 | 2026-09-01 22:01:54 | 50.79428 | 5.09072 | 87° | 57km/h | 8482m | 3.9m/s | -35.3°C | 11% | 344.6hPa | 4.5V | 00:00:00 | 01:08:08 | 00:00:00 | |
| BIOWL1-15 | 2026-09-01 22:01:48 | 50.79427 | 5.09048 | 84° | 58km/h | 8478m | 3m/s | -35.3°C | 11.1% | 344.9hPa | 4.5V | 00:00:00 | 00:00:00 | 00:00:00 | |
| DB0UT-7 | 2026-09-01 22:01:45 | 50.79424 | 5.08980 | 86° | 57km/h | 8467m | 4.1m/s | -35.2°C | 11.0% | 345.4hPa | 4.8V | 00:00:00 | 01:08:04 | 00:00:00 | |
| DM0DOS-11 | 2026-09-01 22:01:44 | 50.79416 | 5.08852 | 85° | 58km/h | 8442m | 4.3m/s | -35°C | 11% | 346.6hPa | 4.8V | 00:00:00 | 01:07:58 | 00:00:00 | |
| BIOWL1-15 | 2026-09-01 22:01:37 | 50.79414 | 5.08806 | 87° | 57km/h | 8433m | 4m/s | -34.9°C | 11% | 347hPa | 4.8V | 00:00:00 | 00:00:00 | 00:00:00 | |
| DM0DOS-11 | 2026-09-01 22:01:34 | 50.79409 | 5.08618 | 86° | 55km/h | 8400m | 4.3m/s | -34.6°C | 10.8% | 348.6hPa | 4.5V | 00:00:00 | 01:07:48 | 00:00:00 | |
| BIOWL1-15 | 2026-09-01 22:01:26 | 50.79406 | 5.08554 | 84° | 58km/h | 8387m | 4m/s | -34.5°C | 11% | 349.2hPa | 4.6V | 00:00:00 | 00:00:00 | 00:00:00 | |
| DM0DOS-11 | 2026-09-01 22:01:24 | 50.79396 | 5.08389 | 85° | 55km/h | 8356m | 4.4m/s | -34.3°C | 11% | 350.6hPa | 4.8V | 00:00:00 | 01:07:38 | 00:00:00 | |
| BIOWL1-15 | 2026-09-01 22:01:17 | 50.79392 | 5.08304 | 88° | 51km/h | 8339m | 5m/s | -34.1°C | 11% | 351.4hPa | 4.5V | 00:00:00 | 00:00:00 | 00:00:00 | |
| DB0UT-7 | 2026-09-01 22:01:15 | 50.79392 | 5.08304 | 89° | 58km/h | 8339m | 4.7m/s | -34.1°C | 11.0% | 351.4hPa | 4.5V | 00:00:00 | 00:00:00 | 00:00:00 | |
| DM0DOS-11 | 2026-09-01 22:01:14 | 50.79388 | 5.08158 | 82° | 57km/h | 8311m | 4.9m/s | -33.9°C | 10.8% | 352.7hPa | 4.6V | 00:00:00 | 01:07:28 | 00:00:00 | |
| BIOWL1-15 | 2026-09-01 22:01:06 | 50.79380 | 5.08070 | 94° | 60km/h | 8291m | 4m/s | -33.7°C | 10.9% | 353.8hPa | 4.8V | 00:00:00 | 00:00:00 | 00:00:00 | |
| DM0DOS-11 | 2026-09-01 22:01:04 | 50.79384 | 5.07918 | 90° | 55km/h | 8265m | 5.6m/s | -33.4°C | 10.8% | 355hPa | 4.5V | 00:00:00 | 01:07:18 | 00:00:00 | |
| BIOWL1-15 | 2026-09-01 22:00:55 | 50.79378 | 5.07837 | 98° | 57km/h | 8248m | 5m/s | -33.3°C | 10.9% | 355.8hPa | 4.6V | 00:00:00 | 00:00:00 | 00:00:00 | |
| DM0DOS-11 | 2026-09-01 22:00:50 | 50.79366 | 5.07618 | 83° | 69km/h | 8192m | 5.6m/s | -32.7°C | 10.8% | 358.8hPa | 4.8V | 00:00:00 | 01:07:04 | 00:00:00 | |
| BIOWL1-15 | 2026-09-01 22:00:44 | 50.79364 | 5.07587 | 86° | 78km/h | 8187m | 6m/s | -32.7°C | 10.8% | 359.1hPa | 4.6V | 00:00:00 | 00:00:00 | 00:00:00 | |
| BIOWL1-15 | 2026-09-01 22:00:40 | 50.79350 | 5.07336 | 87° | 58km/h | 8129m | 4m/s | -32.1°C | 10.6% | 362.2hPa | 4.8V | 00:00:00 | 00:00:00 | 00:00:00 | |
| DM0DOS-11 | 2026-09-01 22:00:40 | 50.79350 | 5.07362 | 86° | 60km/h | 8135m | 4.9m/s | -32.2°C | 10.6% | 361.9hPa | 4.8V | 00:00:00 | 01:06:54 | 00:00:00 | |
| DM0DOS-11 | 2026-09-01 22:00:27 | 50.79335 | 5.07043 | 82° | 62km/h | 8070m | 4.7m/s | -31.6°C | 10.5% | 365.4hPa | 4.6V | 00:00:00 | 01:06:41 | 00:00:00 | |
| BIOWL1-15 | 2026-09-01 22:00:25 | 50.79336 | 5.07068 | 84° | 62km/h | 8075m | 5m/s | -31.7°C | 10.5% | 365.1hPa | 4.6V | 00:00:00 | 00:00:00 | 00:00:00 | |
| DM0DOS-11 | 2026-09-01 22:00:17 | 50.79336 | 5.06790 | 91° | 66km/h | 8023m | 4.4m/s | -31.2°C | 10.3% | 367.8hPa | 4.6V | 00:00:00 | 01:06:31 | 00:00:00 | |
| BIOWL1-15 | 2026-09-01 22:00:12 | 50.79336 | 5.06790 | 86° | 66km/h | 8023m | 4.5m/s | -31.2°C | 10.3% | 367.8hPa | 4.6V | 00:00:00 | 00:00:00 | 00:00:00 | |
| BIOWL1-15 | 2026-09-01 22:00:02 | 50.79339 | 5.06528 | 91° | 66km/h | 7980m | 4m/s | -30.9°C | 10.3% | 370hPa | 4.8V | 00:00:00 | 00:00:00 | 00:00:00 | |
| BIOWL1-15 | 2026-09-01 21:59:51 | 50.79338 | 5.06240 | 90° | 66km/h | 7930m | 4m/s | -30.4°C | 10.2% | 372.5hPa | 4.6V | 00:00:00 | 00:00:00 | 00:00:00 | |
| DM0DOS-11 | 2026-09-01 21:59:45 | 50.79346 | 5.05947 | 92° | 66km/h | 7881m | 4.9m/s | -29.9°C | 10.3% | 375hPa | 4.6V | 00:00:00 | 01:05:59 | 00:00:00 | |
| BIOWL1-15 | 2026-09-01 21:59:40 | 50.79346 | 5.05947 | 93° | 68km/h | 7881m | 6m/s | -29.9°C | 10.3% | 375hPa | 4.6V | 00:00:00 | 00:00:00 | 00:00:00 | |
| DM0DOS-11 | 2026-09-01 21:59:35 | 50.79349 | 5.05682 | 92° | 71km/h | 7835m | 4.4m/s | -29.5°C | 10.3% | 377.4hPa | 4.8V | 00:00:00 | 01:05:49 | 00:00:00 | |
| BIOWL1-15 | 2026-09-01 21:59:32 | 50.79349 | 5.05682 | 92° | 73km/h | 7835m | 4m/s | -29.5°C | 10.3% | 377.5hPa | 4.8V | 00:00:00 | 00:00:00 | 00:00:00 | |
| DM0DOS-11 | 2026-09-01 21:59:25 | 50.79355 | 5.05406 | 97° | 64km/h | 7790m | 5.2m/s | -29.1°C | 10.3% | 379.8hPa | 4.6V | 00:00:00 | 01:05:39 | 00:00:00 | |
| BIOWL1-15 | 2026-09-01 21:59:21 | 50.79357 | 5.05381 | 96° | 64km/h | 7784m | 4m/s | -29°C | 10.4% | 380.1hPa | 4.6V | 00:00:00 | 00:00:00 | 00:00:00 | |
| DM0DOS-11 | 2026-09-01 21:59:15 | 50.79367 | 5.05145 | 84° | 66km/h | 7739m | 5.1m/s | -28.5°C | 10.5% | 382.6hPa | 4.6V | 00:00:00 | 01:05:29 | 00:00:00 | |
| BIOWL1-15 | 2026-09-01 21:59:10 | 50.79364 | 5.05092 | 82° | 66km/h | 7728m | 5m/s | -28.4°C | 10.5% | 383.2hPa | 4.6V | 00:00:00 | 00:00:00 | 00:00:00 | |
| DM0DOS-11 | 2026-09-01 21:59:04 | 50.79365 | 5.04859 | 94° | 64km/h | 7685m | 4.8m/s | -28°C | 10.5% | 385.5hPa | 4.9V | 00:00:00 | 01:05:18 | 00:00:00 | |
| BIOWL1-15 | 2026-09-01 21:58:59 | 50.79367 | 5.04808 | 95° | 66km/h | 7676m | 5m/s | -28°C | 10.6% | 386hPa | 4.9V | 00:00:00 | 00:00:00 | 00:00:00 | |
| DM0DOS-11 | 2026-09-01 21:58:54 | 50.79367 | 5.04601 | 90° | 62km/h | 7637m | 4.3m/s | -27.7°C | 10.8% | 388hPa | 4.6V | 00:00:00 | 01:05:08 | 00:00:00 | |
| BIOWL1-15 | 2026-09-01 21:58:46 | 50.79368 | 5.04526 | 95° | 58km/h | 7624m | 5m/s | -27.6°C | 10.9% | 388.6hPa | 4.8V | 00:00:00 | 00:00:00 | 00:00:00 | |
| DB0UT-7 | 2026-09-01 21:58:45 | 50.79369 | 5.04503 | 95° | 62km/h | 7619m | 3.9m/s | -27.5°C | 10.8% | 388.8hPa | 4.8V | 00:00:00 | 01:05:04 | 00:00:00 | |
| DM0DOS-11 | 2026-09-01 21:58:44 | 50.79373 | 5.04349 | 87° | 60km/h | 7595m | 4.2m/s | -27.4°C | 11.1% | 390.2hPa | 4.8V | 00:00:00 | 01:04:58 | 00:00:00 | |
| BIOWL1-15 | 2026-09-01 21:58:38 | 50.79372 | 5.04275 | 89° | 58km/h | 7583m | 5m/s | -27.4°C | 11.3% | 390.8hPa | 4.6V | 00:00:00 | 00:00:00 | 00:00:00 | |
| DM0DOS-11 | 2026-09-01 21:58:34 | 50.79375 | 5.04113 | 87° | 64km/h | 7552m | 4.3m/s | -27.2°C | 11.5% | 392.4hPa | 4.9V | 00:00:00 | 01:04:48 | 00:00:00 | |
| BIOWL1-15 | 2026-09-01 21:58:25 | 50.79369 | 5.04011 | 81° | 66km/h | 7536m | 5m/s | -27.2°C | 11.9% | 393.3hPa | 4.9V | 00:00:00 | 00:00:00 | 00:00:00 | |
| BIOWL1-15 | 2026-09-01 21:58:14 | 50.79369 | 5.03741 | 97° | 60km/h | 7484m | 6m/s | -26.8°C | 12.5% | 396.3hPa | 4.9V | 00:00:00 | 00:00:00 | 00:00:00 | |
| DM0DOS-11 | 2026-09-01 21:58:14 | 50.79374 | 5.03612 | 87° | 69km/h | 7460m | 5.3m/s | -26.6°C | 12.7% | 397.6hPa | 4.9V | 00:00:00 | 01:04:28 | 00:00:00 | |
| BIOWL1-15 | 2026-09-01 21:58:05 | 50.79376 | 5.03449 | 97° | 64km/h | 7429m | 3m/s | -26.3°C | 13.1% | 399.3hPa | 4.6V | 00:00:00 | 00:00:00 | 00:00:00 | |
| DM0DOS-11 | 2026-09-01 21:58:04 | 50.79380 | 5.03345 | 90° | 69km/h | 7413m | 4.5m/s | -26.1°C | 13.3% | 400.2hPa | 4.9V | 00:00:00 | 01:04:18 | 00:00:00 | |
| BIOWL1-15 | 2026-09-01 21:57:56 | 50.79378 | 5.03150 | 96° | 69km/h | 7382m | 6m/s | -26.3°C | 14% | 402hPa | 4.7V | 00:00:00 | 00:00:00 | 00:00:00 | |
| DM0DOS-11 | 2026-09-01 21:57:54 | 50.79384 | 5.03066 | 94° | 69km/h | 7367m | 4.6m/s | -26.3°C | 14.1% | 402.8hPa | 4.6V | 00:00:00 | 01:04:08 | 00:00:00 | |
| DB0UT-7 | 2026-09-01 21:57:45 | 50.79387 | 5.02954 | 89° | 64km/h | 7348m | 4.5m/s | -26.3°C | 14.3% | 403.8hPa | 4.9V | 00:00:00 | 01:04:04 | 00:00:00 | |
| DM0DOS-11 | 2026-09-01 21:57:44 | 50.79388 | 5.02791 | 91° | 64km/h | 7321m | 4.5m/s | -26.2°C | 14.3% | 405.4hPa | 4.9V | 00:00:00 | 01:03:58 | 00:00:00 | |
| BIOWL1-15 | 2026-09-01 21:57:44 | 50.79387 | 5.02872 | 91° | 68km/h | 7334m | 4m/s | -26.3°C | 14.4% | 404.7hPa | 4.9V | 00:00:00 | 00:00:00 | 00:00:00 | |
| DM0DOS-11 | 2026-09-01 21:57:34 | 50.79394 | 5.02532 | 95° | 64km/h | 7276m | 3.9m/s | -25.8°C | 14% | 407.8hPa | 4.6V | 00:00:00 | 01:03:48 | 00:00:00 | |
| BIOWL1-15 | 2026-09-01 21:57:32 | 50.79394 | 5.02615 | 89° | 68km/h | 7290m | 5m/s | -25.9°C | 14.2% | 407.1hPa | 4.6V | 00:00:00 | 00:00:00 | 00:00:00 | |
| DM0DOS-11 | 2026-09-01 21:57:24 | 50.79403 | 5.02273 | 92° | 62km/h | 7235m | 4.3m/s | -25.4°C | 13.7% | 410.2hPa | 4.9V | 00:00:00 | 01:03:38 | 00:00:00 | |
| BIOWL1-15 | 2026-09-01 21:57:22 | 50.79403 | 5.02324 | 90° | 64km/h | 7243m | 4m/s | -25.4°C | 13.9% | 409.7hPa | 4.9V | 00:00:00 | 00:00:00 | 00:00:00 | |
| DB0UT-7 | 2026-09-01 21:57:15 | 50.79407 | 5.02174 | 89° | 64km/h | 7218m | 4.1m/s | -25.2°C | 13.6% | 411.1hPa | 4.9V | 00:00:00 | 00:00:00 | 00:00:00 | |
| DM0DOS-11 | 2026-09-01 21:57:14 | 50.79406 | 5.02016 | 95° | 60km/h | 7193m | 4.2m/s | -25°C | 13.3% | 412.6hPa | 4.9V | 00:00:00 | 01:03:28 | 00:00:00 | |
| BIOWL1-15 | 2026-09-01 21:57:10 | 50.79406 | 5.02041 | 91° | 62km/h | 7198m | 5m/s | -25.1°C | 13.5% | 412.3hPa | 4.9V | 00:00:00 | 00:00:00 | 00:00:00 | |
| DM0DOS-11 | 2026-09-01 21:57:04 | 50.79424 | 5.01765 | 96° | 62km/h | 7150m | 4m/s | -24.7°C | 13.2% | 415hPa | 4.6V | 00:00:00 | 01:03:18 | 00:00:00 | |
| BIOWL1-15 | 2026-09-01 21:57:00 | 50.79422 | 5.01790 | 94° | 62km/h | 7154m | 4m/s | -24.7°C | 13.3% | 414.8hPa | 4.6V | 00:00:00 | 00:00:00 | 00:00:00 | |
| DM0DOS-11 | 2026-09-01 21:56:54 | 50.79430 | 5.01513 | 93° | 64km/h | 7110m | 4.7m/s | -24.3°C | 13.6% | 417.3hPa | 4.9V | 00:00:00 | 01:03:08 | 00:00:00 | |
| BIOWL1-15 | 2026-09-01 21:56:49 | 50.79430 | 5.01513 | 94° | 66km/h | 7110m | 6m/s | -24.3°C | 13.7% | 417.4hPa | 4.9V | 00:00:00 | 00:00:00 | 00:00:00 | |
| DB0UT-7 | 2026-09-01 21:56:45 | 50.79434 | 5.01409 | 93° | 62km/h | 7091m | 4.1m/s | -24.1°C | 13.5% | 418.3hPa | 4.7V | 00:00:00 | 01:03:04 | 00:00:00 | |
| DM0DOS-11 | 2026-09-01 21:56:44 | 50.79441 | 5.01265 | 96° | 64km/h | 7066m | 4.2m/s | -23.9°C | 13.5% | 419.8hPa | 4.9V | 00:00:00 | 01:02:58 | 00:00:00 | |
| BIOWL1-15 | 2026-09-01 21:56:39 | 50.79441 | 5.01265 | 97° | 66km/h | 7066m | 5m/s | -23.9°C | 13.6% | 419.8hPa | 4.9V | 00:00:00 | 00:00:00 | 00:00:00 | |
| DM0DOS-11 | 2026-09-01 21:56:34 | 50.79442 | 5.01012 | 92° | 62km/h | 7024m | 3.9m/s | -23.6°C | 13.6% | 422.2hPa | 4.9V | 00:00:00 | 01:02:48 | 00:00:00 | |
| BIOWL1-15 | 2026-09-01 21:56:28 | 50.79443 | 5.00987 | 93° | 60km/h | 7020m | 3m/s | -23.5°C | 13.7% | 422.5hPa | 4.7V | 00:00:00 | 00:00:00 | 00:00:00 | |
| DM0DOS-11 | 2026-09-01 21:56:24 | 50.79446 | 5.00767 | 94° | 64km/h | 6983m | 3.9m/s | -23.2°C | 13.8% | 424.6hPa | 4.9V | 00:00:00 | 01:02:38 | 00:00:00 | |
| BIOWL1-15 | 2026-09-01 21:56:17 | 50.79448 | 5.00716 | 86° | 66km/h | 6976m | 4m/s | -23.1°C | 14% | 425hPa | 4.9V | 00:00:00 | 00:00:00 | 00:00:00 | |
| DB0UT-7 | 2026-09-01 21:56:15 | 50.79445 | 5.00663 | 85° | 62km/h | 6967m | 4.1m/s | -23.0°C | 14.0% | 425.4hPa | 4.7V | 00:00:00 | 00:00:00 | 00:00:00 | |
| DM0DOS-11 | 2026-09-01 21:56:14 | 50.79443 | 5.00520 | 93° | 62km/h | 6941m | 4.1m/s | -22.8°C | 14.1% | 427hPa | 4.7V | 00:00:00 | 01:02:28 | 00:00:00 | |
| BIOWL1-15 | 2026-09-01 21:56:09 | 50.79445 | 5.00474 | 93° | 62km/h | 6933m | 4m/s | -22.7°C | 14.3% | 427.5hPa | 4.9V | 00:00:00 | 00:00:00 | 00:00:00 | |
| DM0DOS-11 | 2026-09-01 21:56:04 | 50.79446 | 5.00267 | 94° | 64km/h | 6899m | 3.8m/s | -22.4°C | 14.5% | 429.4hPa | 4.9V | 00:00:00 | 01:02:18 | 00:00:00 | |
| BIOWL1-15 | 2026-09-01 21:55:58 | 50.79448 | 5.00191 | 87° | 68km/h | 6888m | 4m/s | -22.3°C | 14.7% | 430.1hPa | 4.7V | 00:00:00 | 00:00:00 | 00:00:00 | |
| DM0DOS-11 | 2026-09-01 21:55:53 | 50.79446 | 4.99994 | 92° | 66km/h | 6855m | 3.8m/s | -22°C | 15.1% | 432.1hPa | 4.9V | 00:00:00 | 01:02:07 | 00:00:00 | |
| BIOWL1-15 | 2026-09-01 21:55:46 | 50.79447 | 4.99914 | 91° | 66km/h | 6844m | 4m/s | -21.9°C | 15.3% | 432.7hPa | 4.9V | 00:00:00 | 00:00:00 | 00:00:00 | |
| DB0UT-7 | 2026-09-01 21:55:45 | 50.79447 | 4.99914 | 92° | 62km/h | 6844m | 4.2m/s | -21.9°C | 15.2% | 432.7hPa | 4.7V | 00:00:00 | 01:02:04 | 00:00:00 | |
| DM0DOS-11 | 2026-09-01 21:55:43 | 50.79447 | 4.99739 | 93° | 66km/h | 6815m | 4.6m/s | -21.7°C | 16.1% | 434.4hPa | 4.7V | 00:00:00 | 01:01:57 | 00:00:00 | |
| BIOWL1-15 | 2026-09-01 21:55:35 | 50.79455 | 4.99634 | 101° | 62km/h | 6797m | 5m/s | -21.6°C | 16.9% | 435.4hPa | 4.9V | 00:00:00 | 00:00:00 | 00:00:00 | |
| DM0DOS-11 | 2026-09-01 21:55:33 | 50.79465 | 4.99479 | 98° | 60km/h | 6769m | 4.2m/s | -21.6°C | 18.1% | 437hPa | 4.9V | 00:00:00 | 01:01:47 | 00:00:00 | |
| BIOWL1-15 | 2026-09-01 21:55:24 | 50.79473 | 4.99385 | 99° | 58km/h | 6751m | 4m/s | -21.6°C | 19% | 438hPa | 4.7V | 00:00:00 | 00:00:00 | 00:00:00 | |
| BIOWL1-15 | 2026-09-01 21:55:13 | 50.79489 | 4.99124 | 97° | 58km/h | 6710m | 4m/s | -21.6°C | 22.2% | 440.5hPa | 4.9V | 00:00:00 | 00:00:00 | 00:00:00 | |
| DM0DOS-11 | 2026-09-01 21:55:13 | 50.79500 | 4.99005 | 100° | 58km/h | 6690m | 4m/s | -21.6°C | 24% | 441.6hPa | 4.7V | 00:00:00 | 01:01:27 | 00:00:00 | |
| BIOWL1-15 | 2026-09-01 21:55:05 | 50.79513 | 4.98861 | 96° | 58km/h | 6666m | 5m/s | -21.7°C | 26.3% | 443.1hPa | 4.9V | 00:00:00 | 00:00:00 | 00:00:00 | |
| DM0DOS-11 | 2026-09-01 21:55:03 | 50.79515 | 4.98770 | 90° | 58km/h | 6650m | 4.2m/s | -21.7°C | 27.8% | 444.1hPa | 4.9V | 00:00:00 | 01:01:17 | 00:00:00 | |
| DM0DOS-11 | 2026-09-01 21:54:53 | 50.79519 | 4.98545 | 85° | 58km/h | 6608m | 3.8m/s | -21.9°C | 31.5% | 446.6hPa | 4.7V | 00:00:00 | 01:01:07 | 00:00:00 | |
| BIOWL1-15 | 2026-09-01 21:54:51 | 50.79522 | 4.98612 | 88° | 53km/h | 6620m | 3m/s | -21.9°C | 30.7% | 445.9hPa | 4.7V | 00:00:00 | 00:00:00 | 00:00:00 | |
| DB0UT-7 | 2026-09-01 21:54:45 | 50.79517 | 4.98475 | 85° | 57km/h | 6598m | 4.3m/s | -21.8°C | 32.2% | 447.2hPa | 4.9V | 00:00:00 | 01:01:04 | 00:00:00 | |
| DM0DOS-11 | 2026-09-01 21:54:43 | 50.79516 | 4.98312 | 93° | 57km/h | 6569m | 4.5m/s | -21.8°C | 33.5% | 449hPa | 4.9V | 00:00:00 | 01:00:57 | 00:00:00 | |
| BIOWL1-15 | 2026-09-01 21:54:40 | 50.79516 | 4.98359 | 90° | 58km/h | 6577m | 5m/s | -21.8°C | 33.2% | 448.5hPa | 4.9V | 00:00:00 | 00:00:00 | 00:00:00 | |
| DM0DOS-11 | 2026-09-01 21:54:33 | 50.79513 | 4.98075 | 81° | 51km/h | 6526m | 4.3m/s | -21.5°C | 34.2% | 451.6hPa | 4.9V | 00:00:00 | 01:00:47 | 00:00:00 | |
| BIOWL1-15 | 2026-09-01 21:54:33 | 50.79515 | 4.98123 | 89° | 62km/h | 6535m | 4m/s | -21.6°C | 34.1% | 451.1hPa | 4.7V | 00:00:00 | 00:00:00 | 00:00:00 | |
| DM0DOS-11 | 2026-09-01 21:54:23 | 50.79501 | 4.97865 | 80° | 55km/h | 6483m | 4.2m/s | -21.3°C | 33.8% | 454.3hPa | 4.9V | 00:00:00 | 01:00:37 | 00:00:00 | |
| BIOWL1-15 | 2026-09-01 21:54:19 | 50.79504 | 4.97889 | 81° | 60km/h | 6488m | 5m/s | -21.3°C | 33.9% | 454hPa | 4.9V | 00:00:00 | 00:00:00 | 00:00:00 | |
| DB0UT-7 | 2026-09-01 21:54:15 | 50.79496 | 4.97798 | 77° | 51km/h | 6472m | 4.9m/s | -21.1°C | 33.7% | 455.0hPa | 5V | 00:00:00 | 00:00:00 | 00:00:00 | |
| DM0DOS-11 | 2026-09-01 21:54:13 | 50.79485 | 4.97656 | 84° | 51km/h | 6440m | 4.3m/s | -20.9°C | 33.2% | 457hPa | 5V | 00:00:00 | 01:00:27 | 00:00:00 | |
| BIOWL1-15 | 2026-09-01 21:54:08 | 50.79485 | 4.97656 | 87° | 53km/h | 6440m | 4.5m/s | -20.9°C | 33.2% | 457hPa | 5V | 00:00:00 | 00:00:00 | 00:00:00 | |
| BIOWL1-15 | 2026-09-01 21:53:58 | 50.79478 | 4.97454 | 85° | 53km/h | 6394m | 3m/s | -20.5°C | 32.6% | 459.8hPa | 4.9V | 00:00:00 | 00:00:00 | 00:00:00 | |
| BIOWL1-15 | 2026-09-01 21:53:47 | 50.79476 | 4.97217 | 85° | 53km/h | 6348m | 4m/s | -20.1°C | 31.4% | 462.7hPa | 5V | 00:00:00 | 00:00:00 | 00:00:00 | |
| BIOWL1-15 | 2026-09-01 21:53:36 | 50.79470 | 4.96983 | 90° | 57km/h | 6300m | 5m/s | -19.7°C | 29.5% | 465.7hPa | 4.7V | 00:00:00 | 00:00:00 | 00:00:00 | |
| DM0DOS-11 | 2026-09-01 21:53:34 | 50.79472 | 4.96824 | 88° | 57km/h | 6269m | 4.1m/s | -19.4°C | 28.2% | 467.6hPa | 5V | 00:00:00 | 00:59:48 | 00:00:00 | |
| BIOWL1-15 | 2026-09-01 21:53:25 | 50.79471 | 4.96730 | 89° | 57km/h | 6252m | 5m/s | -19.2°C | 27.7% | 468.6hPa | 5V | 00:00:00 | 00:00:00 | 00:00:00 | |
| DM0DOS-11 | 2026-09-01 21:53:24 | 50.79473 | 4.96599 | 88° | 57km/h | 6228m | 4.6m/s | -19°C | 27.2% | 470.2hPa | 5V | 00:00:00 | 00:59:38 | 00:00:00 | |
| BIOWL1-15 | 2026-09-01 21:53:17 | 50.79471 | 4.96507 | 92° | 55km/h | 6210m | 5m/s | -18.9°C | 27.4% | 471.3hPa | 4.7V | 00:00:00 | 00:00:00 | 00:00:00 | |
| DB0UT-7 | 2026-09-01 21:53:15 | 50.79471 | 4.96507 | 92° | 55km/h | 6210m | 4.3m/s | -18.8°C | 27.3% | 471.2hPa | 5V | 00:00:00 | 00:00:00 | 00:00:00 | |
| DM0DOS-11 | 2026-09-01 21:53:14 | 50.79468 | 4.96376 | 86° | 58km/h | 6184m | 4.3m/s | -18.8°C | 27.6% | 472.9hPa | 5V | 00:00:00 | 00:59:28 | 00:00:00 | |
| BIOWL1-15 | 2026-09-01 21:53:05 | 50.79465 | 4.96280 | 86° | 58km/h | 6167m | 4m/s | -18.6°C | 27.8% | 474hPa | 5V | 00:00:00 | 00:00:00 | 00:00:00 | |
| DM0DOS-11 | 2026-09-01 21:53:04 | 50.79457 | 4.96150 | 85° | 55km/h | 6141m | 4.3m/s | -18.4°C | 27.8% | 475.6hPa | 5V | 00:00:00 | 00:59:18 | 00:00:00 | |
| BIOWL1-15 | 2026-09-01 21:52:56 | 50.79453 | 4.96035 | 86° | 57km/h | 6120m | 4m/s | -18.3°C | 28.1% | 476.9hPa | 4.9V | 00:00:00 | 00:00:00 | 00:00:00 | |
| DM0DOS-11 | 2026-09-01 21:52:47 | 50.79441 | 4.95775 | 90° | 55km/h | 6069m | 4.1m/s | -17.8°C | 28.3% | 480.2hPa | 5V | 00:00:00 | 00:59:01 | 00:00:00 | |
| BIOWL1-15 | 2026-09-01 21:52:46 | 50.79441 | 4.95816 | 90° | 51km/h | 6077m | 5m/s | -17.9°C | 28.3% | 479.7hPa | 5V | 00:00:00 | 00:00:00 | 00:00:00 | |
| DB0UT-7 | 2026-09-01 21:52:45 | 50.79442 | 4.95837 | 87° | 53km/h | 6081m | 4.1m/s | -17.9°C | 28.2% | 479.4hPa | 5V | 00:00:00 | 00:59:04 | 00:00:00 | |
| DM0DOS-11 | 2026-09-01 21:52:37 | 50.79436 | 4.95563 | 90° | 51km/h | 6027m | 5.1m/s | -17.4°C | 29.2% | 483hPa | 5V | 00:00:00 | 00:58:51 | 00:00:00 | |
| BIOWL1-15 | 2026-09-01 21:52:33 | 50.79436 | 4.95584 | 90° | 51km/h | 6030m | 3m/s | -17.5°C | 29.2% | 482.8hPa | 4.9V | 00:00:00 | 00:00:00 | 00:00:00 | |
| DM0DOS-11 | 2026-09-01 21:52:27 | 50.79424 | 4.95362 | 77° | 58km/h | 5976m | 4.3m/s | -17.1°C | 31% | 486.3hPa | 5V | 00:00:00 | 00:58:41 | 00:00:00 | |
| BIOWL1-15 | 2026-09-01 21:52:24 | 50.79424 | 4.95362 | 78° | 58km/h | 5976m | 3m/s | -17.1°C | 31.1% | 486.3hPa | 5V | 00:00:00 | 00:00:00 | 00:00:00 | |
| DM0DOS-11 | 2026-09-01 21:52:17 | 50.79406 | 4.95134 | 83° | 53km/h | 5931m | 4.8m/s | -16.7°C | 33.5% | 489.2hPa | 5V | 00:00:00 | 00:58:31 | 00:00:00 | |
| BIOWL1-15 | 2026-09-01 21:52:12 | 50.79406 | 4.95134 | 83° | 53km/h | 5931m | 5m/s | -16.7°C | 33.5% | 489.2hPa | 5V | 00:00:00 | 00:00:00 | 00:00:00 | |
| DM0DOS-11 | 2026-09-01 21:52:07 | 50.79402 | 4.94918 | 77° | 53km/h | 5886m | 4.8m/s | -16.3°C | 37.2% | 492.1hPa | 5V | 00:00:00 | 00:58:21 | 00:00:00 | |
| BIOWL1-15 | 2026-09-01 21:52:01 | 50.79399 | 4.94899 | 75° | 51km/h | 5882m | 6m/s | -16.2°C | 37.9% | 492.3hPa | 5V | 00:00:00 | 00:00:00 | 00:00:00 | |
| DM0DOS-11 | 2026-09-01 21:51:57 | 50.79381 | 4.94711 | 88° | 53km/h | 5836m | 4.2m/s | -16°C | 43% | 495.2hPa | 5V | 00:00:00 | 00:58:11 | 00:00:00 | |
| BIOWL1-15 | 2026-09-01 21:51:51 | 50.79380 | 4.94690 | 87° | 49km/h | 5832m | 5m/s | -16°C | 43.7% | 495.5hPa | 5V | 00:00:00 | 00:00:00 | 00:00:00 | |
| DM0DOS-11 | 2026-09-01 21:51:47 | 50.79362 | 4.94497 | 80° | 55km/h | 5794m | 4.3m/s | -16°C | 51.7% | 497.9hPa | 5V | 00:00:00 | 00:58:01 | 00:00:00 | |
| BIOWL1-15 | 2026-09-01 21:51:42 | 50.79358 | 4.94454 | 77° | 58km/h | 5786m | 4m/s | -16.1°C | 53.5% | 498.4hPa | 5V | 00:00:00 | 00:00:00 | 00:00:00 | |
| DM0DOS-11 | 2026-09-01 21:51:37 | 50.79342 | 4.94273 | 76° | 53km/h | 5750m | 4.3m/s | -16.1°C | 56.8% | 500.7hPa | 5V | 00:00:00 | 00:57:51 | 00:00:00 | |
| BIOWL1-15 | 2026-09-01 21:51:31 | 50.79332 | 4.94205 | 76° | 55km/h | 5737m | 4m/s | -16.1°C | 58.3% | 501.5hPa | 5V | 00:00:00 | 00:00:00 | 00:00:00 | |
| DM0DOS-11 | 2026-09-01 21:51:20 | 50.79306 | 4.93919 | 77° | 51km/h | 5677m | 4.6m/s | -15.8°C | 64.7% | 505.5hPa | 5V | 00:00:00 | 00:57:34 | 00:00:00 | |
| BIOWL1-15 | 2026-09-01 21:51:19 | 50.79312 | 4.93990 | 90° | 44km/h | 5694m | 4m/s | -15.9°C | 62.9% | 504.3hPa | 5V | 00:00:00 | 00:00:00 | 00:00:00 | |
| BIOWL1-15 | 2026-09-01 21:51:13 | 50.79306 | 4.93802 | 86° | 60km/h | 5653m | 5m/s | -15.6°C | 67.8% | 507.1hPa | 5V | 00:00:00 | 00:00:00 | 00:00:00 | |
| DM0DOS-11 | 2026-09-01 21:51:10 | 50.79298 | 4.93699 | 91° | 60km/h | 5626m | 6m/s | -16.1°C | 70.5% | 508.8hPa | 5V | 00:00:00 | 00:57:24 | 00:00:00 | |
| BIOWL1-15 | 2026-09-01 21:51:00 | 50.79282 | 4.93529 | 72° | 64km/h | 5584m | 3m/s | -16.6°C | 70% | 511.8hPa | 5V | 00:00:00 | 00:00:00 | 00:00:00 | |
| DM0DOS-11 | 2026-09-01 21:51:00 | 50.79268 | 4.93461 | 83° | 51km/h | 5570m | 5.1m/s | -16.5°C | 68.9% | 512.7hPa | 5V | 00:00:00 | 00:57:14 | 00:00:00 | |
| DM0DOS-11 | 2026-09-01 21:50:49 | 50.79224 | 4.93233 | 83° | 57km/h | 5514m | 5.3m/s | -15.9°C | 64% | 516.4hPa | 5V | 00:00:00 | 00:57:03 | 00:00:00 | |
| BIOWL1-15 | 2026-09-01 21:50:47 | 50.79237 | 4.93310 | 69° | 64km/h | 5530m | 5m/s | -16.1°C | 65.4% | 515.4hPa | 5V | 00:00:00 | 00:00:00 | 00:00:00 | |
| DB0UT-7 | 2026-09-01 21:50:45 | 50.79227 | 4.93260 | 81° | 55km/h | 5519m | 5.1m/s | -15.9°C | 64.5% | 516.0hPa | 5.0V | 00:00:00 | 00:57:04 | 00:00:00 | |
| DM0DOS-11 | 2026-09-01 21:50:39 | 50.79182 | 4.93022 | 83° | 55km/h | 5462m | 4.8m/s | -15.4°C | 60.1% | 520hPa | 5V | 00:00:00 | 00:56:53 | 00:00:00 | |
| BIOWL1-15 | 2026-09-01 21:50:36 | 50.79191 | 4.93066 | 69° | 58km/h | 5471m | 4m/s | -15.5°C | 60.9% | 519.4hPa | 5V | 00:00:00 | 00:00:00 | 00:00:00 | |
| DM0DOS-11 | 2026-09-01 21:50:29 | 50.79163 | 4.92811 | 69° | 58km/h | 5410m | 5.3m/s | -14.9°C | 55.5% | 523.6hPa | 5V | 00:00:00 | 00:56:43 | 00:00:00 | |
| BIOWL1-15 | 2026-09-01 21:50:26 | 50.79170 | 4.92852 | 75° | 47km/h | 5421m | 6m/s | -15°C | 56.7% | 522.8hPa | 5V | 00:00:00 | 00:00:00 | 00:00:00 | |
| DM0DOS-11 | 2026-09-01 21:50:19 | 50.79132 | 4.92583 | 75° | 46km/h | 5357m | 5.9m/s | -14.4°C | 48.7% | 527.2hPa | 5V | 00:00:00 | 00:56:33 | 00:00:00 | |
| BIOWL1-15 | 2026-09-01 21:50:15 | 50.79137 | 4.92605 | 74° | 58km/h | 5363m | 6m/s | -14.5°C | 49.4% | 526.8hPa | 5V | 00:00:00 | 00:00:00 | 00:00:00 | |
| DB0UT-7 | 2026-09-01 21:50:15 | 50.79136 | 4.92605 | 74° | 53km/h | 5363m | 5.9m/s | -14.4°C | 49.3% | 526.7hPa | 5V | 00:00:00 | 00:00:00 | 00:00:00 | |
| DM0DOS-11 | 2026-09-01 21:50:09 | 50.79105 | 4.92394 | 61° | 55km/h | 5300m | 4.8m/s | -13.9°C | 38.7% | 531.2hPa | 5V | 00:00:00 | 00:56:23 | 00:00:00 | |
| BIOWL1-15 | 2026-09-01 21:50:04 | 50.79105 | 4.92394 | 61° | 44km/h | 5300m | 4m/s | -13.9°C | 38.7% | 531.2hPa | 5V | 00:00:00 | 00:00:00 | 00:00:00 | |
| DM0DOS-11 | 2026-09-01 21:49:59 | 50.79063 | 4.92182 | 77° | 57km/h | 5245m | 5m/s | -13.3°C | 29.5% | 535hPa | 5V | 00:00:00 | 00:56:13 | 00:00:00 | |
| BIOWL1-15 | 2026-09-01 21:49:54 | 50.79063 | 4.92182 | 78° | 49km/h | 5245m | 5m/s | -13.3°C | 29.6% | 535hPa | 5V | 00:00:00 | 00:00:00 | 00:00:00 | |
| DM0DOS-11 | 2026-09-01 21:49:49 | 50.79044 | 4.91964 | 71° | 53km/h | 5193m | 5.6m/s | -12.8°C | 25.1% | 538.7hPa | 5V | 00:00:00 | 00:56:03 | 00:00:00 | |
| BIOWL1-15 | 2026-09-01 21:49:43 | 50.79040 | 4.91942 | 68° | 57km/h | 5186m | 6m/s | -12.7°C | 24.6% | 539.2hPa | 5V | 00:00:00 | 00:00:00 | 00:00:00 | |
| DM0DOS-11 | 2026-09-01 21:49:39 | 50.79013 | 4.91771 | 70° | 55km/h | 5140m | 4.8m/s | -12.3°C | 20.7% | 542.5hPa | 5V | 00:00:00 | 00:55:53 | 00:00:00 | |
| BIOWL1-15 | 2026-09-01 21:49:34 | 50.79003 | 4.91725 | 72° | 57km/h | 5130m | 5m/s | -12.2°C | 20.7% | 543.3hPa | 5V | 00:00:00 | 00:00:00 | 00:00:00 | |
| DM0DOS-11 | 2026-09-01 21:49:29 | 50.78975 | 4.91566 | 64° | 47km/h | 5094m | 4.7m/s | -12°C | 20.6% | 545.8hPa | 5.1V | 00:00:00 | 00:55:43 | 00:00:00 | |
| BIOWL1-15 | 2026-09-01 21:49:25 | 50.78964 | 4.91532 | 71° | 49km/h | 5086m | 4m/s | -11.9°C | 20.7% | 546.4hPa | 5.1V | 00:00:00 | 00:00:00 | 00:00:00 | |
| DM0DOS-11 | 2026-09-01 21:49:19 | 50.78941 | 4.91391 | 76° | 46km/h | 5047m | 5.2m/s | -11.6°C | 19.8% | 549.1hPa | 5.1V | 00:00:00 | 00:55:33 | 00:00:00 | |
| BIOWL1-15 | 2026-09-01 21:49:12 | 50.78934 | 4.91357 | 66° | 44km/h | 5035m | 5m/s | -11.5°C | 19.8% | 550hPa | 5.1V | 00:00:00 | 00:00:00 | 00:00:00 | |
| DM0DOS-11 | 2026-09-01 21:49:09 | 50.78901 | 4.91207 | 73° | 53km/h | 4998m | 4.4m/s | -11.3°C | 19.3% | 552.7hPa | 5.1V | 00:00:00 | 00:55:23 | 00:00:00 | |
| DM0DOS-11 | 2026-09-01 21:49:04 | 50.78881 | 4.91106 | 78° | 53km/h | 4976m | 4.4m/s | -11.1°C | 19.7% | 554.2hPa | 5.1V | 00:00:00 | 00:55:18 | 00:00:00 | |
| BIOWL1-15 | 2026-09-01 21:49:01 | 50.78889 | 4.91147 | 73° | 53km/h | 4985m | 5m/s | -11.2°C | 19.6% | 553.6hPa | 5.1V | 00:00:00 | 00:00:00 | 00:00:00 | |
| DM0DOS-11 | 2026-09-01 21:48:59 | 50.78876 | 4.90996 | 91° | 53km/h | 4956m | 5.1m/s | -11°C | 20.2% | 555.7hPa | 5.1V | 00:00:00 | 00:55:13 | 00:00:00 | |
| DM0DOS-11 | 2026-09-01 21:48:54 | 50.78868 | 4.90893 | 80° | 53km/h | 4927m | 4.7m/s | -10.8°C | 20.2% | 557.8hPa | 5.2V | 00:00:00 | 00:55:08 | 00:00:00 | |
| BIOWL1-15 | 2026-09-01 21:48:53 | 50.78873 | 4.90934 | 80° | 53km/h | 4942m | 6.2m/s | -10.9°C | 20.3% | 556.7hPa | 5.2V | 00:00:00 | 00:00:00 | 00:00:00 | |
| DM0DOS-11 | 2026-09-01 21:48:49 | 50.78861 | 4.90789 | 73° | 51km/h | 4904m | 4.5m/s | -10.6°C | 20.5% | 559.6hPa | 5.2V | 00:00:00 | 00:55:03 | 00:00:00 | |
| DB0UT-7 | 2026-09-01 21:48:45 | 50.78863 | 4.90810 | 82° | 53km/h | 4909m | 4.6m/s | -10.6°C | 20.3% | 559.2hPa | 5.2V | 00:00:00 | 00:55:04 | 00:00:00 | |
| DM0DOS-11 | 2026-09-01 21:48:39 | 50.78838 | 4.90699 | 71° | 55km/h | 4881m | 4.5m/s | -10.5°C | 21% | 561.1hPa | 5.2V | 00:00:00 | 00:54:58 | 00:00:00 | |
| DM0DOS-11 | 2026-09-01 21:48:39 | 50.78822 | 4.90588 | 77° | 49km/h | 4858m | 4.5m/s | -10.3°C | 21.8% | 562.9hPa | 5.2V | 00:00:00 | 00:54:53 | 00:00:00 | |
| BIOWL1-15 | 2026-09-01 21:48:37 | 50.78829 | 4.90657 | 0° | 0km/h | 4872m | 0m/s | -10.4°C | 21.3% | 561.9hPa | 5.2V | 00:00:00 | 00:00:00 | 00:00:00 | |
| DM0DOS-11 | 2026-09-01 21:48:29 | 50.78801 | 4.90493 | 67° | 51km/h | 4836m | 4.4m/s | -10.2°C | 23.3% | 564.5hPa | 5.2V | 00:00:00 | 00:54:48 | 00:00:00 | |
| DM0DOS-11 | 2026-09-01 21:48:29 | 50.78779 | 4.90394 | 79° | 55km/h | 4814m | 4.2m/s | -10°C | 25.6% | 566hPa | 5.2V | 00:00:00 | 00:54:43 | 00:00:00 | |
| DM0DOS-11 | 2026-09-01 21:48:24 | 50.78767 | 4.90291 | 65° | 53km/h | 4794m | 4.7m/s | -9.8°C | 28.6% | 567.5hPa | 5.2V | 00:00:00 | 00:54:38 | 00:00:00 | |
| DM0DOS-11 | 2026-09-01 21:48:19 | 50.78744 | 4.90184 | 77° | 55km/h | 4771m | 5.2m/s | -9.8°C | 33% | 569.1hPa | 5.2V | 00:00:00 | 00:54:33 | 00:00:00 | |
| DB0UT-7 | 2026-09-01 21:48:15 | 50.78748 | 4.90209 | 75° | 58km/h | 4775m | 4.9m/s | -9.8°C | 32.2% | 568.8hPa | 5.2V | 00:00:00 | 00:00:00 | 00:00:00 | |
| DM0DOS-11 | 2026-09-01 21:48:14 | 50.78737 | 4.90080 | 77° | 55km/h | 4744m | 4.8m/s | -9.7°C | 37% | 571hPa | 5.2V | 00:00:00 | 00:54:28 | 00:00:00 | |
| DM0DOS-11 | 2026-09-01 21:48:03 | 50.78715 | 4.89959 | 80° | 62km/h | 4715m | 4.4m/s | -9.6°C | 38.7% | 573.2hPa | 5.2V | 00:00:00 | 00:54:22 | 00:00:00 | |
| DM0DOS-11 | 2026-09-01 21:48:03 | 50.78695 | 4.89835 | 75° | 60km/h | 4694m | 4.8m/s | -9.4°C | 39% | 574.7hPa | 5.2V | 00:00:00 | 00:54:17 | 00:00:00 | |
| DM0DOS-11 | 2026-09-01 21:47:53 | 50.78656 | 4.89602 | 68° | 60km/h | 4642m | 4.6m/s | -9°C | 38.8% | 578.8hPa | 5.2V | 00:00:00 | 00:54:07 | 00:00:00 | |
| DB0UT-7 | 2026-09-01 21:47:45 | 50.78638 | 4.89537 | 65° | 60km/h | 4630m | 4.5m/s | -8.8°C | 38.8% | 579.6hPa | 5.2V | 00:00:00 | 00:54:04 | 00:00:00 | |
| DM0DOS-11 | 2026-09-01 21:47:44 | 50.78616 | 4.89398 | 79° | 60km/h | 4603m | 4.8m/s | -8.7°C | 38.7% | 581.6hPa | 5.2V | 00:00:00 | 00:53:58 | 00:00:00 | |
| DM0DOS-11 | 2026-09-01 21:47:39 | 50.78599 | 4.89281 | 70° | 62km/h | 4579m | 4.7m/s | -8.5°C | 39% | 583.3hPa | 5.2V | 00:00:00 | 00:53:53 | 00:00:00 | |
| DM0DOS-11 | 2026-09-01 21:47:34 | 50.78583 | 4.89159 | 85° | 58km/h | 4558m | 5.8m/s | -8.4°C | 39.5% | 584.8hPa | 5.2V | 00:00:00 | 00:53:48 | 00:00:00 | |
| BIOWL1-15 | 2026-09-01 21:47:33 | 50.78586 | 4.89207 | 0° | 0km/h | 4565m | 0m/s | -8.5°C | 39.4% | 584.3hPa | 5.2V | 00:00:00 | 00:00:00 | 00:00:00 | |
| DM0DOS-11 | 2026-09-01 21:47:29 | 50.78567 | 4.89046 | 55° | 57km/h | 4527m | 6.6m/s | -8.1°C | 40.2% | 587hPa | 5.2V | 00:00:00 | 00:53:43 | 00:00:00 | |
| DM0DOS-11 | 2026-09-01 21:47:19 | 50.78531 | 4.88951 | 74° | 64km/h | 4494m | 5.4m/s | -7.8°C | 41% | 589.6hPa | 5.2V | 00:00:00 | 00:53:38 | 00:00:00 | |
| DM0DOS-11 | 2026-09-01 21:47:19 | 50.78503 | 4.88824 | 68° | 58km/h | 4467m | 4.7m/s | -7.6°C | 42% | 591.7hPa | 5.2V | 00:00:00 | 00:53:33 | 00:00:00 | |
| DB0UT-7 | 2026-09-01 21:47:15 | 50.78510 | 4.88848 | 67° | 57km/h | 4471m | 4.5m/s | -7.6°C | 41.7% | 591.3hPa | 5.2V | 00:00:00 | 00:00:00 | 00:00:00 | |
| DM0DOS-11 | 2026-09-01 21:47:09 | 50.78476 | 4.88720 | 63° | 64km/h | 4444m | 4.8m/s | -7.6°C | 42.7% | 593.4hPa | 5.2V | 00:00:00 | 00:53:28 | 00:00:00 | |
| DM0DOS-11 | 2026-09-01 21:47:09 | 50.78450 | 4.88588 | 79° | 53km/h | 4422m | 6.2m/s | -7.5°C | 43% | 595.1hPa | 5.2V | 00:00:00 | 00:53:23 | 00:00:00 | |
| DM0DOS-11 | 2026-09-01 21:47:04 | 50.78428 | 4.88495 | 64° | 57km/h | 4388m | 4.8m/s | -7.2°C | 42.8% | 597.6hPa | 5.2V | 00:00:00 | 00:53:18 | 00:00:00 | |
| DM0DOS-11 | 2026-09-01 21:46:57 | 50.78395 | 4.88358 | 75° | 60km/h | 4351m | 4.5m/s | -6.9°C | 42.3% | 600.5hPa | 5.2V | 00:00:00 | 00:53:11 | 00:00:00 | |
| DM0DOS-11 | 2026-09-01 21:46:47 | 50.78372 | 4.88243 | 75° | 58km/h | 4329m | 3.9m/s | -6.8°C | 42% | 602.2hPa | 5.2V | 00:00:00 | 00:53:06 | 00:00:00 | |
| DM0DOS-11 | 2026-09-01 21:46:47 | 50.78354 | 4.88125 | 65° | 53km/h | 4310m | 4.1m/s | -6.6°C | 42% | 603.6hPa | 5.2V | 00:00:00 | 00:53:01 | 00:00:00 | |
| DB0UT-7 | 2026-09-01 21:46:45 | 50.78366 | 4.88197 | 81° | 60km/h | 4321m | 3.8m/s | -6.6°C | 42.0% | 602.8hPa | 5.2V | 00:00:00 | 00:53:04 | 00:00:00 | |
| DM0DOS-11 | 2026-09-01 21:46:37 | 50.78321 | 4.88033 | 71° | 53km/h | 4292m | 5.4m/s | -6.4°C | 42% | 605hPa | 5.2V | 00:00:00 | 00:52:56 | 00:00:00 | |
| DM0DOS-11 | 2026-09-01 21:46:37 | 50.78299 | 4.87932 | 68° | 58km/h | 4263m | 4.9m/s | -6.2°C | 41.8% | 607.2hPa | 5.2V | 00:00:00 | 00:52:51 | 00:00:00 | |
| DM0DOS-11 | 2026-09-01 21:46:32 | 50.78278 | 4.87823 | 73° | 57km/h | 4239m | 4.6m/s | -6°C | 42% | 609.1hPa | 5.2V | 00:00:00 | 00:52:46 | 00:00:00 | |
| BIOWL1-15 | 2026-09-01 21:46:30 | 50.78288 | 4.87887 | 76° | 55km/h | 4253m | 5m/s | -6.1°C | 41.9% | 608hPa | 5.2V | 00:00:00 | 00:00:00 | 00:00:00 | |
| BIOWL1-15 | 2026-09-01 21:46:20 | 50.78239 | 4.87639 | 82° | 58km/h | 4210m | 5.5m/s | -5.8°C | 41.9% | 611.2hPa | 5.2V | 00:00:00 | 00:00:00 | 00:00:00 | |
| BIOWL1-15 | 2026-09-01 21:46:06 | 50.78173 | 4.87281 | 70° | 51km/h | 4116m | 5m/s | -5.2°C | 41.1% | 618.8hPa | 5.2V | 00:00:00 | 00:00:00 | 00:00:00 | |
| DM0DOS-11 | 2026-09-01 21:46:04 | 50.78142 | 4.87188 | 74° | 55km/h | 4091m | 5.2m/s | -4.9°C | 40.7% | 620.7hPa | 5.2V | 00:00:00 | 00:52:18 | 00:00:00 | |
| BIOWL1-15 | 2026-09-01 21:45:54 | 50.78110 | 4.87010 | 72° | 53km/h | 4057m | 6m/s | -4.7°C | 40.4% | 623.4hPa | 5.2V | 00:00:00 | 00:00:00 | 00:00:00 | |
| DM0DOS-11 | 2026-09-01 21:45:53 | 50.78088 | 4.86937 | 60° | 55km/h | 4036m | 5.1m/s | -4.5°C | 40.2% | 625.1hPa | 5.2V | 00:00:00 | 00:52:07 | 00:00:00 | |
| DM0DOS-11 | 2026-09-01 21:45:48 | 50.78069 | 4.86828 | 65° | 51km/h | 4009m | 5.8m/s | -4.3°C | 40.2% | 627.2hPa | 5.2V | 00:00:00 | 00:52:02 | 00:00:00 | |
| DB0UT-7 | 2026-09-01 21:45:45 | 50.78073 | 4.86875 | 83° | 55km/h | 4022m | 6.2m/s | -4.3°C | 40.2% | 626.2hPa | 5.2V | 00:00:00 | 00:52:04 | 00:00:00 | |
| DM0DOS-11 | 2026-09-01 21:45:43 | 50.78043 | 4.86739 | 74° | 60km/h | 3979m | 5.2m/s | -4°C | 39.7% | 629.6hPa | 5.2V | 00:00:00 | 00:51:57 | 00:00:00 | |
| BIOWL1-15 | 2026-09-01 21:45:41 | 50.78058 | 4.86791 | 60° | 42km/h | 3995m | 6m/s | -4.2°C | 40.2% | 628.2hPa | 5.2V | 00:00:00 | 00:00:00 | 00:00:00 | |
| DM0DOS-11 | 2026-09-01 21:45:33 | 50.78021 | 4.86624 | 63° | 55km/h | 3951m | 4m/s | -3.8°C | 39.5% | 631.8hPa | 5.2V | 00:00:00 | 00:51:52 | 00:00:00 | |
| DM0DOS-11 | 2026-09-01 21:45:33 | 50.77996 | 4.86516 | 82° | 53km/h | 3931m | 4m/s | -3.6°C | 39% | 633.3hPa | 5.2V | 00:00:00 | 00:51:47 | 00:00:00 | |
| DM0DOS-11 | 2026-09-01 21:45:23 | 50.77977 | 4.86415 | 59° | 55km/h | 3911m | 4.5m/s | -3.5°C | 38.3% | 635hPa | 5.2V | 00:00:00 | 00:51:42 | 00:00:00 | |
| DM0DOS-11 | 2026-09-01 21:45:23 | 50.77951 | 4.86320 | 69° | 58km/h | 3888m | 5.3m/s | -3.3°C | 37.7% | 636.8hPa | 5.2V | 00:00:00 | 00:51:37 | 00:00:00 | |
| DM0DOS-11 | 2026-09-01 21:45:18 | 50.77929 | 4.86208 | 86° | 57km/h | 3863m | 4.7m/s | -3.1°C | 37.2% | 638.9hPa | 5.2V | 00:00:00 | 00:51:32 | 00:00:00 | |
| DM0DOS-11 | 2026-09-01 21:45:13 | 50.77916 | 4.86086 | 77° | 47km/h | 3840m | 5.6m/s | -2.9°C | 36.2% | 640.7hPa | 5.2V | 00:00:00 | 00:51:27 | 00:00:00 | |
| DM0DOS-11 | 2026-09-01 21:45:04 | 50.77879 | 4.85917 | 71° | 47km/h | 3785m | 6m/s | -2.5°C | 33.8% | 645hPa | 5.2V | 00:00:00 | 00:51:18 | 00:00:00 | |
| DM0DOS-11 | 2026-09-01 21:44:50 | 50.77833 | 4.85745 | 69° | 49km/h | 3734m | 6m/s | -2.1°C | 31.3% | 649hPa | 5.2V | 00:00:00 | 00:51:09 | 00:00:00 | |
| DM0DOS-11 | 2026-09-01 21:44:50 | 50.77812 | 4.85645 | 65° | 47km/h | 3702m | 5.4m/s | -1.9°C | 33.2% | 651.7hPa | 5.2V | 00:00:00 | 00:51:04 | 00:00:00 | |
| DM0DOS-11 | 2026-09-01 21:44:45 | 50.77787 | 4.85560 | 58° | 53km/h | 3676m | 5m/s | -1.9°C | 36% | 654hPa | 5.2V | 00:00:00 | 00:50:59 | 00:00:00 | |
| DB0UT-7 | 2026-09-01 21:44:45 | 50.77812 | 4.85645 | 66° | 55km/h | 3702m | 5.3m/s | -1.9°C | 33.2% | 651.6hPa | 5.2V | 00:00:00 | 00:51:04 | 00:00:00 | |
| DM0DOS-11 | 2026-09-01 21:44:35 | 50.77755 | 4.85471 | 62° | 58km/h | 3651m | 5.3m/s | -1.8°C | 35.5% | 655.9hPa | 5.2V | 00:00:00 | 00:50:54 | 00:00:00 | |
| DM0DOS-11 | 2026-09-01 21:44:35 | 50.77728 | 4.85364 | 85° | 55km/h | 3625m | 5.8m/s | -1.6°C | 35.7% | 658hPa | 5.2V | 00:00:00 | 00:50:49 | 00:00:00 | |
| DM0DOS-11 | 2026-09-01 21:44:24 | 50.77695 | 4.85245 | 67° | 58km/h | 3588m | 5.5m/s | -1.4°C | 36.7% | 661.1hPa | 5.2V | 00:00:00 | 00:50:43 | 00:00:00 | |
| DM0DOS-11 | 2026-09-01 21:44:24 | 50.77675 | 4.85132 | 60° | 55km/h | 3563m | 6.7m/s | -1.2°C | 38% | 663.2hPa | 5.2V | 00:00:00 | 00:50:38 | 00:00:00 | |
| DM0DOS-11 | 2026-09-01 21:44:14 | 50.77637 | 4.85039 | 77° | 49km/h | 3529m | 5.6m/s | -1°C | 39.3% | 666hPa | 5.2V | 00:00:00 | 00:50:33 | 00:00:00 | |
| DM0DOS-11 | 2026-09-01 21:44:14 | 50.77626 | 4.84947 | 59° | 49km/h | 3501m | 5.5m/s | -0.8°C | 40.3% | 668.3hPa | 5.2V | 00:00:00 | 00:50:28 | 00:00:00 | |
| DM0DOS-11 | 2026-09-01 21:44:09 | 50.77596 | 4.84855 | 71° | 57km/h | 3474m | 5.6m/s | -0.7°C | 40.7% | 670.6hPa | 5.2V | 00:00:00 | 00:50:23 | 00:00:00 | |
| DM0DOS-11 | 2026-09-01 21:44:04 | 50.77561 | 4.84760 | 66° | 49km/h | 3445m | 5m/s | -0.6°C | 41.2% | 673hPa | 5.2V | 00:00:00 | 00:50:18 | 00:00:00 | |
| DM0DOS-11 | 2026-09-01 21:43:56 | 50.77529 | 4.84614 | 64° | 53km/h | 3403m | 5.3m/s | -0.4°C | 41.5% | 676.5hPa | 5.2V | 00:00:00 | 00:50:10 | 00:00:00 | |
| DM0DOS-11 | 2026-09-01 21:43:51 | 50.77500 | 4.84511 | 86° | 42km/h | 3376m | 5.5m/s | -0.3°C | 40.8% | 678.7hPa | 5.2V | 00:00:00 | 00:50:05 | 00:00:00 | |
| DM0DOS-11 | 2026-09-01 21:43:46 | 50.77484 | 4.84437 | 46° | 44km/h | 3346m | 4.9m/s | -0.1°C | 39.8% | 681.3hPa | 5.2V | 00:00:00 | 00:50:00 | 00:00:00 | |
| DB0UT-7 | 2026-09-01 21:43:45 | 50.77499 | 4.84492 | 80° | 47km/h | 3371m | 5.6m/s | -0.2°C | 40.7% | 679.1hPa | 5.2V | 00:00:00 | 00:50:04 | 00:00:00 | |
| DM0DOS-11 | 2026-09-01 21:43:36 | 50.77452 | 4.84376 | 66° | 51km/h | 3323m | 5.8m/s | 0.1°C | 39.7% | 683.4hPa | 5.2V | 00:00:00 | 00:49:55 | 00:00:00 | |
| DM0DOS-11 | 2026-09-01 21:43:36 | 50.77421 | 4.84281 | 67° | 53km/h | 3295m | 5.5m/s | 0.3°C | 39.5% | 685.9hPa | 5.2V | 00:00:00 | 00:49:50 | 00:00:00 | |
| DM0DOS-11 | 2026-09-01 21:43:26 | 50.77396 | 4.84182 | 53° | 51km/h | 3268m | 5.3m/s | 0.5°C | 39% | 688hPa | 5.2V | 00:00:00 | 00:49:45 | 00:00:00 | |
| DM0DOS-11 | 2026-09-01 21:43:26 | 50.77361 | 4.84099 | 61° | 53km/h | 3238m | 4.4m/s | 0.6°C | 38.2% | 690.6hPa | 5.2V | 00:00:00 | 00:49:40 | 00:00:00 | |
| DM0DOS-11 | 2026-09-01 21:43:21 | 50.77336 | 4.84011 | 3° | 64km/h | 3210m | 0m/s | 0.8°C | 36.7% | 693hPa | 5.2V | 00:00:00 | 00:49:35 | 00:00:00 | |
| DB0UT-7 | 2026-09-01 21:43:15 | 50.77332 | 4.83992 | 68° | 40km/h | 3206m | 5.3m/s | 0.7°C | 36.2% | 693.4hPa | 5.2V | 00:00:00 | 00:00:00 | 00:00:00 | |
| DB0UT-7 | 2026-09-01 21:42:45 | 50.77199 | 4.83576 | 73° | 40km/h | 3028m | 5.6m/s | 2.2°C | 30.8% | 708.8hPa | 5.2V | 00:00:00 | 00:49:04 | 00:00:00 | |
| DB0UT-7 | 2026-09-01 21:42:15 | 50.77080 | 4.83149 | 69° | 37km/h | 2860m | 6.2m/s | 3.2°C | 35.0% | 723.5hPa | 5.2V | 00:00:00 | 00:00:00 | 00:00:00 | |
| DB0UT-7 | 2026-09-01 21:41:45 | 50.76999 | 4.82747 | 70° | 37km/h | 2683m | 5.9m/s | 4.2°C | 37.2% | 739.4hPa | 5.2V | 00:00:00 | 00:48:04 | 00:00:00 | |
| DB0UT-7 | 2026-09-01 21:41:15 | 50.76890 | 4.82331 | 77° | 35km/h | 2514m | 7.9m/s | 5.1°C | 29.2% | 755.1hPa | 5.2V | 00:00:00 | 00:00:00 | 00:00:00 | |
| DB0UT-7 | 2026-09-01 21:40:45 | 50.76830 | 4.81951 | 73° | 35km/h | 2323m | 5.8m/s | 6.3°C | 26.0% | 772.5hPa | 5.2V | 00:00:00 | 00:47:04 | 00:00:00 | |
| DB0UT-7 | 2026-09-01 21:39:45 | 50.76642 | 4.81258 | 67° | 26km/h | 1981m | 5.7m/s | 8.0°C | 22.2% | 805.1hPa | 5.2V | 00:00:00 | 00:46:04 | 00:00:00 | |
| DB0UT-7 | 2026-09-01 21:39:15 | 50.76540 | 4.81005 | 59° | 26km/h | 1816m | 5.1m/s | 6.5°C | 68.7% | 821.6hPa | 5.2V | 00:00:00 | 00:00:00 | 00:00:00 | |
| DB0UT-7 | 2026-09-01 21:38:45 | 50.76415 | 4.80835 | 55° | 55km/h | 1644m | 3.5m/s | 5.6°C | 84.0% | 838.8hPa | 5.2V | 00:00:00 | 00:45:04 | 00:00:00 |